<?xml version="1.0" encoding="UTF-8" standalone="no" ?>
<gpx xmlns="http://www.topografix.com/GPX/1/1" xmlns:xsi="http://www.w3.org/2001/XMLSchema-instance" xsi:schemaLocation="http://www.topografix.com/GPX/1/1 http://www.topografix.com/GPX/1/1/gpx.xsd" version="1.1" creator="VisuGPX - https://www.visugpx.com">
  <metadata>
    <name>20140902 Moede Anterne Chamonix</name>
    <desc><![CDATA[8 ème étape du circuit du GR5 entre Thonon les bains et Chamonix]]></desc>
  </metadata>
  <trk>
    <name><![CDATA[20140902 Moede Anterne Chamonix_1]]></name>
    <trkseg>
      <trkpt lat="45.97473" lon="6.80034">
        <ele>1997.5</ele>
        <time>2014-09-02T07:35:18Z</time>
      </trkpt>
      <trkpt lat="45.97473" lon="6.80034">
        <ele>1997.5</ele>
        <time>2014-09-02T07:35:23Z</time>
      </trkpt>
      <trkpt lat="45.97473" lon="6.80033">
        <ele>1997.5</ele>
        <time>2014-09-02T07:35:28Z</time>
      </trkpt>
      <trkpt lat="45.9747" lon="6.80032">
        <ele>1997.5</ele>
        <time>2014-09-02T07:35:33Z</time>
      </trkpt>
      <trkpt lat="45.97467" lon="6.80029">
        <ele>1997.5</ele>
        <time>2014-09-02T07:35:38Z</time>
      </trkpt>
      <trkpt lat="45.97463" lon="6.80022">
        <ele>1992.5627</ele>
        <time>2014-09-02T07:35:43Z</time>
      </trkpt>
      <trkpt lat="45.97458" lon="6.80018">
        <ele>1992.5627</ele>
        <time>2014-09-02T07:35:48Z</time>
      </trkpt>
      <trkpt lat="45.97451" lon="6.80014">
        <ele>2001.9635</ele>
        <time>2014-09-02T07:35:53Z</time>
      </trkpt>
      <trkpt lat="45.97445" lon="6.80008">
        <ele>2001.9635</ele>
        <time>2014-09-02T07:35:58Z</time>
      </trkpt>
      <trkpt lat="45.97439" lon="6.80003">
        <ele>2011.4899</ele>
        <time>2014-09-02T07:36:03Z</time>
      </trkpt>
      <trkpt lat="45.97436" lon="6.79998">
        <ele>2011.4899</ele>
        <time>2014-09-02T07:36:08Z</time>
      </trkpt>
      <trkpt lat="45.97431" lon="6.79994">
        <ele>2020.856</ele>
        <time>2014-09-02T07:36:13Z</time>
      </trkpt>
      <trkpt lat="45.97425" lon="6.79992">
        <ele>2020.856</ele>
        <time>2014-09-02T07:36:18Z</time>
      </trkpt>
      <trkpt lat="45.97422" lon="6.7999">
        <ele>2029.8563</ele>
        <time>2014-09-02T07:36:23Z</time>
      </trkpt>
      <trkpt lat="45.97416" lon="6.79986">
        <ele>2029.8563</ele>
        <time>2014-09-02T07:36:28Z</time>
      </trkpt>
      <trkpt lat="45.97411" lon="6.79982">
        <ele>2037.9299</ele>
        <time>2014-09-02T07:36:33Z</time>
      </trkpt>
      <trkpt lat="45.97407" lon="6.79978">
        <ele>2037.9299</ele>
        <time>2014-09-02T07:36:38Z</time>
      </trkpt>
      <trkpt lat="45.97402" lon="6.79974">
        <ele>2044.7859</ele>
        <time>2014-09-02T07:36:43Z</time>
      </trkpt>
      <trkpt lat="45.97398" lon="6.79972">
        <ele>2044.7859</ele>
        <time>2014-09-02T07:36:48Z</time>
      </trkpt>
      <trkpt lat="45.97398" lon="6.79971">
        <ele>2044.7859</ele>
        <time>2014-09-02T07:36:53Z</time>
      </trkpt>
      <trkpt lat="45.97399" lon="6.7997">
        <ele>2044.7859</ele>
        <time>2014-09-02T07:36:58Z</time>
      </trkpt>
      <trkpt lat="45.97399" lon="6.7997">
        <ele>2044.7859</ele>
        <time>2014-09-02T07:37:03Z</time>
      </trkpt>
      <trkpt lat="45.97394" lon="6.79973">
        <ele>2050.4116</ele>
        <time>2014-09-02T07:37:08Z</time>
      </trkpt>
      <trkpt lat="45.97388" lon="6.79974">
        <ele>2050.4116</ele>
        <time>2014-09-02T07:37:13Z</time>
      </trkpt>
      <trkpt lat="45.97382" lon="6.79974">
        <ele>2054.576</ele>
        <time>2014-09-02T07:37:18Z</time>
      </trkpt>
      <trkpt lat="45.97378" lon="6.79972">
        <ele>2054.576</ele>
        <time>2014-09-02T07:37:23Z</time>
      </trkpt>
      <trkpt lat="45.97373" lon="6.79967">
        <ele>2057.098</ele>
        <time>2014-09-02T07:37:28Z</time>
      </trkpt>
      <trkpt lat="45.97369" lon="6.79961">
        <ele>2057.098</ele>
        <time>2014-09-02T07:37:33Z</time>
      </trkpt>
      <trkpt lat="45.97364" lon="6.79958">
        <ele>2058.1218</ele>
        <time>2014-09-02T07:37:38Z</time>
      </trkpt>
      <trkpt lat="45.9736" lon="6.79953">
        <ele>2058.1218</ele>
        <time>2014-09-02T07:37:43Z</time>
      </trkpt>
      <trkpt lat="45.97356" lon="6.79947">
        <ele>2057.8237</ele>
        <time>2014-09-02T07:37:48Z</time>
      </trkpt>
      <trkpt lat="45.97352" lon="6.79943">
        <ele>2057.8237</ele>
        <time>2014-09-02T07:37:53Z</time>
      </trkpt>
      <trkpt lat="45.97347" lon="6.79938">
        <ele>2056.3994</ele>
        <time>2014-09-02T07:37:58Z</time>
      </trkpt>
      <trkpt lat="45.97341" lon="6.79934">
        <ele>2056.3994</ele>
        <time>2014-09-02T07:38:03Z</time>
      </trkpt>
      <trkpt lat="45.97336" lon="6.79932">
        <ele>2054.0662</ele>
        <time>2014-09-02T07:38:08Z</time>
      </trkpt>
      <trkpt lat="45.97329" lon="6.79932">
        <ele>2054.0662</ele>
        <time>2014-09-02T07:38:13Z</time>
      </trkpt>
      <trkpt lat="45.97324" lon="6.79928">
        <ele>2051.0193</ele>
        <time>2014-09-02T07:38:18Z</time>
      </trkpt>
      <trkpt lat="45.9732" lon="6.79924">
        <ele>2051.0193</ele>
        <time>2014-09-02T07:38:23Z</time>
      </trkpt>
      <trkpt lat="45.97317" lon="6.79919">
        <ele>2047.4988</ele>
        <time>2014-09-02T07:38:28Z</time>
      </trkpt>
      <trkpt lat="45.97313" lon="6.79915">
        <ele>2047.4988</ele>
        <time>2014-09-02T07:38:33Z</time>
      </trkpt>
      <trkpt lat="45.97305" lon="6.79913">
        <ele>2043.6411</ele>
        <time>2014-09-02T07:38:38Z</time>
      </trkpt>
      <trkpt lat="45.97298" lon="6.79911">
        <ele>2043.6411</ele>
        <time>2014-09-02T07:38:43Z</time>
      </trkpt>
      <trkpt lat="45.97291" lon="6.79907">
        <ele>2039.6313</ele>
        <time>2014-09-02T07:38:48Z</time>
      </trkpt>
      <trkpt lat="45.97289" lon="6.79902">
        <ele>2039.6313</ele>
        <time>2014-09-02T07:38:53Z</time>
      </trkpt>
      <trkpt lat="45.97283" lon="6.79899">
        <ele>2035.5032</ele>
        <time>2014-09-02T07:38:58Z</time>
      </trkpt>
      <trkpt lat="45.97277" lon="6.79894">
        <ele>2035.5032</ele>
        <time>2014-09-02T07:39:03Z</time>
      </trkpt>
      <trkpt lat="45.97273" lon="6.79889">
        <ele>2031.3325</ele>
        <time>2014-09-02T07:39:08Z</time>
      </trkpt>
      <trkpt lat="45.97268" lon="6.79885">
        <ele>2031.3325</ele>
        <time>2014-09-02T07:39:13Z</time>
      </trkpt>
      <trkpt lat="45.97264" lon="6.7988">
        <ele>2027.2483</ele>
        <time>2014-09-02T07:39:18Z</time>
      </trkpt>
      <trkpt lat="45.9726" lon="6.79875">
        <ele>2027.2483</ele>
        <time>2014-09-02T07:39:23Z</time>
      </trkpt>
      <trkpt lat="45.97254" lon="6.7987">
        <ele>2023.1832</ele>
        <time>2014-09-02T07:39:28Z</time>
      </trkpt>
      <trkpt lat="45.9725" lon="6.79867">
        <ele>2023.1832</ele>
        <time>2014-09-02T07:39:33Z</time>
      </trkpt>
      <trkpt lat="45.97247" lon="6.79863">
        <ele>2023.1832</ele>
        <time>2014-09-02T07:39:38Z</time>
      </trkpt>
      <trkpt lat="45.97244" lon="6.79859">
        <ele>2018.9934</ele>
        <time>2014-09-02T07:39:43Z</time>
      </trkpt>
      <trkpt lat="45.97238" lon="6.79856">
        <ele>2018.9934</ele>
        <time>2014-09-02T07:39:48Z</time>
      </trkpt>
      <trkpt lat="45.97232" lon="6.79855">
        <ele>2014.7969</ele>
        <time>2014-09-02T07:39:53Z</time>
      </trkpt>
      <trkpt lat="45.97227" lon="6.79853">
        <ele>2014.7969</ele>
        <time>2014-09-02T07:39:58Z</time>
      </trkpt>
      <trkpt lat="45.97222" lon="6.79853">
        <ele>2010.574</ele>
        <time>2014-09-02T07:40:03Z</time>
      </trkpt>
      <trkpt lat="45.97217" lon="6.79857">
        <ele>2010.574</ele>
        <time>2014-09-02T07:40:08Z</time>
      </trkpt>
      <trkpt lat="45.97213" lon="6.79861">
        <ele>2006.346</ele>
        <time>2014-09-02T07:40:13Z</time>
      </trkpt>
      <trkpt lat="45.97209" lon="6.79869">
        <ele>2006.346</ele>
        <time>2014-09-02T07:40:18Z</time>
      </trkpt>
      <trkpt lat="45.97206" lon="6.79879">
        <ele>2002.2987</ele>
        <time>2014-09-02T07:40:23Z</time>
      </trkpt>
      <trkpt lat="45.97207" lon="6.79886">
        <ele>2002.2987</ele>
        <time>2014-09-02T07:40:28Z</time>
      </trkpt>
      <trkpt lat="45.97207" lon="6.7989">
        <ele>2002.2987</ele>
        <time>2014-09-02T07:40:33Z</time>
      </trkpt>
      <trkpt lat="45.97206" lon="6.7989">
        <ele>2002.2987</ele>
        <time>2014-09-02T07:40:38Z</time>
      </trkpt>
      <trkpt lat="45.97207" lon="6.79891">
        <ele>2002.2987</ele>
        <time>2014-09-02T07:40:43Z</time>
      </trkpt>
      <trkpt lat="45.97208" lon="6.79891">
        <ele>1998.3003</ele>
        <time>2014-09-02T07:40:48Z</time>
      </trkpt>
      <trkpt lat="45.9721" lon="6.79904">
        <ele>1998.3003</ele>
        <time>2014-09-02T07:40:53Z</time>
      </trkpt>
      <trkpt lat="45.97211" lon="6.79906">
        <ele>1994.4552</ele>
        <time>2014-09-02T07:40:58Z</time>
      </trkpt>
      <trkpt lat="45.9721" lon="6.79911">
        <ele>1994.4552</ele>
        <time>2014-09-02T07:41:03Z</time>
      </trkpt>
      <trkpt lat="45.97207" lon="6.79919">
        <ele>1990.6776</ele>
        <time>2014-09-02T07:41:08Z</time>
      </trkpt>
      <trkpt lat="45.97204" lon="6.79924">
        <ele>1990.6776</ele>
        <time>2014-09-02T07:41:13Z</time>
      </trkpt>
      <trkpt lat="45.97199" lon="6.79929">
        <ele>1986.9319</ele>
        <time>2014-09-02T07:41:18Z</time>
      </trkpt>
      <trkpt lat="45.97195" lon="6.79932">
        <ele>1986.9319</ele>
        <time>2014-09-02T07:41:23Z</time>
      </trkpt>
      <trkpt lat="45.97191" lon="6.79934">
        <ele>1983.1176</ele>
        <time>2014-09-02T07:41:28Z</time>
      </trkpt>
      <trkpt lat="45.97185" lon="6.79935">
        <ele>1983.1176</ele>
        <time>2014-09-02T07:41:33Z</time>
      </trkpt>
      <trkpt lat="45.97179" lon="6.79937">
        <ele>1979.2406</ele>
        <time>2014-09-02T07:41:38Z</time>
      </trkpt>
      <trkpt lat="45.97174" lon="6.7994">
        <ele>1979.2406</ele>
        <time>2014-09-02T07:41:43Z</time>
      </trkpt>
      <trkpt lat="45.97171" lon="6.79947">
        <ele>1975.3782</ele>
        <time>2014-09-02T07:41:48Z</time>
      </trkpt>
      <trkpt lat="45.9717" lon="6.79955">
        <ele>1975.3782</ele>
        <time>2014-09-02T07:41:53Z</time>
      </trkpt>
      <trkpt lat="45.9717" lon="6.79962">
        <ele>1971.5067</ele>
        <time>2014-09-02T07:41:58Z</time>
      </trkpt>
      <trkpt lat="45.97171" lon="6.79972">
        <ele>1971.5067</ele>
        <time>2014-09-02T07:42:03Z</time>
      </trkpt>
      <trkpt lat="45.97172" lon="6.7998">
        <ele>1967.6769</ele>
        <time>2014-09-02T07:42:08Z</time>
      </trkpt>
      <trkpt lat="45.97175" lon="6.79987">
        <ele>1967.6769</ele>
        <time>2014-09-02T07:42:13Z</time>
      </trkpt>
      <trkpt lat="45.97178" lon="6.79996">
        <ele>1963.9382</ele>
        <time>2014-09-02T07:42:18Z</time>
      </trkpt>
      <trkpt lat="45.97181" lon="6.80004">
        <ele>1963.9382</ele>
        <time>2014-09-02T07:42:23Z</time>
      </trkpt>
      <trkpt lat="45.97184" lon="6.8001">
        <ele>1960.283</ele>
        <time>2014-09-02T07:42:28Z</time>
      </trkpt>
      <trkpt lat="45.97188" lon="6.80019">
        <ele>1960.283</ele>
        <time>2014-09-02T07:42:33Z</time>
      </trkpt>
      <trkpt lat="45.97192" lon="6.80025">
        <ele>1956.6904</ele>
        <time>2014-09-02T07:42:38Z</time>
      </trkpt>
      <trkpt lat="45.97195" lon="6.8003">
        <ele>1956.6904</ele>
        <time>2014-09-02T07:42:43Z</time>
      </trkpt>
      <trkpt lat="45.97196" lon="6.80038">
        <ele>1953.2714</ele>
        <time>2014-09-02T07:42:48Z</time>
      </trkpt>
      <trkpt lat="45.97199" lon="6.80045">
        <ele>1953.2714</ele>
        <time>2014-09-02T07:42:53Z</time>
      </trkpt>
      <trkpt lat="45.97201" lon="6.80049">
        <ele>1949.986</ele>
        <time>2014-09-02T07:42:58Z</time>
      </trkpt>
      <trkpt lat="45.97202" lon="6.80055">
        <ele>1949.986</ele>
        <time>2014-09-02T07:43:03Z</time>
      </trkpt>
      <trkpt lat="45.97203" lon="6.80065">
        <ele>1946.767</ele>
        <time>2014-09-02T07:43:08Z</time>
      </trkpt>
      <trkpt lat="45.97206" lon="6.80075">
        <ele>1946.767</ele>
        <time>2014-09-02T07:43:13Z</time>
      </trkpt>
      <trkpt lat="45.97211" lon="6.80083">
        <ele>1943.5646</ele>
        <time>2014-09-02T07:43:18Z</time>
      </trkpt>
      <trkpt lat="45.97215" lon="6.80088">
        <ele>1943.5646</ele>
        <time>2014-09-02T07:43:23Z</time>
      </trkpt>
      <trkpt lat="45.97219" lon="6.80093">
        <ele>1940.4196</ele>
        <time>2014-09-02T07:43:28Z</time>
      </trkpt>
      <trkpt lat="45.97222" lon="6.80099">
        <ele>1940.4196</ele>
        <time>2014-09-02T07:43:33Z</time>
      </trkpt>
      <trkpt lat="45.97225" lon="6.80105">
        <ele>1937.355</ele>
        <time>2014-09-02T07:43:38Z</time>
      </trkpt>
      <trkpt lat="45.97225" lon="6.80111">
        <ele>1937.355</ele>
        <time>2014-09-02T07:43:43Z</time>
      </trkpt>
      <trkpt lat="45.97225" lon="6.80122">
        <ele>1934.4954</ele>
        <time>2014-09-02T07:43:48Z</time>
      </trkpt>
      <trkpt lat="45.97225" lon="6.80135">
        <ele>1931.8065</ele>
        <time>2014-09-02T07:43:53Z</time>
      </trkpt>
      <trkpt lat="45.97225" lon="6.80142">
        <ele>1931.8065</ele>
        <time>2014-09-02T07:43:58Z</time>
      </trkpt>
      <trkpt lat="45.97226" lon="6.80146">
        <ele>1931.8065</ele>
        <time>2014-09-02T07:44:03Z</time>
      </trkpt>
      <trkpt lat="45.97229" lon="6.80156">
        <ele>1929.2095</ele>
        <time>2014-09-02T07:44:08Z</time>
      </trkpt>
      <trkpt lat="45.97232" lon="6.80165">
        <ele>1929.2095</ele>
        <time>2014-09-02T07:44:13Z</time>
      </trkpt>
      <trkpt lat="45.97235" lon="6.80172">
        <ele>1926.8097</ele>
        <time>2014-09-02T07:44:18Z</time>
      </trkpt>
      <trkpt lat="45.97236" lon="6.80175">
        <ele>1926.8097</ele>
        <time>2014-09-02T07:44:23Z</time>
      </trkpt>
      <trkpt lat="45.97237" lon="6.80182">
        <ele>1926.8097</ele>
        <time>2014-09-02T07:44:28Z</time>
      </trkpt>
      <trkpt lat="45.97239" lon="6.8019">
        <ele>1924.3572</ele>
        <time>2014-09-02T07:44:33Z</time>
      </trkpt>
      <trkpt lat="45.9724" lon="6.80194">
        <ele>1924.3572</ele>
        <time>2014-09-02T07:44:38Z</time>
      </trkpt>
      <trkpt lat="45.97241" lon="6.80202">
        <ele>1924.3572</ele>
        <time>2014-09-02T07:44:43Z</time>
      </trkpt>
      <trkpt lat="45.97244" lon="6.80211">
        <ele>1922.1924</ele>
        <time>2014-09-02T07:44:48Z</time>
      </trkpt>
      <trkpt lat="45.97246" lon="6.80218">
        <ele>1922.1924</ele>
        <time>2014-09-02T07:44:53Z</time>
      </trkpt>
      <trkpt lat="45.9725" lon="6.80228">
        <ele>1920.2065</ele>
        <time>2014-09-02T07:44:58Z</time>
      </trkpt>
      <trkpt lat="45.97251" lon="6.8023">
        <ele>1920.2065</ele>
        <time>2014-09-02T07:45:03Z</time>
      </trkpt>
      <trkpt lat="45.97252" lon="6.80239">
        <ele>1920.2065</ele>
        <time>2014-09-02T07:45:08Z</time>
      </trkpt>
      <trkpt lat="45.97252" lon="6.80247">
        <ele>1918.2524</ele>
        <time>2014-09-02T07:45:13Z</time>
      </trkpt>
      <trkpt lat="45.97251" lon="6.80254">
        <ele>1918.2524</ele>
        <time>2014-09-02T07:45:18Z</time>
      </trkpt>
      <trkpt lat="45.97251" lon="6.80262">
        <ele>1916.42</ele>
        <time>2014-09-02T07:45:23Z</time>
      </trkpt>
      <trkpt lat="45.97254" lon="6.8027">
        <ele>1916.42</ele>
        <time>2014-09-02T07:45:28Z</time>
      </trkpt>
      <trkpt lat="45.97256" lon="6.80275">
        <ele>1914.6405</ele>
        <time>2014-09-02T07:45:33Z</time>
      </trkpt>
      <trkpt lat="45.97258" lon="6.80282">
        <ele>1914.6405</ele>
        <time>2014-09-02T07:45:38Z</time>
      </trkpt>
      <trkpt lat="45.97258" lon="6.80288">
        <ele>1913.0161</ele>
        <time>2014-09-02T07:45:43Z</time>
      </trkpt>
      <trkpt lat="45.97258" lon="6.80297">
        <ele>1913.0161</ele>
        <time>2014-09-02T07:45:48Z</time>
      </trkpt>
      <trkpt lat="45.9726" lon="6.80305">
        <ele>1911.5347</ele>
        <time>2014-09-02T07:45:53Z</time>
      </trkpt>
      <trkpt lat="45.97263" lon="6.80313">
        <ele>1911.5347</ele>
        <time>2014-09-02T07:45:58Z</time>
      </trkpt>
      <trkpt lat="45.97265" lon="6.8032">
        <ele>1910.0645</ele>
        <time>2014-09-02T07:46:03Z</time>
      </trkpt>
      <trkpt lat="45.97267" lon="6.80325">
        <ele>1910.0645</ele>
        <time>2014-09-02T07:46:08Z</time>
      </trkpt>
      <trkpt lat="45.97268" lon="6.80329">
        <ele>1910.0645</ele>
        <time>2014-09-02T07:46:13Z</time>
      </trkpt>
      <trkpt lat="45.97268" lon="6.8033">
        <ele>1910.0645</ele>
        <time>2014-09-02T07:46:18Z</time>
      </trkpt>
      <trkpt lat="45.97268" lon="6.80332">
        <ele>1910.0645</ele>
        <time>2014-09-02T07:46:23Z</time>
      </trkpt>
      <trkpt lat="45.97268" lon="6.80331">
        <ele>1908.679</ele>
        <time>2014-09-02T07:46:28Z</time>
      </trkpt>
      <trkpt lat="45.97268" lon="6.80331">
        <ele>1908.679</ele>
        <time>2014-09-02T07:46:33Z</time>
      </trkpt>
      <trkpt lat="45.97268" lon="6.80331">
        <ele>1908.679</ele>
        <time>2014-09-02T07:46:38Z</time>
      </trkpt>
      <trkpt lat="45.97269" lon="6.80331">
        <ele>1908.679</ele>
        <time>2014-09-02T07:46:43Z</time>
      </trkpt>
      <trkpt lat="45.97269" lon="6.80332">
        <ele>1908.679</ele>
        <time>2014-09-02T07:46:48Z</time>
      </trkpt>
      <trkpt lat="45.97268" lon="6.80332">
        <ele>1908.679</ele>
        <time>2014-09-02T07:46:53Z</time>
      </trkpt>
      <trkpt lat="45.97267" lon="6.80332">
        <ele>1908.679</ele>
        <time>2014-09-02T07:46:58Z</time>
      </trkpt>
      <trkpt lat="45.97267" lon="6.80332">
        <ele>1908.679</ele>
        <time>2014-09-02T07:47:03Z</time>
      </trkpt>
      <trkpt lat="45.97266" lon="6.80332">
        <ele>1908.679</ele>
        <time>2014-09-02T07:47:08Z</time>
      </trkpt>
      <trkpt lat="45.97265" lon="6.80332">
        <ele>1908.679</ele>
        <time>2014-09-02T07:47:13Z</time>
      </trkpt>
      <trkpt lat="45.97262" lon="6.80333">
        <ele>1908.679</ele>
        <time>2014-09-02T07:47:18Z</time>
      </trkpt>
      <trkpt lat="45.97258" lon="6.80335">
        <ele>1907.3558</ele>
        <time>2014-09-02T07:47:23Z</time>
      </trkpt>
      <trkpt lat="45.97255" lon="6.80339">
        <ele>1907.3558</ele>
        <time>2014-09-02T07:47:28Z</time>
      </trkpt>
      <trkpt lat="45.97251" lon="6.80346">
        <ele>1906.2086</ele>
        <time>2014-09-02T07:47:33Z</time>
      </trkpt>
      <trkpt lat="45.97248" lon="6.80349">
        <ele>1906.2086</ele>
        <time>2014-09-02T07:47:38Z</time>
      </trkpt>
      <trkpt lat="45.97249" lon="6.80357">
        <ele>1905.1471</ele>
        <time>2014-09-02T07:47:43Z</time>
      </trkpt>
      <trkpt lat="45.97248" lon="6.80362">
        <ele>1905.1471</ele>
        <time>2014-09-02T07:47:48Z</time>
      </trkpt>
      <trkpt lat="45.97248" lon="6.80373">
        <ele>1904.0298</ele>
        <time>2014-09-02T07:47:53Z</time>
      </trkpt>
      <trkpt lat="45.97246" lon="6.80379">
        <ele>1904.0298</ele>
        <time>2014-09-02T07:47:58Z</time>
      </trkpt>
      <trkpt lat="45.97242" lon="6.80387">
        <ele>1902.9188</ele>
        <time>2014-09-02T07:48:03Z</time>
      </trkpt>
      <trkpt lat="45.97237" lon="6.80395">
        <ele>1902.9188</ele>
        <time>2014-09-02T07:48:08Z</time>
      </trkpt>
      <trkpt lat="45.97235" lon="6.80401">
        <ele>1901.9011</ele>
        <time>2014-09-02T07:48:13Z</time>
      </trkpt>
      <trkpt lat="45.97231" lon="6.80406">
        <ele>1901.9011</ele>
        <time>2014-09-02T07:48:18Z</time>
      </trkpt>
      <trkpt lat="45.97229" lon="6.8041">
        <ele>1901.9011</ele>
        <time>2014-09-02T07:48:23Z</time>
      </trkpt>
      <trkpt lat="45.97226" lon="6.80417">
        <ele>1900.7467</ele>
        <time>2014-09-02T07:48:28Z</time>
      </trkpt>
      <trkpt lat="45.97224" lon="6.80422">
        <ele>1900.7467</ele>
        <time>2014-09-02T07:48:33Z</time>
      </trkpt>
      <trkpt lat="45.97221" lon="6.80425">
        <ele>1900.7467</ele>
        <time>2014-09-02T07:48:38Z</time>
      </trkpt>
      <trkpt lat="45.97217" lon="6.80429">
        <ele>1899.5095</ele>
        <time>2014-09-02T07:48:43Z</time>
      </trkpt>
      <trkpt lat="45.97216" lon="6.80437">
        <ele>1899.5095</ele>
        <time>2014-09-02T07:48:48Z</time>
      </trkpt>
      <trkpt lat="45.97215" lon="6.80443">
        <ele>1898.1367</ele>
        <time>2014-09-02T07:48:53Z</time>
      </trkpt>
      <trkpt lat="45.97212" lon="6.80448">
        <ele>1898.1367</ele>
        <time>2014-09-02T07:48:58Z</time>
      </trkpt>
      <trkpt lat="45.97209" lon="6.80452">
        <ele>1898.1367</ele>
        <time>2014-09-02T07:49:03Z</time>
      </trkpt>
      <trkpt lat="45.97205" lon="6.80454">
        <ele>1896.6528</ele>
        <time>2014-09-02T07:49:08Z</time>
      </trkpt>
      <trkpt lat="45.972" lon="6.80458">
        <ele>1896.6528</ele>
        <time>2014-09-02T07:49:13Z</time>
      </trkpt>
      <trkpt lat="45.97194" lon="6.80462">
        <ele>1895.0663</ele>
        <time>2014-09-02T07:49:18Z</time>
      </trkpt>
      <trkpt lat="45.9719" lon="6.80469">
        <ele>1895.0663</ele>
        <time>2014-09-02T07:49:23Z</time>
      </trkpt>
      <trkpt lat="45.97189" lon="6.80477">
        <ele>1893.516</ele>
        <time>2014-09-02T07:49:28Z</time>
      </trkpt>
      <trkpt lat="45.97188" lon="6.80486">
        <ele>1893.516</ele>
        <time>2014-09-02T07:49:33Z</time>
      </trkpt>
      <trkpt lat="45.97184" lon="6.80493">
        <ele>1891.9988</ele>
        <time>2014-09-02T07:49:38Z</time>
      </trkpt>
      <trkpt lat="45.97181" lon="6.80499">
        <ele>1891.9988</ele>
        <time>2014-09-02T07:49:43Z</time>
      </trkpt>
      <trkpt lat="45.9718" lon="6.80505">
        <ele>1890.526</ele>
        <time>2014-09-02T07:49:48Z</time>
      </trkpt>
      <trkpt lat="45.97178" lon="6.80516">
        <ele>1890.526</ele>
        <time>2014-09-02T07:49:53Z</time>
      </trkpt>
      <trkpt lat="45.97176" lon="6.80522">
        <ele>1889.0065</ele>
        <time>2014-09-02T07:49:58Z</time>
      </trkpt>
      <trkpt lat="45.97172" lon="6.80528">
        <ele>1889.0065</ele>
        <time>2014-09-02T07:50:03Z</time>
      </trkpt>
      <trkpt lat="45.97169" lon="6.80532">
        <ele>1887.4578</ele>
        <time>2014-09-02T07:50:08Z</time>
      </trkpt>
      <trkpt lat="45.97166" lon="6.80538">
        <ele>1887.4578</ele>
        <time>2014-09-02T07:50:13Z</time>
      </trkpt>
      <trkpt lat="45.97164" lon="6.80544">
        <ele>1885.8672</ele>
        <time>2014-09-02T07:50:18Z</time>
      </trkpt>
      <trkpt lat="45.97163" lon="6.80548">
        <ele>1885.8672</ele>
        <time>2014-09-02T07:50:23Z</time>
      </trkpt>
      <trkpt lat="45.9716" lon="6.80553">
        <ele>1885.8672</ele>
        <time>2014-09-02T07:50:28Z</time>
      </trkpt>
      <trkpt lat="45.97158" lon="6.80557">
        <ele>1884.1216</ele>
        <time>2014-09-02T07:50:33Z</time>
      </trkpt>
      <trkpt lat="45.97157" lon="6.80563">
        <ele>1884.1216</ele>
        <time>2014-09-02T07:50:38Z</time>
      </trkpt>
      <trkpt lat="45.97158" lon="6.80567">
        <ele>1884.1216</ele>
        <time>2014-09-02T07:50:43Z</time>
      </trkpt>
      <trkpt lat="45.97157" lon="6.8057">
        <ele>1882.4204</ele>
        <time>2014-09-02T07:50:48Z</time>
      </trkpt>
      <trkpt lat="45.97153" lon="6.80578">
        <ele>1882.4204</ele>
        <time>2014-09-02T07:50:53Z</time>
      </trkpt>
      <trkpt lat="45.9715" lon="6.80587">
        <ele>1880.8903</ele>
        <time>2014-09-02T07:50:58Z</time>
      </trkpt>
      <trkpt lat="45.9715" lon="6.80595">
        <ele>1880.8903</ele>
        <time>2014-09-02T07:51:03Z</time>
      </trkpt>
      <trkpt lat="45.97149" lon="6.80601">
        <ele>1879.4741</ele>
        <time>2014-09-02T07:51:08Z</time>
      </trkpt>
      <trkpt lat="45.97148" lon="6.80611">
        <ele>1879.4741</ele>
        <time>2014-09-02T07:51:13Z</time>
      </trkpt>
      <trkpt lat="45.97149" lon="6.80617">
        <ele>1878.1337</ele>
        <time>2014-09-02T07:51:18Z</time>
      </trkpt>
      <trkpt lat="45.97148" lon="6.80624">
        <ele>1878.1337</ele>
        <time>2014-09-02T07:51:23Z</time>
      </trkpt>
      <trkpt lat="45.97147" lon="6.80629">
        <ele>1878.1337</ele>
        <time>2014-09-02T07:51:28Z</time>
      </trkpt>
      <trkpt lat="45.97147" lon="6.80637">
        <ele>1876.8187</ele>
        <time>2014-09-02T07:51:33Z</time>
      </trkpt>
      <trkpt lat="45.97146" lon="6.80643">
        <ele>1876.8187</ele>
        <time>2014-09-02T07:51:38Z</time>
      </trkpt>
      <trkpt lat="45.97142" lon="6.80651">
        <ele>1875.6271</ele>
        <time>2014-09-02T07:51:43Z</time>
      </trkpt>
      <trkpt lat="45.97138" lon="6.8066">
        <ele>1875.6271</ele>
        <time>2014-09-02T07:51:48Z</time>
      </trkpt>
      <trkpt lat="45.97139" lon="6.8067">
        <ele>1874.6055</ele>
        <time>2014-09-02T07:51:53Z</time>
      </trkpt>
      <trkpt lat="45.97138" lon="6.80675">
        <ele>1874.6055</ele>
        <time>2014-09-02T07:51:58Z</time>
      </trkpt>
      <trkpt lat="45.97137" lon="6.80684">
        <ele>1873.5951</ele>
        <time>2014-09-02T07:52:03Z</time>
      </trkpt>
      <trkpt lat="45.97135" lon="6.80692">
        <ele>1873.5951</ele>
        <time>2014-09-02T07:52:08Z</time>
      </trkpt>
      <trkpt lat="45.97132" lon="6.80697">
        <ele>1872.7083</ele>
        <time>2014-09-02T07:52:13Z</time>
      </trkpt>
      <trkpt lat="45.9713" lon="6.80703">
        <ele>1872.7083</ele>
        <time>2014-09-02T07:52:18Z</time>
      </trkpt>
      <trkpt lat="45.97126" lon="6.80707">
        <ele>1872.7083</ele>
        <time>2014-09-02T07:52:23Z</time>
      </trkpt>
      <trkpt lat="45.97122" lon="6.80707">
        <ele>1871.8612</ele>
        <time>2014-09-02T07:52:28Z</time>
      </trkpt>
      <trkpt lat="45.97115" lon="6.80711">
        <ele>1871.8612</ele>
        <time>2014-09-02T07:52:33Z</time>
      </trkpt>
      <trkpt lat="45.97112" lon="6.80716">
        <ele>1871.0774</ele>
        <time>2014-09-02T07:52:38Z</time>
      </trkpt>
      <trkpt lat="45.9711" lon="6.80722">
        <ele>1871.0774</ele>
        <time>2014-09-02T07:52:43Z</time>
      </trkpt>
      <trkpt lat="45.97108" lon="6.80731">
        <ele>1870.2339</ele>
        <time>2014-09-02T07:52:48Z</time>
      </trkpt>
      <trkpt lat="45.97103" lon="6.80738">
        <ele>1870.2339</ele>
        <time>2014-09-02T07:52:53Z</time>
      </trkpt>
      <trkpt lat="45.971" lon="6.80743">
        <ele>1869.4047</ele>
        <time>2014-09-02T07:52:58Z</time>
      </trkpt>
      <trkpt lat="45.97096" lon="6.80752">
        <ele>1869.4047</ele>
        <time>2014-09-02T07:53:03Z</time>
      </trkpt>
      <trkpt lat="45.97094" lon="6.8076">
        <ele>1868.5573</ele>
        <time>2014-09-02T07:53:08Z</time>
      </trkpt>
      <trkpt lat="45.9709" lon="6.80765">
        <ele>1868.5573</ele>
        <time>2014-09-02T07:53:13Z</time>
      </trkpt>
      <trkpt lat="45.97088" lon="6.80774">
        <ele>1867.777</ele>
        <time>2014-09-02T07:53:18Z</time>
      </trkpt>
      <trkpt lat="45.97087" lon="6.80778">
        <ele>1867.777</ele>
        <time>2014-09-02T07:53:23Z</time>
      </trkpt>
      <trkpt lat="45.97085" lon="6.80786">
        <ele>1867.0419</ele>
        <time>2014-09-02T07:53:28Z</time>
      </trkpt>
      <trkpt lat="45.97085" lon="6.80797">
        <ele>1867.0419</ele>
        <time>2014-09-02T07:53:33Z</time>
      </trkpt>
      <trkpt lat="45.97086" lon="6.80804">
        <ele>1866.2738</ele>
        <time>2014-09-02T07:53:38Z</time>
      </trkpt>
      <trkpt lat="45.97088" lon="6.80811">
        <ele>1866.2738</ele>
        <time>2014-09-02T07:53:43Z</time>
      </trkpt>
      <trkpt lat="45.97089" lon="6.80818">
        <ele>1865.5592</ele>
        <time>2014-09-02T07:53:48Z</time>
      </trkpt>
      <trkpt lat="45.97089" lon="6.80825">
        <ele>1865.5592</ele>
        <time>2014-09-02T07:53:53Z</time>
      </trkpt>
      <trkpt lat="45.97089" lon="6.8083">
        <ele>1865.5592</ele>
        <time>2014-09-02T07:53:58Z</time>
      </trkpt>
      <trkpt lat="45.97087" lon="6.80834">
        <ele>1864.8193</ele>
        <time>2014-09-02T07:54:03Z</time>
      </trkpt>
      <trkpt lat="45.97087" lon="6.80839">
        <ele>1864.8193</ele>
        <time>2014-09-02T07:54:08Z</time>
      </trkpt>
      <trkpt lat="45.97086" lon="6.80848">
        <ele>1864.0824</ele>
        <time>2014-09-02T07:54:13Z</time>
      </trkpt>
      <trkpt lat="45.97084" lon="6.80855">
        <ele>1864.0824</ele>
        <time>2014-09-02T07:54:18Z</time>
      </trkpt>
      <trkpt lat="45.97081" lon="6.80861">
        <ele>1863.2015</ele>
        <time>2014-09-02T07:54:23Z</time>
      </trkpt>
      <trkpt lat="45.9708" lon="6.80867">
        <ele>1863.2015</ele>
        <time>2014-09-02T07:54:28Z</time>
      </trkpt>
      <trkpt lat="45.97078" lon="6.80872">
        <ele>1863.2015</ele>
        <time>2014-09-02T07:54:33Z</time>
      </trkpt>
      <trkpt lat="45.97078" lon="6.80872">
        <ele>1863.2015</ele>
        <time>2014-09-02T07:54:38Z</time>
      </trkpt>
      <trkpt lat="45.97078" lon="6.80875">
        <ele>1862.4594</ele>
        <time>2014-09-02T07:55:03Z</time>
      </trkpt>
      <trkpt lat="45.97075" lon="6.8088">
        <ele>1862.4594</ele>
        <time>2014-09-02T07:55:08Z</time>
      </trkpt>
      <trkpt lat="45.97072" lon="6.80886">
        <ele>1861.7136</ele>
        <time>2014-09-02T07:55:13Z</time>
      </trkpt>
      <trkpt lat="45.97072" lon="6.80892">
        <ele>1861.7136</ele>
        <time>2014-09-02T07:55:18Z</time>
      </trkpt>
      <trkpt lat="45.97073" lon="6.809">
        <ele>1860.9624</ele>
        <time>2014-09-02T07:55:23Z</time>
      </trkpt>
      <trkpt lat="45.97076" lon="6.80907">
        <ele>1860.9624</ele>
        <time>2014-09-02T07:55:28Z</time>
      </trkpt>
      <trkpt lat="45.97079" lon="6.8091">
        <ele>1860.9624</ele>
        <time>2014-09-02T07:55:33Z</time>
      </trkpt>
      <trkpt lat="45.97083" lon="6.80912">
        <ele>1859.8577</ele>
        <time>2014-09-02T07:55:38Z</time>
      </trkpt>
      <trkpt lat="45.97086" lon="6.80916">
        <ele>1859.8577</ele>
        <time>2014-09-02T07:55:43Z</time>
      </trkpt>
      <trkpt lat="45.97087" lon="6.80923">
        <ele>1858.6409</ele>
        <time>2014-09-02T07:55:48Z</time>
      </trkpt>
      <trkpt lat="45.97087" lon="6.80923">
        <ele>1858.6409</ele>
        <time>2014-09-02T07:55:53Z</time>
      </trkpt>
      <trkpt lat="45.97091" lon="6.8093">
        <ele>1858.6409</ele>
        <time>2014-09-02T07:55:58Z</time>
      </trkpt>
      <trkpt lat="45.97095" lon="6.80935">
        <ele>1857.1897</ele>
        <time>2014-09-02T07:56:03Z</time>
      </trkpt>
      <trkpt lat="45.97096" lon="6.80939">
        <ele>1857.1897</ele>
        <time>2014-09-02T07:56:08Z</time>
      </trkpt>
      <trkpt lat="45.971" lon="6.80944">
        <ele>1857.1897</ele>
        <time>2014-09-02T07:56:13Z</time>
      </trkpt>
      <trkpt lat="45.97102" lon="6.80949">
        <ele>1855.565</ele>
        <time>2014-09-02T07:56:18Z</time>
      </trkpt>
      <trkpt lat="45.97102" lon="6.8095">
        <ele>1855.565</ele>
        <time>2014-09-02T07:56:23Z</time>
      </trkpt>
      <trkpt lat="45.97104" lon="6.80957">
        <ele>1855.565</ele>
        <time>2014-09-02T07:56:28Z</time>
      </trkpt>
      <trkpt lat="45.97108" lon="6.80963">
        <ele>1853.6787</ele>
        <time>2014-09-02T07:56:33Z</time>
      </trkpt>
      <trkpt lat="45.97111" lon="6.80967">
        <ele>1853.6787</ele>
        <time>2014-09-02T07:56:38Z</time>
      </trkpt>
      <trkpt lat="45.97114" lon="6.80972">
        <ele>1853.6787</ele>
        <time>2014-09-02T07:56:43Z</time>
      </trkpt>
      <trkpt lat="45.97116" lon="6.80975">
        <ele>1851.7106</ele>
        <time>2014-09-02T07:56:48Z</time>
      </trkpt>
      <trkpt lat="45.97119" lon="6.80984">
        <ele>1851.7106</ele>
        <time>2014-09-02T07:56:53Z</time>
      </trkpt>
      <trkpt lat="45.97122" lon="6.80994">
        <ele>1849.7836</ele>
        <time>2014-09-02T07:56:58Z</time>
      </trkpt>
      <trkpt lat="45.97125" lon="6.80998">
        <ele>1849.7836</ele>
        <time>2014-09-02T07:57:03Z</time>
      </trkpt>
      <trkpt lat="45.97127" lon="6.81004">
        <ele>1849.7836</ele>
        <time>2014-09-02T07:57:08Z</time>
      </trkpt>
      <trkpt lat="45.9713" lon="6.81009">
        <ele>1847.8097</ele>
        <time>2014-09-02T07:57:13Z</time>
      </trkpt>
      <trkpt lat="45.97133" lon="6.81015">
        <ele>1847.8097</ele>
        <time>2014-09-02T07:57:18Z</time>
      </trkpt>
      <trkpt lat="45.97134" lon="6.81018">
        <ele>1847.8097</ele>
        <time>2014-09-02T07:57:23Z</time>
      </trkpt>
      <trkpt lat="45.97135" lon="6.81019">
        <ele>1847.8097</ele>
        <time>2014-09-02T07:57:28Z</time>
      </trkpt>
      <trkpt lat="45.97138" lon="6.81022">
        <ele>1845.823</ele>
        <time>2014-09-02T07:57:33Z</time>
      </trkpt>
      <trkpt lat="45.9714" lon="6.81025">
        <ele>1845.823</ele>
        <time>2014-09-02T07:57:38Z</time>
      </trkpt>
      <trkpt lat="45.9714" lon="6.81029">
        <ele>1845.823</ele>
        <time>2014-09-02T07:57:43Z</time>
      </trkpt>
      <trkpt lat="45.97141" lon="6.81034">
        <ele>1843.7542</ele>
        <time>2014-09-02T07:57:48Z</time>
      </trkpt>
      <trkpt lat="45.97141" lon="6.81041">
        <ele>1843.7542</ele>
        <time>2014-09-02T07:57:53Z</time>
      </trkpt>
      <trkpt lat="45.97143" lon="6.81048">
        <ele>1841.8564</ele>
        <time>2014-09-02T07:57:58Z</time>
      </trkpt>
      <trkpt lat="45.97145" lon="6.81053">
        <ele>1841.8564</ele>
        <time>2014-09-02T07:58:03Z</time>
      </trkpt>
      <trkpt lat="45.97144" lon="6.81057">
        <ele>1841.8564</ele>
        <time>2014-09-02T07:58:08Z</time>
      </trkpt>
      <trkpt lat="45.97144" lon="6.81057">
        <ele>1841.8564</ele>
        <time>2014-09-02T07:58:13Z</time>
      </trkpt>
      <trkpt lat="45.97145" lon="6.81063">
        <ele>1839.7728</ele>
        <time>2014-09-02T07:58:33Z</time>
      </trkpt>
      <trkpt lat="45.97148" lon="6.81072">
        <ele>1839.7728</ele>
        <time>2014-09-02T07:58:38Z</time>
      </trkpt>
      <trkpt lat="45.97152" lon="6.81081">
        <ele>1837.7642</ele>
        <time>2014-09-02T07:58:43Z</time>
      </trkpt>
      <trkpt lat="45.97152" lon="6.81083">
        <ele>1837.7642</ele>
        <time>2014-09-02T07:58:48Z</time>
      </trkpt>
      <trkpt lat="45.97152" lon="6.81083">
        <ele>1837.7642</ele>
        <time>2014-09-02T07:58:53Z</time>
      </trkpt>
      <trkpt lat="45.97154" lon="6.81087">
        <ele>1837.7642</ele>
        <time>2014-09-02T07:58:58Z</time>
      </trkpt>
      <trkpt lat="45.97155" lon="6.81095">
        <ele>1835.6826</ele>
        <time>2014-09-02T07:59:03Z</time>
      </trkpt>
      <trkpt lat="45.97155" lon="6.81105">
        <ele>1835.6826</ele>
        <time>2014-09-02T07:59:08Z</time>
      </trkpt>
      <trkpt lat="45.97154" lon="6.8111">
        <ele>1833.6655</ele>
        <time>2014-09-02T07:59:13Z</time>
      </trkpt>
      <trkpt lat="45.97153" lon="6.81115">
        <ele>1833.6655</ele>
        <time>2014-09-02T07:59:18Z</time>
      </trkpt>
      <trkpt lat="45.9715" lon="6.8112">
        <ele>1833.6655</ele>
        <time>2014-09-02T07:59:23Z</time>
      </trkpt>
      <trkpt lat="45.97145" lon="6.81128">
        <ele>1831.7389</ele>
        <time>2014-09-02T07:59:28Z</time>
      </trkpt>
      <trkpt lat="45.97143" lon="6.81133">
        <ele>1831.7389</ele>
        <time>2014-09-02T07:59:33Z</time>
      </trkpt>
      <trkpt lat="45.97144" lon="6.81135">
        <ele>1831.7389</ele>
        <time>2014-09-02T07:59:38Z</time>
      </trkpt>
      <trkpt lat="45.97145" lon="6.81137">
        <ele>1831.7389</ele>
        <time>2014-09-02T07:59:43Z</time>
      </trkpt>
      <trkpt lat="45.97145" lon="6.81139">
        <ele>1829.8976</ele>
        <time>2014-09-02T07:59:48Z</time>
      </trkpt>
      <trkpt lat="45.97143" lon="6.81144">
        <ele>1829.8976</ele>
        <time>2014-09-02T07:59:53Z</time>
      </trkpt>
      <trkpt lat="45.97142" lon="6.81145">
        <ele>1829.8976</ele>
        <time>2014-09-02T07:59:58Z</time>
      </trkpt>
      <trkpt lat="45.9714" lon="6.8115">
        <ele>1828.2233</ele>
        <time>2014-09-02T08:00:03Z</time>
      </trkpt>
      <trkpt lat="45.97137" lon="6.81155">
        <ele>1828.2233</ele>
        <time>2014-09-02T08:00:08Z</time>
      </trkpt>
      <trkpt lat="45.97137" lon="6.81158">
        <ele>1828.2233</ele>
        <time>2014-09-02T08:00:13Z</time>
      </trkpt>
      <trkpt lat="45.97136" lon="6.81163">
        <ele>1826.4738</ele>
        <time>2014-09-02T08:00:18Z</time>
      </trkpt>
      <trkpt lat="45.97137" lon="6.81172">
        <ele>1826.4738</ele>
        <time>2014-09-02T08:00:23Z</time>
      </trkpt>
      <trkpt lat="45.97138" lon="6.81175">
        <ele>1824.9009</ele>
        <time>2014-09-02T08:00:28Z</time>
      </trkpt>
      <trkpt lat="45.97137" lon="6.81177">
        <ele>1824.9009</ele>
        <time>2014-09-02T08:00:33Z</time>
      </trkpt>
      <trkpt lat="45.97137" lon="6.81181">
        <ele>1824.9009</ele>
        <time>2014-09-02T08:00:38Z</time>
      </trkpt>
      <trkpt lat="45.97137" lon="6.81184">
        <ele>1824.9009</ele>
        <time>2014-09-02T08:00:43Z</time>
      </trkpt>
      <trkpt lat="45.97136" lon="6.81189">
        <ele>1822.9156</ele>
        <time>2014-09-02T08:00:48Z</time>
      </trkpt>
      <trkpt lat="45.97135" lon="6.81193">
        <ele>1822.9156</ele>
        <time>2014-09-02T08:00:53Z</time>
      </trkpt>
      <trkpt lat="45.97135" lon="6.81198">
        <ele>1822.9156</ele>
        <time>2014-09-02T08:00:58Z</time>
      </trkpt>
      <trkpt lat="45.97136" lon="6.81203">
        <ele>1820.8527</ele>
        <time>2014-09-02T08:01:03Z</time>
      </trkpt>
      <trkpt lat="45.97138" lon="6.81208">
        <ele>1820.8527</ele>
        <time>2014-09-02T08:01:08Z</time>
      </trkpt>
      <trkpt lat="45.97139" lon="6.81212">
        <ele>1820.8527</ele>
        <time>2014-09-02T08:01:13Z</time>
      </trkpt>
      <trkpt lat="45.9714" lon="6.81216">
        <ele>1818.9934</ele>
        <time>2014-09-02T08:01:18Z</time>
      </trkpt>
      <trkpt lat="45.97139" lon="6.81228">
        <ele>1818.9934</ele>
        <time>2014-09-02T08:01:23Z</time>
      </trkpt>
      <trkpt lat="45.97139" lon="6.8123">
        <ele>1817.0934</ele>
        <time>2014-09-02T08:01:28Z</time>
      </trkpt>
      <trkpt lat="45.97137" lon="6.81231">
        <ele>1817.0934</ele>
        <time>2014-09-02T08:01:33Z</time>
      </trkpt>
      <trkpt lat="45.97134" lon="6.81238">
        <ele>1817.0934</ele>
        <time>2014-09-02T08:01:38Z</time>
      </trkpt>
      <trkpt lat="45.97132" lon="6.8124">
        <ele>1815.3013</ele>
        <time>2014-09-02T08:01:43Z</time>
      </trkpt>
      <trkpt lat="45.9713" lon="6.81245">
        <ele>1815.3013</ele>
        <time>2014-09-02T08:01:48Z</time>
      </trkpt>
      <trkpt lat="45.97127" lon="6.81249">
        <ele>1815.3013</ele>
        <time>2014-09-02T08:01:53Z</time>
      </trkpt>
      <trkpt lat="45.97123" lon="6.81255">
        <ele>1813.4658</ele>
        <time>2014-09-02T08:01:58Z</time>
      </trkpt>
      <trkpt lat="45.97122" lon="6.81259">
        <ele>1813.4658</ele>
        <time>2014-09-02T08:02:03Z</time>
      </trkpt>
      <trkpt lat="45.97121" lon="6.81262">
        <ele>1813.4658</ele>
        <time>2014-09-02T08:02:08Z</time>
      </trkpt>
      <trkpt lat="45.97118" lon="6.81265">
        <ele>1813.4658</ele>
        <time>2014-09-02T08:02:13Z</time>
      </trkpt>
      <trkpt lat="45.97115" lon="6.81272">
        <ele>1811.5626</ele>
        <time>2014-09-02T08:02:18Z</time>
      </trkpt>
      <trkpt lat="45.97113" lon="6.81282">
        <ele>1811.5626</ele>
        <time>2014-09-02T08:02:23Z</time>
      </trkpt>
      <trkpt lat="45.97113" lon="6.81286">
        <ele>1809.6123</ele>
        <time>2014-09-02T08:02:28Z</time>
      </trkpt>
      <trkpt lat="45.97113" lon="6.8129">
        <ele>1809.6123</ele>
        <time>2014-09-02T08:02:33Z</time>
      </trkpt>
      <trkpt lat="45.97114" lon="6.81293">
        <ele>1809.6123</ele>
        <time>2014-09-02T08:02:38Z</time>
      </trkpt>
      <trkpt lat="45.97113" lon="6.81296">
        <ele>1809.6123</ele>
        <time>2014-09-02T08:02:43Z</time>
      </trkpt>
      <trkpt lat="45.97111" lon="6.81305">
        <ele>1807.6339</ele>
        <time>2014-09-02T08:02:48Z</time>
      </trkpt>
      <trkpt lat="45.97112" lon="6.81308">
        <ele>1807.6339</ele>
        <time>2014-09-02T08:02:53Z</time>
      </trkpt>
      <trkpt lat="45.97111" lon="6.81311">
        <ele>1807.6339</ele>
        <time>2014-09-02T08:02:58Z</time>
      </trkpt>
      <trkpt lat="45.97104" lon="6.8132">
        <ele>1805.9193</ele>
        <time>2014-09-02T08:03:03Z</time>
      </trkpt>
      <trkpt lat="45.97101" lon="6.81331">
        <ele>1805.9193</ele>
        <time>2014-09-02T08:03:08Z</time>
      </trkpt>
      <trkpt lat="45.97097" lon="6.81339">
        <ele>1804.4929</ele>
        <time>2014-09-02T08:03:13Z</time>
      </trkpt>
      <trkpt lat="45.97094" lon="6.81345">
        <ele>1804.4929</ele>
        <time>2014-09-02T08:03:18Z</time>
      </trkpt>
      <trkpt lat="45.97096" lon="6.8135">
        <ele>1804.4929</ele>
        <time>2014-09-02T08:03:23Z</time>
      </trkpt>
      <trkpt lat="45.97099" lon="6.81356">
        <ele>1803.1891</ele>
        <time>2014-09-02T08:03:28Z</time>
      </trkpt>
      <trkpt lat="45.97097" lon="6.8136">
        <ele>1803.1891</ele>
        <time>2014-09-02T08:03:33Z</time>
      </trkpt>
      <trkpt lat="45.97094" lon="6.81364">
        <ele>1803.1891</ele>
        <time>2014-09-02T08:03:38Z</time>
      </trkpt>
      <trkpt lat="45.97093" lon="6.81365">
        <ele>1803.1891</ele>
        <time>2014-09-02T08:03:43Z</time>
      </trkpt>
      <trkpt lat="45.97092" lon="6.81368">
        <ele>1801.6091</ele>
        <time>2014-09-02T08:03:48Z</time>
      </trkpt>
      <trkpt lat="45.97088" lon="6.81374">
        <ele>1801.6091</ele>
        <time>2014-09-02T08:03:53Z</time>
      </trkpt>
      <trkpt lat="45.97085" lon="6.81382">
        <ele>1800.0472</ele>
        <time>2014-09-02T08:03:58Z</time>
      </trkpt>
      <trkpt lat="45.97082" lon="6.81389">
        <ele>1800.0472</ele>
        <time>2014-09-02T08:04:03Z</time>
      </trkpt>
      <trkpt lat="45.97079" lon="6.81394">
        <ele>1798.5455</ele>
        <time>2014-09-02T08:04:08Z</time>
      </trkpt>
      <trkpt lat="45.97074" lon="6.81397">
        <ele>1798.5455</ele>
        <time>2014-09-02T08:04:13Z</time>
      </trkpt>
      <trkpt lat="45.9707" lon="6.81402">
        <ele>1797.0991</ele>
        <time>2014-09-02T08:04:18Z</time>
      </trkpt>
      <trkpt lat="45.97068" lon="6.81408">
        <ele>1797.0991</ele>
        <time>2014-09-02T08:04:23Z</time>
      </trkpt>
      <trkpt lat="45.97068" lon="6.81417">
        <ele>1795.6318</ele>
        <time>2014-09-02T08:04:28Z</time>
      </trkpt>
      <trkpt lat="45.97066" lon="6.81426">
        <ele>1795.6318</ele>
        <time>2014-09-02T08:04:33Z</time>
      </trkpt>
      <trkpt lat="45.97065" lon="6.81429">
        <ele>1795.6318</ele>
        <time>2014-09-02T08:04:38Z</time>
      </trkpt>
      <trkpt lat="45.97063" lon="6.81433">
        <ele>1794.159</ele>
        <time>2014-09-02T08:04:43Z</time>
      </trkpt>
      <trkpt lat="45.97061" lon="6.81436">
        <ele>1794.159</ele>
        <time>2014-09-02T08:04:48Z</time>
      </trkpt>
      <trkpt lat="45.9706" lon="6.81441">
        <ele>1794.159</ele>
        <time>2014-09-02T08:04:53Z</time>
      </trkpt>
      <trkpt lat="45.97058" lon="6.81445">
        <ele>1792.6523</ele>
        <time>2014-09-02T08:04:58Z</time>
      </trkpt>
      <trkpt lat="45.97058" lon="6.81448">
        <ele>1792.6523</ele>
        <time>2014-09-02T08:05:03Z</time>
      </trkpt>
      <trkpt lat="45.97058" lon="6.81448">
        <ele>1792.6523</ele>
        <time>2014-09-02T08:05:08Z</time>
      </trkpt>
      <trkpt lat="45.97057" lon="6.81449">
        <ele>1792.6523</ele>
        <time>2014-09-02T08:05:13Z</time>
      </trkpt>
      <trkpt lat="45.97056" lon="6.81452">
        <ele>1792.6523</ele>
        <time>2014-09-02T08:05:18Z</time>
      </trkpt>
      <trkpt lat="45.97056" lon="6.81454">
        <ele>1792.6523</ele>
        <time>2014-09-02T08:05:23Z</time>
      </trkpt>
      <trkpt lat="45.97054" lon="6.8146">
        <ele>1790.4652</ele>
        <time>2014-09-02T08:05:28Z</time>
      </trkpt>
      <trkpt lat="45.97051" lon="6.81465">
        <ele>1790.4652</ele>
        <time>2014-09-02T08:05:33Z</time>
      </trkpt>
      <trkpt lat="45.97047" lon="6.81473">
        <ele>1788.1394</ele>
        <time>2014-09-02T08:05:38Z</time>
      </trkpt>
      <trkpt lat="45.97042" lon="6.81478">
        <ele>1788.1394</ele>
        <time>2014-09-02T08:05:43Z</time>
      </trkpt>
      <trkpt lat="45.97043" lon="6.81483">
        <ele>1785.788</ele>
        <time>2014-09-02T08:05:48Z</time>
      </trkpt>
      <trkpt lat="45.97041" lon="6.81488">
        <ele>1785.788</ele>
        <time>2014-09-02T08:05:53Z</time>
      </trkpt>
      <trkpt lat="45.97037" lon="6.81493">
        <ele>1785.788</ele>
        <time>2014-09-02T08:05:58Z</time>
      </trkpt>
      <trkpt lat="45.97036" lon="6.81496">
        <ele>1783.487</ele>
        <time>2014-09-02T08:06:03Z</time>
      </trkpt>
      <trkpt lat="45.97029" lon="6.81502">
        <ele>1783.487</ele>
        <time>2014-09-02T08:06:08Z</time>
      </trkpt>
      <trkpt lat="45.97024" lon="6.81506">
        <ele>1781.3212</ele>
        <time>2014-09-02T08:06:13Z</time>
      </trkpt>
      <trkpt lat="45.97023" lon="6.81508">
        <ele>1781.3212</ele>
        <time>2014-09-02T08:06:18Z</time>
      </trkpt>
      <trkpt lat="45.9702" lon="6.81512">
        <ele>1781.3212</ele>
        <time>2014-09-02T08:06:23Z</time>
      </trkpt>
      <trkpt lat="45.97018" lon="6.8152">
        <ele>1778.9506</ele>
        <time>2014-09-02T08:06:28Z</time>
      </trkpt>
      <trkpt lat="45.97017" lon="6.81525">
        <ele>1778.9506</ele>
        <time>2014-09-02T08:06:33Z</time>
      </trkpt>
      <trkpt lat="45.97015" lon="6.81526">
        <ele>1778.9506</ele>
        <time>2014-09-02T08:06:38Z</time>
      </trkpt>
      <trkpt lat="45.9701" lon="6.81529">
        <ele>1776.4642</ele>
        <time>2014-09-02T08:06:43Z</time>
      </trkpt>
      <trkpt lat="45.97006" lon="6.81537">
        <ele>1776.4642</ele>
        <time>2014-09-02T08:06:48Z</time>
      </trkpt>
      <trkpt lat="45.97007" lon="6.81541">
        <ele>1773.9884</ele>
        <time>2014-09-02T08:06:53Z</time>
      </trkpt>
      <trkpt lat="45.97007" lon="6.81546">
        <ele>1773.9884</ele>
        <time>2014-09-02T08:06:58Z</time>
      </trkpt>
      <trkpt lat="45.97007" lon="6.81546">
        <ele>1773.9884</ele>
        <time>2014-09-02T08:07:03Z</time>
      </trkpt>
      <trkpt lat="45.97006" lon="6.81548">
        <ele>1773.9884</ele>
        <time>2014-09-02T08:07:58Z</time>
      </trkpt>
      <trkpt lat="45.97005" lon="6.81557">
        <ele>1771.4669</ele>
        <time>2014-09-02T08:08:03Z</time>
      </trkpt>
      <trkpt lat="45.97002" lon="6.81562">
        <ele>1771.4669</ele>
        <time>2014-09-02T08:08:08Z</time>
      </trkpt>
      <trkpt lat="45.96997" lon="6.81567">
        <ele>1769.1649</ele>
        <time>2014-09-02T08:08:13Z</time>
      </trkpt>
      <trkpt lat="45.96994" lon="6.8157">
        <ele>1769.1649</ele>
        <time>2014-09-02T08:08:18Z</time>
      </trkpt>
      <trkpt lat="45.9699" lon="6.81575">
        <ele>1766.8661</ele>
        <time>2014-09-02T08:08:23Z</time>
      </trkpt>
      <trkpt lat="45.96988" lon="6.81578">
        <ele>1766.8661</ele>
        <time>2014-09-02T08:08:28Z</time>
      </trkpt>
      <trkpt lat="45.96985" lon="6.81585">
        <ele>1766.8661</ele>
        <time>2014-09-02T08:08:33Z</time>
      </trkpt>
      <trkpt lat="45.96982" lon="6.8159">
        <ele>1764.4133</ele>
        <time>2014-09-02T08:08:38Z</time>
      </trkpt>
      <trkpt lat="45.96979" lon="6.81596">
        <ele>1764.4133</ele>
        <time>2014-09-02T08:08:43Z</time>
      </trkpt>
      <trkpt lat="45.96976" lon="6.81602">
        <ele>1761.9497</ele>
        <time>2014-09-02T08:08:48Z</time>
      </trkpt>
      <trkpt lat="45.96974" lon="6.81608">
        <ele>1761.9497</ele>
        <time>2014-09-02T08:08:53Z</time>
      </trkpt>
      <trkpt lat="45.96973" lon="6.81614">
        <ele>1761.9497</ele>
        <time>2014-09-02T08:08:58Z</time>
      </trkpt>
      <trkpt lat="45.96973" lon="6.81622">
        <ele>1759.478</ele>
        <time>2014-09-02T08:09:03Z</time>
      </trkpt>
      <trkpt lat="45.96971" lon="6.81623">
        <ele>1759.478</ele>
        <time>2014-09-02T08:09:08Z</time>
      </trkpt>
      <trkpt lat="45.96968" lon="6.81625">
        <ele>1759.478</ele>
        <time>2014-09-02T08:09:13Z</time>
      </trkpt>
      <trkpt lat="45.96966" lon="6.81628">
        <ele>1759.478</ele>
        <time>2014-09-02T08:09:18Z</time>
      </trkpt>
      <trkpt lat="45.96964" lon="6.81636">
        <ele>1756.626</ele>
        <time>2014-09-02T08:09:23Z</time>
      </trkpt>
      <trkpt lat="45.96964" lon="6.81642">
        <ele>1756.626</ele>
        <time>2014-09-02T08:09:28Z</time>
      </trkpt>
      <trkpt lat="45.96966" lon="6.81648">
        <ele>1756.626</ele>
        <time>2014-09-02T08:09:33Z</time>
      </trkpt>
      <trkpt lat="45.96968" lon="6.81652">
        <ele>1753.6697</ele>
        <time>2014-09-02T08:09:38Z</time>
      </trkpt>
      <trkpt lat="45.96968" lon="6.81652">
        <ele>1753.6697</ele>
        <time>2014-09-02T08:09:43Z</time>
      </trkpt>
      <trkpt lat="45.96965" lon="6.81655">
        <ele>1753.6697</ele>
        <time>2014-09-02T08:09:48Z</time>
      </trkpt>
      <trkpt lat="45.96965" lon="6.81658">
        <ele>1753.6697</ele>
        <time>2014-09-02T08:09:53Z</time>
      </trkpt>
      <trkpt lat="45.96961" lon="6.81665">
        <ele>1750.735</ele>
        <time>2014-09-02T08:09:58Z</time>
      </trkpt>
      <trkpt lat="45.96959" lon="6.81668">
        <ele>1750.735</ele>
        <time>2014-09-02T08:10:03Z</time>
      </trkpt>
      <trkpt lat="45.96953" lon="6.8168">
        <ele>1748.1406</ele>
        <time>2014-09-02T08:10:08Z</time>
      </trkpt>
      <trkpt lat="45.96955" lon="6.81687">
        <ele>1748.1406</ele>
        <time>2014-09-02T08:10:13Z</time>
      </trkpt>
      <trkpt lat="45.96955" lon="6.8169">
        <ele>1748.1406</ele>
        <time>2014-09-02T08:10:18Z</time>
      </trkpt>
      <trkpt lat="45.96956" lon="6.81701">
        <ele>1745.6907</ele>
        <time>2014-09-02T08:10:23Z</time>
      </trkpt>
      <trkpt lat="45.96953" lon="6.8171">
        <ele>1745.6907</ele>
        <time>2014-09-02T08:10:28Z</time>
      </trkpt>
      <trkpt lat="45.9695" lon="6.81715">
        <ele>1743.4048</ele>
        <time>2014-09-02T08:10:33Z</time>
      </trkpt>
      <trkpt lat="45.96944" lon="6.81714">
        <ele>1743.4048</ele>
        <time>2014-09-02T08:10:38Z</time>
      </trkpt>
      <trkpt lat="45.96943" lon="6.81713">
        <ele>1743.4048</ele>
        <time>2014-09-02T08:10:43Z</time>
      </trkpt>
      <trkpt lat="45.96942" lon="6.81712">
        <ele>1743.4048</ele>
        <time>2014-09-02T08:10:48Z</time>
      </trkpt>
      <trkpt lat="45.9694" lon="6.81708">
        <ele>1741.5026</ele>
        <time>2014-09-02T08:10:53Z</time>
      </trkpt>
      <trkpt lat="45.96936" lon="6.81703">
        <ele>1741.5026</ele>
        <time>2014-09-02T08:10:58Z</time>
      </trkpt>
      <trkpt lat="45.96932" lon="6.81705">
        <ele>1741.5026</ele>
        <time>2014-09-02T08:11:03Z</time>
      </trkpt>
      <trkpt lat="45.96931" lon="6.81711">
        <ele>1739.6532</ele>
        <time>2014-09-02T08:11:08Z</time>
      </trkpt>
      <trkpt lat="45.96933" lon="6.81722">
        <ele>1739.6532</ele>
        <time>2014-09-02T08:11:13Z</time>
      </trkpt>
      <trkpt lat="45.96934" lon="6.81731">
        <ele>1737.8236</ele>
        <time>2014-09-02T08:11:18Z</time>
      </trkpt>
      <trkpt lat="45.96936" lon="6.81737">
        <ele>1737.8236</ele>
        <time>2014-09-02T08:11:23Z</time>
      </trkpt>
      <trkpt lat="45.96937" lon="6.81739">
        <ele>1737.8236</ele>
        <time>2014-09-02T08:11:28Z</time>
      </trkpt>
      <trkpt lat="45.9694" lon="6.81741">
        <ele>1736.0406</ele>
        <time>2014-09-02T08:11:33Z</time>
      </trkpt>
      <trkpt lat="45.96942" lon="6.81742">
        <ele>1736.0406</ele>
        <time>2014-09-02T08:11:38Z</time>
      </trkpt>
      <trkpt lat="45.96943" lon="6.81745">
        <ele>1736.0406</ele>
        <time>2014-09-02T08:11:43Z</time>
      </trkpt>
      <trkpt lat="45.96942" lon="6.81746">
        <ele>1736.0406</ele>
        <time>2014-09-02T08:11:48Z</time>
      </trkpt>
      <trkpt lat="45.96941" lon="6.81755">
        <ele>1734.2139</ele>
        <time>2014-09-02T08:11:53Z</time>
      </trkpt>
      <trkpt lat="45.96941" lon="6.81759">
        <ele>1734.2139</ele>
        <time>2014-09-02T08:11:58Z</time>
      </trkpt>
      <trkpt lat="45.96941" lon="6.81762">
        <ele>1734.2139</ele>
        <time>2014-09-02T08:12:03Z</time>
      </trkpt>
      <trkpt lat="45.96941" lon="6.81762">
        <ele>1734.2139</ele>
        <time>2014-09-02T08:12:08Z</time>
      </trkpt>
      <trkpt lat="45.9694" lon="6.81764">
        <ele>1734.2139</ele>
        <time>2014-09-02T08:12:28Z</time>
      </trkpt>
      <trkpt lat="45.96937" lon="6.81768">
        <ele>1732.5476</ele>
        <time>2014-09-02T08:12:33Z</time>
      </trkpt>
      <trkpt lat="45.96937" lon="6.81768">
        <ele>1732.5476</ele>
        <time>2014-09-02T08:12:38Z</time>
      </trkpt>
      <trkpt lat="45.96936" lon="6.81769">
        <ele>1732.5476</ele>
        <time>2014-09-02T08:12:53Z</time>
      </trkpt>
      <trkpt lat="45.96929" lon="6.81777">
        <ele>1731.231</ele>
        <time>2014-09-02T08:12:58Z</time>
      </trkpt>
      <trkpt lat="45.96929" lon="6.81781">
        <ele>1731.231</ele>
        <time>2014-09-02T08:13:03Z</time>
      </trkpt>
      <trkpt lat="45.96929" lon="6.81781">
        <ele>1731.231</ele>
        <time>2014-09-02T08:13:08Z</time>
      </trkpt>
      <trkpt lat="45.96926" lon="6.81792">
        <ele>1729.8759</ele>
        <time>2014-09-02T08:13:13Z</time>
      </trkpt>
      <trkpt lat="45.96924" lon="6.81796">
        <ele>1729.8759</ele>
        <time>2014-09-02T08:13:18Z</time>
      </trkpt>
      <trkpt lat="45.96918" lon="6.81809">
        <ele>1728.5841</ele>
        <time>2014-09-02T08:13:23Z</time>
      </trkpt>
      <trkpt lat="45.96917" lon="6.81809">
        <ele>1728.5841</ele>
        <time>2014-09-02T08:13:28Z</time>
      </trkpt>
      <trkpt lat="45.96916" lon="6.81809">
        <ele>1728.5841</ele>
        <time>2014-09-02T08:13:33Z</time>
      </trkpt>
      <trkpt lat="45.96909" lon="6.81814">
        <ele>1727.2622</ele>
        <time>2014-09-02T08:13:38Z</time>
      </trkpt>
      <trkpt lat="45.96908" lon="6.81815">
        <ele>1727.2622</ele>
        <time>2014-09-02T08:13:43Z</time>
      </trkpt>
      <trkpt lat="45.96908" lon="6.81816">
        <ele>1727.2622</ele>
        <time>2014-09-02T08:13:48Z</time>
      </trkpt>
      <trkpt lat="45.96904" lon="6.81822">
        <ele>1727.2622</ele>
        <time>2014-09-02T08:13:53Z</time>
      </trkpt>
      <trkpt lat="45.96902" lon="6.81825">
        <ele>1725.8673</ele>
        <time>2014-09-02T08:13:58Z</time>
      </trkpt>
      <trkpt lat="45.96896" lon="6.81831">
        <ele>1725.8673</ele>
        <time>2014-09-02T08:14:03Z</time>
      </trkpt>
      <trkpt lat="45.96889" lon="6.81841">
        <ele>1724.5469</ele>
        <time>2014-09-02T08:14:08Z</time>
      </trkpt>
      <trkpt lat="45.96886" lon="6.81849">
        <ele>1724.5469</ele>
        <time>2014-09-02T08:14:13Z</time>
      </trkpt>
      <trkpt lat="45.96885" lon="6.81851">
        <ele>1724.5469</ele>
        <time>2014-09-02T08:14:18Z</time>
      </trkpt>
      <trkpt lat="45.96883" lon="6.81854">
        <ele>1723.1637</ele>
        <time>2014-09-02T08:14:23Z</time>
      </trkpt>
      <trkpt lat="45.9688" lon="6.81864">
        <ele>1723.1637</ele>
        <time>2014-09-02T08:14:28Z</time>
      </trkpt>
      <trkpt lat="45.96874" lon="6.81873">
        <ele>1721.9078</ele>
        <time>2014-09-02T08:14:33Z</time>
      </trkpt>
      <trkpt lat="45.96872" lon="6.81878">
        <ele>1721.9078</ele>
        <time>2014-09-02T08:14:38Z</time>
      </trkpt>
      <trkpt lat="45.96871" lon="6.81885">
        <ele>1721.9078</ele>
        <time>2014-09-02T08:14:43Z</time>
      </trkpt>
      <trkpt lat="45.9687" lon="6.81886">
        <ele>1720.8109</ele>
        <time>2014-09-02T08:14:48Z</time>
      </trkpt>
      <trkpt lat="45.96866" lon="6.81892">
        <ele>1720.8109</ele>
        <time>2014-09-02T08:14:53Z</time>
      </trkpt>
      <trkpt lat="45.96863" lon="6.81901">
        <ele>1719.8009</ele>
        <time>2014-09-02T08:14:58Z</time>
      </trkpt>
      <trkpt lat="45.9686" lon="6.81911">
        <ele>1719.8009</ele>
        <time>2014-09-02T08:15:03Z</time>
      </trkpt>
      <trkpt lat="45.96856" lon="6.81916">
        <ele>1718.8973</ele>
        <time>2014-09-02T08:15:08Z</time>
      </trkpt>
      <trkpt lat="45.96855" lon="6.8192">
        <ele>1718.8973</ele>
        <time>2014-09-02T08:15:13Z</time>
      </trkpt>
      <trkpt lat="45.96854" lon="6.81926">
        <ele>1718.8973</ele>
        <time>2014-09-02T08:15:18Z</time>
      </trkpt>
      <trkpt lat="45.96852" lon="6.8193">
        <ele>1717.9597</ele>
        <time>2014-09-02T08:15:23Z</time>
      </trkpt>
      <trkpt lat="45.96849" lon="6.81929">
        <ele>1717.9597</ele>
        <time>2014-09-02T08:15:28Z</time>
      </trkpt>
      <trkpt lat="45.96846" lon="6.81932">
        <ele>1717.9597</ele>
        <time>2014-09-02T08:15:33Z</time>
      </trkpt>
      <trkpt lat="45.96846" lon="6.81933">
        <ele>1717.9597</ele>
        <time>2014-09-02T08:15:38Z</time>
      </trkpt>
      <trkpt lat="45.96845" lon="6.81934">
        <ele>1717.9597</ele>
        <time>2014-09-02T08:15:58Z</time>
      </trkpt>
      <trkpt lat="45.96844" lon="6.81936">
        <ele>1716.6127</ele>
        <time>2014-09-02T08:16:03Z</time>
      </trkpt>
      <trkpt lat="45.96841" lon="6.81939">
        <ele>1716.6127</ele>
        <time>2014-09-02T08:16:08Z</time>
      </trkpt>
      <trkpt lat="45.96837" lon="6.81945">
        <ele>1716.6127</ele>
        <time>2014-09-02T08:16:13Z</time>
      </trkpt>
      <trkpt lat="45.96835" lon="6.81947">
        <ele>1715.2736</ele>
        <time>2014-09-02T08:16:18Z</time>
      </trkpt>
      <trkpt lat="45.96834" lon="6.81949">
        <ele>1715.2736</ele>
        <time>2014-09-02T08:16:23Z</time>
      </trkpt>
      <trkpt lat="45.96831" lon="6.81951">
        <ele>1715.2736</ele>
        <time>2014-09-02T08:16:28Z</time>
      </trkpt>
      <trkpt lat="45.96832" lon="6.81952">
        <ele>1715.2736</ele>
        <time>2014-09-02T08:16:33Z</time>
      </trkpt>
      <trkpt lat="45.96829" lon="6.81953">
        <ele>1715.2736</ele>
        <time>2014-09-02T08:16:38Z</time>
      </trkpt>
      <trkpt lat="45.96826" lon="6.81958">
        <ele>1713.5654</ele>
        <time>2014-09-02T08:16:43Z</time>
      </trkpt>
      <trkpt lat="45.9682" lon="6.81963">
        <ele>1713.5654</ele>
        <time>2014-09-02T08:16:48Z</time>
      </trkpt>
      <trkpt lat="45.96814" lon="6.81971">
        <ele>1712.0045</ele>
        <time>2014-09-02T08:16:53Z</time>
      </trkpt>
      <trkpt lat="45.96808" lon="6.81979">
        <ele>1712.0045</ele>
        <time>2014-09-02T08:16:58Z</time>
      </trkpt>
      <trkpt lat="45.96805" lon="6.81988">
        <ele>1710.4926</ele>
        <time>2014-09-02T08:17:03Z</time>
      </trkpt>
      <trkpt lat="45.96805" lon="6.81989">
        <ele>1710.4926</ele>
        <time>2014-09-02T08:17:08Z</time>
      </trkpt>
      <trkpt lat="45.96802" lon="6.81993">
        <ele>1710.4926</ele>
        <time>2014-09-02T08:17:13Z</time>
      </trkpt>
      <trkpt lat="45.96801" lon="6.81994">
        <ele>1710.4926</ele>
        <time>2014-09-02T08:17:18Z</time>
      </trkpt>
      <trkpt lat="45.96798" lon="6.81997">
        <ele>1708.9384</ele>
        <time>2014-09-02T08:17:23Z</time>
      </trkpt>
      <trkpt lat="45.96796" lon="6.82">
        <ele>1708.9384</ele>
        <time>2014-09-02T08:17:28Z</time>
      </trkpt>
      <trkpt lat="45.96795" lon="6.82002">
        <ele>1708.9384</ele>
        <time>2014-09-02T08:17:33Z</time>
      </trkpt>
      <trkpt lat="45.96792" lon="6.82006">
        <ele>1708.9384</ele>
        <time>2014-09-02T08:17:38Z</time>
      </trkpt>
      <trkpt lat="45.96787" lon="6.82011">
        <ele>1707.1709</ele>
        <time>2014-09-02T08:17:43Z</time>
      </trkpt>
      <trkpt lat="45.96783" lon="6.82015">
        <ele>1707.1709</ele>
        <time>2014-09-02T08:17:48Z</time>
      </trkpt>
      <trkpt lat="45.96779" lon="6.8202">
        <ele>1705.3065</ele>
        <time>2014-09-02T08:17:53Z</time>
      </trkpt>
      <trkpt lat="45.96776" lon="6.82026">
        <ele>1705.3065</ele>
        <time>2014-09-02T08:17:58Z</time>
      </trkpt>
      <trkpt lat="45.9677" lon="6.82029">
        <ele>1703.5397</ele>
        <time>2014-09-02T08:18:03Z</time>
      </trkpt>
      <trkpt lat="45.96765" lon="6.82032">
        <ele>1703.5397</ele>
        <time>2014-09-02T08:18:08Z</time>
      </trkpt>
      <trkpt lat="45.96762" lon="6.82035">
        <ele>1701.8484</ele>
        <time>2014-09-02T08:18:13Z</time>
      </trkpt>
      <trkpt lat="45.96758" lon="6.8204">
        <ele>1701.8484</ele>
        <time>2014-09-02T08:18:18Z</time>
      </trkpt>
      <trkpt lat="45.96758" lon="6.82041">
        <ele>1701.8484</ele>
        <time>2014-09-02T08:18:23Z</time>
      </trkpt>
      <trkpt lat="45.96757" lon="6.82045">
        <ele>1700.1403</ele>
        <time>2014-09-02T08:18:28Z</time>
      </trkpt>
      <trkpt lat="45.96755" lon="6.82053">
        <ele>1700.1403</ele>
        <time>2014-09-02T08:18:33Z</time>
      </trkpt>
      <trkpt lat="45.96754" lon="6.82058">
        <ele>1698.3297</ele>
        <time>2014-09-02T08:18:38Z</time>
      </trkpt>
      <trkpt lat="45.96754" lon="6.82066">
        <ele>1698.3297</ele>
        <time>2014-09-02T08:18:43Z</time>
      </trkpt>
      <trkpt lat="45.96754" lon="6.8207">
        <ele>1698.3297</ele>
        <time>2014-09-02T08:18:48Z</time>
      </trkpt>
      <trkpt lat="45.96756" lon="6.82079">
        <ele>1696.3378</ele>
        <time>2014-09-02T08:18:53Z</time>
      </trkpt>
      <trkpt lat="45.96758" lon="6.82083">
        <ele>1696.3378</ele>
        <time>2014-09-02T08:18:58Z</time>
      </trkpt>
      <trkpt lat="45.96759" lon="6.82087">
        <ele>1696.3378</ele>
        <time>2014-09-02T08:19:03Z</time>
      </trkpt>
      <trkpt lat="45.96759" lon="6.82093">
        <ele>1694.135</ele>
        <time>2014-09-02T08:19:08Z</time>
      </trkpt>
      <trkpt lat="45.96753" lon="6.82097">
        <ele>1694.135</ele>
        <time>2014-09-02T08:19:13Z</time>
      </trkpt>
      <trkpt lat="45.96751" lon="6.82099">
        <ele>1692.1847</ele>
        <time>2014-09-02T08:19:18Z</time>
      </trkpt>
      <trkpt lat="45.96743" lon="6.82105">
        <ele>1692.1847</ele>
        <time>2014-09-02T08:19:23Z</time>
      </trkpt>
      <trkpt lat="45.96742" lon="6.82105">
        <ele>1690.4977</ele>
        <time>2014-09-02T08:19:28Z</time>
      </trkpt>
      <trkpt lat="45.9674" lon="6.82115">
        <ele>1690.4977</ele>
        <time>2014-09-02T08:19:33Z</time>
      </trkpt>
      <trkpt lat="45.96739" lon="6.8212">
        <ele>1689.0975</ele>
        <time>2014-09-02T08:19:38Z</time>
      </trkpt>
      <trkpt lat="45.96738" lon="6.82121">
        <ele>1689.0975</ele>
        <time>2014-09-02T08:19:43Z</time>
      </trkpt>
      <trkpt lat="45.96737" lon="6.82121">
        <ele>1689.0975</ele>
        <time>2014-09-02T08:19:48Z</time>
      </trkpt>
      <trkpt lat="45.96737" lon="6.8212">
        <ele>1689.0975</ele>
        <time>2014-09-02T08:19:53Z</time>
      </trkpt>
      <trkpt lat="45.96737" lon="6.8212">
        <ele>1689.0975</ele>
        <time>2014-09-02T08:19:58Z</time>
      </trkpt>
      <trkpt lat="45.96737" lon="6.8212">
        <ele>1689.0975</ele>
        <time>2014-09-02T08:20:03Z</time>
      </trkpt>
      <trkpt lat="45.96736" lon="6.82128">
        <ele>1689.0975</ele>
        <time>2014-09-02T08:20:58Z</time>
      </trkpt>
      <trkpt lat="45.96737" lon="6.82139">
        <ele>1688.0631</ele>
        <time>2014-09-02T08:21:03Z</time>
      </trkpt>
      <trkpt lat="45.96738" lon="6.82151">
        <ele>1688.0631</ele>
        <time>2014-09-02T08:21:08Z</time>
      </trkpt>
      <trkpt lat="45.9674" lon="6.8216">
        <ele>1687.2643</ele>
        <time>2014-09-02T08:21:13Z</time>
      </trkpt>
      <trkpt lat="45.96742" lon="6.82167">
        <ele>1687.2643</ele>
        <time>2014-09-02T08:21:18Z</time>
      </trkpt>
      <trkpt lat="45.96744" lon="6.82172">
        <ele>1686.7246</ele>
        <time>2014-09-02T08:21:23Z</time>
      </trkpt>
      <trkpt lat="45.96746" lon="6.82181">
        <ele>1686.7246</ele>
        <time>2014-09-02T08:21:28Z</time>
      </trkpt>
      <trkpt lat="45.96748" lon="6.82185">
        <ele>1686.4359</ele>
        <time>2014-09-02T08:21:33Z</time>
      </trkpt>
      <trkpt lat="45.9675" lon="6.82188">
        <ele>1686.4359</ele>
        <time>2014-09-02T08:21:38Z</time>
      </trkpt>
      <trkpt lat="45.96752" lon="6.8219">
        <ele>1686.4359</ele>
        <time>2014-09-02T08:21:43Z</time>
      </trkpt>
      <trkpt lat="45.96755" lon="6.82194">
        <ele>1686.2749</ele>
        <time>2014-09-02T08:21:48Z</time>
      </trkpt>
      <trkpt lat="45.96756" lon="6.822">
        <ele>1686.2749</ele>
        <time>2014-09-02T08:21:53Z</time>
      </trkpt>
      <trkpt lat="45.96757" lon="6.82208">
        <ele>1686.2134</ele>
        <time>2014-09-02T08:21:58Z</time>
      </trkpt>
      <trkpt lat="45.96759" lon="6.82213">
        <ele>1686.2134</ele>
        <time>2014-09-02T08:22:03Z</time>
      </trkpt>
      <trkpt lat="45.96759" lon="6.82217">
        <ele>1686.2134</ele>
        <time>2014-09-02T08:22:08Z</time>
      </trkpt>
      <trkpt lat="45.96758" lon="6.82219">
        <ele>1686.2134</ele>
        <time>2014-09-02T08:22:13Z</time>
      </trkpt>
      <trkpt lat="45.96758" lon="6.82223">
        <ele>1686.1819</ele>
        <time>2014-09-02T08:22:18Z</time>
      </trkpt>
      <trkpt lat="45.96759" lon="6.82232">
        <ele>1686.1819</ele>
        <time>2014-09-02T08:22:23Z</time>
      </trkpt>
      <trkpt lat="45.96762" lon="6.82239">
        <ele>1686.1447</ele>
        <time>2014-09-02T08:22:28Z</time>
      </trkpt>
      <trkpt lat="45.96764" lon="6.82245">
        <ele>1686.1447</ele>
        <time>2014-09-02T08:22:33Z</time>
      </trkpt>
      <trkpt lat="45.96768" lon="6.82252">
        <ele>1686.141</ele>
        <time>2014-09-02T08:22:38Z</time>
      </trkpt>
      <trkpt lat="45.96767" lon="6.82259">
        <ele>1686.141</ele>
        <time>2014-09-02T08:22:43Z</time>
      </trkpt>
      <trkpt lat="45.96768" lon="6.82263">
        <ele>1686.141</ele>
        <time>2014-09-02T08:22:48Z</time>
      </trkpt>
      <trkpt lat="45.96768" lon="6.82263">
        <ele>1686.141</ele>
        <time>2014-09-02T08:22:53Z</time>
      </trkpt>
      <trkpt lat="45.96768" lon="6.82263">
        <ele>1686.141</ele>
        <time>2014-09-02T08:22:58Z</time>
      </trkpt>
      <trkpt lat="45.9677" lon="6.82263">
        <ele>1686.0629</ele>
        <time>2014-09-02T08:23:03Z</time>
      </trkpt>
      <trkpt lat="45.96773" lon="6.82262">
        <ele>1686.0629</ele>
        <time>2014-09-02T08:23:08Z</time>
      </trkpt>
      <trkpt lat="45.96773" lon="6.82262">
        <ele>1686.0629</ele>
        <time>2014-09-02T08:23:13Z</time>
      </trkpt>
      <trkpt lat="45.96774" lon="6.82261">
        <ele>1686.0629</ele>
        <time>2014-09-02T08:23:18Z</time>
      </trkpt>
      <trkpt lat="45.96773" lon="6.82261">
        <ele>1686.0629</ele>
        <time>2014-09-02T08:23:23Z</time>
      </trkpt>
      <trkpt lat="45.96772" lon="6.82262">
        <ele>1686.0629</ele>
        <time>2014-09-02T08:23:28Z</time>
      </trkpt>
      <trkpt lat="45.9677" lon="6.82261">
        <ele>1686.0629</ele>
        <time>2014-09-02T08:23:33Z</time>
      </trkpt>
      <trkpt lat="45.96769" lon="6.82262">
        <ele>1685.8972</ele>
        <time>2014-09-02T08:23:38Z</time>
      </trkpt>
      <trkpt lat="45.96768" lon="6.82264">
        <ele>1685.8972</ele>
        <time>2014-09-02T08:23:43Z</time>
      </trkpt>
      <trkpt lat="45.96767" lon="6.82265">
        <ele>1685.8972</ele>
        <time>2014-09-02T08:23:48Z</time>
      </trkpt>
      <trkpt lat="45.96767" lon="6.82262">
        <ele>1685.8972</ele>
        <time>2014-09-02T08:23:53Z</time>
      </trkpt>
      <trkpt lat="45.96769" lon="6.82258">
        <ele>1685.8972</ele>
        <time>2014-09-02T08:23:58Z</time>
      </trkpt>
      <trkpt lat="45.96775" lon="6.82257">
        <ele>1685.272</ele>
        <time>2014-09-02T08:24:03Z</time>
      </trkpt>
      <trkpt lat="45.96781" lon="6.82254">
        <ele>1685.272</ele>
        <time>2014-09-02T08:24:08Z</time>
      </trkpt>
      <trkpt lat="45.96787" lon="6.82252">
        <ele>1684.7228</ele>
        <time>2014-09-02T08:24:13Z</time>
      </trkpt>
      <trkpt lat="45.96794" lon="6.82255">
        <ele>1684.7228</ele>
        <time>2014-09-02T08:24:18Z</time>
      </trkpt>
      <trkpt lat="45.968" lon="6.82258">
        <ele>1684.2845</ele>
        <time>2014-09-02T08:24:23Z</time>
      </trkpt>
      <trkpt lat="45.96802" lon="6.82261">
        <ele>1684.2845</ele>
        <time>2014-09-02T08:24:28Z</time>
      </trkpt>
      <trkpt lat="45.96802" lon="6.82264">
        <ele>1684.2845</ele>
        <time>2014-09-02T08:24:33Z</time>
      </trkpt>
      <trkpt lat="45.96804" lon="6.82269">
        <ele>1683.7448</ele>
        <time>2014-09-02T08:24:38Z</time>
      </trkpt>
      <trkpt lat="45.96806" lon="6.82273">
        <ele>1683.7448</ele>
        <time>2014-09-02T08:24:43Z</time>
      </trkpt>
      <trkpt lat="45.96811" lon="6.82273">
        <ele>1683.7448</ele>
        <time>2014-09-02T08:24:48Z</time>
      </trkpt>
      <trkpt lat="45.96814" lon="6.82274">
        <ele>1683.1227</ele>
        <time>2014-09-02T08:24:53Z</time>
      </trkpt>
      <trkpt lat="45.96817" lon="6.82287">
        <ele>1682.5521</ele>
        <time>2014-09-02T08:24:58Z</time>
      </trkpt>
      <trkpt lat="45.9682" lon="6.82294">
        <ele>1682.5521</ele>
        <time>2014-09-02T08:25:03Z</time>
      </trkpt>
      <trkpt lat="45.96822" lon="6.82298">
        <ele>1681.9117</ele>
        <time>2014-09-02T08:25:08Z</time>
      </trkpt>
      <trkpt lat="45.96825" lon="6.823">
        <ele>1681.9117</ele>
        <time>2014-09-02T08:25:13Z</time>
      </trkpt>
      <trkpt lat="45.9683" lon="6.82303">
        <ele>1681.9117</ele>
        <time>2014-09-02T08:25:18Z</time>
      </trkpt>
      <trkpt lat="45.96834" lon="6.82302">
        <ele>1681.1184</ele>
        <time>2014-09-02T08:25:23Z</time>
      </trkpt>
      <trkpt lat="45.96837" lon="6.82305">
        <ele>1681.1184</ele>
        <time>2014-09-02T08:25:28Z</time>
      </trkpt>
      <trkpt lat="45.96844" lon="6.82305">
        <ele>1680.2397</ele>
        <time>2014-09-02T08:25:33Z</time>
      </trkpt>
      <trkpt lat="45.96847" lon="6.82308">
        <ele>1680.2397</ele>
        <time>2014-09-02T08:25:38Z</time>
      </trkpt>
      <trkpt lat="45.96849" lon="6.8231">
        <ele>1680.2397</ele>
        <time>2014-09-02T08:25:43Z</time>
      </trkpt>
      <trkpt lat="45.96854" lon="6.82314">
        <ele>1679.1514</ele>
        <time>2014-09-02T08:25:48Z</time>
      </trkpt>
      <trkpt lat="45.96858" lon="6.82317">
        <ele>1679.1514</ele>
        <time>2014-09-02T08:25:53Z</time>
      </trkpt>
      <trkpt lat="45.96863" lon="6.8232">
        <ele>1677.8395</ele>
        <time>2014-09-02T08:25:58Z</time>
      </trkpt>
      <trkpt lat="45.96867" lon="6.82324">
        <ele>1677.8395</ele>
        <time>2014-09-02T08:26:03Z</time>
      </trkpt>
      <trkpt lat="45.9687" lon="6.82323">
        <ele>1677.8395</ele>
        <time>2014-09-02T08:26:08Z</time>
      </trkpt>
      <trkpt lat="45.96872" lon="6.82324">
        <ele>1676.3497</ele>
        <time>2014-09-02T08:26:13Z</time>
      </trkpt>
      <trkpt lat="45.9688" lon="6.8233">
        <ele>1674.9268</ele>
        <time>2014-09-02T08:26:18Z</time>
      </trkpt>
      <trkpt lat="45.96884" lon="6.82331">
        <ele>1674.9268</ele>
        <time>2014-09-02T08:26:23Z</time>
      </trkpt>
      <trkpt lat="45.96888" lon="6.82332">
        <ele>1674.9268</ele>
        <time>2014-09-02T08:26:28Z</time>
      </trkpt>
      <trkpt lat="45.9689" lon="6.82336">
        <ele>1673.4368</ele>
        <time>2014-09-02T08:26:33Z</time>
      </trkpt>
      <trkpt lat="45.96893" lon="6.82337">
        <ele>1673.4368</ele>
        <time>2014-09-02T08:26:38Z</time>
      </trkpt>
      <trkpt lat="45.96894" lon="6.82339">
        <ele>1673.4368</ele>
        <time>2014-09-02T08:26:43Z</time>
      </trkpt>
      <trkpt lat="45.96896" lon="6.82344">
        <ele>1673.4368</ele>
        <time>2014-09-02T08:26:48Z</time>
      </trkpt>
      <trkpt lat="45.96902" lon="6.82357">
        <ele>1671.6842</ele>
        <time>2014-09-02T08:26:53Z</time>
      </trkpt>
      <trkpt lat="45.96905" lon="6.82359">
        <ele>1671.6842</ele>
        <time>2014-09-02T08:26:58Z</time>
      </trkpt>
      <trkpt lat="45.96908" lon="6.82361">
        <ele>1671.6842</ele>
        <time>2014-09-02T08:27:03Z</time>
      </trkpt>
      <trkpt lat="45.96912" lon="6.82364">
        <ele>1669.6179</ele>
        <time>2014-09-02T08:27:08Z</time>
      </trkpt>
      <trkpt lat="45.96916" lon="6.82365">
        <ele>1669.6179</ele>
        <time>2014-09-02T08:27:13Z</time>
      </trkpt>
      <trkpt lat="45.96922" lon="6.82369">
        <ele>1667.3505</ele>
        <time>2014-09-02T08:27:18Z</time>
      </trkpt>
      <trkpt lat="45.96929" lon="6.82371">
        <ele>1667.3505</ele>
        <time>2014-09-02T08:27:23Z</time>
      </trkpt>
      <trkpt lat="45.96933" lon="6.82374">
        <ele>1664.8856</ele>
        <time>2014-09-02T08:27:28Z</time>
      </trkpt>
      <trkpt lat="45.96938" lon="6.82379">
        <ele>1664.8856</ele>
        <time>2014-09-02T08:27:33Z</time>
      </trkpt>
      <trkpt lat="45.96941" lon="6.82383">
        <ele>1662.3137</ele>
        <time>2014-09-02T08:27:38Z</time>
      </trkpt>
      <trkpt lat="45.96946" lon="6.82387">
        <ele>1662.3137</ele>
        <time>2014-09-02T08:27:43Z</time>
      </trkpt>
      <trkpt lat="45.9695" lon="6.82394">
        <ele>1659.8777</ele>
        <time>2014-09-02T08:27:48Z</time>
      </trkpt>
      <trkpt lat="45.96955" lon="6.824">
        <ele>1659.8777</ele>
        <time>2014-09-02T08:27:53Z</time>
      </trkpt>
      <trkpt lat="45.96953" lon="6.82408">
        <ele>1657.5425</ele>
        <time>2014-09-02T08:27:58Z</time>
      </trkpt>
      <trkpt lat="45.96955" lon="6.82413">
        <ele>1657.5425</ele>
        <time>2014-09-02T08:28:03Z</time>
      </trkpt>
      <trkpt lat="45.96957" lon="6.82418">
        <ele>1657.5425</ele>
        <time>2014-09-02T08:28:08Z</time>
      </trkpt>
      <trkpt lat="45.96961" lon="6.82428">
        <ele>1655.1315</ele>
        <time>2014-09-02T08:28:13Z</time>
      </trkpt>
      <trkpt lat="45.96965" lon="6.8244">
        <ele>1655.1315</ele>
        <time>2014-09-02T08:28:18Z</time>
      </trkpt>
      <trkpt lat="45.96966" lon="6.82443">
        <ele>1652.8557</ele>
        <time>2014-09-02T08:28:23Z</time>
      </trkpt>
      <trkpt lat="45.96966" lon="6.82446">
        <ele>1652.8557</ele>
        <time>2014-09-02T08:28:28Z</time>
      </trkpt>
      <trkpt lat="45.96967" lon="6.82451">
        <ele>1652.8557</ele>
        <time>2014-09-02T08:28:33Z</time>
      </trkpt>
      <trkpt lat="45.96968" lon="6.82457">
        <ele>1650.6653</ele>
        <time>2014-09-02T08:28:38Z</time>
      </trkpt>
      <trkpt lat="45.96971" lon="6.82465">
        <ele>1650.6653</ele>
        <time>2014-09-02T08:28:43Z</time>
      </trkpt>
      <trkpt lat="45.96974" lon="6.82469">
        <ele>1648.8741</ele>
        <time>2014-09-02T08:28:48Z</time>
      </trkpt>
      <trkpt lat="45.96976" lon="6.82474">
        <ele>1648.8741</ele>
        <time>2014-09-02T08:28:53Z</time>
      </trkpt>
      <trkpt lat="45.96976" lon="6.82481">
        <ele>1648.8741</ele>
        <time>2014-09-02T08:28:58Z</time>
      </trkpt>
      <trkpt lat="45.96978" lon="6.82486">
        <ele>1646.7488</ele>
        <time>2014-09-02T08:29:03Z</time>
      </trkpt>
      <trkpt lat="45.96979" lon="6.82491">
        <ele>1646.7488</ele>
        <time>2014-09-02T08:29:08Z</time>
      </trkpt>
      <trkpt lat="45.96982" lon="6.82496">
        <ele>1646.7488</ele>
        <time>2014-09-02T08:29:13Z</time>
      </trkpt>
      <trkpt lat="45.96984" lon="6.825">
        <ele>1644.4174</ele>
        <time>2014-09-02T08:29:18Z</time>
      </trkpt>
      <trkpt lat="45.96989" lon="6.82504">
        <ele>1644.4174</ele>
        <time>2014-09-02T08:29:23Z</time>
      </trkpt>
      <trkpt lat="45.96993" lon="6.82509">
        <ele>1642.1144</ele>
        <time>2014-09-02T08:29:28Z</time>
      </trkpt>
      <trkpt lat="45.96997" lon="6.82515">
        <ele>1642.1144</ele>
        <time>2014-09-02T08:29:33Z</time>
      </trkpt>
      <trkpt lat="45.97003" lon="6.82521">
        <ele>1639.8843</ele>
        <time>2014-09-02T08:29:38Z</time>
      </trkpt>
      <trkpt lat="45.97004" lon="6.82525">
        <ele>1639.8843</ele>
        <time>2014-09-02T08:29:43Z</time>
      </trkpt>
      <trkpt lat="45.97005" lon="6.82532">
        <ele>1639.8843</ele>
        <time>2014-09-02T08:29:48Z</time>
      </trkpt>
      <trkpt lat="45.97007" lon="6.82536">
        <ele>1637.5372</ele>
        <time>2014-09-02T08:29:53Z</time>
      </trkpt>
      <trkpt lat="45.97007" lon="6.82538">
        <ele>1637.5372</ele>
        <time>2014-09-02T08:29:58Z</time>
      </trkpt>
      <trkpt lat="45.97005" lon="6.82541">
        <ele>1637.5372</ele>
        <time>2014-09-02T08:30:03Z</time>
      </trkpt>
      <trkpt lat="45.97005" lon="6.82541">
        <ele>1637.5372</ele>
        <time>2014-09-02T08:30:08Z</time>
      </trkpt>
      <trkpt lat="45.97006" lon="6.8254">
        <ele>1637.5372</ele>
        <time>2014-09-02T08:30:13Z</time>
      </trkpt>
      <trkpt lat="45.97008" lon="6.82543">
        <ele>1637.5372</ele>
        <time>2014-09-02T08:30:18Z</time>
      </trkpt>
      <trkpt lat="45.97009" lon="6.82548">
        <ele>1634.8256</ele>
        <time>2014-09-02T08:30:23Z</time>
      </trkpt>
      <trkpt lat="45.97014" lon="6.82552">
        <ele>1634.8256</ele>
        <time>2014-09-02T08:30:28Z</time>
      </trkpt>
      <trkpt lat="45.97015" lon="6.82553">
        <ele>1634.8256</ele>
        <time>2014-09-02T08:30:33Z</time>
      </trkpt>
      <trkpt lat="45.97015" lon="6.82555">
        <ele>1634.8256</ele>
        <time>2014-09-02T08:30:38Z</time>
      </trkpt>
      <trkpt lat="45.97013" lon="6.82558">
        <ele>1631.809</ele>
        <time>2014-09-02T08:30:43Z</time>
      </trkpt>
      <trkpt lat="45.97011" lon="6.82556">
        <ele>1631.809</ele>
        <time>2014-09-02T08:30:48Z</time>
      </trkpt>
      <trkpt lat="45.97007" lon="6.82552">
        <ele>1631.809</ele>
        <time>2014-09-02T08:30:53Z</time>
      </trkpt>
      <trkpt lat="45.97003" lon="6.82549">
        <ele>1628.3994</ele>
        <time>2014-09-02T08:30:58Z</time>
      </trkpt>
      <trkpt lat="45.96999" lon="6.82545">
        <ele>1628.3994</ele>
        <time>2014-09-02T08:31:03Z</time>
      </trkpt>
      <trkpt lat="45.96995" lon="6.82542">
        <ele>1624.9631</ele>
        <time>2014-09-02T08:31:08Z</time>
      </trkpt>
      <trkpt lat="45.96991" lon="6.8254">
        <ele>1624.9631</ele>
        <time>2014-09-02T08:31:13Z</time>
      </trkpt>
      <trkpt lat="45.96986" lon="6.82537">
        <ele>1621.5078</ele>
        <time>2014-09-02T08:31:18Z</time>
      </trkpt>
      <trkpt lat="45.96981" lon="6.82536">
        <ele>1621.5078</ele>
        <time>2014-09-02T08:31:23Z</time>
      </trkpt>
      <trkpt lat="45.96975" lon="6.82534">
        <ele>1618.257</ele>
        <time>2014-09-02T08:31:28Z</time>
      </trkpt>
      <trkpt lat="45.96968" lon="6.82534">
        <ele>1618.257</ele>
        <time>2014-09-02T08:31:33Z</time>
      </trkpt>
      <trkpt lat="45.96962" lon="6.82532">
        <ele>1615.3303</ele>
        <time>2014-09-02T08:31:38Z</time>
      </trkpt>
      <trkpt lat="45.96957" lon="6.82529">
        <ele>1615.3303</ele>
        <time>2014-09-02T08:31:43Z</time>
      </trkpt>
      <trkpt lat="45.96954" lon="6.82526">
        <ele>1612.708</ele>
        <time>2014-09-02T08:31:48Z</time>
      </trkpt>
      <trkpt lat="45.96949" lon="6.82522">
        <ele>1612.708</ele>
        <time>2014-09-02T08:31:53Z</time>
      </trkpt>
      <trkpt lat="45.96944" lon="6.8252">
        <ele>1610.4286</ele>
        <time>2014-09-02T08:31:58Z</time>
      </trkpt>
      <trkpt lat="45.96939" lon="6.82518">
        <ele>1610.4286</ele>
        <time>2014-09-02T08:32:03Z</time>
      </trkpt>
      <trkpt lat="45.96936" lon="6.82519">
        <ele>1610.4286</ele>
        <time>2014-09-02T08:32:08Z</time>
      </trkpt>
      <trkpt lat="45.96935" lon="6.82525">
        <ele>1608.3823</ele>
        <time>2014-09-02T08:32:13Z</time>
      </trkpt>
      <trkpt lat="45.96936" lon="6.82527">
        <ele>1608.3823</ele>
        <time>2014-09-02T08:32:18Z</time>
      </trkpt>
      <trkpt lat="45.96937" lon="6.82531">
        <ele>1608.3823</ele>
        <time>2014-09-02T08:32:23Z</time>
      </trkpt>
      <trkpt lat="45.96935" lon="6.82537">
        <ele>1606.121</ele>
        <time>2014-09-02T08:32:28Z</time>
      </trkpt>
      <trkpt lat="45.96934" lon="6.82546">
        <ele>1606.121</ele>
        <time>2014-09-02T08:32:33Z</time>
      </trkpt>
      <trkpt lat="45.96938" lon="6.82552">
        <ele>1603.8348</ele>
        <time>2014-09-02T08:32:38Z</time>
      </trkpt>
      <trkpt lat="45.96942" lon="6.82557">
        <ele>1603.8348</ele>
        <time>2014-09-02T08:32:43Z</time>
      </trkpt>
      <trkpt lat="45.96945" lon="6.82559">
        <ele>1603.8348</ele>
        <time>2014-09-02T08:32:48Z</time>
      </trkpt>
      <trkpt lat="45.96956" lon="6.82566">
        <ele>1601.5708</ele>
        <time>2014-09-02T08:32:53Z</time>
      </trkpt>
      <trkpt lat="45.96962" lon="6.82572">
        <ele>1601.5708</ele>
        <time>2014-09-02T08:32:58Z</time>
      </trkpt>
      <trkpt lat="45.96967" lon="6.82579">
        <ele>1599.3574</ele>
        <time>2014-09-02T08:33:03Z</time>
      </trkpt>
      <trkpt lat="45.96969" lon="6.82589">
        <ele>1599.3574</ele>
        <time>2014-09-02T08:33:08Z</time>
      </trkpt>
      <trkpt lat="45.9697" lon="6.82594">
        <ele>1597.2068</ele>
        <time>2014-09-02T08:33:13Z</time>
      </trkpt>
      <trkpt lat="45.96972" lon="6.82598">
        <ele>1597.2068</ele>
        <time>2014-09-02T08:33:18Z</time>
      </trkpt>
      <trkpt lat="45.96976" lon="6.82609">
        <ele>1595.2448</ele>
        <time>2014-09-02T08:33:23Z</time>
      </trkpt>
      <trkpt lat="45.96979" lon="6.82617">
        <ele>1595.2448</ele>
        <time>2014-09-02T08:33:28Z</time>
      </trkpt>
      <trkpt lat="45.96979" lon="6.82625">
        <ele>1593.4867</ele>
        <time>2014-09-02T08:33:33Z</time>
      </trkpt>
      <trkpt lat="45.96978" lon="6.82632">
        <ele>1593.4867</ele>
        <time>2014-09-02T08:33:38Z</time>
      </trkpt>
      <trkpt lat="45.96976" lon="6.82644">
        <ele>1591.7732</ele>
        <time>2014-09-02T08:33:43Z</time>
      </trkpt>
      <trkpt lat="45.96975" lon="6.82651">
        <ele>1591.7732</ele>
        <time>2014-09-02T08:33:48Z</time>
      </trkpt>
      <trkpt lat="45.96972" lon="6.82661">
        <ele>1590.0573</ele>
        <time>2014-09-02T08:33:53Z</time>
      </trkpt>
      <trkpt lat="45.96972" lon="6.82665">
        <ele>1590.0573</ele>
        <time>2014-09-02T08:33:58Z</time>
      </trkpt>
      <trkpt lat="45.96972" lon="6.82668">
        <ele>1590.0573</ele>
        <time>2014-09-02T08:34:03Z</time>
      </trkpt>
      <trkpt lat="45.96976" lon="6.82671">
        <ele>1588.3239</ele>
        <time>2014-09-02T08:34:08Z</time>
      </trkpt>
      <trkpt lat="45.9698" lon="6.82672">
        <ele>1588.3239</ele>
        <time>2014-09-02T08:34:13Z</time>
      </trkpt>
      <trkpt lat="45.96983" lon="6.82676">
        <ele>1588.3239</ele>
        <time>2014-09-02T08:34:18Z</time>
      </trkpt>
      <trkpt lat="45.96987" lon="6.82679">
        <ele>1586.8044</ele>
        <time>2014-09-02T08:34:23Z</time>
      </trkpt>
      <trkpt lat="45.96989" lon="6.82681">
        <ele>1586.8044</ele>
        <time>2014-09-02T08:34:28Z</time>
      </trkpt>
      <trkpt lat="45.96995" lon="6.82687">
        <ele>1585.5826</ele>
        <time>2014-09-02T08:34:33Z</time>
      </trkpt>
      <trkpt lat="45.96994" lon="6.82692">
        <ele>1585.5826</ele>
        <time>2014-09-02T08:34:38Z</time>
      </trkpt>
      <trkpt lat="45.96991" lon="6.82697">
        <ele>1585.5826</ele>
        <time>2014-09-02T08:34:43Z</time>
      </trkpt>
      <trkpt lat="45.9699" lon="6.82696">
        <ele>1584.6779</ele>
        <time>2014-09-02T08:34:48Z</time>
      </trkpt>
      <trkpt lat="45.96989" lon="6.82698">
        <ele>1584.6779</ele>
        <time>2014-09-02T08:34:53Z</time>
      </trkpt>
      <trkpt lat="45.96989" lon="6.82699">
        <ele>1584.6779</ele>
        <time>2014-09-02T08:34:58Z</time>
      </trkpt>
      <trkpt lat="45.96989" lon="6.827">
        <ele>1584.6779</ele>
        <time>2014-09-02T08:35:03Z</time>
      </trkpt>
      <trkpt lat="45.96989" lon="6.827">
        <ele>1584.6779</ele>
        <time>2014-09-02T08:35:08Z</time>
      </trkpt>
      <trkpt lat="45.96989" lon="6.82702">
        <ele>1584.6779</ele>
        <time>2014-09-02T08:35:13Z</time>
      </trkpt>
      <trkpt lat="45.96991" lon="6.82704">
        <ele>1584.6779</ele>
        <time>2014-09-02T08:35:18Z</time>
      </trkpt>
      <trkpt lat="45.96993" lon="6.82704">
        <ele>1584.6779</ele>
        <time>2014-09-02T08:35:23Z</time>
      </trkpt>
      <trkpt lat="45.96993" lon="6.82702">
        <ele>1584.5536</ele>
        <time>2014-09-02T08:35:28Z</time>
      </trkpt>
      <trkpt lat="45.96992" lon="6.82698">
        <ele>1584.5536</ele>
        <time>2014-09-02T08:35:33Z</time>
      </trkpt>
      <trkpt lat="45.96989" lon="6.82697">
        <ele>1584.5536</ele>
        <time>2014-09-02T08:35:38Z</time>
      </trkpt>
      <trkpt lat="45.96986" lon="6.82697">
        <ele>1584.5563</ele>
        <time>2014-09-02T08:35:43Z</time>
      </trkpt>
      <trkpt lat="45.96985" lon="6.82697">
        <ele>1584.5563</ele>
        <time>2014-09-02T08:35:48Z</time>
      </trkpt>
      <trkpt lat="45.96985" lon="6.82695">
        <ele>1584.5563</ele>
        <time>2014-09-02T08:35:53Z</time>
      </trkpt>
      <trkpt lat="45.96986" lon="6.82694">
        <ele>1584.5563</ele>
        <time>2014-09-02T08:35:58Z</time>
      </trkpt>
      <trkpt lat="45.96988" lon="6.82691">
        <ele>1584.5563</ele>
        <time>2014-09-02T08:36:03Z</time>
      </trkpt>
      <trkpt lat="45.96989" lon="6.82689">
        <ele>1584.5563</ele>
        <time>2014-09-02T08:36:08Z</time>
      </trkpt>
      <trkpt lat="45.96989" lon="6.82689">
        <ele>1584.5563</ele>
        <time>2014-09-02T08:36:13Z</time>
      </trkpt>
      <trkpt lat="45.96989" lon="6.82687">
        <ele>1584.6997</ele>
        <time>2014-09-02T08:36:33Z</time>
      </trkpt>
      <trkpt lat="45.96989" lon="6.82687">
        <ele>1584.6997</ele>
        <time>2014-09-02T08:36:38Z</time>
      </trkpt>
      <trkpt lat="45.96987" lon="6.82691">
        <ele>1584.6997</ele>
        <time>2014-09-02T08:36:53Z</time>
      </trkpt>
      <trkpt lat="45.96987" lon="6.82691">
        <ele>1584.6997</ele>
        <time>2014-09-02T08:36:58Z</time>
      </trkpt>
      <trkpt lat="45.96986" lon="6.82693">
        <ele>1584.6997</ele>
        <time>2014-09-02T08:37:03Z</time>
      </trkpt>
      <trkpt lat="45.96986" lon="6.82693">
        <ele>1584.6997</ele>
        <time>2014-09-02T08:37:08Z</time>
      </trkpt>
      <trkpt lat="45.96986" lon="6.82693">
        <ele>1584.6997</ele>
        <time>2014-09-02T08:37:33Z</time>
      </trkpt>
      <trkpt lat="45.96986" lon="6.82693">
        <ele>1584.6997</ele>
        <time>2014-09-02T08:37:38Z</time>
      </trkpt>
      <trkpt lat="45.96987" lon="6.82692">
        <ele>1584.6997</ele>
        <time>2014-09-02T08:38:08Z</time>
      </trkpt>
      <trkpt lat="45.96987" lon="6.82692">
        <ele>1584.6997</ele>
        <time>2014-09-02T08:38:13Z</time>
      </trkpt>
      <trkpt lat="45.96985" lon="6.82694">
        <ele>1584.6997</ele>
        <time>2014-09-02T08:39:03Z</time>
      </trkpt>
      <trkpt lat="45.96985" lon="6.82694">
        <ele>1584.6997</ele>
        <time>2014-09-02T08:39:08Z</time>
      </trkpt>
      <trkpt lat="45.96984" lon="6.82692">
        <ele>1584.6794</ele>
        <time>2014-09-02T08:39:13Z</time>
      </trkpt>
      <trkpt lat="45.96983" lon="6.82692">
        <ele>1584.6794</ele>
        <time>2014-09-02T08:39:18Z</time>
      </trkpt>
      <trkpt lat="45.96984" lon="6.82692">
        <ele>1584.6794</ele>
        <time>2014-09-02T08:39:48Z</time>
      </trkpt>
      <trkpt lat="45.96984" lon="6.82691">
        <ele>1584.6794</ele>
        <time>2014-09-02T08:39:53Z</time>
      </trkpt>
      <trkpt lat="45.96984" lon="6.82691">
        <ele>1584.6794</ele>
        <time>2014-09-02T08:39:58Z</time>
      </trkpt>
      <trkpt lat="45.96984" lon="6.82692">
        <ele>1584.6794</ele>
        <time>2014-09-02T08:40:33Z</time>
      </trkpt>
      <trkpt lat="45.96986" lon="6.82694">
        <ele>1584.6794</ele>
        <time>2014-09-02T08:40:38Z</time>
      </trkpt>
      <trkpt lat="45.96986" lon="6.82696">
        <ele>1584.6794</ele>
        <time>2014-09-02T08:40:43Z</time>
      </trkpt>
      <trkpt lat="45.96986" lon="6.82697">
        <ele>1584.6794</ele>
        <time>2014-09-02T08:40:48Z</time>
      </trkpt>
      <trkpt lat="45.96987" lon="6.82703">
        <ele>1586.1302</ele>
        <time>2014-09-02T08:41:08Z</time>
      </trkpt>
      <trkpt lat="45.96989" lon="6.82708">
        <ele>1586.1302</ele>
        <time>2014-09-02T08:41:13Z</time>
      </trkpt>
      <trkpt lat="45.96989" lon="6.82708">
        <ele>1586.1302</ele>
        <time>2014-09-02T08:41:18Z</time>
      </trkpt>
      <trkpt lat="45.9699" lon="6.82705">
        <ele>1586.1302</ele>
        <time>2014-09-02T08:41:23Z</time>
      </trkpt>
      <trkpt lat="45.9699" lon="6.82704">
        <ele>1586.1302</ele>
        <time>2014-09-02T08:41:28Z</time>
      </trkpt>
      <trkpt lat="45.9699" lon="6.82703">
        <ele>1586.1302</ele>
        <time>2014-09-02T08:41:33Z</time>
      </trkpt>
      <trkpt lat="45.9699" lon="6.82703">
        <ele>1586.1302</ele>
        <time>2014-09-02T08:41:38Z</time>
      </trkpt>
      <trkpt lat="45.96991" lon="6.82708">
        <ele>1587.45</ele>
        <time>2014-09-02T08:41:43Z</time>
      </trkpt>
      <trkpt lat="45.96991" lon="6.82715">
        <ele>1587.45</ele>
        <time>2014-09-02T08:41:48Z</time>
      </trkpt>
      <trkpt lat="45.96991" lon="6.82715">
        <ele>1587.45</ele>
        <time>2014-09-02T08:41:53Z</time>
      </trkpt>
      <trkpt lat="45.96992" lon="6.82714">
        <ele>1587.45</ele>
        <time>2014-09-02T08:42:18Z</time>
      </trkpt>
      <trkpt lat="45.96992" lon="6.82715">
        <ele>1587.45</ele>
        <time>2014-09-02T08:42:23Z</time>
      </trkpt>
      <trkpt lat="45.96992" lon="6.82716">
        <ele>1587.45</ele>
        <time>2014-09-02T08:42:28Z</time>
      </trkpt>
      <trkpt lat="45.96991" lon="6.82723">
        <ele>1588.9418</ele>
        <time>2014-09-02T08:42:33Z</time>
      </trkpt>
      <trkpt lat="45.96989" lon="6.82726">
        <ele>1588.9418</ele>
        <time>2014-09-02T08:42:38Z</time>
      </trkpt>
      <trkpt lat="45.96987" lon="6.82728">
        <ele>1588.9418</ele>
        <time>2014-09-02T08:42:43Z</time>
      </trkpt>
      <trkpt lat="45.96983" lon="6.82733">
        <ele>1590.5977</ele>
        <time>2014-09-02T08:42:48Z</time>
      </trkpt>
      <trkpt lat="45.96982" lon="6.82735">
        <ele>1590.5977</ele>
        <time>2014-09-02T08:42:53Z</time>
      </trkpt>
      <trkpt lat="45.96981" lon="6.82735">
        <ele>1590.5977</ele>
        <time>2014-09-02T08:42:58Z</time>
      </trkpt>
      <trkpt lat="45.96978" lon="6.82734">
        <ele>1590.5977</ele>
        <time>2014-09-02T08:43:03Z</time>
      </trkpt>
      <trkpt lat="45.96974" lon="6.82734">
        <ele>1592.6119</ele>
        <time>2014-09-02T08:43:08Z</time>
      </trkpt>
      <trkpt lat="45.96974" lon="6.82735">
        <ele>1592.6119</ele>
        <time>2014-09-02T08:43:13Z</time>
      </trkpt>
      <trkpt lat="45.96972" lon="6.82732">
        <ele>1592.6119</ele>
        <time>2014-09-02T08:43:18Z</time>
      </trkpt>
      <trkpt lat="45.9697" lon="6.82731">
        <ele>1592.6119</ele>
        <time>2014-09-02T08:43:23Z</time>
      </trkpt>
      <trkpt lat="45.96969" lon="6.82733">
        <ele>1592.6119</ele>
        <time>2014-09-02T08:43:28Z</time>
      </trkpt>
      <trkpt lat="45.96969" lon="6.82734">
        <ele>1592.6119</ele>
        <time>2014-09-02T08:43:33Z</time>
      </trkpt>
      <trkpt lat="45.9697" lon="6.82738">
        <ele>1594.6301</ele>
        <time>2014-09-02T08:43:38Z</time>
      </trkpt>
      <trkpt lat="45.96972" lon="6.8274">
        <ele>1594.6301</ele>
        <time>2014-09-02T08:43:43Z</time>
      </trkpt>
      <trkpt lat="45.96974" lon="6.82743">
        <ele>1594.6301</ele>
        <time>2014-09-02T08:43:48Z</time>
      </trkpt>
      <trkpt lat="45.96976" lon="6.82744">
        <ele>1594.6301</ele>
        <time>2014-09-02T08:43:53Z</time>
      </trkpt>
      <trkpt lat="45.96978" lon="6.82748">
        <ele>1596.7424</ele>
        <time>2014-09-02T08:43:58Z</time>
      </trkpt>
      <trkpt lat="45.96979" lon="6.8275">
        <ele>1596.7424</ele>
        <time>2014-09-02T08:44:03Z</time>
      </trkpt>
      <trkpt lat="45.9698" lon="6.82752">
        <ele>1596.7424</ele>
        <time>2014-09-02T08:44:08Z</time>
      </trkpt>
      <trkpt lat="45.96981" lon="6.82754">
        <ele>1596.7424</ele>
        <time>2014-09-02T08:44:13Z</time>
      </trkpt>
      <trkpt lat="45.96982" lon="6.82755">
        <ele>1596.7424</ele>
        <time>2014-09-02T08:44:18Z</time>
      </trkpt>
      <trkpt lat="45.96985" lon="6.82762">
        <ele>1599.0463</ele>
        <time>2014-09-02T08:44:23Z</time>
      </trkpt>
      <trkpt lat="45.96988" lon="6.82767">
        <ele>1599.0463</ele>
        <time>2014-09-02T08:44:28Z</time>
      </trkpt>
      <trkpt lat="45.96987" lon="6.8277">
        <ele>1599.0463</ele>
        <time>2014-09-02T08:44:33Z</time>
      </trkpt>
      <trkpt lat="45.96988" lon="6.82782">
        <ele>1601.4443</ele>
        <time>2014-09-02T08:44:38Z</time>
      </trkpt>
      <trkpt lat="45.96989" lon="6.82784">
        <ele>1601.4443</ele>
        <time>2014-09-02T08:44:43Z</time>
      </trkpt>
      <trkpt lat="45.96991" lon="6.82788">
        <ele>1601.4443</ele>
        <time>2014-09-02T08:44:48Z</time>
      </trkpt>
      <trkpt lat="45.96992" lon="6.82791">
        <ele>1601.4443</ele>
        <time>2014-09-02T08:44:53Z</time>
      </trkpt>
      <trkpt lat="45.96994" lon="6.82792">
        <ele>1603.933</ele>
        <time>2014-09-02T08:44:58Z</time>
      </trkpt>
      <trkpt lat="45.96995" lon="6.82794">
        <ele>1603.933</ele>
        <time>2014-09-02T08:45:03Z</time>
      </trkpt>
      <trkpt lat="45.96996" lon="6.82798">
        <ele>1603.933</ele>
        <time>2014-09-02T08:45:08Z</time>
      </trkpt>
      <trkpt lat="45.96997" lon="6.82801">
        <ele>1603.933</ele>
        <time>2014-09-02T08:45:13Z</time>
      </trkpt>
      <trkpt lat="45.97" lon="6.82804">
        <ele>1606.4222</ele>
        <time>2014-09-02T08:45:18Z</time>
      </trkpt>
      <trkpt lat="45.97003" lon="6.82807">
        <ele>1606.4222</ele>
        <time>2014-09-02T08:45:23Z</time>
      </trkpt>
      <trkpt lat="45.97004" lon="6.82808">
        <ele>1606.4222</ele>
        <time>2014-09-02T08:45:28Z</time>
      </trkpt>
      <trkpt lat="45.97005" lon="6.82811">
        <ele>1606.4222</ele>
        <time>2014-09-02T08:45:33Z</time>
      </trkpt>
      <trkpt lat="45.97008" lon="6.82815">
        <ele>1608.9445</ele>
        <time>2014-09-02T08:45:38Z</time>
      </trkpt>
      <trkpt lat="45.97009" lon="6.82817">
        <ele>1608.9445</ele>
        <time>2014-09-02T08:45:43Z</time>
      </trkpt>
      <trkpt lat="45.9701" lon="6.82819">
        <ele>1608.9445</ele>
        <time>2014-09-02T08:45:48Z</time>
      </trkpt>
      <trkpt lat="45.97011" lon="6.82821">
        <ele>1608.9445</ele>
        <time>2014-09-02T08:45:53Z</time>
      </trkpt>
      <trkpt lat="45.97013" lon="6.82824">
        <ele>1608.9445</ele>
        <time>2014-09-02T08:45:58Z</time>
      </trkpt>
      <trkpt lat="45.97014" lon="6.82825">
        <ele>1608.9445</ele>
        <time>2014-09-02T08:46:03Z</time>
      </trkpt>
      <trkpt lat="45.97015" lon="6.82827">
        <ele>1611.6304</ele>
        <time>2014-09-02T08:46:08Z</time>
      </trkpt>
      <trkpt lat="45.97015" lon="6.8283">
        <ele>1611.6304</ele>
        <time>2014-09-02T08:46:13Z</time>
      </trkpt>
      <trkpt lat="45.97017" lon="6.82833">
        <ele>1611.6304</ele>
        <time>2014-09-02T08:46:18Z</time>
      </trkpt>
      <trkpt lat="45.97019" lon="6.82836">
        <ele>1611.6304</ele>
        <time>2014-09-02T08:46:23Z</time>
      </trkpt>
      <trkpt lat="45.97021" lon="6.82839">
        <ele>1614.3851</ele>
        <time>2014-09-02T08:46:28Z</time>
      </trkpt>
      <trkpt lat="45.97022" lon="6.82841">
        <ele>1614.3851</ele>
        <time>2014-09-02T08:46:33Z</time>
      </trkpt>
      <trkpt lat="45.97024" lon="6.82844">
        <ele>1614.3851</ele>
        <time>2014-09-02T08:46:38Z</time>
      </trkpt>
      <trkpt lat="45.97024" lon="6.82842">
        <ele>1614.3851</ele>
        <time>2014-09-02T08:46:43Z</time>
      </trkpt>
      <trkpt lat="45.97024" lon="6.82843">
        <ele>1614.3851</ele>
        <time>2014-09-02T08:46:48Z</time>
      </trkpt>
      <trkpt lat="45.97023" lon="6.82843">
        <ele>1614.3851</ele>
        <time>2014-09-02T08:46:53Z</time>
      </trkpt>
      <trkpt lat="45.9702" lon="6.82841">
        <ele>1617.2214</ele>
        <time>2014-09-02T08:46:58Z</time>
      </trkpt>
      <trkpt lat="45.97017" lon="6.8284">
        <ele>1617.2214</ele>
        <time>2014-09-02T08:47:03Z</time>
      </trkpt>
      <trkpt lat="45.97019" lon="6.82838">
        <ele>1617.2214</ele>
        <time>2014-09-02T08:47:08Z</time>
      </trkpt>
      <trkpt lat="45.97016" lon="6.82835">
        <ele>1617.2214</ele>
        <time>2014-09-02T08:47:13Z</time>
      </trkpt>
      <trkpt lat="45.97015" lon="6.82832">
        <ele>1620.0938</ele>
        <time>2014-09-02T08:47:18Z</time>
      </trkpt>
      <trkpt lat="45.97012" lon="6.8283">
        <ele>1620.0938</ele>
        <time>2014-09-02T08:47:23Z</time>
      </trkpt>
      <trkpt lat="45.97011" lon="6.82831">
        <ele>1620.0938</ele>
        <time>2014-09-02T08:47:28Z</time>
      </trkpt>
      <trkpt lat="45.9701" lon="6.82831">
        <ele>1620.0938</ele>
        <time>2014-09-02T08:47:33Z</time>
      </trkpt>
      <trkpt lat="45.97007" lon="6.82831">
        <ele>1620.0938</ele>
        <time>2014-09-02T08:47:38Z</time>
      </trkpt>
      <trkpt lat="45.97005" lon="6.82829">
        <ele>1623.45</ele>
        <time>2014-09-02T08:47:43Z</time>
      </trkpt>
      <trkpt lat="45.97003" lon="6.82829">
        <ele>1623.45</ele>
        <time>2014-09-02T08:47:48Z</time>
      </trkpt>
      <trkpt lat="45.97002" lon="6.82829">
        <ele>1623.45</ele>
        <time>2014-09-02T08:47:53Z</time>
      </trkpt>
      <trkpt lat="45.96996" lon="6.82826">
        <ele>1623.45</ele>
        <time>2014-09-02T08:47:58Z</time>
      </trkpt>
      <trkpt lat="45.96996" lon="6.82826">
        <ele>1623.45</ele>
        <time>2014-09-02T08:48:03Z</time>
      </trkpt>
      <trkpt lat="45.96993" lon="6.82823">
        <ele>1627.2572</ele>
        <time>2014-09-02T08:48:08Z</time>
      </trkpt>
      <trkpt lat="45.9699" lon="6.82821">
        <ele>1627.2572</ele>
        <time>2014-09-02T08:48:13Z</time>
      </trkpt>
      <trkpt lat="45.96988" lon="6.82819">
        <ele>1627.2572</ele>
        <time>2014-09-02T08:48:18Z</time>
      </trkpt>
      <trkpt lat="45.96986" lon="6.82818">
        <ele>1627.2572</ele>
        <time>2014-09-02T08:48:23Z</time>
      </trkpt>
      <trkpt lat="45.96985" lon="6.82819">
        <ele>1627.2572</ele>
        <time>2014-09-02T08:48:28Z</time>
      </trkpt>
      <trkpt lat="45.96985" lon="6.82819">
        <ele>1627.2572</ele>
        <time>2014-09-02T08:48:33Z</time>
      </trkpt>
      <trkpt lat="45.96981" lon="6.82817">
        <ele>1631.8014</ele>
        <time>2014-09-02T08:48:38Z</time>
      </trkpt>
      <trkpt lat="45.9698" lon="6.82818">
        <ele>1631.8014</ele>
        <time>2014-09-02T08:48:43Z</time>
      </trkpt>
      <trkpt lat="45.96974" lon="6.82817">
        <ele>1631.8014</ele>
        <time>2014-09-02T08:48:48Z</time>
      </trkpt>
      <trkpt lat="45.96973" lon="6.82816">
        <ele>1631.8014</ele>
        <time>2014-09-02T08:48:53Z</time>
      </trkpt>
      <trkpt lat="45.96971" lon="6.82816">
        <ele>1636.4519</ele>
        <time>2014-09-02T08:48:58Z</time>
      </trkpt>
      <trkpt lat="45.96969" lon="6.82815">
        <ele>1636.4519</ele>
        <time>2014-09-02T08:49:03Z</time>
      </trkpt>
      <trkpt lat="45.96963" lon="6.82811">
        <ele>1636.4519</ele>
        <time>2014-09-02T08:49:08Z</time>
      </trkpt>
      <trkpt lat="45.96962" lon="6.82811">
        <ele>1640.4662</ele>
        <time>2014-09-02T08:49:13Z</time>
      </trkpt>
      <trkpt lat="45.96959" lon="6.82808">
        <ele>1640.4662</ele>
        <time>2014-09-02T08:49:18Z</time>
      </trkpt>
      <trkpt lat="45.96958" lon="6.82808">
        <ele>1640.4662</ele>
        <time>2014-09-02T08:49:23Z</time>
      </trkpt>
      <trkpt lat="45.96958" lon="6.82808">
        <ele>1640.4662</ele>
        <time>2014-09-02T08:49:28Z</time>
      </trkpt>
      <trkpt lat="45.96955" lon="6.82808">
        <ele>1640.4662</ele>
        <time>2014-09-02T08:49:33Z</time>
      </trkpt>
      <trkpt lat="45.96954" lon="6.82808">
        <ele>1640.4662</ele>
        <time>2014-09-02T08:49:38Z</time>
      </trkpt>
      <trkpt lat="45.96953" lon="6.82807">
        <ele>1644.7292</ele>
        <time>2014-09-02T08:49:43Z</time>
      </trkpt>
      <trkpt lat="45.96952" lon="6.82807">
        <ele>1644.7292</ele>
        <time>2014-09-02T08:49:48Z</time>
      </trkpt>
      <trkpt lat="45.96945" lon="6.828">
        <ele>1648.821</ele>
        <time>2014-09-02T08:49:53Z</time>
      </trkpt>
      <trkpt lat="45.96945" lon="6.828">
        <ele>1648.821</ele>
        <time>2014-09-02T08:49:58Z</time>
      </trkpt>
      <trkpt lat="45.96944" lon="6.828">
        <ele>1648.821</ele>
        <time>2014-09-02T08:50:03Z</time>
      </trkpt>
      <trkpt lat="45.96941" lon="6.82801">
        <ele>1648.821</ele>
        <time>2014-09-02T08:50:08Z</time>
      </trkpt>
      <trkpt lat="45.96938" lon="6.82802">
        <ele>1648.821</ele>
        <time>2014-09-02T08:50:13Z</time>
      </trkpt>
      <trkpt lat="45.96934" lon="6.82803">
        <ele>1653.0167</ele>
        <time>2014-09-02T08:50:18Z</time>
      </trkpt>
      <trkpt lat="45.96929" lon="6.82802">
        <ele>1653.0167</ele>
        <time>2014-09-02T08:50:23Z</time>
      </trkpt>
      <trkpt lat="45.96928" lon="6.82802">
        <ele>1653.0167</ele>
        <time>2014-09-02T08:50:28Z</time>
      </trkpt>
      <trkpt lat="45.96928" lon="6.82802">
        <ele>1653.0167</ele>
        <time>2014-09-02T08:50:33Z</time>
      </trkpt>
      <trkpt lat="45.96922" lon="6.82801">
        <ele>1657.542</ele>
        <time>2014-09-02T08:50:38Z</time>
      </trkpt>
      <trkpt lat="45.96921" lon="6.82798">
        <ele>1657.542</ele>
        <time>2014-09-02T08:50:43Z</time>
      </trkpt>
      <trkpt lat="45.96913" lon="6.82795">
        <ele>1661.842</ele>
        <time>2014-09-02T08:50:48Z</time>
      </trkpt>
      <trkpt lat="45.96909" lon="6.82793">
        <ele>1661.842</ele>
        <time>2014-09-02T08:50:53Z</time>
      </trkpt>
      <trkpt lat="45.96909" lon="6.82793">
        <ele>1661.842</ele>
        <time>2014-09-02T08:50:58Z</time>
      </trkpt>
      <trkpt lat="45.96908" lon="6.82794">
        <ele>1661.842</ele>
        <time>2014-09-02T08:51:03Z</time>
      </trkpt>
      <trkpt lat="45.96907" lon="6.82793">
        <ele>1661.842</ele>
        <time>2014-09-02T08:51:08Z</time>
      </trkpt>
      <trkpt lat="45.96905" lon="6.82792">
        <ele>1661.842</ele>
        <time>2014-09-02T08:51:13Z</time>
      </trkpt>
      <trkpt lat="45.96904" lon="6.82792">
        <ele>1665.7782</ele>
        <time>2014-09-02T08:51:18Z</time>
      </trkpt>
      <trkpt lat="45.96903" lon="6.82793">
        <ele>1665.7782</ele>
        <time>2014-09-02T08:51:23Z</time>
      </trkpt>
      <trkpt lat="45.96899" lon="6.82794">
        <ele>1665.7782</ele>
        <time>2014-09-02T08:51:28Z</time>
      </trkpt>
      <trkpt lat="45.96899" lon="6.82794">
        <ele>1665.7782</ele>
        <time>2014-09-02T08:51:33Z</time>
      </trkpt>
      <trkpt lat="45.96898" lon="6.82794">
        <ele>1665.7782</ele>
        <time>2014-09-02T08:51:38Z</time>
      </trkpt>
      <trkpt lat="45.96898" lon="6.82794">
        <ele>1665.7782</ele>
        <time>2014-09-02T08:51:43Z</time>
      </trkpt>
      <trkpt lat="45.96893" lon="6.82791">
        <ele>1669.0653</ele>
        <time>2014-09-02T08:51:48Z</time>
      </trkpt>
      <trkpt lat="45.9689" lon="6.82789">
        <ele>1669.0653</ele>
        <time>2014-09-02T08:51:53Z</time>
      </trkpt>
      <trkpt lat="45.96889" lon="6.82788">
        <ele>1669.0653</ele>
        <time>2014-09-02T08:51:58Z</time>
      </trkpt>
      <trkpt lat="45.96889" lon="6.82788">
        <ele>1669.0653</ele>
        <time>2014-09-02T08:52:03Z</time>
      </trkpt>
      <trkpt lat="45.96885" lon="6.82787">
        <ele>1669.0653</ele>
        <time>2014-09-02T08:52:08Z</time>
      </trkpt>
      <trkpt lat="45.96883" lon="6.82787">
        <ele>1672.0029</ele>
        <time>2014-09-02T08:52:13Z</time>
      </trkpt>
      <trkpt lat="45.96882" lon="6.82787">
        <ele>1672.0029</ele>
        <time>2014-09-02T08:52:18Z</time>
      </trkpt>
      <trkpt lat="45.96882" lon="6.82787">
        <ele>1672.0029</ele>
        <time>2014-09-02T08:52:23Z</time>
      </trkpt>
      <trkpt lat="45.96879" lon="6.82787">
        <ele>1672.0029</ele>
        <time>2014-09-02T08:52:28Z</time>
      </trkpt>
      <trkpt lat="45.96873" lon="6.82785">
        <ele>1674.8849</ele>
        <time>2014-09-02T08:52:33Z</time>
      </trkpt>
      <trkpt lat="45.96872" lon="6.82785">
        <ele>1674.8849</ele>
        <time>2014-09-02T08:52:38Z</time>
      </trkpt>
      <trkpt lat="45.96872" lon="6.82785">
        <ele>1674.8849</ele>
        <time>2014-09-02T08:52:43Z</time>
      </trkpt>
      <trkpt lat="45.96871" lon="6.82784">
        <ele>1674.8849</ele>
        <time>2014-09-02T08:52:48Z</time>
      </trkpt>
      <trkpt lat="45.9687" lon="6.82784">
        <ele>1674.8849</ele>
        <time>2014-09-02T08:52:53Z</time>
      </trkpt>
      <trkpt lat="45.9687" lon="6.82784">
        <ele>1674.8849</ele>
        <time>2014-09-02T08:52:58Z</time>
      </trkpt>
      <trkpt lat="45.96868" lon="6.82783">
        <ele>1674.8849</ele>
        <time>2014-09-02T08:53:03Z</time>
      </trkpt>
      <trkpt lat="45.96863" lon="6.82781">
        <ele>1677.8538</ele>
        <time>2014-09-02T08:53:08Z</time>
      </trkpt>
      <trkpt lat="45.96857" lon="6.8278">
        <ele>1677.8538</ele>
        <time>2014-09-02T08:53:13Z</time>
      </trkpt>
      <trkpt lat="45.96856" lon="6.8278">
        <ele>1677.8538</ele>
        <time>2014-09-02T08:53:18Z</time>
      </trkpt>
      <trkpt lat="45.96855" lon="6.82781">
        <ele>1677.8538</ele>
        <time>2014-09-02T08:53:23Z</time>
      </trkpt>
      <trkpt lat="45.96855" lon="6.82781">
        <ele>1677.8538</ele>
        <time>2014-09-02T08:53:28Z</time>
      </trkpt>
      <trkpt lat="45.96852" lon="6.82782">
        <ele>1680.783</ele>
        <time>2014-09-02T08:53:33Z</time>
      </trkpt>
      <trkpt lat="45.96851" lon="6.82782">
        <ele>1680.783</ele>
        <time>2014-09-02T08:53:38Z</time>
      </trkpt>
      <trkpt lat="45.9685" lon="6.82781">
        <ele>1680.783</ele>
        <time>2014-09-02T08:53:43Z</time>
      </trkpt>
      <trkpt lat="45.9685" lon="6.82781">
        <ele>1680.783</ele>
        <time>2014-09-02T08:53:48Z</time>
      </trkpt>
      <trkpt lat="45.96846" lon="6.82779">
        <ele>1680.783</ele>
        <time>2014-09-02T08:54:03Z</time>
      </trkpt>
      <trkpt lat="45.96841" lon="6.82777">
        <ele>1684.0883</ele>
        <time>2014-09-02T08:54:08Z</time>
      </trkpt>
      <trkpt lat="45.96834" lon="6.82772">
        <ele>1684.0883</ele>
        <time>2014-09-02T08:54:13Z</time>
      </trkpt>
      <trkpt lat="45.9683" lon="6.82768">
        <ele>1687.2035</ele>
        <time>2014-09-02T08:54:18Z</time>
      </trkpt>
      <trkpt lat="45.96828" lon="6.82765">
        <ele>1687.2035</ele>
        <time>2014-09-02T08:54:23Z</time>
      </trkpt>
      <trkpt lat="45.96828" lon="6.82765">
        <ele>1687.2035</ele>
        <time>2014-09-02T08:54:28Z</time>
      </trkpt>
      <trkpt lat="45.96825" lon="6.82766">
        <ele>1687.2035</ele>
        <time>2014-09-02T08:54:33Z</time>
      </trkpt>
      <trkpt lat="45.96824" lon="6.82766">
        <ele>1687.2035</ele>
        <time>2014-09-02T08:54:38Z</time>
      </trkpt>
      <trkpt lat="45.96824" lon="6.82766">
        <ele>1687.2035</ele>
        <time>2014-09-02T08:54:43Z</time>
      </trkpt>
      <trkpt lat="45.96818" lon="6.82763">
        <ele>1690.3254</ele>
        <time>2014-09-02T08:54:48Z</time>
      </trkpt>
      <trkpt lat="45.96817" lon="6.82762">
        <ele>1690.3254</ele>
        <time>2014-09-02T08:54:53Z</time>
      </trkpt>
      <trkpt lat="45.96814" lon="6.82761">
        <ele>1690.3254</ele>
        <time>2014-09-02T08:54:58Z</time>
      </trkpt>
      <trkpt lat="45.96813" lon="6.82761">
        <ele>1690.3254</ele>
        <time>2014-09-02T08:55:03Z</time>
      </trkpt>
      <trkpt lat="45.96811" lon="6.82761">
        <ele>1690.3254</ele>
        <time>2014-09-02T08:55:08Z</time>
      </trkpt>
      <trkpt lat="45.96808" lon="6.8276">
        <ele>1693.305</ele>
        <time>2014-09-02T08:55:18Z</time>
      </trkpt>
      <trkpt lat="45.96805" lon="6.8276">
        <ele>1693.305</ele>
        <time>2014-09-02T08:55:23Z</time>
      </trkpt>
      <trkpt lat="45.96805" lon="6.8276">
        <ele>1693.305</ele>
        <time>2014-09-02T08:55:28Z</time>
      </trkpt>
      <trkpt lat="45.96805" lon="6.8276">
        <ele>1693.305</ele>
        <time>2014-09-02T08:55:33Z</time>
      </trkpt>
      <trkpt lat="45.96796" lon="6.82763">
        <ele>1696.2501</ele>
        <time>2014-09-02T08:55:38Z</time>
      </trkpt>
      <trkpt lat="45.96792" lon="6.82763">
        <ele>1696.2501</ele>
        <time>2014-09-02T08:55:43Z</time>
      </trkpt>
      <trkpt lat="45.96788" lon="6.82758">
        <ele>1696.2501</ele>
        <time>2014-09-02T08:55:48Z</time>
      </trkpt>
      <trkpt lat="45.96786" lon="6.82758">
        <ele>1698.9583</ele>
        <time>2014-09-02T08:55:53Z</time>
      </trkpt>
      <trkpt lat="45.96786" lon="6.82758">
        <ele>1698.9583</ele>
        <time>2014-09-02T08:55:58Z</time>
      </trkpt>
      <trkpt lat="45.96784" lon="6.82758">
        <ele>1698.9583</ele>
        <time>2014-09-02T08:56:03Z</time>
      </trkpt>
      <trkpt lat="45.96783" lon="6.82757">
        <ele>1698.9583</ele>
        <time>2014-09-02T08:56:08Z</time>
      </trkpt>
      <trkpt lat="45.96781" lon="6.82756">
        <ele>1698.9583</ele>
        <time>2014-09-02T08:56:13Z</time>
      </trkpt>
      <trkpt lat="45.9678" lon="6.82755">
        <ele>1698.9583</ele>
        <time>2014-09-02T08:56:18Z</time>
      </trkpt>
      <trkpt lat="45.9678" lon="6.82755">
        <ele>1698.9583</ele>
        <time>2014-09-02T08:56:23Z</time>
      </trkpt>
      <trkpt lat="45.96777" lon="6.82754">
        <ele>1702.0787</ele>
        <time>2014-09-02T08:56:33Z</time>
      </trkpt>
      <trkpt lat="45.96776" lon="6.82754">
        <ele>1702.0787</ele>
        <time>2014-09-02T08:56:38Z</time>
      </trkpt>
      <trkpt lat="45.96776" lon="6.82754">
        <ele>1702.0787</ele>
        <time>2014-09-02T08:56:43Z</time>
      </trkpt>
      <trkpt lat="45.96775" lon="6.82754">
        <ele>1702.0787</ele>
        <time>2014-09-02T08:56:48Z</time>
      </trkpt>
      <trkpt lat="45.96773" lon="6.82754">
        <ele>1702.0787</ele>
        <time>2014-09-02T08:56:53Z</time>
      </trkpt>
      <trkpt lat="45.96772" lon="6.82753">
        <ele>1702.0787</ele>
        <time>2014-09-02T08:56:58Z</time>
      </trkpt>
      <trkpt lat="45.96769" lon="6.82751">
        <ele>1702.0787</ele>
        <time>2014-09-02T08:57:03Z</time>
      </trkpt>
      <trkpt lat="45.96764" lon="6.82747">
        <ele>1705.5348</ele>
        <time>2014-09-02T08:57:08Z</time>
      </trkpt>
      <trkpt lat="45.96762" lon="6.82745">
        <ele>1705.5348</ele>
        <time>2014-09-02T08:57:13Z</time>
      </trkpt>
      <trkpt lat="45.96761" lon="6.82745">
        <ele>1705.5348</ele>
        <time>2014-09-02T08:57:18Z</time>
      </trkpt>
      <trkpt lat="45.96761" lon="6.82745">
        <ele>1705.5348</ele>
        <time>2014-09-02T08:57:23Z</time>
      </trkpt>
      <trkpt lat="45.96756" lon="6.82743">
        <ele>1705.5348</ele>
        <time>2014-09-02T08:57:28Z</time>
      </trkpt>
      <trkpt lat="45.96755" lon="6.82742">
        <ele>1708.6497</ele>
        <time>2014-09-02T08:57:33Z</time>
      </trkpt>
      <trkpt lat="45.96755" lon="6.82743">
        <ele>1708.6497</ele>
        <time>2014-09-02T08:57:38Z</time>
      </trkpt>
      <trkpt lat="45.96755" lon="6.82743">
        <ele>1708.6497</ele>
        <time>2014-09-02T08:57:43Z</time>
      </trkpt>
      <trkpt lat="45.96753" lon="6.82742">
        <ele>1708.6497</ele>
        <time>2014-09-02T08:57:48Z</time>
      </trkpt>
      <trkpt lat="45.9675" lon="6.82742">
        <ele>1708.6497</ele>
        <time>2014-09-02T08:57:53Z</time>
      </trkpt>
      <trkpt lat="45.96745" lon="6.82741">
        <ele>1711.633</ele>
        <time>2014-09-02T08:57:58Z</time>
      </trkpt>
      <trkpt lat="45.96745" lon="6.82741">
        <ele>1711.633</ele>
        <time>2014-09-02T08:58:03Z</time>
      </trkpt>
      <trkpt lat="45.96743" lon="6.82739">
        <ele>1711.633</ele>
        <time>2014-09-02T08:58:08Z</time>
      </trkpt>
      <trkpt lat="45.96741" lon="6.82737">
        <ele>1711.633</ele>
        <time>2014-09-02T08:58:13Z</time>
      </trkpt>
      <trkpt lat="45.96741" lon="6.82737">
        <ele>1711.633</ele>
        <time>2014-09-02T08:58:18Z</time>
      </trkpt>
      <trkpt lat="45.9674" lon="6.82737">
        <ele>1711.633</ele>
        <time>2014-09-02T08:58:33Z</time>
      </trkpt>
      <trkpt lat="45.9674" lon="6.82737">
        <ele>1711.633</ele>
        <time>2014-09-02T08:58:38Z</time>
      </trkpt>
      <trkpt lat="45.96736" lon="6.82737">
        <ele>1715.2997</ele>
        <time>2014-09-02T08:58:53Z</time>
      </trkpt>
      <trkpt lat="45.96736" lon="6.82737">
        <ele>1715.2997</ele>
        <time>2014-09-02T08:58:58Z</time>
      </trkpt>
      <trkpt lat="45.96729" lon="6.82735">
        <ele>1715.2997</ele>
        <time>2014-09-02T08:59:03Z</time>
      </trkpt>
      <trkpt lat="45.96729" lon="6.82735">
        <ele>1715.2997</ele>
        <time>2014-09-02T08:59:08Z</time>
      </trkpt>
      <trkpt lat="45.96712" lon="6.82726">
        <ele>1718.7599</ele>
        <time>2014-09-02T08:59:13Z</time>
      </trkpt>
      <trkpt lat="45.96709" lon="6.82724">
        <ele>1718.7599</ele>
        <time>2014-09-02T08:59:18Z</time>
      </trkpt>
      <trkpt lat="45.96702" lon="6.82723">
        <ele>1721.9537</ele>
        <time>2014-09-02T08:59:23Z</time>
      </trkpt>
      <trkpt lat="45.96702" lon="6.82723">
        <ele>1721.9537</ele>
        <time>2014-09-02T08:59:28Z</time>
      </trkpt>
      <trkpt lat="45.96696" lon="6.82722">
        <ele>1721.9537</ele>
        <time>2014-09-02T08:59:33Z</time>
      </trkpt>
      <trkpt lat="45.96696" lon="6.82722">
        <ele>1721.9537</ele>
        <time>2014-09-02T08:59:38Z</time>
      </trkpt>
      <trkpt lat="45.96691" lon="6.8272">
        <ele>1725.0864</ele>
        <time>2014-09-02T08:59:43Z</time>
      </trkpt>
      <trkpt lat="45.96687" lon="6.82717">
        <ele>1725.0864</ele>
        <time>2014-09-02T08:59:48Z</time>
      </trkpt>
      <trkpt lat="45.96687" lon="6.82717">
        <ele>1725.0864</ele>
        <time>2014-09-02T08:59:53Z</time>
      </trkpt>
      <trkpt lat="45.96681" lon="6.82715">
        <ele>1728.1464</ele>
        <time>2014-09-02T09:01:58Z</time>
      </trkpt>
      <trkpt lat="45.96679" lon="6.82719">
        <ele>1728.1464</ele>
        <time>2014-09-02T09:02:03Z</time>
      </trkpt>
      <trkpt lat="45.96678" lon="6.82722">
        <ele>1728.1464</ele>
        <time>2014-09-02T09:02:08Z</time>
      </trkpt>
      <trkpt lat="45.96678" lon="6.82722">
        <ele>1728.1464</ele>
        <time>2014-09-02T09:02:13Z</time>
      </trkpt>
      <trkpt lat="45.96676" lon="6.82722">
        <ele>1728.1464</ele>
        <time>2014-09-02T09:02:18Z</time>
      </trkpt>
      <trkpt lat="45.96671" lon="6.82722">
        <ele>1730.8208</ele>
        <time>2014-09-02T09:02:23Z</time>
      </trkpt>
      <trkpt lat="45.96671" lon="6.82722">
        <ele>1730.8208</ele>
        <time>2014-09-02T09:02:28Z</time>
      </trkpt>
      <trkpt lat="45.96671" lon="6.82724">
        <ele>1730.8208</ele>
        <time>2014-09-02T09:02:33Z</time>
      </trkpt>
      <trkpt lat="45.96667" lon="6.82728">
        <ele>1730.8208</ele>
        <time>2014-09-02T09:02:38Z</time>
      </trkpt>
      <trkpt lat="45.96659" lon="6.8273">
        <ele>1732.9796</ele>
        <time>2014-09-02T09:02:43Z</time>
      </trkpt>
      <trkpt lat="45.96658" lon="6.82731">
        <ele>1732.9796</ele>
        <time>2014-09-02T09:02:48Z</time>
      </trkpt>
      <trkpt lat="45.96658" lon="6.82733">
        <ele>1732.9796</ele>
        <time>2014-09-02T09:02:53Z</time>
      </trkpt>
      <trkpt lat="45.96653" lon="6.82731">
        <ele>1732.9796</ele>
        <time>2014-09-02T09:02:58Z</time>
      </trkpt>
      <trkpt lat="45.96653" lon="6.82731">
        <ele>1732.9796</ele>
        <time>2014-09-02T09:03:03Z</time>
      </trkpt>
      <trkpt lat="45.96649" lon="6.82732">
        <ele>1734.9795</ele>
        <time>2014-09-02T09:03:08Z</time>
      </trkpt>
      <trkpt lat="45.96648" lon="6.82733">
        <ele>1734.9795</ele>
        <time>2014-09-02T09:03:13Z</time>
      </trkpt>
      <trkpt lat="45.96646" lon="6.82734">
        <ele>1734.9795</ele>
        <time>2014-09-02T09:03:18Z</time>
      </trkpt>
      <trkpt lat="45.96644" lon="6.82734">
        <ele>1734.9795</ele>
        <time>2014-09-02T09:03:23Z</time>
      </trkpt>
      <trkpt lat="45.96644" lon="6.82737">
        <ele>1734.9795</ele>
        <time>2014-09-02T09:03:28Z</time>
      </trkpt>
      <trkpt lat="45.96642" lon="6.82737">
        <ele>1736.9064</ele>
        <time>2014-09-02T09:03:33Z</time>
      </trkpt>
      <trkpt lat="45.96637" lon="6.82734">
        <ele>1736.9064</ele>
        <time>2014-09-02T09:03:38Z</time>
      </trkpt>
      <trkpt lat="45.96636" lon="6.82732">
        <ele>1736.9064</ele>
        <time>2014-09-02T09:03:43Z</time>
      </trkpt>
      <trkpt lat="45.96632" lon="6.82727">
        <ele>1738.7251</ele>
        <time>2014-09-02T09:03:48Z</time>
      </trkpt>
      <trkpt lat="45.96629" lon="6.82725">
        <ele>1738.7251</ele>
        <time>2014-09-02T09:03:53Z</time>
      </trkpt>
      <trkpt lat="45.96623" lon="6.82718">
        <ele>1740.4036</ele>
        <time>2014-09-02T09:03:58Z</time>
      </trkpt>
      <trkpt lat="45.96623" lon="6.82714">
        <ele>1740.4036</ele>
        <time>2014-09-02T09:04:03Z</time>
      </trkpt>
      <trkpt lat="45.96624" lon="6.82707">
        <ele>1740.4036</ele>
        <time>2014-09-02T09:04:08Z</time>
      </trkpt>
      <trkpt lat="45.96624" lon="6.82705">
        <ele>1740.4036</ele>
        <time>2014-09-02T09:04:13Z</time>
      </trkpt>
      <trkpt lat="45.96622" lon="6.827">
        <ele>1742.0996</ele>
        <time>2014-09-02T09:04:18Z</time>
      </trkpt>
      <trkpt lat="45.96622" lon="6.82698">
        <ele>1742.0996</ele>
        <time>2014-09-02T09:04:23Z</time>
      </trkpt>
      <trkpt lat="45.96619" lon="6.82693">
        <ele>1742.0996</ele>
        <time>2014-09-02T09:04:28Z</time>
      </trkpt>
      <trkpt lat="45.96619" lon="6.82693">
        <ele>1742.0996</ele>
        <time>2014-09-02T09:04:33Z</time>
      </trkpt>
      <trkpt lat="45.96615" lon="6.82692">
        <ele>1743.729</ele>
        <time>2014-09-02T09:04:38Z</time>
      </trkpt>
      <trkpt lat="45.96614" lon="6.82692">
        <ele>1743.729</ele>
        <time>2014-09-02T09:04:43Z</time>
      </trkpt>
      <trkpt lat="45.96613" lon="6.82691">
        <ele>1743.729</ele>
        <time>2014-09-02T09:04:48Z</time>
      </trkpt>
      <trkpt lat="45.9661" lon="6.8269">
        <ele>1743.729</ele>
        <time>2014-09-02T09:04:53Z</time>
      </trkpt>
      <trkpt lat="45.96606" lon="6.82691">
        <ele>1745.1133</ele>
        <time>2014-09-02T09:04:58Z</time>
      </trkpt>
      <trkpt lat="45.96606" lon="6.82691">
        <ele>1745.1133</ele>
        <time>2014-09-02T09:05:03Z</time>
      </trkpt>
      <trkpt lat="45.96605" lon="6.8269">
        <ele>1745.1133</ele>
        <time>2014-09-02T09:05:08Z</time>
      </trkpt>
      <trkpt lat="45.96603" lon="6.82691">
        <ele>1745.1133</ele>
        <time>2014-09-02T09:05:13Z</time>
      </trkpt>
      <trkpt lat="45.96603" lon="6.82691">
        <ele>1745.1133</ele>
        <time>2014-09-02T09:05:18Z</time>
      </trkpt>
      <trkpt lat="45.96601" lon="6.82693">
        <ele>1745.1133</ele>
        <time>2014-09-02T09:05:23Z</time>
      </trkpt>
      <trkpt lat="45.966" lon="6.82693">
        <ele>1745.1133</ele>
        <time>2014-09-02T09:05:28Z</time>
      </trkpt>
      <trkpt lat="45.966" lon="6.82694">
        <ele>1745.1133</ele>
        <time>2014-09-02T09:05:33Z</time>
      </trkpt>
      <trkpt lat="45.966" lon="6.82695">
        <ele>1745.1133</ele>
        <time>2014-09-02T09:05:38Z</time>
      </trkpt>
      <trkpt lat="45.96596" lon="6.82691">
        <ele>1746.7362</ele>
        <time>2014-09-02T09:05:43Z</time>
      </trkpt>
      <trkpt lat="45.96596" lon="6.82691">
        <ele>1746.7362</ele>
        <time>2014-09-02T09:05:48Z</time>
      </trkpt>
      <trkpt lat="45.9659" lon="6.82687">
        <ele>1746.7362</ele>
        <time>2014-09-02T09:05:53Z</time>
      </trkpt>
      <trkpt lat="45.9659" lon="6.82687">
        <ele>1746.7362</ele>
        <time>2014-09-02T09:05:58Z</time>
      </trkpt>
      <trkpt lat="45.96585" lon="6.82685">
        <ele>1748.2814</ele>
        <time>2014-09-02T09:06:08Z</time>
      </trkpt>
      <trkpt lat="45.96579" lon="6.82681">
        <ele>1748.2814</ele>
        <time>2014-09-02T09:06:13Z</time>
      </trkpt>
      <trkpt lat="45.96576" lon="6.82677">
        <ele>1749.7731</ele>
        <time>2014-09-02T09:06:18Z</time>
      </trkpt>
      <trkpt lat="45.96571" lon="6.82673">
        <ele>1749.7731</ele>
        <time>2014-09-02T09:06:23Z</time>
      </trkpt>
      <trkpt lat="45.96569" lon="6.82671">
        <ele>1749.7731</ele>
        <time>2014-09-02T09:06:28Z</time>
      </trkpt>
      <trkpt lat="45.96568" lon="6.8267">
        <ele>1751.2484</ele>
        <time>2014-09-02T09:06:33Z</time>
      </trkpt>
      <trkpt lat="45.96564" lon="6.82666">
        <ele>1751.2484</ele>
        <time>2014-09-02T09:06:38Z</time>
      </trkpt>
      <trkpt lat="45.96562" lon="6.82664">
        <ele>1751.2484</ele>
        <time>2014-09-02T09:06:43Z</time>
      </trkpt>
      <trkpt lat="45.96562" lon="6.82664">
        <ele>1751.2484</ele>
        <time>2014-09-02T09:06:48Z</time>
      </trkpt>
      <trkpt lat="45.9656" lon="6.82663">
        <ele>1752.6698</ele>
        <time>2014-09-02T09:06:53Z</time>
      </trkpt>
      <trkpt lat="45.96556" lon="6.82664">
        <ele>1752.6698</ele>
        <time>2014-09-02T09:06:58Z</time>
      </trkpt>
      <trkpt lat="45.96556" lon="6.82664">
        <ele>1752.6698</ele>
        <time>2014-09-02T09:07:03Z</time>
      </trkpt>
      <trkpt lat="45.96551" lon="6.82664">
        <ele>1752.6698</ele>
        <time>2014-09-02T09:07:08Z</time>
      </trkpt>
      <trkpt lat="45.96545" lon="6.82664">
        <ele>1753.9158</ele>
        <time>2014-09-02T09:07:13Z</time>
      </trkpt>
      <trkpt lat="45.96543" lon="6.82663">
        <ele>1753.9158</ele>
        <time>2014-09-02T09:07:18Z</time>
      </trkpt>
      <trkpt lat="45.9654" lon="6.82659">
        <ele>1753.9158</ele>
        <time>2014-09-02T09:07:23Z</time>
      </trkpt>
      <trkpt lat="45.96536" lon="6.82654">
        <ele>1754.9177</ele>
        <time>2014-09-02T09:07:28Z</time>
      </trkpt>
      <trkpt lat="45.96533" lon="6.82653">
        <ele>1754.9177</ele>
        <time>2014-09-02T09:07:33Z</time>
      </trkpt>
      <trkpt lat="45.96532" lon="6.82654">
        <ele>1754.9177</ele>
        <time>2014-09-02T09:07:38Z</time>
      </trkpt>
      <trkpt lat="45.9653" lon="6.82655">
        <ele>1754.9177</ele>
        <time>2014-09-02T09:07:43Z</time>
      </trkpt>
      <trkpt lat="45.96528" lon="6.82655">
        <ele>1754.9177</ele>
        <time>2014-09-02T09:07:48Z</time>
      </trkpt>
      <trkpt lat="45.96522" lon="6.82654">
        <ele>1755.9154</ele>
        <time>2014-09-02T09:07:53Z</time>
      </trkpt>
      <trkpt lat="45.96518" lon="6.82651">
        <ele>1755.9154</ele>
        <time>2014-09-02T09:07:58Z</time>
      </trkpt>
      <trkpt lat="45.96516" lon="6.8265">
        <ele>1755.9154</ele>
        <time>2014-09-02T09:08:03Z</time>
      </trkpt>
      <trkpt lat="45.96513" lon="6.82652">
        <ele>1756.6552</ele>
        <time>2014-09-02T09:08:08Z</time>
      </trkpt>
      <trkpt lat="45.9651" lon="6.82652">
        <ele>1756.6552</ele>
        <time>2014-09-02T09:08:13Z</time>
      </trkpt>
      <trkpt lat="45.96508" lon="6.82652">
        <ele>1756.6552</ele>
        <time>2014-09-02T09:08:18Z</time>
      </trkpt>
      <trkpt lat="45.96504" lon="6.82654">
        <ele>1757.0468</ele>
        <time>2014-09-02T09:08:23Z</time>
      </trkpt>
      <trkpt lat="45.96501" lon="6.82656">
        <ele>1757.0468</ele>
        <time>2014-09-02T09:08:28Z</time>
      </trkpt>
      <trkpt lat="45.96501" lon="6.82659">
        <ele>1757.0468</ele>
        <time>2014-09-02T09:08:33Z</time>
      </trkpt>
      <trkpt lat="45.96501" lon="6.82664">
        <ele>1757.0468</ele>
        <time>2014-09-02T09:08:38Z</time>
      </trkpt>
      <trkpt lat="45.965" lon="6.82667">
        <ele>1757.238</ele>
        <time>2014-09-02T09:08:43Z</time>
      </trkpt>
      <trkpt lat="45.96498" lon="6.82669">
        <ele>1757.238</ele>
        <time>2014-09-02T09:08:48Z</time>
      </trkpt>
      <trkpt lat="45.96497" lon="6.8267">
        <ele>1757.238</ele>
        <time>2014-09-02T09:08:53Z</time>
      </trkpt>
      <trkpt lat="45.96496" lon="6.82671">
        <ele>1757.238</ele>
        <time>2014-09-02T09:08:58Z</time>
      </trkpt>
      <trkpt lat="45.96496" lon="6.82674">
        <ele>1757.238</ele>
        <time>2014-09-02T09:09:03Z</time>
      </trkpt>
      <trkpt lat="45.96495" lon="6.82676">
        <ele>1757.238</ele>
        <time>2014-09-02T09:09:08Z</time>
      </trkpt>
      <trkpt lat="45.96492" lon="6.82679">
        <ele>1757.1793</ele>
        <time>2014-09-02T09:09:13Z</time>
      </trkpt>
      <trkpt lat="45.96487" lon="6.82682">
        <ele>1757.1793</ele>
        <time>2014-09-02T09:09:18Z</time>
      </trkpt>
      <trkpt lat="45.96486" lon="6.82682">
        <ele>1757.1793</ele>
        <time>2014-09-02T09:09:23Z</time>
      </trkpt>
      <trkpt lat="45.96487" lon="6.82683">
        <ele>1757.1793</ele>
        <time>2014-09-02T09:09:28Z</time>
      </trkpt>
      <trkpt lat="45.96485" lon="6.82679">
        <ele>1757.0554</ele>
        <time>2014-09-02T09:09:33Z</time>
      </trkpt>
      <trkpt lat="45.96483" lon="6.82677">
        <ele>1757.0554</ele>
        <time>2014-09-02T09:09:38Z</time>
      </trkpt>
      <trkpt lat="45.96481" lon="6.82674">
        <ele>1757.0554</ele>
        <time>2014-09-02T09:09:43Z</time>
      </trkpt>
      <trkpt lat="45.96479" lon="6.8267">
        <ele>1757.0554</ele>
        <time>2014-09-02T09:09:48Z</time>
      </trkpt>
      <trkpt lat="45.96479" lon="6.8267">
        <ele>1757.0554</ele>
        <time>2014-09-02T09:09:53Z</time>
      </trkpt>
      <trkpt lat="45.96478" lon="6.82667">
        <ele>1757.499</ele>
        <time>2014-09-02T09:10:33Z</time>
      </trkpt>
      <trkpt lat="45.96471" lon="6.82663">
        <ele>1757.499</ele>
        <time>2014-09-02T09:10:38Z</time>
      </trkpt>
      <trkpt lat="45.9647" lon="6.82664">
        <ele>1757.499</ele>
        <time>2014-09-02T09:10:43Z</time>
      </trkpt>
      <trkpt lat="45.96469" lon="6.82665">
        <ele>1758.0568</ele>
        <time>2014-09-02T09:10:48Z</time>
      </trkpt>
      <trkpt lat="45.96468" lon="6.82664">
        <ele>1758.0568</ele>
        <time>2014-09-02T09:10:53Z</time>
      </trkpt>
      <trkpt lat="45.96466" lon="6.82661">
        <ele>1758.0568</ele>
        <time>2014-09-02T09:10:58Z</time>
      </trkpt>
      <trkpt lat="45.96462" lon="6.82658">
        <ele>1758.0568</ele>
        <time>2014-09-02T09:11:03Z</time>
      </trkpt>
      <trkpt lat="45.96456" lon="6.82652">
        <ele>1758.7985</ele>
        <time>2014-09-02T09:11:08Z</time>
      </trkpt>
      <trkpt lat="45.9645" lon="6.8265">
        <ele>1758.7985</ele>
        <time>2014-09-02T09:11:13Z</time>
      </trkpt>
      <trkpt lat="45.96448" lon="6.8265">
        <ele>1758.7985</ele>
        <time>2014-09-02T09:11:18Z</time>
      </trkpt>
      <trkpt lat="45.96443" lon="6.8265">
        <ele>1759.6005</ele>
        <time>2014-09-02T09:11:23Z</time>
      </trkpt>
      <trkpt lat="45.96439" lon="6.8265">
        <ele>1759.6005</ele>
        <time>2014-09-02T09:11:28Z</time>
      </trkpt>
      <trkpt lat="45.96437" lon="6.82649">
        <ele>1759.6005</ele>
        <time>2014-09-02T09:11:33Z</time>
      </trkpt>
      <trkpt lat="45.96431" lon="6.82648">
        <ele>1760.5209</ele>
        <time>2014-09-02T09:11:38Z</time>
      </trkpt>
      <trkpt lat="45.96428" lon="6.82648">
        <ele>1760.5209</ele>
        <time>2014-09-02T09:11:43Z</time>
      </trkpt>
      <trkpt lat="45.96425" lon="6.8265">
        <ele>1760.5209</ele>
        <time>2014-09-02T09:11:48Z</time>
      </trkpt>
      <trkpt lat="45.96423" lon="6.8265">
        <ele>1760.5209</ele>
        <time>2014-09-02T09:11:53Z</time>
      </trkpt>
      <trkpt lat="45.9642" lon="6.8265">
        <ele>1761.3679</ele>
        <time>2014-09-02T09:11:58Z</time>
      </trkpt>
      <trkpt lat="45.96418" lon="6.82651">
        <ele>1761.3679</ele>
        <time>2014-09-02T09:12:03Z</time>
      </trkpt>
      <trkpt lat="45.96414" lon="6.82653">
        <ele>1761.3679</ele>
        <time>2014-09-02T09:12:08Z</time>
      </trkpt>
      <trkpt lat="45.96411" lon="6.82654">
        <ele>1762.1373</ele>
        <time>2014-09-02T09:12:13Z</time>
      </trkpt>
      <trkpt lat="45.96407" lon="6.82654">
        <ele>1762.1373</ele>
        <time>2014-09-02T09:12:18Z</time>
      </trkpt>
      <trkpt lat="45.96407" lon="6.82655">
        <ele>1762.1373</ele>
        <time>2014-09-02T09:12:23Z</time>
      </trkpt>
      <trkpt lat="45.96404" lon="6.82657">
        <ele>1762.1373</ele>
        <time>2014-09-02T09:12:28Z</time>
      </trkpt>
      <trkpt lat="45.96402" lon="6.82659">
        <ele>1762.8967</ele>
        <time>2014-09-02T09:12:33Z</time>
      </trkpt>
      <trkpt lat="45.96405" lon="6.82661">
        <ele>1762.8967</ele>
        <time>2014-09-02T09:12:38Z</time>
      </trkpt>
      <trkpt lat="45.96407" lon="6.82663">
        <ele>1762.8967</ele>
        <time>2014-09-02T09:12:43Z</time>
      </trkpt>
      <trkpt lat="45.96408" lon="6.82667">
        <ele>1762.8967</ele>
        <time>2014-09-02T09:12:48Z</time>
      </trkpt>
      <trkpt lat="45.96411" lon="6.82671">
        <ele>1763.7954</ele>
        <time>2014-09-02T09:12:53Z</time>
      </trkpt>
      <trkpt lat="45.9641" lon="6.82674">
        <ele>1763.7954</ele>
        <time>2014-09-02T09:12:58Z</time>
      </trkpt>
      <trkpt lat="45.96407" lon="6.82678">
        <ele>1763.7954</ele>
        <time>2014-09-02T09:13:03Z</time>
      </trkpt>
      <trkpt lat="45.96405" lon="6.82683">
        <ele>1764.5963</ele>
        <time>2014-09-02T09:13:08Z</time>
      </trkpt>
      <trkpt lat="45.96404" lon="6.82686">
        <ele>1764.5963</ele>
        <time>2014-09-02T09:13:13Z</time>
      </trkpt>
      <trkpt lat="45.96402" lon="6.82689">
        <ele>1764.5963</ele>
        <time>2014-09-02T09:13:18Z</time>
      </trkpt>
      <trkpt lat="45.964" lon="6.8269">
        <ele>1764.5963</ele>
        <time>2014-09-02T09:13:23Z</time>
      </trkpt>
      <trkpt lat="45.964" lon="6.82691">
        <ele>1764.5963</ele>
        <time>2014-09-02T09:13:28Z</time>
      </trkpt>
      <trkpt lat="45.96399" lon="6.82694">
        <ele>1765.5267</ele>
        <time>2014-09-02T09:13:33Z</time>
      </trkpt>
      <trkpt lat="45.96393" lon="6.827">
        <ele>1765.5267</ele>
        <time>2014-09-02T09:13:38Z</time>
      </trkpt>
      <trkpt lat="45.96389" lon="6.82704">
        <ele>1766.3068</ele>
        <time>2014-09-02T09:13:43Z</time>
      </trkpt>
      <trkpt lat="45.96384" lon="6.82707">
        <ele>1766.3068</ele>
        <time>2014-09-02T09:13:48Z</time>
      </trkpt>
      <trkpt lat="45.9638" lon="6.82708">
        <ele>1767.0375</ele>
        <time>2014-09-02T09:13:53Z</time>
      </trkpt>
      <trkpt lat="45.96378" lon="6.82709">
        <ele>1767.0375</ele>
        <time>2014-09-02T09:13:58Z</time>
      </trkpt>
      <trkpt lat="45.96378" lon="6.82709">
        <ele>1767.0375</ele>
        <time>2014-09-02T09:14:03Z</time>
      </trkpt>
      <trkpt lat="45.96375" lon="6.82709">
        <ele>1767.0375</ele>
        <time>2014-09-02T09:14:08Z</time>
      </trkpt>
      <trkpt lat="45.96369" lon="6.82707">
        <ele>1768</ele>
        <time>2014-09-02T09:14:13Z</time>
      </trkpt>
      <trkpt lat="45.96364" lon="6.82708">
        <ele>1768</ele>
        <time>2014-09-02T09:14:18Z</time>
      </trkpt>
      <trkpt lat="45.96359" lon="6.8271">
        <ele>1768.9926</ele>
        <time>2014-09-02T09:14:23Z</time>
      </trkpt>
      <trkpt lat="45.96358" lon="6.8271">
        <ele>1768.9926</ele>
        <time>2014-09-02T09:14:28Z</time>
      </trkpt>
      <trkpt lat="45.96358" lon="6.8271">
        <ele>1768.9926</ele>
        <time>2014-09-02T09:14:33Z</time>
      </trkpt>
      <trkpt lat="45.96358" lon="6.82711">
        <ele>1768.9926</ele>
        <time>2014-09-02T09:14:38Z</time>
      </trkpt>
      <trkpt lat="45.96358" lon="6.82713">
        <ele>1768.9926</ele>
        <time>2014-09-02T09:14:43Z</time>
      </trkpt>
      <trkpt lat="45.96355" lon="6.82714">
        <ele>1768.9926</ele>
        <time>2014-09-02T09:14:48Z</time>
      </trkpt>
      <trkpt lat="45.96351" lon="6.82717">
        <ele>1769.814</ele>
        <time>2014-09-02T09:14:53Z</time>
      </trkpt>
      <trkpt lat="45.96345" lon="6.82717">
        <ele>1769.814</ele>
        <time>2014-09-02T09:14:58Z</time>
      </trkpt>
      <trkpt lat="45.96338" lon="6.82721">
        <ele>1770.3499</ele>
        <time>2014-09-02T09:15:03Z</time>
      </trkpt>
      <trkpt lat="45.96334" lon="6.82724">
        <ele>1770.3499</ele>
        <time>2014-09-02T09:15:08Z</time>
      </trkpt>
      <trkpt lat="45.96329" lon="6.82733">
        <ele>1770.7545</ele>
        <time>2014-09-02T09:15:13Z</time>
      </trkpt>
      <trkpt lat="45.96327" lon="6.82734">
        <ele>1770.7545</ele>
        <time>2014-09-02T09:15:18Z</time>
      </trkpt>
      <trkpt lat="45.96328" lon="6.82734">
        <ele>1770.7545</ele>
        <time>2014-09-02T09:15:23Z</time>
      </trkpt>
      <trkpt lat="45.96327" lon="6.82734">
        <ele>1770.7545</ele>
        <time>2014-09-02T09:15:28Z</time>
      </trkpt>
      <trkpt lat="45.96324" lon="6.82737">
        <ele>1770.7545</ele>
        <time>2014-09-02T09:15:33Z</time>
      </trkpt>
      <trkpt lat="45.96321" lon="6.82738">
        <ele>1771.0558</ele>
        <time>2014-09-02T09:15:38Z</time>
      </trkpt>
      <trkpt lat="45.96317" lon="6.8274">
        <ele>1771.0558</ele>
        <time>2014-09-02T09:15:43Z</time>
      </trkpt>
      <trkpt lat="45.96312" lon="6.82741">
        <ele>1771.0558</ele>
        <time>2014-09-02T09:15:48Z</time>
      </trkpt>
      <trkpt lat="45.96309" lon="6.82743">
        <ele>1771.1641</ele>
        <time>2014-09-02T09:15:53Z</time>
      </trkpt>
      <trkpt lat="45.96309" lon="6.82743">
        <ele>1771.1641</ele>
        <time>2014-09-02T09:15:58Z</time>
      </trkpt>
      <trkpt lat="45.96309" lon="6.82743">
        <ele>1771.1641</ele>
        <time>2014-09-02T09:16:03Z</time>
      </trkpt>
      <trkpt lat="45.9631" lon="6.82745">
        <ele>1771.1641</ele>
        <time>2014-09-02T09:16:08Z</time>
      </trkpt>
      <trkpt lat="45.96309" lon="6.82745">
        <ele>1771.1641</ele>
        <time>2014-09-02T09:16:13Z</time>
      </trkpt>
      <trkpt lat="45.96308" lon="6.82749">
        <ele>1771.1641</ele>
        <time>2014-09-02T09:16:18Z</time>
      </trkpt>
      <trkpt lat="45.96303" lon="6.8275">
        <ele>1770.9683</ele>
        <time>2014-09-02T09:16:23Z</time>
      </trkpt>
      <trkpt lat="45.96299" lon="6.82752">
        <ele>1770.9683</ele>
        <time>2014-09-02T09:16:28Z</time>
      </trkpt>
      <trkpt lat="45.96296" lon="6.82754">
        <ele>1770.9683</ele>
        <time>2014-09-02T09:16:33Z</time>
      </trkpt>
      <trkpt lat="45.96294" lon="6.82757">
        <ele>1770.539</ele>
        <time>2014-09-02T09:16:38Z</time>
      </trkpt>
      <trkpt lat="45.96293" lon="6.82762">
        <ele>1770.539</ele>
        <time>2014-09-02T09:16:43Z</time>
      </trkpt>
      <trkpt lat="45.96292" lon="6.82765">
        <ele>1770.539</ele>
        <time>2014-09-02T09:16:48Z</time>
      </trkpt>
      <trkpt lat="45.9629" lon="6.82768">
        <ele>1769.9563</ele>
        <time>2014-09-02T09:16:53Z</time>
      </trkpt>
      <trkpt lat="45.96288" lon="6.82772">
        <ele>1769.9563</ele>
        <time>2014-09-02T09:16:58Z</time>
      </trkpt>
      <trkpt lat="45.96286" lon="6.82778">
        <ele>1769.9563</ele>
        <time>2014-09-02T09:17:03Z</time>
      </trkpt>
      <trkpt lat="45.96284" lon="6.82781">
        <ele>1769.1942</ele>
        <time>2014-09-02T09:17:08Z</time>
      </trkpt>
      <trkpt lat="45.96282" lon="6.82782">
        <ele>1769.1942</ele>
        <time>2014-09-02T09:17:13Z</time>
      </trkpt>
      <trkpt lat="45.96279" lon="6.82785">
        <ele>1769.1942</ele>
        <time>2014-09-02T09:17:18Z</time>
      </trkpt>
      <trkpt lat="45.96279" lon="6.82789">
        <ele>1769.1942</ele>
        <time>2014-09-02T09:17:23Z</time>
      </trkpt>
      <trkpt lat="45.96277" lon="6.82796">
        <ele>1768.2719</ele>
        <time>2014-09-02T09:17:28Z</time>
      </trkpt>
      <trkpt lat="45.96276" lon="6.82796">
        <ele>1768.2719</ele>
        <time>2014-09-02T09:17:33Z</time>
      </trkpt>
      <trkpt lat="45.96273" lon="6.82798">
        <ele>1768.2719</ele>
        <time>2014-09-02T09:17:38Z</time>
      </trkpt>
      <trkpt lat="45.9627" lon="6.828">
        <ele>1768.2719</ele>
        <time>2014-09-02T09:17:43Z</time>
      </trkpt>
      <trkpt lat="45.96267" lon="6.82802">
        <ele>1767.5964</ele>
        <time>2014-09-02T09:17:48Z</time>
      </trkpt>
      <trkpt lat="45.96264" lon="6.82805">
        <ele>1767.5964</ele>
        <time>2014-09-02T09:17:53Z</time>
      </trkpt>
      <trkpt lat="45.96261" lon="6.82808">
        <ele>1767.5964</ele>
        <time>2014-09-02T09:17:58Z</time>
      </trkpt>
      <trkpt lat="45.96256" lon="6.82813">
        <ele>1767.3428</ele>
        <time>2014-09-02T09:18:03Z</time>
      </trkpt>
      <trkpt lat="45.96254" lon="6.82817">
        <ele>1767.3428</ele>
        <time>2014-09-02T09:18:08Z</time>
      </trkpt>
      <trkpt lat="45.96253" lon="6.82818">
        <ele>1767.3428</ele>
        <time>2014-09-02T09:18:13Z</time>
      </trkpt>
      <trkpt lat="45.96253" lon="6.82817">
        <ele>1767.3428</ele>
        <time>2014-09-02T09:18:18Z</time>
      </trkpt>
      <trkpt lat="45.96252" lon="6.82816">
        <ele>1767.3428</ele>
        <time>2014-09-02T09:18:23Z</time>
      </trkpt>
      <trkpt lat="45.9625" lon="6.82815">
        <ele>1767.3428</ele>
        <time>2014-09-02T09:18:28Z</time>
      </trkpt>
      <trkpt lat="45.9625" lon="6.82815">
        <ele>1767.3428</ele>
        <time>2014-09-02T09:18:33Z</time>
      </trkpt>
      <trkpt lat="45.96247" lon="6.82817">
        <ele>1767.5848</ele>
        <time>2014-09-02T09:18:38Z</time>
      </trkpt>
      <trkpt lat="45.96246" lon="6.82819">
        <ele>1767.5848</ele>
        <time>2014-09-02T09:18:43Z</time>
      </trkpt>
      <trkpt lat="45.96241" lon="6.82822">
        <ele>1767.5848</ele>
        <time>2014-09-02T09:18:48Z</time>
      </trkpt>
      <trkpt lat="45.96237" lon="6.82825">
        <ele>1768.3464</ele>
        <time>2014-09-02T09:18:53Z</time>
      </trkpt>
      <trkpt lat="45.96235" lon="6.82826">
        <ele>1768.3464</ele>
        <time>2014-09-02T09:18:58Z</time>
      </trkpt>
      <trkpt lat="45.96231" lon="6.82829">
        <ele>1768.3464</ele>
        <time>2014-09-02T09:19:03Z</time>
      </trkpt>
      <trkpt lat="45.96228" lon="6.82831">
        <ele>1769.0139</ele>
        <time>2014-09-02T09:19:08Z</time>
      </trkpt>
      <trkpt lat="45.96224" lon="6.82834">
        <ele>1769.0139</ele>
        <time>2014-09-02T09:19:13Z</time>
      </trkpt>
      <trkpt lat="45.96222" lon="6.82838">
        <ele>1769.0139</ele>
        <time>2014-09-02T09:19:18Z</time>
      </trkpt>
      <trkpt lat="45.96219" lon="6.82842">
        <ele>1769.3934</ele>
        <time>2014-09-02T09:19:23Z</time>
      </trkpt>
      <trkpt lat="45.96216" lon="6.82844">
        <ele>1769.3934</ele>
        <time>2014-09-02T09:19:28Z</time>
      </trkpt>
      <trkpt lat="45.96213" lon="6.82847">
        <ele>1769.3934</ele>
        <time>2014-09-02T09:19:33Z</time>
      </trkpt>
      <trkpt lat="45.9621" lon="6.82853">
        <ele>1769.8394</ele>
        <time>2014-09-02T09:19:38Z</time>
      </trkpt>
      <trkpt lat="45.96208" lon="6.82855">
        <ele>1769.8394</ele>
        <time>2014-09-02T09:19:43Z</time>
      </trkpt>
      <trkpt lat="45.96204" lon="6.82857">
        <ele>1769.8394</ele>
        <time>2014-09-02T09:19:48Z</time>
      </trkpt>
      <trkpt lat="45.96198" lon="6.82862">
        <ele>1770.5499</ele>
        <time>2014-09-02T09:19:53Z</time>
      </trkpt>
      <trkpt lat="45.96195" lon="6.82864">
        <ele>1770.5499</ele>
        <time>2014-09-02T09:19:58Z</time>
      </trkpt>
      <trkpt lat="45.9619" lon="6.82867">
        <ele>1771.5205</ele>
        <time>2014-09-02T09:20:03Z</time>
      </trkpt>
      <trkpt lat="45.96188" lon="6.82868">
        <ele>1771.5205</ele>
        <time>2014-09-02T09:20:08Z</time>
      </trkpt>
      <trkpt lat="45.96188" lon="6.82868">
        <ele>1771.5205</ele>
        <time>2014-09-02T09:20:13Z</time>
      </trkpt>
      <trkpt lat="45.96187" lon="6.82869">
        <ele>1771.5205</ele>
        <time>2014-09-02T09:20:23Z</time>
      </trkpt>
      <trkpt lat="45.96187" lon="6.82869">
        <ele>1771.5205</ele>
        <time>2014-09-02T09:20:28Z</time>
      </trkpt>
      <trkpt lat="45.96181" lon="6.82877">
        <ele>1772.8038</ele>
        <time>2014-09-02T09:20:38Z</time>
      </trkpt>
      <trkpt lat="45.96181" lon="6.82877">
        <ele>1772.8038</ele>
        <time>2014-09-02T09:20:43Z</time>
      </trkpt>
      <trkpt lat="45.9618" lon="6.82877">
        <ele>1772.8038</ele>
        <time>2014-09-02T09:20:48Z</time>
      </trkpt>
      <trkpt lat="45.96174" lon="6.82886">
        <ele>1773.9863</ele>
        <time>2014-09-02T09:20:53Z</time>
      </trkpt>
      <trkpt lat="45.96173" lon="6.82888">
        <ele>1773.9863</ele>
        <time>2014-09-02T09:20:58Z</time>
      </trkpt>
      <trkpt lat="45.96169" lon="6.82892">
        <ele>1773.9863</ele>
        <time>2014-09-02T09:21:03Z</time>
      </trkpt>
      <trkpt lat="45.96166" lon="6.82895">
        <ele>1775.276</ele>
        <time>2014-09-02T09:21:08Z</time>
      </trkpt>
      <trkpt lat="45.96163" lon="6.82898">
        <ele>1775.276</ele>
        <time>2014-09-02T09:21:13Z</time>
      </trkpt>
      <trkpt lat="45.96163" lon="6.829">
        <ele>1775.276</ele>
        <time>2014-09-02T09:21:18Z</time>
      </trkpt>
      <trkpt lat="45.96162" lon="6.82901">
        <ele>1775.276</ele>
        <time>2014-09-02T09:21:23Z</time>
      </trkpt>
      <trkpt lat="45.96162" lon="6.82901">
        <ele>1775.276</ele>
        <time>2014-09-02T09:21:28Z</time>
      </trkpt>
      <trkpt lat="45.96159" lon="6.82904">
        <ele>1776.7067</ele>
        <time>2014-09-02T09:21:33Z</time>
      </trkpt>
      <trkpt lat="45.96159" lon="6.82904">
        <ele>1776.7067</ele>
        <time>2014-09-02T09:21:38Z</time>
      </trkpt>
      <trkpt lat="45.96156" lon="6.82909">
        <ele>1776.7067</ele>
        <time>2014-09-02T09:21:43Z</time>
      </trkpt>
      <trkpt lat="45.96149" lon="6.8292">
        <ele>1778.1937</ele>
        <time>2014-09-02T09:21:48Z</time>
      </trkpt>
      <trkpt lat="45.96148" lon="6.82922">
        <ele>1778.1937</ele>
        <time>2014-09-02T09:21:53Z</time>
      </trkpt>
      <trkpt lat="45.96148" lon="6.82922">
        <ele>1778.1937</ele>
        <time>2014-09-02T09:21:58Z</time>
      </trkpt>
      <trkpt lat="45.96147" lon="6.82925">
        <ele>1778.1937</ele>
        <time>2014-09-02T09:22:03Z</time>
      </trkpt>
      <trkpt lat="45.96147" lon="6.82925">
        <ele>1778.1937</ele>
        <time>2014-09-02T09:22:08Z</time>
      </trkpt>
      <trkpt lat="45.96145" lon="6.82932">
        <ele>1779.7886</ele>
        <time>2014-09-02T09:22:13Z</time>
      </trkpt>
      <trkpt lat="45.96147" lon="6.82937">
        <ele>1779.7886</ele>
        <time>2014-09-02T09:22:18Z</time>
      </trkpt>
      <trkpt lat="45.96146" lon="6.8294">
        <ele>1779.7886</ele>
        <time>2014-09-02T09:22:23Z</time>
      </trkpt>
      <trkpt lat="45.96144" lon="6.82943">
        <ele>1779.7886</ele>
        <time>2014-09-02T09:22:28Z</time>
      </trkpt>
      <trkpt lat="45.96144" lon="6.82944">
        <ele>1781.1923</ele>
        <time>2014-09-02T09:22:33Z</time>
      </trkpt>
      <trkpt lat="45.96144" lon="6.82946">
        <ele>1781.1923</ele>
        <time>2014-09-02T09:22:38Z</time>
      </trkpt>
      <trkpt lat="45.96144" lon="6.82946">
        <ele>1781.1923</ele>
        <time>2014-09-02T09:22:43Z</time>
      </trkpt>
      <trkpt lat="45.96142" lon="6.82948">
        <ele>1781.1923</ele>
        <time>2014-09-02T09:22:48Z</time>
      </trkpt>
      <trkpt lat="45.96139" lon="6.82952">
        <ele>1781.1923</ele>
        <time>2014-09-02T09:22:53Z</time>
      </trkpt>
      <trkpt lat="45.96139" lon="6.82956">
        <ele>1782.3302</ele>
        <time>2014-09-02T09:22:58Z</time>
      </trkpt>
      <trkpt lat="45.96138" lon="6.82968">
        <ele>1783.3359</ele>
        <time>2014-09-02T09:23:03Z</time>
      </trkpt>
      <trkpt lat="45.96138" lon="6.8297">
        <ele>1783.3359</ele>
        <time>2014-09-02T09:23:08Z</time>
      </trkpt>
      <trkpt lat="45.96138" lon="6.82971">
        <ele>1783.3359</ele>
        <time>2014-09-02T09:23:13Z</time>
      </trkpt>
      <trkpt lat="45.96133" lon="6.82974">
        <ele>1783.3359</ele>
        <time>2014-09-02T09:23:18Z</time>
      </trkpt>
      <trkpt lat="45.96133" lon="6.82976">
        <ele>1783.3359</ele>
        <time>2014-09-02T09:23:23Z</time>
      </trkpt>
      <trkpt lat="45.96133" lon="6.82976">
        <ele>1783.3359</ele>
        <time>2014-09-02T09:23:28Z</time>
      </trkpt>
      <trkpt lat="45.96131" lon="6.82978">
        <ele>1784.5205</ele>
        <time>2014-09-02T09:23:33Z</time>
      </trkpt>
      <trkpt lat="45.96126" lon="6.82984">
        <ele>1784.5205</ele>
        <time>2014-09-02T09:23:38Z</time>
      </trkpt>
      <trkpt lat="45.96126" lon="6.82984">
        <ele>1784.5205</ele>
        <time>2014-09-02T09:23:43Z</time>
      </trkpt>
      <trkpt lat="45.96123" lon="6.82988">
        <ele>1785.7683</ele>
        <time>2014-09-02T09:23:48Z</time>
      </trkpt>
      <trkpt lat="45.96123" lon="6.82992">
        <ele>1785.7683</ele>
        <time>2014-09-02T09:23:53Z</time>
      </trkpt>
      <trkpt lat="45.96123" lon="6.82992">
        <ele>1785.7683</ele>
        <time>2014-09-02T09:23:58Z</time>
      </trkpt>
      <trkpt lat="45.9612" lon="6.82996">
        <ele>1785.7683</ele>
        <time>2014-09-02T09:24:03Z</time>
      </trkpt>
      <trkpt lat="45.96119" lon="6.82999">
        <ele>1785.7683</ele>
        <time>2014-09-02T09:24:08Z</time>
      </trkpt>
      <trkpt lat="45.96116" lon="6.83004">
        <ele>1787.5051</ele>
        <time>2014-09-02T09:24:13Z</time>
      </trkpt>
      <trkpt lat="45.96116" lon="6.83004">
        <ele>1787.5051</ele>
        <time>2014-09-02T09:24:18Z</time>
      </trkpt>
      <trkpt lat="45.96112" lon="6.83008">
        <ele>1787.5051</ele>
        <time>2014-09-02T09:24:28Z</time>
      </trkpt>
      <trkpt lat="45.96112" lon="6.83008">
        <ele>1787.5051</ele>
        <time>2014-09-02T09:24:33Z</time>
      </trkpt>
      <trkpt lat="45.96108" lon="6.83019">
        <ele>1789.4614</ele>
        <time>2014-09-02T09:24:38Z</time>
      </trkpt>
      <trkpt lat="45.96105" lon="6.83031">
        <ele>1789.4614</ele>
        <time>2014-09-02T09:24:43Z</time>
      </trkpt>
      <trkpt lat="45.96103" lon="6.83036">
        <ele>1791.3434</ele>
        <time>2014-09-02T09:24:48Z</time>
      </trkpt>
      <trkpt lat="45.961" lon="6.83042">
        <ele>1791.3434</ele>
        <time>2014-09-02T09:24:53Z</time>
      </trkpt>
      <trkpt lat="45.96099" lon="6.83045">
        <ele>1791.3434</ele>
        <time>2014-09-02T09:24:58Z</time>
      </trkpt>
      <trkpt lat="45.96096" lon="6.83049">
        <ele>1792.5619</ele>
        <time>2014-09-02T09:25:03Z</time>
      </trkpt>
      <trkpt lat="45.96094" lon="6.83051">
        <ele>1792.5619</ele>
        <time>2014-09-02T09:25:08Z</time>
      </trkpt>
      <trkpt lat="45.96091" lon="6.83056">
        <ele>1792.5619</ele>
        <time>2014-09-02T09:25:13Z</time>
      </trkpt>
      <trkpt lat="45.96085" lon="6.83058">
        <ele>1793.9423</ele>
        <time>2014-09-02T09:25:18Z</time>
      </trkpt>
      <trkpt lat="45.9608" lon="6.8306">
        <ele>1793.9423</ele>
        <time>2014-09-02T09:25:23Z</time>
      </trkpt>
      <trkpt lat="45.96078" lon="6.83062">
        <ele>1793.9423</ele>
        <time>2014-09-02T09:25:28Z</time>
      </trkpt>
      <trkpt lat="45.96072" lon="6.83066">
        <ele>1795.7299</ele>
        <time>2014-09-02T09:25:33Z</time>
      </trkpt>
      <trkpt lat="45.96067" lon="6.83069">
        <ele>1795.7299</ele>
        <time>2014-09-02T09:25:38Z</time>
      </trkpt>
      <trkpt lat="45.96062" lon="6.83072">
        <ele>1797.6609</ele>
        <time>2014-09-02T09:25:43Z</time>
      </trkpt>
      <trkpt lat="45.96056" lon="6.83073">
        <ele>1797.6609</ele>
        <time>2014-09-02T09:25:48Z</time>
      </trkpt>
      <trkpt lat="45.96056" lon="6.83074">
        <ele>1797.6609</ele>
        <time>2014-09-02T09:25:53Z</time>
      </trkpt>
      <trkpt lat="45.96054" lon="6.83075">
        <ele>1797.6609</ele>
        <time>2014-09-02T09:25:58Z</time>
      </trkpt>
      <trkpt lat="45.96052" lon="6.83076">
        <ele>1800.1248</ele>
        <time>2014-09-02T09:26:03Z</time>
      </trkpt>
      <trkpt lat="45.96047" lon="6.83076">
        <ele>1800.1248</ele>
        <time>2014-09-02T09:26:08Z</time>
      </trkpt>
      <trkpt lat="45.96045" lon="6.83077">
        <ele>1800.1248</ele>
        <time>2014-09-02T09:26:13Z</time>
      </trkpt>
      <trkpt lat="45.96042" lon="6.83078">
        <ele>1802.6449</ele>
        <time>2014-09-02T09:26:18Z</time>
      </trkpt>
      <trkpt lat="45.9604" lon="6.8308">
        <ele>1802.6449</ele>
        <time>2014-09-02T09:26:23Z</time>
      </trkpt>
      <trkpt lat="45.96038" lon="6.8308">
        <ele>1802.6449</ele>
        <time>2014-09-02T09:26:28Z</time>
      </trkpt>
      <trkpt lat="45.96036" lon="6.83083">
        <ele>1802.6449</ele>
        <time>2014-09-02T09:26:33Z</time>
      </trkpt>
      <trkpt lat="45.96034" lon="6.83087">
        <ele>1805.1976</ele>
        <time>2014-09-02T09:26:38Z</time>
      </trkpt>
      <trkpt lat="45.96032" lon="6.83088">
        <ele>1805.1976</ele>
        <time>2014-09-02T09:26:43Z</time>
      </trkpt>
      <trkpt lat="45.96027" lon="6.83089">
        <ele>1805.1976</ele>
        <time>2014-09-02T09:26:48Z</time>
      </trkpt>
      <trkpt lat="45.96024" lon="6.83088">
        <ele>1807.7177</ele>
        <time>2014-09-02T09:26:53Z</time>
      </trkpt>
      <trkpt lat="45.96023" lon="6.83088">
        <ele>1807.7177</ele>
        <time>2014-09-02T09:26:58Z</time>
      </trkpt>
      <trkpt lat="45.9602" lon="6.83087">
        <ele>1807.7177</ele>
        <time>2014-09-02T09:27:03Z</time>
      </trkpt>
      <trkpt lat="45.96012" lon="6.83089">
        <ele>1810.2024</ele>
        <time>2014-09-02T09:27:08Z</time>
      </trkpt>
      <trkpt lat="45.96006" lon="6.83088">
        <ele>1810.2024</ele>
        <time>2014-09-02T09:27:13Z</time>
      </trkpt>
      <trkpt lat="45.96003" lon="6.83087">
        <ele>1810.2024</ele>
        <time>2014-09-02T09:27:18Z</time>
      </trkpt>
      <trkpt lat="45.96" lon="6.83088">
        <ele>1812.7361</ele>
        <time>2014-09-02T09:27:23Z</time>
      </trkpt>
      <trkpt lat="45.95998" lon="6.83088">
        <ele>1812.7361</ele>
        <time>2014-09-02T09:27:28Z</time>
      </trkpt>
      <trkpt lat="45.95993" lon="6.83087">
        <ele>1812.7361</ele>
        <time>2014-09-02T09:27:33Z</time>
      </trkpt>
      <trkpt lat="45.95991" lon="6.83085">
        <ele>1815.1373</ele>
        <time>2014-09-02T09:27:38Z</time>
      </trkpt>
      <trkpt lat="45.95988" lon="6.83084">
        <ele>1815.1373</ele>
        <time>2014-09-02T09:27:43Z</time>
      </trkpt>
      <trkpt lat="45.95985" lon="6.83082">
        <ele>1815.1373</ele>
        <time>2014-09-02T09:27:48Z</time>
      </trkpt>
      <trkpt lat="45.95983" lon="6.83081">
        <ele>1815.1373</ele>
        <time>2014-09-02T09:27:53Z</time>
      </trkpt>
      <trkpt lat="45.95981" lon="6.83083">
        <ele>1817.3394</ele>
        <time>2014-09-02T09:27:58Z</time>
      </trkpt>
      <trkpt lat="45.9598" lon="6.83086">
        <ele>1817.3394</ele>
        <time>2014-09-02T09:28:03Z</time>
      </trkpt>
      <trkpt lat="45.95979" lon="6.83091">
        <ele>1817.3394</ele>
        <time>2014-09-02T09:28:08Z</time>
      </trkpt>
      <trkpt lat="45.95978" lon="6.83095">
        <ele>1819.3964</ele>
        <time>2014-09-02T09:28:13Z</time>
      </trkpt>
      <trkpt lat="45.95978" lon="6.83101">
        <ele>1819.3964</ele>
        <time>2014-09-02T09:28:18Z</time>
      </trkpt>
      <trkpt lat="45.95978" lon="6.83104">
        <ele>1819.3964</ele>
        <time>2014-09-02T09:28:23Z</time>
      </trkpt>
      <trkpt lat="45.95977" lon="6.83106">
        <ele>1819.3964</ele>
        <time>2014-09-02T09:28:28Z</time>
      </trkpt>
      <trkpt lat="45.95977" lon="6.83107">
        <ele>1819.3964</ele>
        <time>2014-09-02T09:28:33Z</time>
      </trkpt>
      <trkpt lat="45.95974" lon="6.83108">
        <ele>1821.8345</ele>
        <time>2014-09-02T09:28:38Z</time>
      </trkpt>
      <trkpt lat="45.95969" lon="6.83109">
        <ele>1821.8345</ele>
        <time>2014-09-02T09:28:43Z</time>
      </trkpt>
      <trkpt lat="45.95965" lon="6.8311">
        <ele>1824.1317</ele>
        <time>2014-09-02T09:28:48Z</time>
      </trkpt>
      <trkpt lat="45.95961" lon="6.8311">
        <ele>1824.1317</ele>
        <time>2014-09-02T09:28:53Z</time>
      </trkpt>
      <trkpt lat="45.95959" lon="6.83109">
        <ele>1824.1317</ele>
        <time>2014-09-02T09:28:58Z</time>
      </trkpt>
      <trkpt lat="45.95957" lon="6.83109">
        <ele>1824.1317</ele>
        <time>2014-09-02T09:29:03Z</time>
      </trkpt>
      <trkpt lat="45.95957" lon="6.8311">
        <ele>1824.1317</ele>
        <time>2014-09-02T09:29:08Z</time>
      </trkpt>
      <trkpt lat="45.95956" lon="6.83111">
        <ele>1826.237</ele>
        <time>2014-09-02T09:29:13Z</time>
      </trkpt>
      <trkpt lat="45.95955" lon="6.83112">
        <ele>1826.237</ele>
        <time>2014-09-02T09:29:18Z</time>
      </trkpt>
      <trkpt lat="45.95953" lon="6.83114">
        <ele>1826.237</ele>
        <time>2014-09-02T09:29:23Z</time>
      </trkpt>
      <trkpt lat="45.95952" lon="6.83115">
        <ele>1826.237</ele>
        <time>2014-09-02T09:29:28Z</time>
      </trkpt>
      <trkpt lat="45.95946" lon="6.83119">
        <ele>1828.1039</ele>
        <time>2014-09-02T09:29:33Z</time>
      </trkpt>
      <trkpt lat="45.95943" lon="6.83122">
        <ele>1828.1039</ele>
        <time>2014-09-02T09:29:38Z</time>
      </trkpt>
      <trkpt lat="45.95941" lon="6.83126">
        <ele>1828.1039</ele>
        <time>2014-09-02T09:29:43Z</time>
      </trkpt>
      <trkpt lat="45.9594" lon="6.83128">
        <ele>1828.1039</ele>
        <time>2014-09-02T09:29:48Z</time>
      </trkpt>
      <trkpt lat="45.95937" lon="6.83131">
        <ele>1829.8773</ele>
        <time>2014-09-02T09:29:53Z</time>
      </trkpt>
      <trkpt lat="45.95935" lon="6.83134">
        <ele>1829.8773</ele>
        <time>2014-09-02T09:29:58Z</time>
      </trkpt>
      <trkpt lat="45.95933" lon="6.83138">
        <ele>1829.8773</ele>
        <time>2014-09-02T09:30:03Z</time>
      </trkpt>
      <trkpt lat="45.9593" lon="6.83142">
        <ele>1831.6776</ele>
        <time>2014-09-02T09:30:08Z</time>
      </trkpt>
      <trkpt lat="45.95929" lon="6.83146">
        <ele>1831.6776</ele>
        <time>2014-09-02T09:30:13Z</time>
      </trkpt>
      <trkpt lat="45.95928" lon="6.83148">
        <ele>1831.6776</ele>
        <time>2014-09-02T09:30:18Z</time>
      </trkpt>
      <trkpt lat="45.95927" lon="6.8315">
        <ele>1831.6776</ele>
        <time>2014-09-02T09:30:23Z</time>
      </trkpt>
      <trkpt lat="45.95925" lon="6.83153">
        <ele>1833.7892</ele>
        <time>2014-09-02T09:30:28Z</time>
      </trkpt>
      <trkpt lat="45.95919" lon="6.83156">
        <ele>1833.7892</ele>
        <time>2014-09-02T09:30:33Z</time>
      </trkpt>
      <trkpt lat="45.95914" lon="6.8316">
        <ele>1835.9706</ele>
        <time>2014-09-02T09:30:38Z</time>
      </trkpt>
      <trkpt lat="45.95911" lon="6.83163">
        <ele>1835.9706</ele>
        <time>2014-09-02T09:30:43Z</time>
      </trkpt>
      <trkpt lat="45.95909" lon="6.83164">
        <ele>1835.9706</ele>
        <time>2014-09-02T09:30:48Z</time>
      </trkpt>
      <trkpt lat="45.95906" lon="6.83165">
        <ele>1835.9706</ele>
        <time>2014-09-02T09:30:53Z</time>
      </trkpt>
      <trkpt lat="45.95902" lon="6.83166">
        <ele>1838.3435</ele>
        <time>2014-09-02T09:30:58Z</time>
      </trkpt>
      <trkpt lat="45.95899" lon="6.83166">
        <ele>1838.3435</ele>
        <time>2014-09-02T09:31:03Z</time>
      </trkpt>
      <trkpt lat="45.95898" lon="6.83167">
        <ele>1838.3435</ele>
        <time>2014-09-02T09:31:08Z</time>
      </trkpt>
      <trkpt lat="45.95896" lon="6.83168">
        <ele>1838.3435</ele>
        <time>2014-09-02T09:31:13Z</time>
      </trkpt>
      <trkpt lat="45.95891" lon="6.83171">
        <ele>1840.7614</ele>
        <time>2014-09-02T09:31:18Z</time>
      </trkpt>
      <trkpt lat="45.95891" lon="6.83174">
        <ele>1840.7614</ele>
        <time>2014-09-02T09:31:23Z</time>
      </trkpt>
      <trkpt lat="45.95887" lon="6.83179">
        <ele>1840.7614</ele>
        <time>2014-09-02T09:31:28Z</time>
      </trkpt>
      <trkpt lat="45.95882" lon="6.83183">
        <ele>1842.9583</ele>
        <time>2014-09-02T09:31:33Z</time>
      </trkpt>
      <trkpt lat="45.95878" lon="6.83188">
        <ele>1842.9583</ele>
        <time>2014-09-02T09:31:38Z</time>
      </trkpt>
      <trkpt lat="45.95877" lon="6.83191">
        <ele>1842.9583</ele>
        <time>2014-09-02T09:31:43Z</time>
      </trkpt>
      <trkpt lat="45.95874" lon="6.8319">
        <ele>1844.948</ele>
        <time>2014-09-02T09:31:48Z</time>
      </trkpt>
      <trkpt lat="45.95871" lon="6.8319">
        <ele>1844.948</ele>
        <time>2014-09-02T09:31:53Z</time>
      </trkpt>
      <trkpt lat="45.95867" lon="6.83193">
        <ele>1844.948</ele>
        <time>2014-09-02T09:31:58Z</time>
      </trkpt>
      <trkpt lat="45.95865" lon="6.83199">
        <ele>1846.7587</ele>
        <time>2014-09-02T09:32:03Z</time>
      </trkpt>
      <trkpt lat="45.95864" lon="6.83201">
        <ele>1846.7587</ele>
        <time>2014-09-02T09:32:08Z</time>
      </trkpt>
      <trkpt lat="45.95861" lon="6.83201">
        <ele>1846.7587</ele>
        <time>2014-09-02T09:32:13Z</time>
      </trkpt>
      <trkpt lat="45.95858" lon="6.83201">
        <ele>1846.7587</ele>
        <time>2014-09-02T09:32:18Z</time>
      </trkpt>
      <trkpt lat="45.95854" lon="6.83202">
        <ele>1847.97</ele>
        <time>2014-09-02T09:32:23Z</time>
      </trkpt>
      <trkpt lat="45.95852" lon="6.83201">
        <ele>1847.97</ele>
        <time>2014-09-02T09:32:28Z</time>
      </trkpt>
      <trkpt lat="45.95847" lon="6.83202">
        <ele>1847.97</ele>
        <time>2014-09-02T09:32:33Z</time>
      </trkpt>
      <trkpt lat="45.95842" lon="6.83201">
        <ele>1849.1455</ele>
        <time>2014-09-02T09:32:38Z</time>
      </trkpt>
      <trkpt lat="45.95837" lon="6.832">
        <ele>1849.1455</ele>
        <time>2014-09-02T09:32:43Z</time>
      </trkpt>
      <trkpt lat="45.95834" lon="6.83201">
        <ele>1849.1455</ele>
        <time>2014-09-02T09:32:48Z</time>
      </trkpt>
      <trkpt lat="45.95831" lon="6.83202">
        <ele>1850.2167</ele>
        <time>2014-09-02T09:32:53Z</time>
      </trkpt>
      <trkpt lat="45.95826" lon="6.83205">
        <ele>1850.2167</ele>
        <time>2014-09-02T09:32:58Z</time>
      </trkpt>
      <trkpt lat="45.95823" lon="6.83207">
        <ele>1850.2167</ele>
        <time>2014-09-02T09:33:03Z</time>
      </trkpt>
      <trkpt lat="45.9582" lon="6.83209">
        <ele>1851.3077</ele>
        <time>2014-09-02T09:33:08Z</time>
      </trkpt>
      <trkpt lat="45.95817" lon="6.83209">
        <ele>1851.3077</ele>
        <time>2014-09-02T09:33:13Z</time>
      </trkpt>
      <trkpt lat="45.95814" lon="6.8321">
        <ele>1851.3077</ele>
        <time>2014-09-02T09:33:18Z</time>
      </trkpt>
      <trkpt lat="45.95811" lon="6.83211">
        <ele>1851.3077</ele>
        <time>2014-09-02T09:33:23Z</time>
      </trkpt>
      <trkpt lat="45.95807" lon="6.83211">
        <ele>1852.6925</ele>
        <time>2014-09-02T09:33:28Z</time>
      </trkpt>
      <trkpt lat="45.95804" lon="6.83211">
        <ele>1852.6925</ele>
        <time>2014-09-02T09:33:33Z</time>
      </trkpt>
      <trkpt lat="45.95802" lon="6.83213">
        <ele>1852.6925</ele>
        <time>2014-09-02T09:33:38Z</time>
      </trkpt>
      <trkpt lat="45.95799" lon="6.83216">
        <ele>1853.7732</ele>
        <time>2014-09-02T09:33:43Z</time>
      </trkpt>
      <trkpt lat="45.95795" lon="6.83218">
        <ele>1853.7732</ele>
        <time>2014-09-02T09:33:48Z</time>
      </trkpt>
      <trkpt lat="45.95793" lon="6.83219">
        <ele>1853.7732</ele>
        <time>2014-09-02T09:33:53Z</time>
      </trkpt>
      <trkpt lat="45.95789" lon="6.83218">
        <ele>1854.6892</ele>
        <time>2014-09-02T09:33:58Z</time>
      </trkpt>
      <trkpt lat="45.95787" lon="6.8322">
        <ele>1854.6892</ele>
        <time>2014-09-02T09:34:03Z</time>
      </trkpt>
      <trkpt lat="45.95786" lon="6.83222">
        <ele>1854.6892</ele>
        <time>2014-09-02T09:34:08Z</time>
      </trkpt>
      <trkpt lat="45.95784" lon="6.83223">
        <ele>1854.6892</ele>
        <time>2014-09-02T09:34:13Z</time>
      </trkpt>
      <trkpt lat="45.9578" lon="6.83227">
        <ele>1855.5985</ele>
        <time>2014-09-02T09:34:18Z</time>
      </trkpt>
      <trkpt lat="45.95778" lon="6.83227">
        <ele>1855.5985</ele>
        <time>2014-09-02T09:34:23Z</time>
      </trkpt>
      <trkpt lat="45.95777" lon="6.83226">
        <ele>1855.5985</ele>
        <time>2014-09-02T09:34:28Z</time>
      </trkpt>
      <trkpt lat="45.95775" lon="6.83227">
        <ele>1855.5985</ele>
        <time>2014-09-02T09:34:33Z</time>
      </trkpt>
      <trkpt lat="45.95773" lon="6.83227">
        <ele>1855.5985</ele>
        <time>2014-09-02T09:34:38Z</time>
      </trkpt>
      <trkpt lat="45.95771" lon="6.83225">
        <ele>1856.3595</ele>
        <time>2014-09-02T09:34:43Z</time>
      </trkpt>
      <trkpt lat="45.95767" lon="6.83223">
        <ele>1856.3595</ele>
        <time>2014-09-02T09:34:48Z</time>
      </trkpt>
      <trkpt lat="45.95763" lon="6.83225">
        <ele>1856.3595</ele>
        <time>2014-09-02T09:34:53Z</time>
      </trkpt>
      <trkpt lat="45.95758" lon="6.83226">
        <ele>1857.418</ele>
        <time>2014-09-02T09:34:58Z</time>
      </trkpt>
      <trkpt lat="45.95755" lon="6.83228">
        <ele>1857.418</ele>
        <time>2014-09-02T09:35:03Z</time>
      </trkpt>
      <trkpt lat="45.95749" lon="6.83233">
        <ele>1858.8257</ele>
        <time>2014-09-02T09:35:08Z</time>
      </trkpt>
      <trkpt lat="45.95747" lon="6.83233">
        <ele>1858.8257</ele>
        <time>2014-09-02T09:35:13Z</time>
      </trkpt>
      <trkpt lat="45.95747" lon="6.83233">
        <ele>1858.8257</ele>
        <time>2014-09-02T09:35:18Z</time>
      </trkpt>
      <trkpt lat="45.95748" lon="6.83231">
        <ele>1858.8257</ele>
        <time>2014-09-02T09:35:23Z</time>
      </trkpt>
      <trkpt lat="45.95741" lon="6.83233">
        <ele>1860.2839</ele>
        <time>2014-09-02T09:35:28Z</time>
      </trkpt>
      <trkpt lat="45.95737" lon="6.83235">
        <ele>1860.2839</ele>
        <time>2014-09-02T09:35:33Z</time>
      </trkpt>
      <trkpt lat="45.95735" lon="6.83241">
        <ele>1861.7319</ele>
        <time>2014-09-02T09:35:38Z</time>
      </trkpt>
      <trkpt lat="45.95733" lon="6.83245">
        <ele>1861.7319</ele>
        <time>2014-09-02T09:35:43Z</time>
      </trkpt>
      <trkpt lat="45.95729" lon="6.83248">
        <ele>1861.7319</ele>
        <time>2014-09-02T09:35:48Z</time>
      </trkpt>
      <trkpt lat="45.95726" lon="6.83249">
        <ele>1863.1997</ele>
        <time>2014-09-02T09:35:53Z</time>
      </trkpt>
      <trkpt lat="45.95722" lon="6.83251">
        <ele>1863.1997</ele>
        <time>2014-09-02T09:35:58Z</time>
      </trkpt>
      <trkpt lat="45.9572" lon="6.83251">
        <ele>1863.1997</ele>
        <time>2014-09-02T09:36:03Z</time>
      </trkpt>
      <trkpt lat="45.95717" lon="6.83251">
        <ele>1864.2396</ele>
        <time>2014-09-02T09:36:08Z</time>
      </trkpt>
      <trkpt lat="45.95715" lon="6.83252">
        <ele>1864.2396</ele>
        <time>2014-09-02T09:36:13Z</time>
      </trkpt>
      <trkpt lat="45.95711" lon="6.83254">
        <ele>1864.2396</ele>
        <time>2014-09-02T09:36:18Z</time>
      </trkpt>
      <trkpt lat="45.95708" lon="6.83256">
        <ele>1864.813</ele>
        <time>2014-09-02T09:36:23Z</time>
      </trkpt>
      <trkpt lat="45.95706" lon="6.83259">
        <ele>1864.813</ele>
        <time>2014-09-02T09:36:28Z</time>
      </trkpt>
      <trkpt lat="45.95706" lon="6.8326">
        <ele>1864.813</ele>
        <time>2014-09-02T09:36:33Z</time>
      </trkpt>
      <trkpt lat="45.95704" lon="6.83264">
        <ele>1864.813</ele>
        <time>2014-09-02T09:36:38Z</time>
      </trkpt>
      <trkpt lat="45.95702" lon="6.83265">
        <ele>1864.813</ele>
        <time>2014-09-02T09:36:43Z</time>
      </trkpt>
      <trkpt lat="45.95701" lon="6.83266">
        <ele>1864.9137</ele>
        <time>2014-09-02T09:36:48Z</time>
      </trkpt>
      <trkpt lat="45.95698" lon="6.83267">
        <ele>1864.9137</ele>
        <time>2014-09-02T09:36:53Z</time>
      </trkpt>
      <trkpt lat="45.95694" lon="6.8327">
        <ele>1864.9137</ele>
        <time>2014-09-02T09:36:58Z</time>
      </trkpt>
      <trkpt lat="45.95689" lon="6.83272">
        <ele>1864.4944</ele>
        <time>2014-09-02T09:37:03Z</time>
      </trkpt>
      <trkpt lat="45.95687" lon="6.83274">
        <ele>1864.4944</ele>
        <time>2014-09-02T09:37:08Z</time>
      </trkpt>
      <trkpt lat="45.95683" lon="6.83275">
        <ele>1864.4944</ele>
        <time>2014-09-02T09:37:13Z</time>
      </trkpt>
      <trkpt lat="45.95678" lon="6.83276">
        <ele>1864.334</ele>
        <time>2014-09-02T09:37:18Z</time>
      </trkpt>
      <trkpt lat="45.95677" lon="6.83279">
        <ele>1864.334</ele>
        <time>2014-09-02T09:37:23Z</time>
      </trkpt>
      <trkpt lat="45.95676" lon="6.83279">
        <ele>1864.334</ele>
        <time>2014-09-02T09:37:28Z</time>
      </trkpt>
      <trkpt lat="45.95676" lon="6.83278">
        <ele>1864.334</ele>
        <time>2014-09-02T09:37:33Z</time>
      </trkpt>
      <trkpt lat="45.95676" lon="6.83277">
        <ele>1864.334</ele>
        <time>2014-09-02T09:37:38Z</time>
      </trkpt>
      <trkpt lat="45.95676" lon="6.83276">
        <ele>1864.334</ele>
        <time>2014-09-02T09:37:43Z</time>
      </trkpt>
      <trkpt lat="45.95677" lon="6.83276">
        <ele>1864.334</ele>
        <time>2014-09-02T09:37:48Z</time>
      </trkpt>
      <trkpt lat="45.95674" lon="6.83283">
        <ele>1864.361</ele>
        <time>2014-09-02T09:37:53Z</time>
      </trkpt>
      <trkpt lat="45.95672" lon="6.83284">
        <ele>1864.361</ele>
        <time>2014-09-02T09:37:58Z</time>
      </trkpt>
      <trkpt lat="45.95668" lon="6.83286">
        <ele>1864.361</ele>
        <time>2014-09-02T09:38:03Z</time>
      </trkpt>
      <trkpt lat="45.95666" lon="6.83288">
        <ele>1864.361</ele>
        <time>2014-09-02T09:38:08Z</time>
      </trkpt>
      <trkpt lat="45.95662" lon="6.83291">
        <ele>1864.0038</ele>
        <time>2014-09-02T09:38:13Z</time>
      </trkpt>
      <trkpt lat="45.95657" lon="6.83295">
        <ele>1864.0038</ele>
        <time>2014-09-02T09:38:18Z</time>
      </trkpt>
      <trkpt lat="45.95654" lon="6.83294">
        <ele>1864.0038</ele>
        <time>2014-09-02T09:38:23Z</time>
      </trkpt>
      <trkpt lat="45.95651" lon="6.83294">
        <ele>1863.5846</ele>
        <time>2014-09-02T09:38:28Z</time>
      </trkpt>
      <trkpt lat="45.95646" lon="6.83293">
        <ele>1863.5846</ele>
        <time>2014-09-02T09:38:33Z</time>
      </trkpt>
      <trkpt lat="45.95642" lon="6.83291">
        <ele>1863.2429</ele>
        <time>2014-09-02T09:38:38Z</time>
      </trkpt>
      <trkpt lat="45.95641" lon="6.83293">
        <ele>1863.2429</ele>
        <time>2014-09-02T09:38:43Z</time>
      </trkpt>
      <trkpt lat="45.95639" lon="6.83294">
        <ele>1863.2429</ele>
        <time>2014-09-02T09:38:48Z</time>
      </trkpt>
      <trkpt lat="45.95636" lon="6.83296">
        <ele>1863.2429</ele>
        <time>2014-09-02T09:38:53Z</time>
      </trkpt>
      <trkpt lat="45.95632" lon="6.83299">
        <ele>1862.7336</ele>
        <time>2014-09-02T09:38:58Z</time>
      </trkpt>
      <trkpt lat="45.95628" lon="6.83301">
        <ele>1862.7336</ele>
        <time>2014-09-02T09:39:03Z</time>
      </trkpt>
      <trkpt lat="45.95626" lon="6.83301">
        <ele>1862.7336</ele>
        <time>2014-09-02T09:39:08Z</time>
      </trkpt>
      <trkpt lat="45.95622" lon="6.83302">
        <ele>1862.3771</ele>
        <time>2014-09-02T09:39:13Z</time>
      </trkpt>
      <trkpt lat="45.95619" lon="6.83302">
        <ele>1862.3771</ele>
        <time>2014-09-02T09:39:18Z</time>
      </trkpt>
      <trkpt lat="45.95616" lon="6.83302">
        <ele>1862.3771</ele>
        <time>2014-09-02T09:39:23Z</time>
      </trkpt>
      <trkpt lat="45.95612" lon="6.83303">
        <ele>1861.9366</ele>
        <time>2014-09-02T09:39:28Z</time>
      </trkpt>
      <trkpt lat="45.95609" lon="6.83303">
        <ele>1861.9366</ele>
        <time>2014-09-02T09:39:33Z</time>
      </trkpt>
      <trkpt lat="45.95603" lon="6.83306">
        <ele>1861.5247</ele>
        <time>2014-09-02T09:39:38Z</time>
      </trkpt>
      <trkpt lat="45.95601" lon="6.83308">
        <ele>1861.5247</ele>
        <time>2014-09-02T09:39:43Z</time>
      </trkpt>
      <trkpt lat="45.95599" lon="6.83311">
        <ele>1861.5247</ele>
        <time>2014-09-02T09:39:48Z</time>
      </trkpt>
      <trkpt lat="45.95598" lon="6.83314">
        <ele>1861.5247</ele>
        <time>2014-09-02T09:39:53Z</time>
      </trkpt>
      <trkpt lat="45.95596" lon="6.83318">
        <ele>1861.8069</ele>
        <time>2014-09-02T09:39:58Z</time>
      </trkpt>
      <trkpt lat="45.9559" lon="6.83324">
        <ele>1861.8069</ele>
        <time>2014-09-02T09:40:03Z</time>
      </trkpt>
      <trkpt lat="45.95586" lon="6.83329">
        <ele>1862.4039</ele>
        <time>2014-09-02T09:40:08Z</time>
      </trkpt>
      <trkpt lat="45.95582" lon="6.83337">
        <ele>1862.4039</ele>
        <time>2014-09-02T09:40:13Z</time>
      </trkpt>
      <trkpt lat="45.95581" lon="6.83343">
        <ele>1863.1937</ele>
        <time>2014-09-02T09:40:18Z</time>
      </trkpt>
      <trkpt lat="45.95579" lon="6.83346">
        <ele>1863.1937</ele>
        <time>2014-09-02T09:40:23Z</time>
      </trkpt>
      <trkpt lat="45.95577" lon="6.83349">
        <ele>1863.1937</ele>
        <time>2014-09-02T09:40:28Z</time>
      </trkpt>
      <trkpt lat="45.95573" lon="6.83354">
        <ele>1864.0768</ele>
        <time>2014-09-02T09:40:33Z</time>
      </trkpt>
      <trkpt lat="45.9557" lon="6.83357">
        <ele>1864.0768</ele>
        <time>2014-09-02T09:40:38Z</time>
      </trkpt>
      <trkpt lat="45.95567" lon="6.83361">
        <ele>1864.0768</ele>
        <time>2014-09-02T09:40:43Z</time>
      </trkpt>
      <trkpt lat="45.95565" lon="6.83366">
        <ele>1865.0474</ele>
        <time>2014-09-02T09:40:48Z</time>
      </trkpt>
      <trkpt lat="45.95561" lon="6.83375">
        <ele>1865.0474</ele>
        <time>2014-09-02T09:40:53Z</time>
      </trkpt>
      <trkpt lat="45.95559" lon="6.83378">
        <ele>1866.0708</ele>
        <time>2014-09-02T09:40:58Z</time>
      </trkpt>
      <trkpt lat="45.95557" lon="6.83381">
        <ele>1866.0708</ele>
        <time>2014-09-02T09:41:03Z</time>
      </trkpt>
      <trkpt lat="45.95553" lon="6.83386">
        <ele>1866.0708</ele>
        <time>2014-09-02T09:41:08Z</time>
      </trkpt>
      <trkpt lat="45.95551" lon="6.83389">
        <ele>1867.1578</ele>
        <time>2014-09-02T09:41:13Z</time>
      </trkpt>
      <trkpt lat="45.95547" lon="6.83394">
        <ele>1867.1578</ele>
        <time>2014-09-02T09:41:18Z</time>
      </trkpt>
      <trkpt lat="45.95545" lon="6.83398">
        <ele>1868.0156</ele>
        <time>2014-09-02T09:41:23Z</time>
      </trkpt>
      <trkpt lat="45.95542" lon="6.83405">
        <ele>1868.0156</ele>
        <time>2014-09-02T09:41:28Z</time>
      </trkpt>
      <trkpt lat="45.95539" lon="6.83408">
        <ele>1868.0156</ele>
        <time>2014-09-02T09:41:33Z</time>
      </trkpt>
      <trkpt lat="45.95537" lon="6.8341">
        <ele>1868.3733</ele>
        <time>2014-09-02T09:41:38Z</time>
      </trkpt>
      <trkpt lat="45.95535" lon="6.83413">
        <ele>1868.3733</ele>
        <time>2014-09-02T09:41:43Z</time>
      </trkpt>
      <trkpt lat="45.95532" lon="6.83419">
        <ele>1868.3733</ele>
        <time>2014-09-02T09:41:48Z</time>
      </trkpt>
      <trkpt lat="45.95528" lon="6.83424">
        <ele>1868.7166</ele>
        <time>2014-09-02T09:41:53Z</time>
      </trkpt>
      <trkpt lat="45.95525" lon="6.83427">
        <ele>1868.7166</ele>
        <time>2014-09-02T09:41:58Z</time>
      </trkpt>
      <trkpt lat="45.95523" lon="6.83429">
        <ele>1868.7166</ele>
        <time>2014-09-02T09:42:03Z</time>
      </trkpt>
      <trkpt lat="45.95521" lon="6.83432">
        <ele>1868.7166</ele>
        <time>2014-09-02T09:42:08Z</time>
      </trkpt>
      <trkpt lat="45.95518" lon="6.83435">
        <ele>1869.1056</ele>
        <time>2014-09-02T09:42:13Z</time>
      </trkpt>
      <trkpt lat="45.95515" lon="6.83438">
        <ele>1869.1056</ele>
        <time>2014-09-02T09:42:18Z</time>
      </trkpt>
      <trkpt lat="45.95514" lon="6.83439">
        <ele>1869.1056</ele>
        <time>2014-09-02T09:42:23Z</time>
      </trkpt>
      <trkpt lat="45.9551" lon="6.83439">
        <ele>1869.6687</ele>
        <time>2014-09-02T09:42:28Z</time>
      </trkpt>
      <trkpt lat="45.95506" lon="6.83442">
        <ele>1869.6687</ele>
        <time>2014-09-02T09:42:33Z</time>
      </trkpt>
      <trkpt lat="45.95501" lon="6.83445">
        <ele>1870.1923</ele>
        <time>2014-09-02T09:42:38Z</time>
      </trkpt>
      <trkpt lat="45.95498" lon="6.83449">
        <ele>1870.1923</ele>
        <time>2014-09-02T09:42:43Z</time>
      </trkpt>
      <trkpt lat="45.95494" lon="6.83454">
        <ele>1870.7524</ele>
        <time>2014-09-02T09:42:48Z</time>
      </trkpt>
      <trkpt lat="45.95491" lon="6.83464">
        <ele>1870.7524</ele>
        <time>2014-09-02T09:42:53Z</time>
      </trkpt>
      <trkpt lat="45.95489" lon="6.83473">
        <ele>1871.4482</ele>
        <time>2014-09-02T09:42:58Z</time>
      </trkpt>
      <trkpt lat="45.95486" lon="6.83477">
        <ele>1871.4482</ele>
        <time>2014-09-02T09:43:03Z</time>
      </trkpt>
      <trkpt lat="45.95484" lon="6.83482">
        <ele>1871.4482</ele>
        <time>2014-09-02T09:43:08Z</time>
      </trkpt>
      <trkpt lat="45.95482" lon="6.83487">
        <ele>1872.4434</ele>
        <time>2014-09-02T09:43:13Z</time>
      </trkpt>
      <trkpt lat="45.95482" lon="6.83491">
        <ele>1872.4434</ele>
        <time>2014-09-02T09:43:18Z</time>
      </trkpt>
      <trkpt lat="45.9548" lon="6.83493">
        <ele>1872.4434</ele>
        <time>2014-09-02T09:43:23Z</time>
      </trkpt>
      <trkpt lat="45.95475" lon="6.83488">
        <ele>1873.2828</ele>
        <time>2014-09-02T09:43:28Z</time>
      </trkpt>
      <trkpt lat="45.95471" lon="6.83482">
        <ele>1873.2828</ele>
        <time>2014-09-02T09:43:33Z</time>
      </trkpt>
      <trkpt lat="45.95467" lon="6.83477">
        <ele>1874.079</ele>
        <time>2014-09-02T09:43:38Z</time>
      </trkpt>
      <trkpt lat="45.95467" lon="6.83477">
        <ele>1874.079</ele>
        <time>2014-09-02T09:43:43Z</time>
      </trkpt>
      <trkpt lat="45.95465" lon="6.83478">
        <ele>1874.079</ele>
        <time>2014-09-02T09:43:53Z</time>
      </trkpt>
      <trkpt lat="45.95465" lon="6.83478">
        <ele>1874.079</ele>
        <time>2014-09-02T09:43:58Z</time>
      </trkpt>
      <trkpt lat="45.95464" lon="6.83481">
        <ele>1874.079</ele>
        <time>2014-09-02T09:44:18Z</time>
      </trkpt>
      <trkpt lat="45.95461" lon="6.83483">
        <ele>1874.079</ele>
        <time>2014-09-02T09:44:23Z</time>
      </trkpt>
      <trkpt lat="45.95456" lon="6.83484">
        <ele>1875.1809</ele>
        <time>2014-09-02T09:44:28Z</time>
      </trkpt>
      <trkpt lat="45.95452" lon="6.83485">
        <ele>1875.1809</ele>
        <time>2014-09-02T09:44:33Z</time>
      </trkpt>
      <trkpt lat="45.95447" lon="6.83488">
        <ele>1876.1475</ele>
        <time>2014-09-02T09:44:38Z</time>
      </trkpt>
      <trkpt lat="45.95445" lon="6.83491">
        <ele>1876.1475</ele>
        <time>2014-09-02T09:44:43Z</time>
      </trkpt>
      <trkpt lat="45.95443" lon="6.83495">
        <ele>1876.1475</ele>
        <time>2014-09-02T09:44:48Z</time>
      </trkpt>
      <trkpt lat="45.95439" lon="6.83498">
        <ele>1876.8726</ele>
        <time>2014-09-02T09:44:53Z</time>
      </trkpt>
      <trkpt lat="45.95436" lon="6.83503">
        <ele>1876.8726</ele>
        <time>2014-09-02T09:44:58Z</time>
      </trkpt>
      <trkpt lat="45.95436" lon="6.83504">
        <ele>1876.8726</ele>
        <time>2014-09-02T09:45:03Z</time>
      </trkpt>
      <trkpt lat="45.95434" lon="6.83502">
        <ele>1876.8726</ele>
        <time>2014-09-02T09:45:08Z</time>
      </trkpt>
      <trkpt lat="45.95433" lon="6.835">
        <ele>1877.6046</ele>
        <time>2014-09-02T09:45:13Z</time>
      </trkpt>
      <trkpt lat="45.95431" lon="6.83495">
        <ele>1877.6046</ele>
        <time>2014-09-02T09:45:18Z</time>
      </trkpt>
      <trkpt lat="45.95425" lon="6.83489">
        <ele>1878.3433</ele>
        <time>2014-09-02T09:45:23Z</time>
      </trkpt>
      <trkpt lat="45.9542" lon="6.83488">
        <ele>1878.3433</ele>
        <time>2014-09-02T09:45:28Z</time>
      </trkpt>
      <trkpt lat="45.95415" lon="6.83488">
        <ele>1879.0159</ele>
        <time>2014-09-02T09:45:33Z</time>
      </trkpt>
      <trkpt lat="45.95412" lon="6.83487">
        <ele>1879.0159</ele>
        <time>2014-09-02T09:45:38Z</time>
      </trkpt>
      <trkpt lat="45.95411" lon="6.83488">
        <ele>1879.0159</ele>
        <time>2014-09-02T09:45:43Z</time>
      </trkpt>
      <trkpt lat="45.95409" lon="6.83491">
        <ele>1879.0159</ele>
        <time>2014-09-02T09:45:48Z</time>
      </trkpt>
      <trkpt lat="45.95406" lon="6.83493">
        <ele>1879.5697</ele>
        <time>2014-09-02T09:45:53Z</time>
      </trkpt>
      <trkpt lat="45.954" lon="6.83495">
        <ele>1879.5697</ele>
        <time>2014-09-02T09:45:58Z</time>
      </trkpt>
      <trkpt lat="45.95399" lon="6.83495">
        <ele>1879.5697</ele>
        <time>2014-09-02T09:46:03Z</time>
      </trkpt>
      <trkpt lat="45.95399" lon="6.83496">
        <ele>1879.5697</ele>
        <time>2014-09-02T09:46:08Z</time>
      </trkpt>
      <trkpt lat="45.95399" lon="6.83496">
        <ele>1879.5697</ele>
        <time>2014-09-02T09:46:13Z</time>
      </trkpt>
      <trkpt lat="45.95398" lon="6.83497">
        <ele>1879.5697</ele>
        <time>2014-09-02T09:46:18Z</time>
      </trkpt>
      <trkpt lat="45.95398" lon="6.83497">
        <ele>1879.5697</ele>
        <time>2014-09-02T09:46:23Z</time>
      </trkpt>
      <trkpt lat="45.95399" lon="6.83498">
        <ele>1880.1725</ele>
        <time>2014-09-02T09:47:13Z</time>
      </trkpt>
      <trkpt lat="45.95399" lon="6.83498">
        <ele>1880.1725</ele>
        <time>2014-09-02T09:47:18Z</time>
      </trkpt>
      <trkpt lat="45.954" lon="6.835">
        <ele>1880.1725</ele>
        <time>2014-09-02T09:48:58Z</time>
      </trkpt>
      <trkpt lat="45.954" lon="6.835">
        <ele>1880.1725</ele>
        <time>2014-09-02T09:49:03Z</time>
      </trkpt>
      <trkpt lat="45.954" lon="6.835">
        <ele>1880.1725</ele>
        <time>2014-09-02T09:49:08Z</time>
      </trkpt>
      <trkpt lat="45.95401" lon="6.83501">
        <ele>1880.1725</ele>
        <time>2014-09-02T09:49:43Z</time>
      </trkpt>
      <trkpt lat="45.95401" lon="6.83501">
        <ele>1880.1725</ele>
        <time>2014-09-02T09:49:48Z</time>
      </trkpt>
      <trkpt lat="45.95401" lon="6.83501">
        <ele>1880.1725</ele>
        <time>2014-09-02T09:49:53Z</time>
      </trkpt>
      <trkpt lat="45.95401" lon="6.83501">
        <ele>1880.1725</ele>
        <time>2014-09-02T09:49:58Z</time>
      </trkpt>
      <trkpt lat="45.95401" lon="6.83501">
        <ele>1880.1725</ele>
        <time>2014-09-02T09:50:08Z</time>
      </trkpt>
      <trkpt lat="45.95398" lon="6.83502">
        <ele>1880.1725</ele>
        <time>2014-09-02T09:50:13Z</time>
      </trkpt>
      <trkpt lat="45.95396" lon="6.83502">
        <ele>1881.2533</ele>
        <time>2014-09-02T09:50:18Z</time>
      </trkpt>
      <trkpt lat="45.95389" lon="6.83503">
        <ele>1881.2533</ele>
        <time>2014-09-02T09:50:23Z</time>
      </trkpt>
      <trkpt lat="45.95385" lon="6.83504">
        <ele>1882.1704</ele>
        <time>2014-09-02T09:50:28Z</time>
      </trkpt>
      <trkpt lat="45.95379" lon="6.83508">
        <ele>1882.1704</ele>
        <time>2014-09-02T09:50:33Z</time>
      </trkpt>
      <trkpt lat="45.95376" lon="6.83512">
        <ele>1883.0219</ele>
        <time>2014-09-02T09:50:38Z</time>
      </trkpt>
      <trkpt lat="45.95373" lon="6.83513">
        <ele>1883.0219</ele>
        <time>2014-09-02T09:50:43Z</time>
      </trkpt>
      <trkpt lat="45.95371" lon="6.83514">
        <ele>1883.0219</ele>
        <time>2014-09-02T09:50:48Z</time>
      </trkpt>
      <trkpt lat="45.9537" lon="6.83515">
        <ele>1883.0219</ele>
        <time>2014-09-02T09:50:53Z</time>
      </trkpt>
      <trkpt lat="45.95367" lon="6.83516">
        <ele>1883.7399</ele>
        <time>2014-09-02T09:50:58Z</time>
      </trkpt>
      <trkpt lat="45.95364" lon="6.83516">
        <ele>1883.7399</ele>
        <time>2014-09-02T09:51:03Z</time>
      </trkpt>
      <trkpt lat="45.95361" lon="6.83515">
        <ele>1883.7399</ele>
        <time>2014-09-02T09:51:08Z</time>
      </trkpt>
      <trkpt lat="45.95359" lon="6.83514">
        <ele>1883.7399</ele>
        <time>2014-09-02T09:51:13Z</time>
      </trkpt>
      <trkpt lat="45.95357" lon="6.83511">
        <ele>1884.4637</ele>
        <time>2014-09-02T09:51:18Z</time>
      </trkpt>
      <trkpt lat="45.95355" lon="6.83507">
        <ele>1884.4637</ele>
        <time>2014-09-02T09:51:23Z</time>
      </trkpt>
      <trkpt lat="45.95352" lon="6.83506">
        <ele>1884.4637</ele>
        <time>2014-09-02T09:51:28Z</time>
      </trkpt>
      <trkpt lat="45.95349" lon="6.83506">
        <ele>1885.2505</ele>
        <time>2014-09-02T09:51:33Z</time>
      </trkpt>
      <trkpt lat="45.95347" lon="6.83506">
        <ele>1885.2505</ele>
        <time>2014-09-02T09:51:38Z</time>
      </trkpt>
      <trkpt lat="45.95343" lon="6.83508">
        <ele>1885.2505</ele>
        <time>2014-09-02T09:51:43Z</time>
      </trkpt>
      <trkpt lat="45.95341" lon="6.8351">
        <ele>1885.2505</ele>
        <time>2014-09-02T09:51:48Z</time>
      </trkpt>
      <trkpt lat="45.95339" lon="6.8351">
        <ele>1886.196</ele>
        <time>2014-09-02T09:51:53Z</time>
      </trkpt>
      <trkpt lat="45.95336" lon="6.83509">
        <ele>1886.196</ele>
        <time>2014-09-02T09:51:58Z</time>
      </trkpt>
      <trkpt lat="45.95335" lon="6.83509">
        <ele>1886.196</ele>
        <time>2014-09-02T09:52:03Z</time>
      </trkpt>
      <trkpt lat="45.95333" lon="6.8351">
        <ele>1886.196</ele>
        <time>2014-09-02T09:52:08Z</time>
      </trkpt>
      <trkpt lat="45.95333" lon="6.83511">
        <ele>1886.196</ele>
        <time>2014-09-02T09:52:13Z</time>
      </trkpt>
      <trkpt lat="45.95332" lon="6.83512">
        <ele>1886.196</ele>
        <time>2014-09-02T09:52:18Z</time>
      </trkpt>
      <trkpt lat="45.95329" lon="6.83514">
        <ele>1887.2014</ele>
        <time>2014-09-02T09:52:23Z</time>
      </trkpt>
      <trkpt lat="45.95325" lon="6.83514">
        <ele>1887.2014</ele>
        <time>2014-09-02T09:52:28Z</time>
      </trkpt>
      <trkpt lat="45.95323" lon="6.83514">
        <ele>1887.2014</ele>
        <time>2014-09-02T09:52:33Z</time>
      </trkpt>
      <trkpt lat="45.95321" lon="6.83516">
        <ele>1887.2014</ele>
        <time>2014-09-02T09:52:38Z</time>
      </trkpt>
      <trkpt lat="45.9532" lon="6.83517">
        <ele>1888.3044</ele>
        <time>2014-09-02T09:52:43Z</time>
      </trkpt>
      <trkpt lat="45.95317" lon="6.83517">
        <ele>1888.3044</ele>
        <time>2014-09-02T09:52:48Z</time>
      </trkpt>
      <trkpt lat="45.95313" lon="6.83515">
        <ele>1888.3044</ele>
        <time>2014-09-02T09:52:53Z</time>
      </trkpt>
      <trkpt lat="45.9531" lon="6.83514">
        <ele>1889.468</ele>
        <time>2014-09-02T09:52:58Z</time>
      </trkpt>
      <trkpt lat="45.95309" lon="6.83515">
        <ele>1889.468</ele>
        <time>2014-09-02T09:53:03Z</time>
      </trkpt>
      <trkpt lat="45.95308" lon="6.83514">
        <ele>1889.468</ele>
        <time>2014-09-02T09:53:08Z</time>
      </trkpt>
      <trkpt lat="45.95306" lon="6.83512">
        <ele>1889.468</ele>
        <time>2014-09-02T09:53:13Z</time>
      </trkpt>
      <trkpt lat="45.95303" lon="6.83513">
        <ele>1889.468</ele>
        <time>2014-09-02T09:53:18Z</time>
      </trkpt>
      <trkpt lat="45.95301" lon="6.83516">
        <ele>1890.5563</ele>
        <time>2014-09-02T09:53:23Z</time>
      </trkpt>
      <trkpt lat="45.953" lon="6.83521">
        <ele>1890.5563</ele>
        <time>2014-09-02T09:53:28Z</time>
      </trkpt>
      <trkpt lat="45.953" lon="6.83526">
        <ele>1890.5563</ele>
        <time>2014-09-02T09:53:33Z</time>
      </trkpt>
      <trkpt lat="45.95299" lon="6.8353">
        <ele>1891.5304</ele>
        <time>2014-09-02T09:53:38Z</time>
      </trkpt>
      <trkpt lat="45.95297" lon="6.83534">
        <ele>1891.5304</ele>
        <time>2014-09-02T09:53:43Z</time>
      </trkpt>
      <trkpt lat="45.95297" lon="6.83538">
        <ele>1891.5304</ele>
        <time>2014-09-02T09:53:48Z</time>
      </trkpt>
      <trkpt lat="45.95296" lon="6.8354">
        <ele>1891.5304</ele>
        <time>2014-09-02T09:53:53Z</time>
      </trkpt>
      <trkpt lat="45.95295" lon="6.83542">
        <ele>1892.6718</ele>
        <time>2014-09-02T09:53:58Z</time>
      </trkpt>
      <trkpt lat="45.95294" lon="6.83547">
        <ele>1892.6718</ele>
        <time>2014-09-02T09:54:03Z</time>
      </trkpt>
      <trkpt lat="45.95294" lon="6.83547">
        <ele>1892.6718</ele>
        <time>2014-09-02T09:54:08Z</time>
      </trkpt>
      <trkpt lat="45.95292" lon="6.83549">
        <ele>1892.6718</ele>
        <time>2014-09-02T09:54:13Z</time>
      </trkpt>
      <trkpt lat="45.9529" lon="6.83551">
        <ele>1894.0675</ele>
        <time>2014-09-02T09:54:18Z</time>
      </trkpt>
      <trkpt lat="45.95288" lon="6.83554">
        <ele>1894.0675</ele>
        <time>2014-09-02T09:54:23Z</time>
      </trkpt>
      <trkpt lat="45.95286" lon="6.83555">
        <ele>1894.0675</ele>
        <time>2014-09-02T09:54:28Z</time>
      </trkpt>
      <trkpt lat="45.95282" lon="6.83554">
        <ele>1894.0675</ele>
        <time>2014-09-02T09:54:33Z</time>
      </trkpt>
      <trkpt lat="45.95278" lon="6.83552">
        <ele>1895.9564</ele>
        <time>2014-09-02T09:54:38Z</time>
      </trkpt>
      <trkpt lat="45.95275" lon="6.8355">
        <ele>1895.9564</ele>
        <time>2014-09-02T09:54:43Z</time>
      </trkpt>
      <trkpt lat="45.95272" lon="6.83549">
        <ele>1895.9564</ele>
        <time>2014-09-02T09:54:48Z</time>
      </trkpt>
      <trkpt lat="45.95271" lon="6.83549">
        <ele>1895.9564</ele>
        <time>2014-09-02T09:54:53Z</time>
      </trkpt>
      <trkpt lat="45.95269" lon="6.83549">
        <ele>1897.9672</ele>
        <time>2014-09-02T09:54:58Z</time>
      </trkpt>
      <trkpt lat="45.95267" lon="6.83548">
        <ele>1897.9672</ele>
        <time>2014-09-02T09:55:03Z</time>
      </trkpt>
      <trkpt lat="45.95264" lon="6.83548">
        <ele>1897.9672</ele>
        <time>2014-09-02T09:55:08Z</time>
      </trkpt>
      <trkpt lat="45.95261" lon="6.83549">
        <ele>1897.9672</ele>
        <time>2014-09-02T09:55:13Z</time>
      </trkpt>
      <trkpt lat="45.9526" lon="6.8355">
        <ele>1900.1305</ele>
        <time>2014-09-02T09:55:18Z</time>
      </trkpt>
      <trkpt lat="45.95256" lon="6.8355">
        <ele>1900.1305</ele>
        <time>2014-09-02T09:55:23Z</time>
      </trkpt>
      <trkpt lat="45.95255" lon="6.8355">
        <ele>1900.1305</ele>
        <time>2014-09-02T09:55:28Z</time>
      </trkpt>
      <trkpt lat="45.95254" lon="6.83547">
        <ele>1900.1305</ele>
        <time>2014-09-02T09:55:33Z</time>
      </trkpt>
      <trkpt lat="45.95254" lon="6.83544">
        <ele>1900.1305</ele>
        <time>2014-09-02T09:55:38Z</time>
      </trkpt>
      <trkpt lat="45.95251" lon="6.83539">
        <ele>1902.5895</ele>
        <time>2014-09-02T09:55:43Z</time>
      </trkpt>
      <trkpt lat="45.95249" lon="6.83534">
        <ele>1902.5895</ele>
        <time>2014-09-02T09:55:48Z</time>
      </trkpt>
      <trkpt lat="45.95246" lon="6.83532">
        <ele>1902.5895</ele>
        <time>2014-09-02T09:55:53Z</time>
      </trkpt>
      <trkpt lat="45.95243" lon="6.8353">
        <ele>1905.0149</ele>
        <time>2014-09-02T09:55:58Z</time>
      </trkpt>
      <trkpt lat="45.95239" lon="6.83527">
        <ele>1905.0149</ele>
        <time>2014-09-02T09:56:03Z</time>
      </trkpt>
      <trkpt lat="45.9524" lon="6.83527">
        <ele>1905.0149</ele>
        <time>2014-09-02T09:56:08Z</time>
      </trkpt>
      <trkpt lat="45.95241" lon="6.83526">
        <ele>1905.0149</ele>
        <time>2014-09-02T09:56:13Z</time>
      </trkpt>
      <trkpt lat="45.95241" lon="6.83525">
        <ele>1905.0149</ele>
        <time>2014-09-02T09:56:18Z</time>
      </trkpt>
      <trkpt lat="45.95242" lon="6.83526">
        <ele>1905.0149</ele>
        <time>2014-09-02T09:56:23Z</time>
      </trkpt>
      <trkpt lat="45.95242" lon="6.83526">
        <ele>1905.0149</ele>
        <time>2014-09-02T09:56:28Z</time>
      </trkpt>
      <trkpt lat="45.95244" lon="6.83527">
        <ele>1907.3613</ele>
        <time>2014-09-02T09:56:33Z</time>
      </trkpt>
      <trkpt lat="45.95244" lon="6.83528">
        <ele>1907.3613</ele>
        <time>2014-09-02T09:56:38Z</time>
      </trkpt>
      <trkpt lat="45.95243" lon="6.83528">
        <ele>1907.3613</ele>
        <time>2014-09-02T09:56:43Z</time>
      </trkpt>
      <trkpt lat="45.95242" lon="6.83528">
        <ele>1907.3613</ele>
        <time>2014-09-02T09:56:48Z</time>
      </trkpt>
      <trkpt lat="45.95242" lon="6.83528">
        <ele>1907.3613</ele>
        <time>2014-09-02T09:56:53Z</time>
      </trkpt>
      <trkpt lat="45.95239" lon="6.83529">
        <ele>1907.3613</ele>
        <time>2014-09-02T09:56:58Z</time>
      </trkpt>
      <trkpt lat="45.95235" lon="6.83527">
        <ele>1909.7308</ele>
        <time>2014-09-02T09:57:03Z</time>
      </trkpt>
      <trkpt lat="45.95233" lon="6.83526">
        <ele>1909.7308</ele>
        <time>2014-09-02T09:57:08Z</time>
      </trkpt>
      <trkpt lat="45.95228" lon="6.83523">
        <ele>1909.7308</ele>
        <time>2014-09-02T09:57:13Z</time>
      </trkpt>
      <trkpt lat="45.95225" lon="6.83521">
        <ele>1911.8867</ele>
        <time>2014-09-02T09:57:18Z</time>
      </trkpt>
      <trkpt lat="45.95221" lon="6.8352">
        <ele>1911.8867</ele>
        <time>2014-09-02T09:57:23Z</time>
      </trkpt>
      <trkpt lat="45.95219" lon="6.83519">
        <ele>1911.8867</ele>
        <time>2014-09-02T09:57:28Z</time>
      </trkpt>
      <trkpt lat="45.95215" lon="6.83516">
        <ele>1913.9851</ele>
        <time>2014-09-02T09:57:33Z</time>
      </trkpt>
      <trkpt lat="45.95212" lon="6.83518">
        <ele>1913.9851</ele>
        <time>2014-09-02T09:57:38Z</time>
      </trkpt>
      <trkpt lat="45.95209" lon="6.83521">
        <ele>1913.9851</ele>
        <time>2014-09-02T09:57:43Z</time>
      </trkpt>
      <trkpt lat="45.95206" lon="6.83524">
        <ele>1915.9402</ele>
        <time>2014-09-02T09:57:48Z</time>
      </trkpt>
      <trkpt lat="45.95203" lon="6.83527">
        <ele>1915.9402</ele>
        <time>2014-09-02T09:57:53Z</time>
      </trkpt>
      <trkpt lat="45.952" lon="6.83527">
        <ele>1915.9402</ele>
        <time>2014-09-02T09:57:58Z</time>
      </trkpt>
      <trkpt lat="45.95197" lon="6.83525">
        <ele>1915.9402</ele>
        <time>2014-09-02T09:58:03Z</time>
      </trkpt>
      <trkpt lat="45.95193" lon="6.83524">
        <ele>1917.9324</ele>
        <time>2014-09-02T09:58:08Z</time>
      </trkpt>
      <trkpt lat="45.95191" lon="6.83524">
        <ele>1917.9324</ele>
        <time>2014-09-02T09:58:13Z</time>
      </trkpt>
      <trkpt lat="45.95189" lon="6.83524">
        <ele>1917.9324</ele>
        <time>2014-09-02T09:58:18Z</time>
      </trkpt>
      <trkpt lat="45.95185" lon="6.83523">
        <ele>1917.9324</ele>
        <time>2014-09-02T09:58:23Z</time>
      </trkpt>
      <trkpt lat="45.95182" lon="6.83522">
        <ele>1919.7397</ele>
        <time>2014-09-02T09:58:28Z</time>
      </trkpt>
      <trkpt lat="45.95179" lon="6.83523">
        <ele>1919.7397</ele>
        <time>2014-09-02T09:58:33Z</time>
      </trkpt>
      <trkpt lat="45.95178" lon="6.83525">
        <ele>1919.7397</ele>
        <time>2014-09-02T09:58:38Z</time>
      </trkpt>
      <trkpt lat="45.95175" lon="6.83527">
        <ele>1919.7397</ele>
        <time>2014-09-02T09:58:43Z</time>
      </trkpt>
      <trkpt lat="45.95173" lon="6.83527">
        <ele>1921.4598</ele>
        <time>2014-09-02T09:58:48Z</time>
      </trkpt>
      <trkpt lat="45.95169" lon="6.83522">
        <ele>1921.4598</ele>
        <time>2014-09-02T09:58:53Z</time>
      </trkpt>
      <trkpt lat="45.95167" lon="6.8352">
        <ele>1921.4598</ele>
        <time>2014-09-02T09:58:58Z</time>
      </trkpt>
      <trkpt lat="45.95163" lon="6.83518">
        <ele>1923.0251</ele>
        <time>2014-09-02T09:59:03Z</time>
      </trkpt>
      <trkpt lat="45.95161" lon="6.83518">
        <ele>1923.0251</ele>
        <time>2014-09-02T09:59:08Z</time>
      </trkpt>
      <trkpt lat="45.95159" lon="6.83519">
        <ele>1923.0251</ele>
        <time>2014-09-02T09:59:13Z</time>
      </trkpt>
      <trkpt lat="45.95155" lon="6.83519">
        <ele>1923.0251</ele>
        <time>2014-09-02T09:59:18Z</time>
      </trkpt>
      <trkpt lat="45.95152" lon="6.83517">
        <ele>1924.6614</ele>
        <time>2014-09-02T09:59:23Z</time>
      </trkpt>
      <trkpt lat="45.95149" lon="6.83515">
        <ele>1924.6614</ele>
        <time>2014-09-02T09:59:28Z</time>
      </trkpt>
      <trkpt lat="45.95146" lon="6.83511">
        <ele>1924.6614</ele>
        <time>2014-09-02T09:59:33Z</time>
      </trkpt>
      <trkpt lat="45.95143" lon="6.83513">
        <ele>1926.1744</ele>
        <time>2014-09-02T09:59:38Z</time>
      </trkpt>
      <trkpt lat="45.9514" lon="6.83514">
        <ele>1926.1744</ele>
        <time>2014-09-02T09:59:43Z</time>
      </trkpt>
      <trkpt lat="45.95137" lon="6.83512">
        <ele>1926.1744</ele>
        <time>2014-09-02T09:59:48Z</time>
      </trkpt>
      <trkpt lat="45.95135" lon="6.83512">
        <ele>1927.7164</ele>
        <time>2014-09-02T09:59:53Z</time>
      </trkpt>
      <trkpt lat="45.95131" lon="6.8351">
        <ele>1927.7164</ele>
        <time>2014-09-02T09:59:58Z</time>
      </trkpt>
      <trkpt lat="45.95127" lon="6.83506">
        <ele>1927.7164</ele>
        <time>2014-09-02T10:00:03Z</time>
      </trkpt>
      <trkpt lat="45.95124" lon="6.83506">
        <ele>1929.2405</ele>
        <time>2014-09-02T10:00:08Z</time>
      </trkpt>
      <trkpt lat="45.9512" lon="6.83506">
        <ele>1929.2405</ele>
        <time>2014-09-02T10:00:13Z</time>
      </trkpt>
      <trkpt lat="45.95116" lon="6.83502">
        <ele>1929.2405</ele>
        <time>2014-09-02T10:00:18Z</time>
      </trkpt>
      <trkpt lat="45.95113" lon="6.835">
        <ele>1930.8046</ele>
        <time>2014-09-02T10:00:23Z</time>
      </trkpt>
      <trkpt lat="45.95109" lon="6.83496">
        <ele>1930.8046</ele>
        <time>2014-09-02T10:00:28Z</time>
      </trkpt>
      <trkpt lat="45.95105" lon="6.83494">
        <ele>1930.8046</ele>
        <time>2014-09-02T10:00:33Z</time>
      </trkpt>
      <trkpt lat="45.95101" lon="6.83492">
        <ele>1932.2606</ele>
        <time>2014-09-02T10:00:38Z</time>
      </trkpt>
      <trkpt lat="45.95099" lon="6.8349">
        <ele>1932.2606</ele>
        <time>2014-09-02T10:00:43Z</time>
      </trkpt>
      <trkpt lat="45.95096" lon="6.83489">
        <ele>1932.2606</ele>
        <time>2014-09-02T10:00:48Z</time>
      </trkpt>
      <trkpt lat="45.95093" lon="6.83487">
        <ele>1932.2606</ele>
        <time>2014-09-02T10:00:53Z</time>
      </trkpt>
      <trkpt lat="45.9509" lon="6.83487">
        <ele>1933.7023</ele>
        <time>2014-09-02T10:00:58Z</time>
      </trkpt>
      <trkpt lat="45.95087" lon="6.83485">
        <ele>1933.7023</ele>
        <time>2014-09-02T10:01:03Z</time>
      </trkpt>
      <trkpt lat="45.95084" lon="6.83484">
        <ele>1933.7023</ele>
        <time>2014-09-02T10:01:08Z</time>
      </trkpt>
      <trkpt lat="45.9508" lon="6.83483">
        <ele>1935.0723</ele>
        <time>2014-09-02T10:01:13Z</time>
      </trkpt>
      <trkpt lat="45.95075" lon="6.8348">
        <ele>1935.0723</ele>
        <time>2014-09-02T10:01:18Z</time>
      </trkpt>
      <trkpt lat="45.95073" lon="6.83479">
        <ele>1935.0723</ele>
        <time>2014-09-02T10:01:23Z</time>
      </trkpt>
      <trkpt lat="45.95069" lon="6.83477">
        <ele>1936.462</ele>
        <time>2014-09-02T10:01:28Z</time>
      </trkpt>
      <trkpt lat="45.95065" lon="6.83477">
        <ele>1936.462</ele>
        <time>2014-09-02T10:01:33Z</time>
      </trkpt>
      <trkpt lat="45.95062" lon="6.83474">
        <ele>1936.462</ele>
        <time>2014-09-02T10:01:38Z</time>
      </trkpt>
      <trkpt lat="45.9506" lon="6.83471">
        <ele>1937.8411</ele>
        <time>2014-09-02T10:01:43Z</time>
      </trkpt>
      <trkpt lat="45.95057" lon="6.83468">
        <ele>1937.8411</ele>
        <time>2014-09-02T10:01:48Z</time>
      </trkpt>
      <trkpt lat="45.95053" lon="6.83463">
        <ele>1939.1232</ele>
        <time>2014-09-02T10:01:53Z</time>
      </trkpt>
      <trkpt lat="45.95051" lon="6.8346">
        <ele>1939.1232</ele>
        <time>2014-09-02T10:01:58Z</time>
      </trkpt>
      <trkpt lat="45.95048" lon="6.83458">
        <ele>1939.1232</ele>
        <time>2014-09-02T10:02:03Z</time>
      </trkpt>
      <trkpt lat="45.95046" lon="6.83454">
        <ele>1940.3734</ele>
        <time>2014-09-02T10:02:08Z</time>
      </trkpt>
      <trkpt lat="45.95043" lon="6.83453">
        <ele>1940.3734</ele>
        <time>2014-09-02T10:02:13Z</time>
      </trkpt>
      <trkpt lat="45.95042" lon="6.83452">
        <ele>1940.3734</ele>
        <time>2014-09-02T10:02:18Z</time>
      </trkpt>
      <trkpt lat="45.95037" lon="6.8345">
        <ele>1940.3734</ele>
        <time>2014-09-02T10:02:23Z</time>
      </trkpt>
      <trkpt lat="45.95033" lon="6.83449">
        <ele>1941.58</ele>
        <time>2014-09-02T10:02:28Z</time>
      </trkpt>
      <trkpt lat="45.95031" lon="6.8345">
        <ele>1941.58</ele>
        <time>2014-09-02T10:02:33Z</time>
      </trkpt>
      <trkpt lat="45.95028" lon="6.83449">
        <ele>1941.58</ele>
        <time>2014-09-02T10:02:38Z</time>
      </trkpt>
      <trkpt lat="45.95026" lon="6.83448">
        <ele>1941.58</ele>
        <time>2014-09-02T10:02:43Z</time>
      </trkpt>
      <trkpt lat="45.95023" lon="6.83448">
        <ele>1942.876</ele>
        <time>2014-09-02T10:02:48Z</time>
      </trkpt>
      <trkpt lat="45.95021" lon="6.83447">
        <ele>1942.876</ele>
        <time>2014-09-02T10:02:53Z</time>
      </trkpt>
      <trkpt lat="45.95018" lon="6.83446">
        <ele>1942.876</ele>
        <time>2014-09-02T10:02:58Z</time>
      </trkpt>
      <trkpt lat="45.95014" lon="6.83446">
        <ele>1944.1831</ele>
        <time>2014-09-02T10:03:03Z</time>
      </trkpt>
      <trkpt lat="45.95012" lon="6.83448">
        <ele>1944.1831</ele>
        <time>2014-09-02T10:03:08Z</time>
      </trkpt>
      <trkpt lat="45.95009" lon="6.83447">
        <ele>1944.1831</ele>
        <time>2014-09-02T10:03:13Z</time>
      </trkpt>
      <trkpt lat="45.95004" lon="6.83444">
        <ele>1945.5153</ele>
        <time>2014-09-02T10:03:18Z</time>
      </trkpt>
      <trkpt lat="45.95001" lon="6.83443">
        <ele>1945.5153</ele>
        <time>2014-09-02T10:03:23Z</time>
      </trkpt>
      <trkpt lat="45.94999" lon="6.83443">
        <ele>1945.5153</ele>
        <time>2014-09-02T10:03:28Z</time>
      </trkpt>
      <trkpt lat="45.94997" lon="6.83444">
        <ele>1945.5153</ele>
        <time>2014-09-02T10:03:33Z</time>
      </trkpt>
      <trkpt lat="45.94994" lon="6.83445">
        <ele>1946.8706</ele>
        <time>2014-09-02T10:03:38Z</time>
      </trkpt>
      <trkpt lat="45.94992" lon="6.83447">
        <ele>1946.8706</ele>
        <time>2014-09-02T10:03:43Z</time>
      </trkpt>
      <trkpt lat="45.94991" lon="6.83448">
        <ele>1946.8706</ele>
        <time>2014-09-02T10:03:48Z</time>
      </trkpt>
      <trkpt lat="45.94989" lon="6.8345">
        <ele>1946.8706</ele>
        <time>2014-09-02T10:03:53Z</time>
      </trkpt>
      <trkpt lat="45.94988" lon="6.83453">
        <ele>1946.8706</ele>
        <time>2014-09-02T10:03:58Z</time>
      </trkpt>
      <trkpt lat="45.94986" lon="6.83456">
        <ele>1948.2045</ele>
        <time>2014-09-02T10:04:03Z</time>
      </trkpt>
      <trkpt lat="45.94984" lon="6.83459">
        <ele>1948.2045</ele>
        <time>2014-09-02T10:04:08Z</time>
      </trkpt>
      <trkpt lat="45.94982" lon="6.83464">
        <ele>1948.2045</ele>
        <time>2014-09-02T10:04:13Z</time>
      </trkpt>
      <trkpt lat="45.94981" lon="6.83468">
        <ele>1949.5042</ele>
        <time>2014-09-02T10:04:18Z</time>
      </trkpt>
      <trkpt lat="45.94978" lon="6.83472">
        <ele>1949.5042</ele>
        <time>2014-09-02T10:04:23Z</time>
      </trkpt>
      <trkpt lat="45.94977" lon="6.83474">
        <ele>1949.5042</ele>
        <time>2014-09-02T10:04:28Z</time>
      </trkpt>
      <trkpt lat="45.94976" lon="6.83475">
        <ele>1949.5042</ele>
        <time>2014-09-02T10:04:33Z</time>
      </trkpt>
      <trkpt lat="45.94974" lon="6.83478">
        <ele>1950.8014</ele>
        <time>2014-09-02T10:04:38Z</time>
      </trkpt>
      <trkpt lat="45.94972" lon="6.83482">
        <ele>1950.8014</ele>
        <time>2014-09-02T10:04:43Z</time>
      </trkpt>
      <trkpt lat="45.94969" lon="6.83484">
        <ele>1950.8014</ele>
        <time>2014-09-02T10:04:48Z</time>
      </trkpt>
      <trkpt lat="45.94966" lon="6.83486">
        <ele>1952.1833</ele>
        <time>2014-09-02T10:04:53Z</time>
      </trkpt>
      <trkpt lat="45.94963" lon="6.83487">
        <ele>1952.1833</ele>
        <time>2014-09-02T10:04:58Z</time>
      </trkpt>
      <trkpt lat="45.94961" lon="6.83487">
        <ele>1952.1833</ele>
        <time>2014-09-02T10:05:03Z</time>
      </trkpt>
      <trkpt lat="45.94959" lon="6.83488">
        <ele>1952.1833</ele>
        <time>2014-09-02T10:05:08Z</time>
      </trkpt>
      <trkpt lat="45.94957" lon="6.83489">
        <ele>1953.4419</ele>
        <time>2014-09-02T10:05:13Z</time>
      </trkpt>
      <trkpt lat="45.94955" lon="6.83489">
        <ele>1953.4419</ele>
        <time>2014-09-02T10:05:18Z</time>
      </trkpt>
      <trkpt lat="45.94951" lon="6.83493">
        <ele>1953.4419</ele>
        <time>2014-09-02T10:05:23Z</time>
      </trkpt>
      <trkpt lat="45.9495" lon="6.83493">
        <ele>1953.4419</ele>
        <time>2014-09-02T10:05:28Z</time>
      </trkpt>
      <trkpt lat="45.94947" lon="6.83495">
        <ele>1954.6301</ele>
        <time>2014-09-02T10:05:33Z</time>
      </trkpt>
      <trkpt lat="45.94944" lon="6.83493">
        <ele>1954.6301</ele>
        <time>2014-09-02T10:05:38Z</time>
      </trkpt>
      <trkpt lat="45.94941" lon="6.83491">
        <ele>1954.6301</ele>
        <time>2014-09-02T10:05:43Z</time>
      </trkpt>
      <trkpt lat="45.94938" lon="6.83487">
        <ele>1955.8837</ele>
        <time>2014-09-02T10:05:48Z</time>
      </trkpt>
      <trkpt lat="45.94935" lon="6.83484">
        <ele>1955.8837</ele>
        <time>2014-09-02T10:05:53Z</time>
      </trkpt>
      <trkpt lat="45.94933" lon="6.83483">
        <ele>1955.8837</ele>
        <time>2014-09-02T10:05:58Z</time>
      </trkpt>
      <trkpt lat="45.94929" lon="6.83482">
        <ele>1957.1837</ele>
        <time>2014-09-02T10:06:03Z</time>
      </trkpt>
      <trkpt lat="45.94927" lon="6.83483">
        <ele>1957.1837</ele>
        <time>2014-09-02T10:06:08Z</time>
      </trkpt>
      <trkpt lat="45.94924" lon="6.83483">
        <ele>1957.1837</ele>
        <time>2014-09-02T10:06:13Z</time>
      </trkpt>
      <trkpt lat="45.94923" lon="6.83486">
        <ele>1957.1837</ele>
        <time>2014-09-02T10:06:18Z</time>
      </trkpt>
      <trkpt lat="45.94922" lon="6.83487">
        <ele>1957.1837</ele>
        <time>2014-09-02T10:06:23Z</time>
      </trkpt>
      <trkpt lat="45.9492" lon="6.83489">
        <ele>1958.513</ele>
        <time>2014-09-02T10:06:28Z</time>
      </trkpt>
      <trkpt lat="45.94918" lon="6.83492">
        <ele>1958.513</ele>
        <time>2014-09-02T10:06:33Z</time>
      </trkpt>
      <trkpt lat="45.94916" lon="6.83495">
        <ele>1958.513</ele>
        <time>2014-09-02T10:06:38Z</time>
      </trkpt>
      <trkpt lat="45.94915" lon="6.83497">
        <ele>1958.513</ele>
        <time>2014-09-02T10:06:43Z</time>
      </trkpt>
      <trkpt lat="45.94913" lon="6.83498">
        <ele>1959.8986</ele>
        <time>2014-09-02T10:06:48Z</time>
      </trkpt>
      <trkpt lat="45.94913" lon="6.835">
        <ele>1959.8986</ele>
        <time>2014-09-02T10:06:53Z</time>
      </trkpt>
      <trkpt lat="45.94911" lon="6.83501">
        <ele>1959.8986</ele>
        <time>2014-09-02T10:06:58Z</time>
      </trkpt>
      <trkpt lat="45.94906" lon="6.83499">
        <ele>1959.8986</ele>
        <time>2014-09-02T10:07:03Z</time>
      </trkpt>
      <trkpt lat="45.94906" lon="6.83502">
        <ele>1961.322</ele>
        <time>2014-09-02T10:07:08Z</time>
      </trkpt>
      <trkpt lat="45.94905" lon="6.83504">
        <ele>1961.322</ele>
        <time>2014-09-02T10:07:13Z</time>
      </trkpt>
      <trkpt lat="45.94903" lon="6.83506">
        <ele>1961.322</ele>
        <time>2014-09-02T10:07:18Z</time>
      </trkpt>
      <trkpt lat="45.94901" lon="6.8351">
        <ele>1961.322</ele>
        <time>2014-09-02T10:07:23Z</time>
      </trkpt>
      <trkpt lat="45.949" lon="6.83512">
        <ele>1962.8529</ele>
        <time>2014-09-02T10:07:28Z</time>
      </trkpt>
      <trkpt lat="45.94901" lon="6.83512">
        <ele>1962.8529</ele>
        <time>2014-09-02T10:07:33Z</time>
      </trkpt>
      <trkpt lat="45.94903" lon="6.83512">
        <ele>1962.8529</ele>
        <time>2014-09-02T10:07:38Z</time>
      </trkpt>
      <trkpt lat="45.94906" lon="6.83513">
        <ele>1962.8529</ele>
        <time>2014-09-02T10:07:43Z</time>
      </trkpt>
      <trkpt lat="45.94908" lon="6.83514">
        <ele>1962.8529</ele>
        <time>2014-09-02T10:07:48Z</time>
      </trkpt>
      <trkpt lat="45.94907" lon="6.83514">
        <ele>1962.8529</ele>
        <time>2014-09-02T10:07:53Z</time>
      </trkpt>
      <trkpt lat="45.94906" lon="6.83515">
        <ele>1964.5695</ele>
        <time>2014-09-02T10:07:58Z</time>
      </trkpt>
      <trkpt lat="45.94906" lon="6.83516">
        <ele>1964.5695</ele>
        <time>2014-09-02T10:08:03Z</time>
      </trkpt>
      <trkpt lat="45.94906" lon="6.83517">
        <ele>1964.5695</ele>
        <time>2014-09-02T10:08:08Z</time>
      </trkpt>
      <trkpt lat="45.94904" lon="6.83517">
        <ele>1964.5695</ele>
        <time>2014-09-02T10:08:13Z</time>
      </trkpt>
      <trkpt lat="45.94903" lon="6.83518">
        <ele>1964.5695</ele>
        <time>2014-09-02T10:08:18Z</time>
      </trkpt>
      <trkpt lat="45.94902" lon="6.83518">
        <ele>1964.5695</ele>
        <time>2014-09-02T10:08:23Z</time>
      </trkpt>
      <trkpt lat="45.949" lon="6.8352">
        <ele>1964.5695</ele>
        <time>2014-09-02T10:08:28Z</time>
      </trkpt>
      <trkpt lat="45.94898" lon="6.8352">
        <ele>1966.3855</ele>
        <time>2014-09-02T10:08:33Z</time>
      </trkpt>
      <trkpt lat="45.94896" lon="6.83524">
        <ele>1966.3855</ele>
        <time>2014-09-02T10:08:38Z</time>
      </trkpt>
      <trkpt lat="45.94894" lon="6.83526">
        <ele>1966.3855</ele>
        <time>2014-09-02T10:08:43Z</time>
      </trkpt>
      <trkpt lat="45.94892" lon="6.83527">
        <ele>1966.3855</ele>
        <time>2014-09-02T10:08:48Z</time>
      </trkpt>
      <trkpt lat="45.94889" lon="6.83528">
        <ele>1968.3936</ele>
        <time>2014-09-02T10:08:53Z</time>
      </trkpt>
      <trkpt lat="45.94887" lon="6.83531">
        <ele>1968.3936</ele>
        <time>2014-09-02T10:08:58Z</time>
      </trkpt>
      <trkpt lat="45.94884" lon="6.83533">
        <ele>1968.3936</ele>
        <time>2014-09-02T10:09:03Z</time>
      </trkpt>
      <trkpt lat="45.94882" lon="6.83533">
        <ele>1968.3936</ele>
        <time>2014-09-02T10:09:08Z</time>
      </trkpt>
      <trkpt lat="45.94881" lon="6.83534">
        <ele>1970.6212</ele>
        <time>2014-09-02T10:09:13Z</time>
      </trkpt>
      <trkpt lat="45.9488" lon="6.83534">
        <ele>1970.6212</ele>
        <time>2014-09-02T10:09:18Z</time>
      </trkpt>
      <trkpt lat="45.94879" lon="6.83534">
        <ele>1970.6212</ele>
        <time>2014-09-02T10:09:23Z</time>
      </trkpt>
      <trkpt lat="45.94876" lon="6.83536">
        <ele>1970.6212</ele>
        <time>2014-09-02T10:09:28Z</time>
      </trkpt>
      <trkpt lat="45.94876" lon="6.83536">
        <ele>1970.6212</ele>
        <time>2014-09-02T10:09:33Z</time>
      </trkpt>
      <trkpt lat="45.94876" lon="6.83537">
        <ele>1970.6212</ele>
        <time>2014-09-02T10:09:38Z</time>
      </trkpt>
      <trkpt lat="45.94876" lon="6.83537">
        <ele>1970.6212</ele>
        <time>2014-09-02T10:09:43Z</time>
      </trkpt>
      <trkpt lat="45.94876" lon="6.83537">
        <ele>1970.6212</ele>
        <time>2014-09-02T10:09:48Z</time>
      </trkpt>
      <trkpt lat="45.94875" lon="6.83536">
        <ele>1970.6212</ele>
        <time>2014-09-02T10:09:53Z</time>
      </trkpt>
      <trkpt lat="45.94874" lon="6.83537">
        <ele>1970.6212</ele>
        <time>2014-09-02T10:09:58Z</time>
      </trkpt>
      <trkpt lat="45.94872" lon="6.83539">
        <ele>1973.1224</ele>
        <time>2014-09-02T10:10:03Z</time>
      </trkpt>
      <trkpt lat="45.94869" lon="6.8354">
        <ele>1973.1224</ele>
        <time>2014-09-02T10:10:08Z</time>
      </trkpt>
      <trkpt lat="45.94866" lon="6.83542">
        <ele>1973.1224</ele>
        <time>2014-09-02T10:10:13Z</time>
      </trkpt>
      <trkpt lat="45.94866" lon="6.83543">
        <ele>1973.1224</ele>
        <time>2014-09-02T10:10:18Z</time>
      </trkpt>
      <trkpt lat="45.94864" lon="6.83545">
        <ele>1975.658</ele>
        <time>2014-09-02T10:10:23Z</time>
      </trkpt>
      <trkpt lat="45.94862" lon="6.83546">
        <ele>1975.658</ele>
        <time>2014-09-02T10:10:28Z</time>
      </trkpt>
      <trkpt lat="45.9486" lon="6.83548">
        <ele>1975.658</ele>
        <time>2014-09-02T10:10:33Z</time>
      </trkpt>
      <trkpt lat="45.94858" lon="6.83547">
        <ele>1975.658</ele>
        <time>2014-09-02T10:10:38Z</time>
      </trkpt>
      <trkpt lat="45.94856" lon="6.8355">
        <ele>1978.1936</ele>
        <time>2014-09-02T10:10:43Z</time>
      </trkpt>
      <trkpt lat="45.94855" lon="6.83551">
        <ele>1978.1936</ele>
        <time>2014-09-02T10:10:48Z</time>
      </trkpt>
      <trkpt lat="45.94853" lon="6.83552">
        <ele>1978.1936</ele>
        <time>2014-09-02T10:10:53Z</time>
      </trkpt>
      <trkpt lat="45.94849" lon="6.83551">
        <ele>1978.1936</ele>
        <time>2014-09-02T10:10:58Z</time>
      </trkpt>
      <trkpt lat="45.94845" lon="6.83549">
        <ele>1980.8995</ele>
        <time>2014-09-02T10:11:03Z</time>
      </trkpt>
      <trkpt lat="45.94844" lon="6.83549">
        <ele>1980.8995</ele>
        <time>2014-09-02T10:11:08Z</time>
      </trkpt>
      <trkpt lat="45.94841" lon="6.83551">
        <ele>1980.8995</ele>
        <time>2014-09-02T10:11:13Z</time>
      </trkpt>
      <trkpt lat="45.9484" lon="6.83553">
        <ele>1980.8995</ele>
        <time>2014-09-02T10:11:18Z</time>
      </trkpt>
      <trkpt lat="45.9484" lon="6.83554">
        <ele>1980.8995</ele>
        <time>2014-09-02T10:11:23Z</time>
      </trkpt>
      <trkpt lat="45.94839" lon="6.83555">
        <ele>1980.8995</ele>
        <time>2014-09-02T10:11:28Z</time>
      </trkpt>
      <trkpt lat="45.94837" lon="6.83555">
        <ele>1983.5004</ele>
        <time>2014-09-02T10:11:33Z</time>
      </trkpt>
      <trkpt lat="45.94832" lon="6.83557">
        <ele>1983.5004</ele>
        <time>2014-09-02T10:11:38Z</time>
      </trkpt>
      <trkpt lat="45.9483" lon="6.83559">
        <ele>1983.5004</ele>
        <time>2014-09-02T10:11:43Z</time>
      </trkpt>
      <trkpt lat="45.94826" lon="6.83559">
        <ele>1985.9</ele>
        <time>2014-09-02T10:11:48Z</time>
      </trkpt>
      <trkpt lat="45.94824" lon="6.8356">
        <ele>1985.9</ele>
        <time>2014-09-02T10:11:53Z</time>
      </trkpt>
      <trkpt lat="45.94822" lon="6.83559">
        <ele>1985.9</ele>
        <time>2014-09-02T10:11:58Z</time>
      </trkpt>
      <trkpt lat="45.9482" lon="6.8356">
        <ele>1985.9</ele>
        <time>2014-09-02T10:12:03Z</time>
      </trkpt>
      <trkpt lat="45.94818" lon="6.8356">
        <ele>1985.9</ele>
        <time>2014-09-02T10:12:08Z</time>
      </trkpt>
      <trkpt lat="45.94815" lon="6.83559">
        <ele>1988.2694</ele>
        <time>2014-09-02T10:12:13Z</time>
      </trkpt>
      <trkpt lat="45.94812" lon="6.83559">
        <ele>1988.2694</ele>
        <time>2014-09-02T10:12:18Z</time>
      </trkpt>
      <trkpt lat="45.9481" lon="6.83558">
        <ele>1988.2694</ele>
        <time>2014-09-02T10:12:23Z</time>
      </trkpt>
      <trkpt lat="45.94807" lon="6.83559">
        <ele>1988.2694</ele>
        <time>2014-09-02T10:12:28Z</time>
      </trkpt>
      <trkpt lat="45.94803" lon="6.83558">
        <ele>1990.623</ele>
        <time>2014-09-02T10:12:33Z</time>
      </trkpt>
      <trkpt lat="45.94801" lon="6.83557">
        <ele>1990.623</ele>
        <time>2014-09-02T10:12:38Z</time>
      </trkpt>
      <trkpt lat="45.94798" lon="6.83554">
        <ele>1990.623</ele>
        <time>2014-09-02T10:12:43Z</time>
      </trkpt>
      <trkpt lat="45.94796" lon="6.83554">
        <ele>1990.623</ele>
        <time>2014-09-02T10:12:48Z</time>
      </trkpt>
      <trkpt lat="45.94794" lon="6.83553">
        <ele>1992.9742</ele>
        <time>2014-09-02T10:12:53Z</time>
      </trkpt>
      <trkpt lat="45.94793" lon="6.83552">
        <ele>1992.9742</ele>
        <time>2014-09-02T10:12:58Z</time>
      </trkpt>
      <trkpt lat="45.94789" lon="6.8355">
        <ele>1992.9742</ele>
        <time>2014-09-02T10:13:03Z</time>
      </trkpt>
      <trkpt lat="45.94786" lon="6.83547">
        <ele>1995.2347</ele>
        <time>2014-09-02T10:13:08Z</time>
      </trkpt>
      <trkpt lat="45.94784" lon="6.83546">
        <ele>1995.2347</ele>
        <time>2014-09-02T10:13:13Z</time>
      </trkpt>
      <trkpt lat="45.94782" lon="6.83545">
        <ele>1995.2347</ele>
        <time>2014-09-02T10:13:18Z</time>
      </trkpt>
      <trkpt lat="45.9478" lon="6.83543">
        <ele>1995.2347</ele>
        <time>2014-09-02T10:13:23Z</time>
      </trkpt>
      <trkpt lat="45.94777" lon="6.83541">
        <ele>1997.4672</ele>
        <time>2014-09-02T10:13:28Z</time>
      </trkpt>
      <trkpt lat="45.94774" lon="6.83539">
        <ele>1997.4672</ele>
        <time>2014-09-02T10:13:33Z</time>
      </trkpt>
      <trkpt lat="45.94772" lon="6.83538">
        <ele>1997.4672</ele>
        <time>2014-09-02T10:13:38Z</time>
      </trkpt>
      <trkpt lat="45.94769" lon="6.83539">
        <ele>1997.4672</ele>
        <time>2014-09-02T10:13:43Z</time>
      </trkpt>
      <trkpt lat="45.94767" lon="6.83539">
        <ele>1999.7295</ele>
        <time>2014-09-02T10:13:48Z</time>
      </trkpt>
      <trkpt lat="45.94763" lon="6.83538">
        <ele>1999.7295</ele>
        <time>2014-09-02T10:13:53Z</time>
      </trkpt>
      <trkpt lat="45.94762" lon="6.83538">
        <ele>1999.7295</ele>
        <time>2014-09-02T10:13:58Z</time>
      </trkpt>
      <trkpt lat="45.9476" lon="6.83538">
        <ele>1999.7295</ele>
        <time>2014-09-02T10:14:03Z</time>
      </trkpt>
      <trkpt lat="45.94757" lon="6.83537">
        <ele>2002.0034</ele>
        <time>2014-09-02T10:14:08Z</time>
      </trkpt>
      <trkpt lat="45.94755" lon="6.83536">
        <ele>2002.0034</ele>
        <time>2014-09-02T10:14:13Z</time>
      </trkpt>
      <trkpt lat="45.94754" lon="6.83537">
        <ele>2002.0034</ele>
        <time>2014-09-02T10:14:18Z</time>
      </trkpt>
      <trkpt lat="45.94752" lon="6.83539">
        <ele>2002.0034</ele>
        <time>2014-09-02T10:14:23Z</time>
      </trkpt>
      <trkpt lat="45.94749" lon="6.8354">
        <ele>2002.0034</ele>
        <time>2014-09-02T10:14:28Z</time>
      </trkpt>
      <trkpt lat="45.94747" lon="6.83543">
        <ele>2004.2579</ele>
        <time>2014-09-02T10:14:33Z</time>
      </trkpt>
      <trkpt lat="45.94744" lon="6.83546">
        <ele>2004.2579</ele>
        <time>2014-09-02T10:14:38Z</time>
      </trkpt>
      <trkpt lat="45.94742" lon="6.83545">
        <ele>2004.2579</ele>
        <time>2014-09-02T10:14:43Z</time>
      </trkpt>
      <trkpt lat="45.94738" lon="6.83545">
        <ele>2006.2765</ele>
        <time>2014-09-02T10:14:48Z</time>
      </trkpt>
      <trkpt lat="45.94735" lon="6.83545">
        <ele>2006.2765</ele>
        <time>2014-09-02T10:14:53Z</time>
      </trkpt>
      <trkpt lat="45.94731" lon="6.83546">
        <ele>2006.2765</ele>
        <time>2014-09-02T10:14:58Z</time>
      </trkpt>
      <trkpt lat="45.94728" lon="6.83546">
        <ele>2008.2489</ele>
        <time>2014-09-02T10:15:03Z</time>
      </trkpt>
      <trkpt lat="45.94725" lon="6.83548">
        <ele>2008.2489</ele>
        <time>2014-09-02T10:15:08Z</time>
      </trkpt>
      <trkpt lat="45.94721" lon="6.83547">
        <ele>2008.2489</ele>
        <time>2014-09-02T10:15:13Z</time>
      </trkpt>
      <trkpt lat="45.94717" lon="6.83547">
        <ele>2010.1923</ele>
        <time>2014-09-02T10:15:18Z</time>
      </trkpt>
      <trkpt lat="45.94715" lon="6.83544">
        <ele>2010.1923</ele>
        <time>2014-09-02T10:15:23Z</time>
      </trkpt>
      <trkpt lat="45.94713" lon="6.83541">
        <ele>2010.1923</ele>
        <time>2014-09-02T10:15:28Z</time>
      </trkpt>
      <trkpt lat="45.94711" lon="6.83538">
        <ele>2010.1923</ele>
        <time>2014-09-02T10:15:33Z</time>
      </trkpt>
      <trkpt lat="45.9471" lon="6.83537">
        <ele>2012.065</ele>
        <time>2014-09-02T10:15:38Z</time>
      </trkpt>
      <trkpt lat="45.94708" lon="6.83534">
        <ele>2012.065</ele>
        <time>2014-09-02T10:15:43Z</time>
      </trkpt>
      <trkpt lat="45.94707" lon="6.83528">
        <ele>2012.065</ele>
        <time>2014-09-02T10:15:48Z</time>
      </trkpt>
      <trkpt lat="45.94706" lon="6.83525">
        <ele>2013.8577</ele>
        <time>2014-09-02T10:15:53Z</time>
      </trkpt>
      <trkpt lat="45.94703" lon="6.83523">
        <ele>2013.8577</ele>
        <time>2014-09-02T10:15:58Z</time>
      </trkpt>
      <trkpt lat="45.94701" lon="6.83522">
        <ele>2013.8577</ele>
        <time>2014-09-02T10:16:03Z</time>
      </trkpt>
      <trkpt lat="45.94701" lon="6.83521">
        <ele>2013.8577</ele>
        <time>2014-09-02T10:16:08Z</time>
      </trkpt>
      <trkpt lat="45.94702" lon="6.83523">
        <ele>2013.8577</ele>
        <time>2014-09-02T10:16:13Z</time>
      </trkpt>
      <trkpt lat="45.94703" lon="6.83524">
        <ele>2013.8577</ele>
        <time>2014-09-02T10:16:18Z</time>
      </trkpt>
      <trkpt lat="45.94702" lon="6.83524">
        <ele>2013.8577</ele>
        <time>2014-09-02T10:16:23Z</time>
      </trkpt>
      <trkpt lat="45.94699" lon="6.83522">
        <ele>2015.7349</ele>
        <time>2014-09-02T10:16:28Z</time>
      </trkpt>
      <trkpt lat="45.94696" lon="6.83521">
        <ele>2015.7349</ele>
        <time>2014-09-02T10:16:33Z</time>
      </trkpt>
      <trkpt lat="45.94697" lon="6.83521">
        <ele>2015.7349</ele>
        <time>2014-09-02T10:16:38Z</time>
      </trkpt>
      <trkpt lat="45.94694" lon="6.83521">
        <ele>2015.7349</ele>
        <time>2014-09-02T10:16:43Z</time>
      </trkpt>
      <trkpt lat="45.94691" lon="6.8352">
        <ele>2015.7349</ele>
        <time>2014-09-02T10:16:48Z</time>
      </trkpt>
      <trkpt lat="45.94691" lon="6.83522">
        <ele>2017.4597</ele>
        <time>2014-09-02T10:16:53Z</time>
      </trkpt>
      <trkpt lat="45.9469" lon="6.83523">
        <ele>2017.4597</ele>
        <time>2014-09-02T10:16:58Z</time>
      </trkpt>
      <trkpt lat="45.94691" lon="6.83524">
        <ele>2017.4597</ele>
        <time>2014-09-02T10:17:03Z</time>
      </trkpt>
      <trkpt lat="45.94693" lon="6.83524">
        <ele>2017.4597</ele>
        <time>2014-09-02T10:17:08Z</time>
      </trkpt>
      <trkpt lat="45.94694" lon="6.83529">
        <ele>2017.4597</ele>
        <time>2014-09-02T10:17:13Z</time>
      </trkpt>
      <trkpt lat="45.94694" lon="6.83531">
        <ele>2017.4597</ele>
        <time>2014-09-02T10:17:18Z</time>
      </trkpt>
      <trkpt lat="45.94696" lon="6.83531">
        <ele>2018.9861</ele>
        <time>2014-09-02T10:17:23Z</time>
      </trkpt>
      <trkpt lat="45.94697" lon="6.83531">
        <ele>2018.9861</ele>
        <time>2014-09-02T10:17:28Z</time>
      </trkpt>
      <trkpt lat="45.94698" lon="6.83536">
        <ele>2018.9861</ele>
        <time>2014-09-02T10:17:33Z</time>
      </trkpt>
      <trkpt lat="45.94698" lon="6.83536">
        <ele>2018.9861</ele>
        <time>2014-09-02T10:17:38Z</time>
      </trkpt>
      <trkpt lat="45.94696" lon="6.83534">
        <ele>2018.9861</ele>
        <time>2014-09-02T10:17:43Z</time>
      </trkpt>
      <trkpt lat="45.94693" lon="6.83534">
        <ele>2020.3439</ele>
        <time>2014-09-02T10:17:48Z</time>
      </trkpt>
      <trkpt lat="45.94692" lon="6.83534">
        <ele>2020.3439</ele>
        <time>2014-09-02T10:17:53Z</time>
      </trkpt>
      <trkpt lat="45.94691" lon="6.83534">
        <ele>2020.3439</ele>
        <time>2014-09-02T10:17:58Z</time>
      </trkpt>
      <trkpt lat="45.94691" lon="6.83536">
        <ele>2020.3439</ele>
        <time>2014-09-02T10:18:03Z</time>
      </trkpt>
      <trkpt lat="45.94691" lon="6.83538">
        <ele>2020.3439</ele>
        <time>2014-09-02T10:18:08Z</time>
      </trkpt>
      <trkpt lat="45.94691" lon="6.83541">
        <ele>2020.3439</ele>
        <time>2014-09-02T10:18:13Z</time>
      </trkpt>
      <trkpt lat="45.94692" lon="6.83544">
        <ele>2021.7344</ele>
        <time>2014-09-02T10:18:18Z</time>
      </trkpt>
      <trkpt lat="45.94693" lon="6.83544">
        <ele>2021.7344</ele>
        <time>2014-09-02T10:18:23Z</time>
      </trkpt>
      <trkpt lat="45.94695" lon="6.83544">
        <ele>2021.7344</ele>
        <time>2014-09-02T10:18:28Z</time>
      </trkpt>
      <trkpt lat="45.94696" lon="6.83544">
        <ele>2021.7344</ele>
        <time>2014-09-02T10:18:33Z</time>
      </trkpt>
      <trkpt lat="45.94696" lon="6.83543">
        <ele>2021.7344</ele>
        <time>2014-09-02T10:18:38Z</time>
      </trkpt>
      <trkpt lat="45.94695" lon="6.83543">
        <ele>2021.7344</ele>
        <time>2014-09-02T10:18:43Z</time>
      </trkpt>
      <trkpt lat="45.94696" lon="6.83545">
        <ele>2021.7344</ele>
        <time>2014-09-02T10:18:48Z</time>
      </trkpt>
      <trkpt lat="45.94696" lon="6.83546">
        <ele>2021.7344</ele>
        <time>2014-09-02T10:18:53Z</time>
      </trkpt>
      <trkpt lat="45.94697" lon="6.83546">
        <ele>2021.7344</ele>
        <time>2014-09-02T10:18:58Z</time>
      </trkpt>
      <trkpt lat="45.94699" lon="6.83547">
        <ele>2023.0125</ele>
        <time>2014-09-02T10:19:03Z</time>
      </trkpt>
      <trkpt lat="45.94701" lon="6.83549">
        <ele>2023.0125</ele>
        <time>2014-09-02T10:19:08Z</time>
      </trkpt>
      <trkpt lat="45.94701" lon="6.8355">
        <ele>2023.0125</ele>
        <time>2014-09-02T10:19:13Z</time>
      </trkpt>
      <trkpt lat="45.947" lon="6.83553">
        <ele>2023.0125</ele>
        <time>2014-09-02T10:19:18Z</time>
      </trkpt>
      <trkpt lat="45.94701" lon="6.83554">
        <ele>2023.0125</ele>
        <time>2014-09-02T10:19:23Z</time>
      </trkpt>
      <trkpt lat="45.94703" lon="6.83559">
        <ele>2024.4763</ele>
        <time>2014-09-02T10:19:28Z</time>
      </trkpt>
      <trkpt lat="45.94704" lon="6.83563">
        <ele>2024.4763</ele>
        <time>2014-09-02T10:19:33Z</time>
      </trkpt>
      <trkpt lat="45.94704" lon="6.83564">
        <ele>2024.4763</ele>
        <time>2014-09-02T10:19:38Z</time>
      </trkpt>
      <trkpt lat="45.94703" lon="6.83569">
        <ele>2024.4763</ele>
        <time>2014-09-02T10:19:43Z</time>
      </trkpt>
      <trkpt lat="45.94703" lon="6.83574">
        <ele>2026.1135</ele>
        <time>2014-09-02T10:19:48Z</time>
      </trkpt>
      <trkpt lat="45.94702" lon="6.83577">
        <ele>2026.1135</ele>
        <time>2014-09-02T10:19:53Z</time>
      </trkpt>
      <trkpt lat="45.94699" lon="6.83575">
        <ele>2026.1135</ele>
        <time>2014-09-02T10:19:58Z</time>
      </trkpt>
      <trkpt lat="45.94696" lon="6.83574">
        <ele>2026.1135</ele>
        <time>2014-09-02T10:20:03Z</time>
      </trkpt>
      <trkpt lat="45.94693" lon="6.83573">
        <ele>2027.9121</ele>
        <time>2014-09-02T10:20:08Z</time>
      </trkpt>
      <trkpt lat="45.9469" lon="6.83571">
        <ele>2027.9121</ele>
        <time>2014-09-02T10:20:13Z</time>
      </trkpt>
      <trkpt lat="45.94688" lon="6.83571">
        <ele>2027.9121</ele>
        <time>2014-09-02T10:20:18Z</time>
      </trkpt>
      <trkpt lat="45.94685" lon="6.83571">
        <ele>2027.9121</ele>
        <time>2014-09-02T10:20:23Z</time>
      </trkpt>
      <trkpt lat="45.94682" lon="6.83572">
        <ele>2029.7452</ele>
        <time>2014-09-02T10:20:28Z</time>
      </trkpt>
      <trkpt lat="45.9468" lon="6.83572">
        <ele>2029.7452</ele>
        <time>2014-09-02T10:20:33Z</time>
      </trkpt>
      <trkpt lat="45.94678" lon="6.83575">
        <ele>2029.7452</ele>
        <time>2014-09-02T10:20:38Z</time>
      </trkpt>
      <trkpt lat="45.94677" lon="6.83576">
        <ele>2029.7452</ele>
        <time>2014-09-02T10:20:43Z</time>
      </trkpt>
      <trkpt lat="45.94674" lon="6.83575">
        <ele>2031.5961</ele>
        <time>2014-09-02T10:20:48Z</time>
      </trkpt>
      <trkpt lat="45.94673" lon="6.83576">
        <ele>2031.5961</ele>
        <time>2014-09-02T10:20:53Z</time>
      </trkpt>
      <trkpt lat="45.94671" lon="6.8358">
        <ele>2031.5961</ele>
        <time>2014-09-02T10:20:58Z</time>
      </trkpt>
      <trkpt lat="45.9467" lon="6.83582">
        <ele>2031.5961</ele>
        <time>2014-09-02T10:21:03Z</time>
      </trkpt>
      <trkpt lat="45.94671" lon="6.83584">
        <ele>2031.5961</ele>
        <time>2014-09-02T10:21:08Z</time>
      </trkpt>
      <trkpt lat="45.94671" lon="6.8359">
        <ele>2033.478</ele>
        <time>2014-09-02T10:21:13Z</time>
      </trkpt>
      <trkpt lat="45.94672" lon="6.83596">
        <ele>2033.478</ele>
        <time>2014-09-02T10:21:18Z</time>
      </trkpt>
      <trkpt lat="45.94673" lon="6.836">
        <ele>2033.478</ele>
        <time>2014-09-02T10:21:23Z</time>
      </trkpt>
      <trkpt lat="45.94675" lon="6.83603">
        <ele>2035.4321</ele>
        <time>2014-09-02T10:21:28Z</time>
      </trkpt>
      <trkpt lat="45.94676" lon="6.83603">
        <ele>2035.4321</ele>
        <time>2014-09-02T10:21:33Z</time>
      </trkpt>
      <trkpt lat="45.94677" lon="6.83606">
        <ele>2035.4321</ele>
        <time>2014-09-02T10:21:38Z</time>
      </trkpt>
      <trkpt lat="45.94679" lon="6.83608">
        <ele>2035.4321</ele>
        <time>2014-09-02T10:21:43Z</time>
      </trkpt>
      <trkpt lat="45.94682" lon="6.83607">
        <ele>2037.4241</ele>
        <time>2014-09-02T10:21:48Z</time>
      </trkpt>
      <trkpt lat="45.94684" lon="6.83608">
        <ele>2037.4241</ele>
        <time>2014-09-02T10:21:53Z</time>
      </trkpt>
      <trkpt lat="45.94687" lon="6.8361">
        <ele>2037.4241</ele>
        <time>2014-09-02T10:21:58Z</time>
      </trkpt>
      <trkpt lat="45.94688" lon="6.83611">
        <ele>2037.4241</ele>
        <time>2014-09-02T10:22:03Z</time>
      </trkpt>
      <trkpt lat="45.94692" lon="6.83612">
        <ele>2039.523</ele>
        <time>2014-09-02T10:22:08Z</time>
      </trkpt>
      <trkpt lat="45.94692" lon="6.83616">
        <ele>2039.523</ele>
        <time>2014-09-02T10:22:13Z</time>
      </trkpt>
      <trkpt lat="45.94694" lon="6.8362">
        <ele>2039.523</ele>
        <time>2014-09-02T10:22:18Z</time>
      </trkpt>
      <trkpt lat="45.94695" lon="6.83625">
        <ele>2041.5906</ele>
        <time>2014-09-02T10:22:23Z</time>
      </trkpt>
      <trkpt lat="45.94696" lon="6.83626">
        <ele>2041.5906</ele>
        <time>2014-09-02T10:22:28Z</time>
      </trkpt>
      <trkpt lat="45.94697" lon="6.83627">
        <ele>2041.5906</ele>
        <time>2014-09-02T10:22:33Z</time>
      </trkpt>
      <trkpt lat="45.94699" lon="6.83627">
        <ele>2041.5906</ele>
        <time>2014-09-02T10:22:38Z</time>
      </trkpt>
      <trkpt lat="45.94701" lon="6.8363">
        <ele>2041.5906</ele>
        <time>2014-09-02T10:22:43Z</time>
      </trkpt>
      <trkpt lat="45.94704" lon="6.83633">
        <ele>2043.8019</ele>
        <time>2014-09-02T10:22:48Z</time>
      </trkpt>
      <trkpt lat="45.94706" lon="6.83635">
        <ele>2043.8019</ele>
        <time>2014-09-02T10:22:53Z</time>
      </trkpt>
      <trkpt lat="45.94707" lon="6.83638">
        <ele>2043.8019</ele>
        <time>2014-09-02T10:22:58Z</time>
      </trkpt>
      <trkpt lat="45.94707" lon="6.8364">
        <ele>2043.8019</ele>
        <time>2014-09-02T10:23:03Z</time>
      </trkpt>
      <trkpt lat="45.94704" lon="6.83639">
        <ele>2043.8019</ele>
        <time>2014-09-02T10:23:08Z</time>
      </trkpt>
      <trkpt lat="45.94702" lon="6.83638">
        <ele>2045.7275</ele>
        <time>2014-09-02T10:23:13Z</time>
      </trkpt>
      <trkpt lat="45.947" lon="6.83639">
        <ele>2045.7275</ele>
        <time>2014-09-02T10:23:18Z</time>
      </trkpt>
      <trkpt lat="45.94697" lon="6.83638">
        <ele>2045.7275</ele>
        <time>2014-09-02T10:23:23Z</time>
      </trkpt>
      <trkpt lat="45.94694" lon="6.83638">
        <ele>2045.7275</ele>
        <time>2014-09-02T10:23:28Z</time>
      </trkpt>
      <trkpt lat="45.94693" lon="6.83638">
        <ele>2045.7275</ele>
        <time>2014-09-02T10:23:33Z</time>
      </trkpt>
      <trkpt lat="45.9469" lon="6.83638">
        <ele>2047.7631</ele>
        <time>2014-09-02T10:23:38Z</time>
      </trkpt>
      <trkpt lat="45.94686" lon="6.83637">
        <ele>2047.7631</ele>
        <time>2014-09-02T10:23:43Z</time>
      </trkpt>
      <trkpt lat="45.94682" lon="6.83636">
        <ele>2047.7631</ele>
        <time>2014-09-02T10:23:48Z</time>
      </trkpt>
      <trkpt lat="45.9468" lon="6.83635">
        <ele>2049.7993</ele>
        <time>2014-09-02T10:23:53Z</time>
      </trkpt>
      <trkpt lat="45.94679" lon="6.83635">
        <ele>2049.7993</ele>
        <time>2014-09-02T10:23:58Z</time>
      </trkpt>
      <trkpt lat="45.94678" lon="6.83635">
        <ele>2049.7993</ele>
        <time>2014-09-02T10:24:03Z</time>
      </trkpt>
      <trkpt lat="45.94675" lon="6.83634">
        <ele>2049.7993</ele>
        <time>2014-09-02T10:24:08Z</time>
      </trkpt>
      <trkpt lat="45.94672" lon="6.83633">
        <ele>2049.7993</ele>
        <time>2014-09-02T10:24:13Z</time>
      </trkpt>
      <trkpt lat="45.94671" lon="6.83633">
        <ele>2051.908</ele>
        <time>2014-09-02T10:24:18Z</time>
      </trkpt>
      <trkpt lat="45.94672" lon="6.83635">
        <ele>2051.908</ele>
        <time>2014-09-02T10:24:23Z</time>
      </trkpt>
      <trkpt lat="45.94674" lon="6.83638">
        <ele>2051.908</ele>
        <time>2014-09-02T10:24:28Z</time>
      </trkpt>
      <trkpt lat="45.94674" lon="6.8364">
        <ele>2051.908</ele>
        <time>2014-09-02T10:24:33Z</time>
      </trkpt>
      <trkpt lat="45.94676" lon="6.83643">
        <ele>2051.908</ele>
        <time>2014-09-02T10:24:38Z</time>
      </trkpt>
      <trkpt lat="45.94676" lon="6.83644">
        <ele>2054.1265</ele>
        <time>2014-09-02T10:24:43Z</time>
      </trkpt>
      <trkpt lat="45.94677" lon="6.83646">
        <ele>2054.1265</ele>
        <time>2014-09-02T10:24:48Z</time>
      </trkpt>
      <trkpt lat="45.94679" lon="6.83651">
        <ele>2054.1265</ele>
        <time>2014-09-02T10:24:53Z</time>
      </trkpt>
      <trkpt lat="45.94679" lon="6.83651">
        <ele>2054.1265</ele>
        <time>2014-09-02T10:24:58Z</time>
      </trkpt>
      <trkpt lat="45.94677" lon="6.83651">
        <ele>2054.1265</ele>
        <time>2014-09-02T10:25:03Z</time>
      </trkpt>
      <trkpt lat="45.94674" lon="6.83649">
        <ele>2056.3738</ele>
        <time>2014-09-02T10:25:08Z</time>
      </trkpt>
      <trkpt lat="45.94673" lon="6.83649">
        <ele>2056.3738</ele>
        <time>2014-09-02T10:25:13Z</time>
      </trkpt>
      <trkpt lat="45.94668" lon="6.83646">
        <ele>2056.3738</ele>
        <time>2014-09-02T10:25:18Z</time>
      </trkpt>
      <trkpt lat="45.94666" lon="6.83644">
        <ele>2058.3877</ele>
        <time>2014-09-02T10:25:23Z</time>
      </trkpt>
      <trkpt lat="45.94666" lon="6.83643">
        <ele>2058.3877</ele>
        <time>2014-09-02T10:25:28Z</time>
      </trkpt>
      <trkpt lat="45.94662" lon="6.83641">
        <ele>2058.3877</ele>
        <time>2014-09-02T10:25:33Z</time>
      </trkpt>
      <trkpt lat="45.9466" lon="6.83639">
        <ele>2058.3877</ele>
        <time>2014-09-02T10:25:38Z</time>
      </trkpt>
      <trkpt lat="45.9466" lon="6.83642">
        <ele>2058.3877</ele>
        <time>2014-09-02T10:25:43Z</time>
      </trkpt>
      <trkpt lat="45.94661" lon="6.83643">
        <ele>2060.3867</ele>
        <time>2014-09-02T10:25:48Z</time>
      </trkpt>
      <trkpt lat="45.94662" lon="6.83647">
        <ele>2060.3867</ele>
        <time>2014-09-02T10:25:53Z</time>
      </trkpt>
      <trkpt lat="45.94664" lon="6.83648">
        <ele>2060.3867</ele>
        <time>2014-09-02T10:25:58Z</time>
      </trkpt>
      <trkpt lat="45.94666" lon="6.83651">
        <ele>2060.3867</ele>
        <time>2014-09-02T10:26:03Z</time>
      </trkpt>
      <trkpt lat="45.94667" lon="6.83654">
        <ele>2062.487</ele>
        <time>2014-09-02T10:26:08Z</time>
      </trkpt>
      <trkpt lat="45.94667" lon="6.83655">
        <ele>2062.487</ele>
        <time>2014-09-02T10:26:13Z</time>
      </trkpt>
      <trkpt lat="45.94667" lon="6.83657">
        <ele>2062.487</ele>
        <time>2014-09-02T10:26:18Z</time>
      </trkpt>
      <trkpt lat="45.94668" lon="6.83656">
        <ele>2062.487</ele>
        <time>2014-09-02T10:26:23Z</time>
      </trkpt>
      <trkpt lat="45.94668" lon="6.83656">
        <ele>2062.487</ele>
        <time>2014-09-02T10:26:28Z</time>
      </trkpt>
      <trkpt lat="45.94665" lon="6.83656">
        <ele>2062.487</ele>
        <time>2014-09-02T10:26:33Z</time>
      </trkpt>
      <trkpt lat="45.94662" lon="6.83654">
        <ele>2062.487</ele>
        <time>2014-09-02T10:26:38Z</time>
      </trkpt>
      <trkpt lat="45.9466" lon="6.83653">
        <ele>2064.8394</ele>
        <time>2014-09-02T10:26:43Z</time>
      </trkpt>
      <trkpt lat="45.94658" lon="6.83652">
        <ele>2064.8394</ele>
        <time>2014-09-02T10:26:48Z</time>
      </trkpt>
      <trkpt lat="45.94656" lon="6.83652">
        <ele>2064.8394</ele>
        <time>2014-09-02T10:26:53Z</time>
      </trkpt>
      <trkpt lat="45.94652" lon="6.83649">
        <ele>2064.8394</ele>
        <time>2014-09-02T10:26:58Z</time>
      </trkpt>
      <trkpt lat="45.9465" lon="6.83647">
        <ele>2067.107</ele>
        <time>2014-09-02T10:27:03Z</time>
      </trkpt>
      <trkpt lat="45.94649" lon="6.83643">
        <ele>2067.107</ele>
        <time>2014-09-02T10:27:08Z</time>
      </trkpt>
      <trkpt lat="45.94648" lon="6.83639">
        <ele>2067.107</ele>
        <time>2014-09-02T10:27:13Z</time>
      </trkpt>
      <trkpt lat="45.94647" lon="6.83635">
        <ele>2067.107</ele>
        <time>2014-09-02T10:27:18Z</time>
      </trkpt>
      <trkpt lat="45.94646" lon="6.83634">
        <ele>2069.2664</ele>
        <time>2014-09-02T10:27:23Z</time>
      </trkpt>
      <trkpt lat="45.94644" lon="6.83632">
        <ele>2069.2664</ele>
        <time>2014-09-02T10:27:28Z</time>
      </trkpt>
      <trkpt lat="45.94641" lon="6.83629">
        <ele>2069.2664</ele>
        <time>2014-09-02T10:27:33Z</time>
      </trkpt>
      <trkpt lat="45.9464" lon="6.83632">
        <ele>2069.2664</ele>
        <time>2014-09-02T10:27:38Z</time>
      </trkpt>
      <trkpt lat="45.9464" lon="6.83634">
        <ele>2071.109</ele>
        <time>2014-09-02T10:27:43Z</time>
      </trkpt>
      <trkpt lat="45.94641" lon="6.83635">
        <ele>2071.109</ele>
        <time>2014-09-02T10:27:48Z</time>
      </trkpt>
      <trkpt lat="45.94641" lon="6.8364">
        <ele>2071.109</ele>
        <time>2014-09-02T10:27:53Z</time>
      </trkpt>
      <trkpt lat="45.94642" lon="6.83643">
        <ele>2071.109</ele>
        <time>2014-09-02T10:27:58Z</time>
      </trkpt>
      <trkpt lat="45.94641" lon="6.83645">
        <ele>2072.7878</ele>
        <time>2014-09-02T10:28:03Z</time>
      </trkpt>
      <trkpt lat="45.94639" lon="6.83646">
        <ele>2072.7878</ele>
        <time>2014-09-02T10:28:08Z</time>
      </trkpt>
      <trkpt lat="45.94638" lon="6.83647">
        <ele>2072.7878</ele>
        <time>2014-09-02T10:28:13Z</time>
      </trkpt>
      <trkpt lat="45.94635" lon="6.83648">
        <ele>2072.7878</ele>
        <time>2014-09-02T10:28:18Z</time>
      </trkpt>
      <trkpt lat="45.94634" lon="6.83652">
        <ele>2072.7878</ele>
        <time>2014-09-02T10:28:23Z</time>
      </trkpt>
      <trkpt lat="45.94633" lon="6.83658">
        <ele>2074.6042</ele>
        <time>2014-09-02T10:28:28Z</time>
      </trkpt>
      <trkpt lat="45.94632" lon="6.83663">
        <ele>2074.6042</ele>
        <time>2014-09-02T10:28:33Z</time>
      </trkpt>
      <trkpt lat="45.94631" lon="6.83668">
        <ele>2074.6042</ele>
        <time>2014-09-02T10:28:38Z</time>
      </trkpt>
      <trkpt lat="45.94632" lon="6.83671">
        <ele>2076.361</ele>
        <time>2014-09-02T10:28:43Z</time>
      </trkpt>
      <trkpt lat="45.94635" lon="6.83673">
        <ele>2076.361</ele>
        <time>2014-09-02T10:28:48Z</time>
      </trkpt>
      <trkpt lat="45.94637" lon="6.83675">
        <ele>2076.361</ele>
        <time>2014-09-02T10:28:53Z</time>
      </trkpt>
      <trkpt lat="45.9464" lon="6.83676">
        <ele>2076.361</ele>
        <time>2014-09-02T10:28:58Z</time>
      </trkpt>
      <trkpt lat="45.94645" lon="6.83677">
        <ele>2078.2507</ele>
        <time>2014-09-02T10:29:03Z</time>
      </trkpt>
      <trkpt lat="45.94649" lon="6.83677">
        <ele>2078.2507</ele>
        <time>2014-09-02T10:29:08Z</time>
      </trkpt>
      <trkpt lat="45.94652" lon="6.83678">
        <ele>2078.2507</ele>
        <time>2014-09-02T10:29:13Z</time>
      </trkpt>
      <trkpt lat="45.94653" lon="6.83679">
        <ele>2078.2507</ele>
        <time>2014-09-02T10:29:18Z</time>
      </trkpt>
      <trkpt lat="45.94655" lon="6.8368">
        <ele>2080.206</ele>
        <time>2014-09-02T10:29:23Z</time>
      </trkpt>
      <trkpt lat="45.94657" lon="6.83682">
        <ele>2080.206</ele>
        <time>2014-09-02T10:29:28Z</time>
      </trkpt>
      <trkpt lat="45.94658" lon="6.83684">
        <ele>2080.206</ele>
        <time>2014-09-02T10:29:33Z</time>
      </trkpt>
      <trkpt lat="45.94662" lon="6.83692">
        <ele>2082.0493</ele>
        <time>2014-09-02T10:29:38Z</time>
      </trkpt>
      <trkpt lat="45.94662" lon="6.83693">
        <ele>2082.0493</ele>
        <time>2014-09-02T10:29:43Z</time>
      </trkpt>
      <trkpt lat="45.94663" lon="6.83697">
        <ele>2082.0493</ele>
        <time>2014-09-02T10:29:48Z</time>
      </trkpt>
      <trkpt lat="45.94664" lon="6.837">
        <ele>2082.0493</ele>
        <time>2014-09-02T10:29:53Z</time>
      </trkpt>
      <trkpt lat="45.94663" lon="6.83702">
        <ele>2082.0493</ele>
        <time>2014-09-02T10:29:58Z</time>
      </trkpt>
      <trkpt lat="45.94664" lon="6.83703">
        <ele>2082.0493</ele>
        <time>2014-09-02T10:30:03Z</time>
      </trkpt>
      <trkpt lat="45.94663" lon="6.83705">
        <ele>2084.034</ele>
        <time>2014-09-02T10:30:08Z</time>
      </trkpt>
      <trkpt lat="45.94661" lon="6.83705">
        <ele>2084.034</ele>
        <time>2014-09-02T10:30:13Z</time>
      </trkpt>
      <trkpt lat="45.94658" lon="6.83703">
        <ele>2084.034</ele>
        <time>2014-09-02T10:30:18Z</time>
      </trkpt>
      <trkpt lat="45.94657" lon="6.83702">
        <ele>2084.034</ele>
        <time>2014-09-02T10:30:23Z</time>
      </trkpt>
      <trkpt lat="45.94655" lon="6.83699">
        <ele>2085.9626</ele>
        <time>2014-09-02T10:30:28Z</time>
      </trkpt>
      <trkpt lat="45.94654" lon="6.83699">
        <ele>2085.9626</ele>
        <time>2014-09-02T10:30:33Z</time>
      </trkpt>
      <trkpt lat="45.94651" lon="6.837">
        <ele>2085.9626</ele>
        <time>2014-09-02T10:30:38Z</time>
      </trkpt>
      <trkpt lat="45.9465" lon="6.83702">
        <ele>2085.9626</ele>
        <time>2014-09-02T10:30:43Z</time>
      </trkpt>
      <trkpt lat="45.94648" lon="6.83704">
        <ele>2085.9626</ele>
        <time>2014-09-02T10:30:48Z</time>
      </trkpt>
      <trkpt lat="45.94647" lon="6.83705">
        <ele>2085.9626</ele>
        <time>2014-09-02T10:30:53Z</time>
      </trkpt>
      <trkpt lat="45.94645" lon="6.83708">
        <ele>2087.8105</ele>
        <time>2014-09-02T10:30:58Z</time>
      </trkpt>
      <trkpt lat="45.94642" lon="6.83708">
        <ele>2087.8105</ele>
        <time>2014-09-02T10:31:03Z</time>
      </trkpt>
      <trkpt lat="45.94642" lon="6.83708">
        <ele>2087.8105</ele>
        <time>2014-09-02T10:31:08Z</time>
      </trkpt>
      <trkpt lat="45.94639" lon="6.83708">
        <ele>2087.8105</ele>
        <time>2014-09-02T10:31:13Z</time>
      </trkpt>
      <trkpt lat="45.94637" lon="6.83709">
        <ele>2087.8105</ele>
        <time>2014-09-02T10:31:18Z</time>
      </trkpt>
      <trkpt lat="45.94635" lon="6.8371">
        <ele>2089.7568</ele>
        <time>2014-09-02T10:31:23Z</time>
      </trkpt>
      <trkpt lat="45.94633" lon="6.83711">
        <ele>2089.7568</ele>
        <time>2014-09-02T10:31:28Z</time>
      </trkpt>
      <trkpt lat="45.94629" lon="6.8371">
        <ele>2089.7568</ele>
        <time>2014-09-02T10:31:33Z</time>
      </trkpt>
      <trkpt lat="45.94627" lon="6.83707">
        <ele>2089.7568</ele>
        <time>2014-09-02T10:31:38Z</time>
      </trkpt>
      <trkpt lat="45.94624" lon="6.83706">
        <ele>2091.809</ele>
        <time>2014-09-02T10:31:43Z</time>
      </trkpt>
      <trkpt lat="45.9462" lon="6.83705">
        <ele>2091.809</ele>
        <time>2014-09-02T10:31:48Z</time>
      </trkpt>
      <trkpt lat="45.94617" lon="6.83705">
        <ele>2091.809</ele>
        <time>2014-09-02T10:31:53Z</time>
      </trkpt>
      <trkpt lat="45.94615" lon="6.83705">
        <ele>2093.8293</ele>
        <time>2014-09-02T10:31:58Z</time>
      </trkpt>
      <trkpt lat="45.94612" lon="6.83707">
        <ele>2093.8293</ele>
        <time>2014-09-02T10:32:03Z</time>
      </trkpt>
      <trkpt lat="45.9461" lon="6.83707">
        <ele>2093.8293</ele>
        <time>2014-09-02T10:32:08Z</time>
      </trkpt>
      <trkpt lat="45.94607" lon="6.83706">
        <ele>2093.8293</ele>
        <time>2014-09-02T10:32:13Z</time>
      </trkpt>
      <trkpt lat="45.94605" lon="6.83705">
        <ele>2095.7192</ele>
        <time>2014-09-02T10:32:18Z</time>
      </trkpt>
      <trkpt lat="45.94605" lon="6.83705">
        <ele>2095.7192</ele>
        <time>2014-09-02T10:32:23Z</time>
      </trkpt>
      <trkpt lat="45.94606" lon="6.83708">
        <ele>2095.7192</ele>
        <time>2014-09-02T10:32:28Z</time>
      </trkpt>
      <trkpt lat="45.94605" lon="6.83707">
        <ele>2095.7192</ele>
        <time>2014-09-02T10:32:33Z</time>
      </trkpt>
      <trkpt lat="45.94604" lon="6.83707">
        <ele>2095.7192</ele>
        <time>2014-09-02T10:32:38Z</time>
      </trkpt>
      <trkpt lat="45.94605" lon="6.83709">
        <ele>2095.7192</ele>
        <time>2014-09-02T10:32:43Z</time>
      </trkpt>
      <trkpt lat="45.94606" lon="6.83712">
        <ele>2095.7192</ele>
        <time>2014-09-02T10:32:48Z</time>
      </trkpt>
      <trkpt lat="45.94605" lon="6.83712">
        <ele>2095.7192</ele>
        <time>2014-09-02T10:32:53Z</time>
      </trkpt>
      <trkpt lat="45.94605" lon="6.8371">
        <ele>2097.3877</ele>
        <time>2014-09-02T10:32:58Z</time>
      </trkpt>
      <trkpt lat="45.94604" lon="6.83708">
        <ele>2097.3877</ele>
        <time>2014-09-02T10:33:03Z</time>
      </trkpt>
      <trkpt lat="45.94604" lon="6.83707">
        <ele>2097.3877</ele>
        <time>2014-09-02T10:33:08Z</time>
      </trkpt>
      <trkpt lat="45.94604" lon="6.83707">
        <ele>2097.3877</ele>
        <time>2014-09-02T10:33:13Z</time>
      </trkpt>
      <trkpt lat="45.94603" lon="6.83706">
        <ele>2097.3877</ele>
        <time>2014-09-02T10:33:18Z</time>
      </trkpt>
      <trkpt lat="45.94604" lon="6.83708">
        <ele>2097.3877</ele>
        <time>2014-09-02T10:33:23Z</time>
      </trkpt>
      <trkpt lat="45.94606" lon="6.83708">
        <ele>2097.3877</ele>
        <time>2014-09-02T10:33:28Z</time>
      </trkpt>
      <trkpt lat="45.94606" lon="6.83707">
        <ele>2097.3877</ele>
        <time>2014-09-02T10:33:33Z</time>
      </trkpt>
      <trkpt lat="45.94606" lon="6.83707">
        <ele>2097.3877</ele>
        <time>2014-09-02T10:33:38Z</time>
      </trkpt>
      <trkpt lat="45.94606" lon="6.83706">
        <ele>2097.3877</ele>
        <time>2014-09-02T10:33:43Z</time>
      </trkpt>
      <trkpt lat="45.94607" lon="6.83706">
        <ele>2097.3877</ele>
        <time>2014-09-02T10:33:48Z</time>
      </trkpt>
      <trkpt lat="45.94607" lon="6.83708">
        <ele>2099.2695</ele>
        <time>2014-09-02T10:33:53Z</time>
      </trkpt>
      <trkpt lat="45.94608" lon="6.83709">
        <ele>2099.2695</ele>
        <time>2014-09-02T10:33:58Z</time>
      </trkpt>
      <trkpt lat="45.94607" lon="6.83708">
        <ele>2099.2695</ele>
        <time>2014-09-02T10:34:03Z</time>
      </trkpt>
      <trkpt lat="45.94606" lon="6.83707">
        <ele>2099.2695</ele>
        <time>2014-09-02T10:34:08Z</time>
      </trkpt>
      <trkpt lat="45.94605" lon="6.83706">
        <ele>2099.2695</ele>
        <time>2014-09-02T10:34:13Z</time>
      </trkpt>
      <trkpt lat="45.94605" lon="6.83707">
        <ele>2099.2695</ele>
        <time>2014-09-02T10:34:18Z</time>
      </trkpt>
      <trkpt lat="45.94604" lon="6.83707">
        <ele>2099.2695</ele>
        <time>2014-09-02T10:34:23Z</time>
      </trkpt>
      <trkpt lat="45.94604" lon="6.83709">
        <ele>2099.2695</ele>
        <time>2014-09-02T10:34:28Z</time>
      </trkpt>
      <trkpt lat="45.94605" lon="6.83714">
        <ele>2101.1912</ele>
        <time>2014-09-02T10:34:33Z</time>
      </trkpt>
      <trkpt lat="45.94606" lon="6.83719">
        <ele>2101.1912</ele>
        <time>2014-09-02T10:34:38Z</time>
      </trkpt>
      <trkpt lat="45.94607" lon="6.83722">
        <ele>2101.1912</ele>
        <time>2014-09-02T10:34:43Z</time>
      </trkpt>
      <trkpt lat="45.94608" lon="6.83726">
        <ele>2103.1064</ele>
        <time>2014-09-02T10:34:48Z</time>
      </trkpt>
      <trkpt lat="45.94609" lon="6.83728">
        <ele>2103.1064</ele>
        <time>2014-09-02T10:34:53Z</time>
      </trkpt>
      <trkpt lat="45.94611" lon="6.83731">
        <ele>2103.1064</ele>
        <time>2014-09-02T10:34:58Z</time>
      </trkpt>
      <trkpt lat="45.94614" lon="6.83734">
        <ele>2103.1064</ele>
        <time>2014-09-02T10:35:03Z</time>
      </trkpt>
      <trkpt lat="45.94617" lon="6.83734">
        <ele>2104.9153</ele>
        <time>2014-09-02T10:35:08Z</time>
      </trkpt>
      <trkpt lat="45.94622" lon="6.83738">
        <ele>2104.9153</ele>
        <time>2014-09-02T10:35:13Z</time>
      </trkpt>
      <trkpt lat="45.94624" lon="6.8374">
        <ele>2104.9153</ele>
        <time>2014-09-02T10:35:18Z</time>
      </trkpt>
      <trkpt lat="45.94626" lon="6.83742">
        <ele>2106.669</ele>
        <time>2014-09-02T10:35:23Z</time>
      </trkpt>
      <trkpt lat="45.94628" lon="6.83744">
        <ele>2106.669</ele>
        <time>2014-09-02T10:35:28Z</time>
      </trkpt>
      <trkpt lat="45.94631" lon="6.83745">
        <ele>2106.669</ele>
        <time>2014-09-02T10:35:33Z</time>
      </trkpt>
      <trkpt lat="45.94634" lon="6.83747">
        <ele>2106.669</ele>
        <time>2014-09-02T10:35:38Z</time>
      </trkpt>
      <trkpt lat="45.94636" lon="6.83748">
        <ele>2108.3723</ele>
        <time>2014-09-02T10:35:43Z</time>
      </trkpt>
      <trkpt lat="45.94637" lon="6.83752">
        <ele>2108.3723</ele>
        <time>2014-09-02T10:35:48Z</time>
      </trkpt>
      <trkpt lat="45.9464" lon="6.83759">
        <ele>2108.3723</ele>
        <time>2014-09-02T10:35:53Z</time>
      </trkpt>
      <trkpt lat="45.94639" lon="6.83759">
        <ele>2108.3723</ele>
        <time>2014-09-02T10:35:58Z</time>
      </trkpt>
      <trkpt lat="45.94639" lon="6.83759">
        <ele>2108.3723</ele>
        <time>2014-09-02T10:36:03Z</time>
      </trkpt>
      <trkpt lat="45.94639" lon="6.83762">
        <ele>2109.9722</ele>
        <time>2014-09-02T10:36:08Z</time>
      </trkpt>
      <trkpt lat="45.94638" lon="6.83763">
        <ele>2109.9722</ele>
        <time>2014-09-02T10:36:13Z</time>
      </trkpt>
      <trkpt lat="45.94637" lon="6.83763">
        <ele>2109.9722</ele>
        <time>2014-09-02T10:36:18Z</time>
      </trkpt>
      <trkpt lat="45.94636" lon="6.83764">
        <ele>2109.9722</ele>
        <time>2014-09-02T10:36:23Z</time>
      </trkpt>
      <trkpt lat="45.94635" lon="6.83765">
        <ele>2109.9722</ele>
        <time>2014-09-02T10:36:28Z</time>
      </trkpt>
      <trkpt lat="45.94633" lon="6.83765">
        <ele>2109.9722</ele>
        <time>2014-09-02T10:36:33Z</time>
      </trkpt>
      <trkpt lat="45.94632" lon="6.8377">
        <ele>2111.535</ele>
        <time>2014-09-02T10:36:38Z</time>
      </trkpt>
      <trkpt lat="45.94631" lon="6.83771">
        <ele>2111.535</ele>
        <time>2014-09-02T10:36:43Z</time>
      </trkpt>
      <trkpt lat="45.9463" lon="6.83772">
        <ele>2111.535</ele>
        <time>2014-09-02T10:36:48Z</time>
      </trkpt>
      <trkpt lat="45.94628" lon="6.83774">
        <ele>2111.535</ele>
        <time>2014-09-02T10:36:53Z</time>
      </trkpt>
      <trkpt lat="45.94627" lon="6.83774">
        <ele>2111.535</ele>
        <time>2014-09-02T10:36:58Z</time>
      </trkpt>
      <trkpt lat="45.94626" lon="6.83774">
        <ele>2111.535</ele>
        <time>2014-09-02T10:37:03Z</time>
      </trkpt>
      <trkpt lat="45.94623" lon="6.83776">
        <ele>2113.1794</ele>
        <time>2014-09-02T10:37:08Z</time>
      </trkpt>
      <trkpt lat="45.9462" lon="6.83777">
        <ele>2113.1794</ele>
        <time>2014-09-02T10:37:13Z</time>
      </trkpt>
      <trkpt lat="45.94619" lon="6.83777">
        <ele>2113.1794</ele>
        <time>2014-09-02T10:37:18Z</time>
      </trkpt>
      <trkpt lat="45.94619" lon="6.83778">
        <ele>2113.1794</ele>
        <time>2014-09-02T10:37:23Z</time>
      </trkpt>
      <trkpt lat="45.94618" lon="6.83779">
        <ele>2113.1794</ele>
        <time>2014-09-02T10:37:28Z</time>
      </trkpt>
      <trkpt lat="45.94616" lon="6.83781">
        <ele>2113.1794</ele>
        <time>2014-09-02T10:37:33Z</time>
      </trkpt>
      <trkpt lat="45.94614" lon="6.83781">
        <ele>2114.901</ele>
        <time>2014-09-02T10:37:38Z</time>
      </trkpt>
      <trkpt lat="45.94612" lon="6.83782">
        <ele>2114.901</ele>
        <time>2014-09-02T10:37:43Z</time>
      </trkpt>
      <trkpt lat="45.94612" lon="6.83783">
        <ele>2114.901</ele>
        <time>2014-09-02T10:37:48Z</time>
      </trkpt>
      <trkpt lat="45.9461" lon="6.83784">
        <ele>2114.901</ele>
        <time>2014-09-02T10:37:53Z</time>
      </trkpt>
      <trkpt lat="45.94608" lon="6.83783">
        <ele>2114.901</ele>
        <time>2014-09-02T10:37:58Z</time>
      </trkpt>
      <trkpt lat="45.94607" lon="6.83783">
        <ele>2114.901</ele>
        <time>2014-09-02T10:38:03Z</time>
      </trkpt>
      <trkpt lat="45.94605" lon="6.83783">
        <ele>2116.9536</ele>
        <time>2014-09-02T10:38:08Z</time>
      </trkpt>
      <trkpt lat="45.94604" lon="6.83785">
        <ele>2116.9536</ele>
        <time>2014-09-02T10:38:13Z</time>
      </trkpt>
      <trkpt lat="45.94603" lon="6.83787">
        <ele>2116.9536</ele>
        <time>2014-09-02T10:38:18Z</time>
      </trkpt>
      <trkpt lat="45.94603" lon="6.83788">
        <ele>2116.9536</ele>
        <time>2014-09-02T10:38:23Z</time>
      </trkpt>
      <trkpt lat="45.94601" lon="6.83789">
        <ele>2116.9536</ele>
        <time>2014-09-02T10:38:28Z</time>
      </trkpt>
      <trkpt lat="45.94601" lon="6.8379">
        <ele>2116.9536</ele>
        <time>2014-09-02T10:38:33Z</time>
      </trkpt>
      <trkpt lat="45.94596" lon="6.83794">
        <ele>2119.1255</ele>
        <time>2014-09-02T10:38:38Z</time>
      </trkpt>
      <trkpt lat="45.94592" lon="6.83796">
        <ele>2119.1255</ele>
        <time>2014-09-02T10:38:43Z</time>
      </trkpt>
      <trkpt lat="45.94591" lon="6.83796">
        <ele>2119.1255</ele>
        <time>2014-09-02T10:38:48Z</time>
      </trkpt>
      <trkpt lat="45.94587" lon="6.83795">
        <ele>2121.1047</ele>
        <time>2014-09-02T10:38:53Z</time>
      </trkpt>
      <trkpt lat="45.94585" lon="6.83797">
        <ele>2121.1047</ele>
        <time>2014-09-02T10:38:58Z</time>
      </trkpt>
      <trkpt lat="45.94584" lon="6.83798">
        <ele>2121.1047</ele>
        <time>2014-09-02T10:39:03Z</time>
      </trkpt>
      <trkpt lat="45.94581" lon="6.83802">
        <ele>2121.1047</ele>
        <time>2014-09-02T10:39:08Z</time>
      </trkpt>
      <trkpt lat="45.94577" lon="6.83805">
        <ele>2123.1648</ele>
        <time>2014-09-02T10:39:13Z</time>
      </trkpt>
      <trkpt lat="45.94574" lon="6.83806">
        <ele>2123.1648</ele>
        <time>2014-09-02T10:39:18Z</time>
      </trkpt>
      <trkpt lat="45.94571" lon="6.83808">
        <ele>2123.1648</ele>
        <time>2014-09-02T10:39:23Z</time>
      </trkpt>
      <trkpt lat="45.9457" lon="6.83809">
        <ele>2123.1648</ele>
        <time>2014-09-02T10:39:28Z</time>
      </trkpt>
      <trkpt lat="45.94568" lon="6.83811">
        <ele>2124.8093</ele>
        <time>2014-09-02T10:39:33Z</time>
      </trkpt>
      <trkpt lat="45.94565" lon="6.83812">
        <ele>2124.8093</ele>
        <time>2014-09-02T10:39:38Z</time>
      </trkpt>
      <trkpt lat="45.9456" lon="6.83813">
        <ele>2124.8093</ele>
        <time>2014-09-02T10:39:43Z</time>
      </trkpt>
      <trkpt lat="45.94558" lon="6.83815">
        <ele>2126.329</ele>
        <time>2014-09-02T10:39:48Z</time>
      </trkpt>
      <trkpt lat="45.94553" lon="6.83819">
        <ele>2126.329</ele>
        <time>2014-09-02T10:39:53Z</time>
      </trkpt>
      <trkpt lat="45.94549" lon="6.83823">
        <ele>2127.432</ele>
        <time>2014-09-02T10:39:58Z</time>
      </trkpt>
      <trkpt lat="45.94546" lon="6.83825">
        <ele>2127.432</ele>
        <time>2014-09-02T10:40:03Z</time>
      </trkpt>
      <trkpt lat="45.94544" lon="6.83827">
        <ele>2127.432</ele>
        <time>2014-09-02T10:40:08Z</time>
      </trkpt>
      <trkpt lat="45.94544" lon="6.83827">
        <ele>2127.432</ele>
        <time>2014-09-02T10:40:13Z</time>
      </trkpt>
      <trkpt lat="45.94544" lon="6.83828">
        <ele>2127.432</ele>
        <time>2014-09-02T10:40:18Z</time>
      </trkpt>
      <trkpt lat="45.9454" lon="6.83828">
        <ele>2128.2944</ele>
        <time>2014-09-02T10:40:23Z</time>
      </trkpt>
      <trkpt lat="45.94539" lon="6.83827">
        <ele>2128.2944</ele>
        <time>2014-09-02T10:40:28Z</time>
      </trkpt>
      <trkpt lat="45.94534" lon="6.83826">
        <ele>2128.2944</ele>
        <time>2014-09-02T10:40:33Z</time>
      </trkpt>
      <trkpt lat="45.94534" lon="6.83826">
        <ele>2128.2944</ele>
        <time>2014-09-02T10:40:38Z</time>
      </trkpt>
      <trkpt lat="45.94533" lon="6.83826">
        <ele>2128.2944</ele>
        <time>2014-09-02T10:40:48Z</time>
      </trkpt>
      <trkpt lat="45.94527" lon="6.83827">
        <ele>2129.37</ele>
        <time>2014-09-02T10:40:53Z</time>
      </trkpt>
      <trkpt lat="45.94526" lon="6.83828">
        <ele>2129.37</ele>
        <time>2014-09-02T10:40:58Z</time>
      </trkpt>
      <trkpt lat="45.94524" lon="6.83829">
        <ele>2129.37</ele>
        <time>2014-09-02T10:41:03Z</time>
      </trkpt>
      <trkpt lat="45.94524" lon="6.83829">
        <ele>2129.37</ele>
        <time>2014-09-02T10:41:08Z</time>
      </trkpt>
      <trkpt lat="45.94523" lon="6.8383">
        <ele>2129.37</ele>
        <time>2014-09-02T10:41:33Z</time>
      </trkpt>
      <trkpt lat="45.94522" lon="6.8383">
        <ele>2129.37</ele>
        <time>2014-09-02T10:41:38Z</time>
      </trkpt>
      <trkpt lat="45.94522" lon="6.8383">
        <ele>2129.37</ele>
        <time>2014-09-02T10:41:43Z</time>
      </trkpt>
      <trkpt lat="45.94521" lon="6.83833">
        <ele>2129.37</ele>
        <time>2014-09-02T10:41:48Z</time>
      </trkpt>
      <trkpt lat="45.9452" lon="6.83836">
        <ele>2131.0056</ele>
        <time>2014-09-02T10:41:53Z</time>
      </trkpt>
      <trkpt lat="45.9452" lon="6.83836">
        <ele>2131.0056</ele>
        <time>2014-09-02T10:41:58Z</time>
      </trkpt>
      <trkpt lat="45.94519" lon="6.83837">
        <ele>2131.0056</ele>
        <time>2014-09-02T10:42:08Z</time>
      </trkpt>
      <trkpt lat="45.94519" lon="6.83837">
        <ele>2131.0056</ele>
        <time>2014-09-02T10:42:13Z</time>
      </trkpt>
      <trkpt lat="45.94514" lon="6.83833">
        <ele>2131.0056</ele>
        <time>2014-09-02T10:42:28Z</time>
      </trkpt>
      <trkpt lat="45.94507" lon="6.83828">
        <ele>2133.1033</ele>
        <time>2014-09-02T10:42:33Z</time>
      </trkpt>
      <trkpt lat="45.94506" lon="6.83828">
        <ele>2133.1033</ele>
        <time>2014-09-02T10:42:38Z</time>
      </trkpt>
      <trkpt lat="45.945" lon="6.83835">
        <ele>2133.1033</ele>
        <time>2014-09-02T10:42:43Z</time>
      </trkpt>
      <trkpt lat="45.94492" lon="6.83844">
        <ele>2135.3542</ele>
        <time>2014-09-02T10:42:48Z</time>
      </trkpt>
      <trkpt lat="45.94488" lon="6.83842">
        <ele>2135.3542</ele>
        <time>2014-09-02T10:42:53Z</time>
      </trkpt>
      <trkpt lat="45.94481" lon="6.83841">
        <ele>2137.6887</ele>
        <time>2014-09-02T10:42:58Z</time>
      </trkpt>
      <trkpt lat="45.9448" lon="6.8384">
        <ele>2137.6887</ele>
        <time>2014-09-02T10:43:03Z</time>
      </trkpt>
      <trkpt lat="45.94478" lon="6.83839">
        <ele>2137.6887</ele>
        <time>2014-09-02T10:43:08Z</time>
      </trkpt>
      <trkpt lat="45.94478" lon="6.83839">
        <ele>2137.6887</ele>
        <time>2014-09-02T10:43:13Z</time>
      </trkpt>
      <trkpt lat="45.94476" lon="6.83839">
        <ele>2137.6887</ele>
        <time>2014-09-02T10:43:18Z</time>
      </trkpt>
      <trkpt lat="45.94474" lon="6.83839">
        <ele>2137.6887</ele>
        <time>2014-09-02T10:43:23Z</time>
      </trkpt>
      <trkpt lat="45.94471" lon="6.83839">
        <ele>2140.6904</ele>
        <time>2014-09-02T10:43:28Z</time>
      </trkpt>
      <trkpt lat="45.94466" lon="6.8384">
        <ele>2140.6904</ele>
        <time>2014-09-02T10:43:33Z</time>
      </trkpt>
      <trkpt lat="45.94463" lon="6.83839">
        <ele>2140.6904</ele>
        <time>2014-09-02T10:43:38Z</time>
      </trkpt>
      <trkpt lat="45.94462" lon="6.83839">
        <ele>2143.8315</ele>
        <time>2014-09-02T10:43:43Z</time>
      </trkpt>
      <trkpt lat="45.94462" lon="6.83839">
        <ele>2143.8315</ele>
        <time>2014-09-02T10:43:48Z</time>
      </trkpt>
      <trkpt lat="45.94462" lon="6.83839">
        <ele>2143.8315</ele>
        <time>2014-09-02T10:43:53Z</time>
      </trkpt>
      <trkpt lat="45.94461" lon="6.83841">
        <ele>2143.8315</ele>
        <time>2014-09-02T10:44:13Z</time>
      </trkpt>
      <trkpt lat="45.94461" lon="6.83841">
        <ele>2143.8315</ele>
        <time>2014-09-02T10:44:18Z</time>
      </trkpt>
      <trkpt lat="45.9446" lon="6.83841">
        <ele>2143.8315</ele>
        <time>2014-09-02T10:44:23Z</time>
      </trkpt>
      <trkpt lat="45.94459" lon="6.83842">
        <ele>2143.8315</ele>
        <time>2014-09-02T10:44:28Z</time>
      </trkpt>
      <trkpt lat="45.94459" lon="6.83842">
        <ele>2143.8315</ele>
        <time>2014-09-02T10:44:33Z</time>
      </trkpt>
      <trkpt lat="45.94453" lon="6.83847">
        <ele>2146.7954</ele>
        <time>2014-09-02T10:44:43Z</time>
      </trkpt>
      <trkpt lat="45.94452" lon="6.83849">
        <ele>2146.7954</ele>
        <time>2014-09-02T10:44:48Z</time>
      </trkpt>
      <trkpt lat="45.94453" lon="6.83853">
        <ele>2146.7954</ele>
        <time>2014-09-02T10:44:53Z</time>
      </trkpt>
      <trkpt lat="45.94455" lon="6.83855">
        <ele>2146.7954</ele>
        <time>2014-09-02T10:44:58Z</time>
      </trkpt>
      <trkpt lat="45.94456" lon="6.83857">
        <ele>2146.7954</ele>
        <time>2014-09-02T10:45:03Z</time>
      </trkpt>
      <trkpt lat="45.94456" lon="6.83857">
        <ele>2146.7954</ele>
        <time>2014-09-02T10:45:08Z</time>
      </trkpt>
      <trkpt lat="45.94456" lon="6.83859">
        <ele>2149.9092</ele>
        <time>2014-09-02T10:45:18Z</time>
      </trkpt>
      <trkpt lat="45.94456" lon="6.83859">
        <ele>2149.9092</ele>
        <time>2014-09-02T10:45:23Z</time>
      </trkpt>
      <trkpt lat="45.94456" lon="6.83859">
        <ele>2149.9092</ele>
        <time>2014-09-02T10:45:43Z</time>
      </trkpt>
      <trkpt lat="45.94454" lon="6.83859">
        <ele>2149.9092</ele>
        <time>2014-09-02T10:45:48Z</time>
      </trkpt>
      <trkpt lat="45.94452" lon="6.8386">
        <ele>2149.9092</ele>
        <time>2014-09-02T10:45:53Z</time>
      </trkpt>
      <trkpt lat="45.94452" lon="6.83859">
        <ele>2149.9092</ele>
        <time>2014-09-02T10:45:58Z</time>
      </trkpt>
      <trkpt lat="45.94451" lon="6.83859">
        <ele>2149.9092</ele>
        <time>2014-09-02T10:46:03Z</time>
      </trkpt>
      <trkpt lat="45.94451" lon="6.83859">
        <ele>2149.9092</ele>
        <time>2014-09-02T10:46:08Z</time>
      </trkpt>
      <trkpt lat="45.94451" lon="6.8386">
        <ele>2149.9092</ele>
        <time>2014-09-02T10:46:28Z</time>
      </trkpt>
      <trkpt lat="45.94451" lon="6.8386">
        <ele>2149.9092</ele>
        <time>2014-09-02T10:46:33Z</time>
      </trkpt>
      <trkpt lat="45.9445" lon="6.83862">
        <ele>2149.9092</ele>
        <time>2014-09-02T10:46:48Z</time>
      </trkpt>
      <trkpt lat="45.9445" lon="6.83862">
        <ele>2149.9092</ele>
        <time>2014-09-02T10:46:53Z</time>
      </trkpt>
      <trkpt lat="45.94452" lon="6.83873">
        <ele>2153.8645</ele>
        <time>2014-09-02T10:46:58Z</time>
      </trkpt>
      <trkpt lat="45.94452" lon="6.83873">
        <ele>2153.8645</ele>
        <time>2014-09-02T10:47:03Z</time>
      </trkpt>
      <trkpt lat="45.94452" lon="6.83875">
        <ele>2153.8645</ele>
        <time>2014-09-02T10:47:08Z</time>
      </trkpt>
      <trkpt lat="45.94452" lon="6.83875">
        <ele>2153.8645</ele>
        <time>2014-09-02T10:47:13Z</time>
      </trkpt>
      <trkpt lat="45.94452" lon="6.83877">
        <ele>2153.8645</ele>
        <time>2014-09-02T10:47:23Z</time>
      </trkpt>
      <trkpt lat="45.94452" lon="6.83878">
        <ele>2153.8645</ele>
        <time>2014-09-02T10:47:28Z</time>
      </trkpt>
      <trkpt lat="45.94449" lon="6.8388">
        <ele>2153.8645</ele>
        <time>2014-09-02T10:47:33Z</time>
      </trkpt>
      <trkpt lat="45.94448" lon="6.8388">
        <ele>2153.8645</ele>
        <time>2014-09-02T10:47:38Z</time>
      </trkpt>
      <trkpt lat="45.94448" lon="6.8388">
        <ele>2153.8645</ele>
        <time>2014-09-02T10:47:43Z</time>
      </trkpt>
      <trkpt lat="45.94447" lon="6.8388">
        <ele>2158.464</ele>
        <time>2014-09-02T10:47:48Z</time>
      </trkpt>
      <trkpt lat="45.94446" lon="6.8388">
        <ele>2158.464</ele>
        <time>2014-09-02T10:47:53Z</time>
      </trkpt>
      <trkpt lat="45.94443" lon="6.83882">
        <ele>2158.464</ele>
        <time>2014-09-02T10:48:08Z</time>
      </trkpt>
      <trkpt lat="45.94442" lon="6.83884">
        <ele>2158.464</ele>
        <time>2014-09-02T10:48:13Z</time>
      </trkpt>
      <trkpt lat="45.94442" lon="6.83884">
        <ele>2158.464</ele>
        <time>2014-09-02T10:48:18Z</time>
      </trkpt>
      <trkpt lat="45.94442" lon="6.83885">
        <ele>2158.464</ele>
        <time>2014-09-02T10:48:23Z</time>
      </trkpt>
      <trkpt lat="45.94442" lon="6.83885">
        <ele>2158.464</ele>
        <time>2014-09-02T10:48:28Z</time>
      </trkpt>
      <trkpt lat="45.94442" lon="6.83887">
        <ele>2158.464</ele>
        <time>2014-09-02T10:48:33Z</time>
      </trkpt>
      <trkpt lat="45.94443" lon="6.83893">
        <ele>2162.8027</ele>
        <time>2014-09-02T10:48:38Z</time>
      </trkpt>
      <trkpt lat="45.94443" lon="6.83897">
        <ele>2162.8027</ele>
        <time>2014-09-02T10:48:43Z</time>
      </trkpt>
      <trkpt lat="45.94443" lon="6.83903">
        <ele>2162.8027</ele>
        <time>2014-09-02T10:48:48Z</time>
      </trkpt>
      <trkpt lat="45.94443" lon="6.83905">
        <ele>2162.8027</ele>
        <time>2014-09-02T10:48:53Z</time>
      </trkpt>
      <trkpt lat="45.94438" lon="6.83902">
        <ele>2167.3538</ele>
        <time>2014-09-02T10:48:58Z</time>
      </trkpt>
      <trkpt lat="45.94437" lon="6.83901">
        <ele>2167.3538</ele>
        <time>2014-09-02T10:49:03Z</time>
      </trkpt>
      <trkpt lat="45.94437" lon="6.83901">
        <ele>2167.3538</ele>
        <time>2014-09-02T10:49:08Z</time>
      </trkpt>
      <trkpt lat="45.94433" lon="6.839">
        <ele>2167.3538</ele>
        <time>2014-09-02T10:49:13Z</time>
      </trkpt>
      <trkpt lat="45.94432" lon="6.83902">
        <ele>2167.3538</ele>
        <time>2014-09-02T10:49:18Z</time>
      </trkpt>
      <trkpt lat="45.94432" lon="6.83902">
        <ele>2167.3538</ele>
        <time>2014-09-02T10:49:23Z</time>
      </trkpt>
      <trkpt lat="45.9443" lon="6.839">
        <ele>2171.72</ele>
        <time>2014-09-02T10:49:38Z</time>
      </trkpt>
      <trkpt lat="45.94429" lon="6.83898">
        <ele>2171.72</ele>
        <time>2014-09-02T10:49:43Z</time>
      </trkpt>
      <trkpt lat="45.94428" lon="6.83899">
        <ele>2171.72</ele>
        <time>2014-09-02T10:49:48Z</time>
      </trkpt>
      <trkpt lat="45.94428" lon="6.83899">
        <ele>2171.72</ele>
        <time>2014-09-02T10:49:53Z</time>
      </trkpt>
      <trkpt lat="45.94428" lon="6.83901">
        <ele>2171.72</ele>
        <time>2014-09-02T10:50:13Z</time>
      </trkpt>
      <trkpt lat="45.94429" lon="6.83903">
        <ele>2171.72</ele>
        <time>2014-09-02T10:50:18Z</time>
      </trkpt>
      <trkpt lat="45.9443" lon="6.83904">
        <ele>2171.72</ele>
        <time>2014-09-02T10:50:23Z</time>
      </trkpt>
      <trkpt lat="45.94431" lon="6.83907">
        <ele>2176.0667</ele>
        <time>2014-09-02T10:50:28Z</time>
      </trkpt>
      <trkpt lat="45.94431" lon="6.83909">
        <ele>2176.0667</ele>
        <time>2014-09-02T10:50:33Z</time>
      </trkpt>
      <trkpt lat="45.9443" lon="6.83911">
        <ele>2176.0667</ele>
        <time>2014-09-02T10:50:38Z</time>
      </trkpt>
      <trkpt lat="45.9443" lon="6.83911">
        <ele>2176.0667</ele>
        <time>2014-09-02T10:50:43Z</time>
      </trkpt>
      <trkpt lat="45.9443" lon="6.83918">
        <ele>2176.0667</ele>
        <time>2014-09-02T10:50:53Z</time>
      </trkpt>
      <trkpt lat="45.9443" lon="6.83918">
        <ele>2176.0667</ele>
        <time>2014-09-02T10:50:58Z</time>
      </trkpt>
      <trkpt lat="45.94435" lon="6.83926">
        <ele>2180.821</ele>
        <time>2014-09-02T10:51:03Z</time>
      </trkpt>
      <trkpt lat="45.94437" lon="6.83929">
        <ele>2180.821</ele>
        <time>2014-09-02T10:51:08Z</time>
      </trkpt>
      <trkpt lat="45.94439" lon="6.83935">
        <ele>2180.821</ele>
        <time>2014-09-02T10:51:13Z</time>
      </trkpt>
      <trkpt lat="45.94439" lon="6.83938">
        <ele>2185.4124</ele>
        <time>2014-09-02T10:51:18Z</time>
      </trkpt>
      <trkpt lat="45.9444" lon="6.83941">
        <ele>2185.4124</ele>
        <time>2014-09-02T10:51:23Z</time>
      </trkpt>
      <trkpt lat="45.94439" lon="6.83942">
        <ele>2185.4124</ele>
        <time>2014-09-02T10:51:28Z</time>
      </trkpt>
      <trkpt lat="45.94437" lon="6.83941">
        <ele>2185.4124</ele>
        <time>2014-09-02T10:51:33Z</time>
      </trkpt>
      <trkpt lat="45.94437" lon="6.83941">
        <ele>2185.4124</ele>
        <time>2014-09-02T10:51:38Z</time>
      </trkpt>
      <trkpt lat="45.94437" lon="6.83941">
        <ele>2185.4124</ele>
        <time>2014-09-02T10:51:43Z</time>
      </trkpt>
      <trkpt lat="45.94434" lon="6.8394">
        <ele>2185.4124</ele>
        <time>2014-09-02T10:51:48Z</time>
      </trkpt>
      <trkpt lat="45.94434" lon="6.8394">
        <ele>2185.4124</ele>
        <time>2014-09-02T10:51:53Z</time>
      </trkpt>
      <trkpt lat="45.94433" lon="6.83939">
        <ele>2190.5662</ele>
        <time>2014-09-02T10:51:58Z</time>
      </trkpt>
      <trkpt lat="45.94432" lon="6.83937">
        <ele>2190.5662</ele>
        <time>2014-09-02T10:52:03Z</time>
      </trkpt>
      <trkpt lat="45.94432" lon="6.83937">
        <ele>2190.5662</ele>
        <time>2014-09-02T10:52:08Z</time>
      </trkpt>
      <trkpt lat="45.9443" lon="6.83938">
        <ele>2190.5662</ele>
        <time>2014-09-02T10:52:18Z</time>
      </trkpt>
      <trkpt lat="45.94426" lon="6.83939">
        <ele>2190.5662</ele>
        <time>2014-09-02T10:52:23Z</time>
      </trkpt>
      <trkpt lat="45.94419" lon="6.83943">
        <ele>2195.4402</ele>
        <time>2014-09-02T10:52:28Z</time>
      </trkpt>
      <trkpt lat="45.94414" lon="6.83944">
        <ele>2195.4402</ele>
        <time>2014-09-02T10:52:33Z</time>
      </trkpt>
      <trkpt lat="45.9441" lon="6.83946">
        <ele>2195.4402</ele>
        <time>2014-09-02T10:52:38Z</time>
      </trkpt>
      <trkpt lat="45.94408" lon="6.83946">
        <ele>2199.9756</ele>
        <time>2014-09-02T10:52:43Z</time>
      </trkpt>
      <trkpt lat="45.94406" lon="6.83947">
        <ele>2199.9756</ele>
        <time>2014-09-02T10:52:48Z</time>
      </trkpt>
      <trkpt lat="45.94404" lon="6.83947">
        <ele>2199.9756</ele>
        <time>2014-09-02T10:52:53Z</time>
      </trkpt>
      <trkpt lat="45.94403" lon="6.83947">
        <ele>2199.9756</ele>
        <time>2014-09-02T10:52:58Z</time>
      </trkpt>
      <trkpt lat="45.94401" lon="6.83948">
        <ele>2199.9756</ele>
        <time>2014-09-02T10:53:03Z</time>
      </trkpt>
      <trkpt lat="45.944" lon="6.83948">
        <ele>2199.9756</ele>
        <time>2014-09-02T10:53:08Z</time>
      </trkpt>
      <trkpt lat="45.94395" lon="6.8395">
        <ele>2204.4644</ele>
        <time>2014-09-02T10:53:13Z</time>
      </trkpt>
      <trkpt lat="45.94393" lon="6.83949">
        <ele>2204.4644</ele>
        <time>2014-09-02T10:53:18Z</time>
      </trkpt>
      <trkpt lat="45.94393" lon="6.83949">
        <ele>2204.4644</ele>
        <time>2014-09-02T10:53:23Z</time>
      </trkpt>
      <trkpt lat="45.94392" lon="6.83949">
        <ele>2204.4644</ele>
        <time>2014-09-02T10:53:33Z</time>
      </trkpt>
      <trkpt lat="45.9439" lon="6.8395">
        <ele>2204.4644</ele>
        <time>2014-09-02T10:53:38Z</time>
      </trkpt>
      <trkpt lat="45.94387" lon="6.83951">
        <ele>2204.4644</ele>
        <time>2014-09-02T10:53:43Z</time>
      </trkpt>
      <trkpt lat="45.94387" lon="6.83954">
        <ele>2208.962</ele>
        <time>2014-09-02T10:53:48Z</time>
      </trkpt>
      <trkpt lat="45.94387" lon="6.83953">
        <ele>2208.962</ele>
        <time>2014-09-02T10:53:53Z</time>
      </trkpt>
      <trkpt lat="45.94388" lon="6.83955">
        <ele>2208.962</ele>
        <time>2014-09-02T10:53:58Z</time>
      </trkpt>
      <trkpt lat="45.94389" lon="6.83957">
        <ele>2208.962</ele>
        <time>2014-09-02T10:54:03Z</time>
      </trkpt>
      <trkpt lat="45.94389" lon="6.83957">
        <ele>2208.962</ele>
        <time>2014-09-02T10:54:08Z</time>
      </trkpt>
      <trkpt lat="45.9439" lon="6.83956">
        <ele>2208.962</ele>
        <time>2014-09-02T10:54:18Z</time>
      </trkpt>
      <trkpt lat="45.94391" lon="6.8396">
        <ele>2208.962</ele>
        <time>2014-09-02T10:54:23Z</time>
      </trkpt>
      <trkpt lat="45.94391" lon="6.83961">
        <ele>2213.4614</ele>
        <time>2014-09-02T10:54:28Z</time>
      </trkpt>
      <trkpt lat="45.94391" lon="6.83961">
        <ele>2213.4614</ele>
        <time>2014-09-02T10:54:33Z</time>
      </trkpt>
      <trkpt lat="45.94391" lon="6.83961">
        <ele>2213.4614</ele>
        <time>2014-09-02T10:54:38Z</time>
      </trkpt>
      <trkpt lat="45.9439" lon="6.83961">
        <ele>2213.4614</ele>
        <time>2014-09-02T10:54:43Z</time>
      </trkpt>
      <trkpt lat="45.94388" lon="6.83961">
        <ele>2213.4614</ele>
        <time>2014-09-02T10:54:48Z</time>
      </trkpt>
      <trkpt lat="45.94388" lon="6.83961">
        <ele>2213.4614</ele>
        <time>2014-09-02T10:54:53Z</time>
      </trkpt>
      <trkpt lat="45.94383" lon="6.83966">
        <ele>2216.7754</ele>
        <time>2014-09-02T10:55:18Z</time>
      </trkpt>
      <trkpt lat="45.94374" lon="6.83971">
        <ele>2219.7668</ele>
        <time>2014-09-02T10:55:23Z</time>
      </trkpt>
      <trkpt lat="45.94373" lon="6.83971">
        <ele>2219.7668</ele>
        <time>2014-09-02T10:55:28Z</time>
      </trkpt>
      <trkpt lat="45.94372" lon="6.83972">
        <ele>2219.7668</ele>
        <time>2014-09-02T10:55:33Z</time>
      </trkpt>
      <trkpt lat="45.94372" lon="6.83972">
        <ele>2219.7668</ele>
        <time>2014-09-02T10:55:38Z</time>
      </trkpt>
      <trkpt lat="45.94371" lon="6.83973">
        <ele>2219.7668</ele>
        <time>2014-09-02T10:55:43Z</time>
      </trkpt>
      <trkpt lat="45.94369" lon="6.83974">
        <ele>2219.7668</ele>
        <time>2014-09-02T10:55:48Z</time>
      </trkpt>
      <trkpt lat="45.94366" lon="6.83976">
        <ele>2223.0352</ele>
        <time>2014-09-02T10:55:53Z</time>
      </trkpt>
      <trkpt lat="45.94363" lon="6.83978">
        <ele>2223.0352</ele>
        <time>2014-09-02T10:55:58Z</time>
      </trkpt>
      <trkpt lat="45.94362" lon="6.83978">
        <ele>2223.0352</ele>
        <time>2014-09-02T10:56:03Z</time>
      </trkpt>
      <trkpt lat="45.94356" lon="6.83976">
        <ele>2226.356</ele>
        <time>2014-09-02T10:56:08Z</time>
      </trkpt>
      <trkpt lat="45.94354" lon="6.83976">
        <ele>2226.356</ele>
        <time>2014-09-02T10:56:13Z</time>
      </trkpt>
      <trkpt lat="45.94349" lon="6.83976">
        <ele>2226.356</ele>
        <time>2014-09-02T10:56:18Z</time>
      </trkpt>
      <trkpt lat="45.94344" lon="6.83978">
        <ele>2229.9978</ele>
        <time>2014-09-02T10:56:23Z</time>
      </trkpt>
      <trkpt lat="45.94341" lon="6.83977">
        <ele>2229.9978</ele>
        <time>2014-09-02T10:56:28Z</time>
      </trkpt>
      <trkpt lat="45.9434" lon="6.83978">
        <ele>2229.9978</ele>
        <time>2014-09-02T10:56:33Z</time>
      </trkpt>
      <trkpt lat="45.94338" lon="6.83977">
        <ele>2229.9978</ele>
        <time>2014-09-02T10:56:38Z</time>
      </trkpt>
      <trkpt lat="45.94338" lon="6.83979">
        <ele>2229.9978</ele>
        <time>2014-09-02T10:56:43Z</time>
      </trkpt>
      <trkpt lat="45.94337" lon="6.83979">
        <ele>2229.9978</ele>
        <time>2014-09-02T10:56:48Z</time>
      </trkpt>
      <trkpt lat="45.94338" lon="6.83979">
        <ele>2229.9978</ele>
        <time>2014-09-02T10:56:53Z</time>
      </trkpt>
      <trkpt lat="45.94338" lon="6.83979">
        <ele>2229.9978</ele>
        <time>2014-09-02T10:56:58Z</time>
      </trkpt>
      <trkpt lat="45.94338" lon="6.83979">
        <ele>2229.9978</ele>
        <time>2014-09-02T10:57:03Z</time>
      </trkpt>
      <trkpt lat="45.94341" lon="6.83981">
        <ele>2233.805</ele>
        <time>2014-09-02T10:57:08Z</time>
      </trkpt>
      <trkpt lat="45.94341" lon="6.83982">
        <ele>2233.805</ele>
        <time>2014-09-02T10:57:13Z</time>
      </trkpt>
      <trkpt lat="45.94341" lon="6.83982">
        <ele>2233.805</ele>
        <time>2014-09-02T10:57:18Z</time>
      </trkpt>
      <trkpt lat="45.94341" lon="6.83983">
        <ele>2233.805</ele>
        <time>2014-09-02T10:57:48Z</time>
      </trkpt>
      <trkpt lat="45.94345" lon="6.83985">
        <ele>2233.805</ele>
        <time>2014-09-02T10:57:53Z</time>
      </trkpt>
      <trkpt lat="45.94346" lon="6.83985">
        <ele>2233.805</ele>
        <time>2014-09-02T10:57:58Z</time>
      </trkpt>
      <trkpt lat="45.94347" lon="6.83986">
        <ele>2233.805</ele>
        <time>2014-09-02T10:58:08Z</time>
      </trkpt>
      <trkpt lat="45.94348" lon="6.8399">
        <ele>2238.8865</ele>
        <time>2014-09-02T10:58:13Z</time>
      </trkpt>
      <trkpt lat="45.94351" lon="6.83993">
        <ele>2238.8865</ele>
        <time>2014-09-02T10:58:18Z</time>
      </trkpt>
      <trkpt lat="45.94354" lon="6.84003">
        <ele>2243.2979</ele>
        <time>2014-09-02T10:58:23Z</time>
      </trkpt>
      <trkpt lat="45.94358" lon="6.84005">
        <ele>2243.2979</ele>
        <time>2014-09-02T10:58:28Z</time>
      </trkpt>
      <trkpt lat="45.9436" lon="6.84004">
        <ele>2243.2979</ele>
        <time>2014-09-02T10:58:33Z</time>
      </trkpt>
      <trkpt lat="45.94363" lon="6.84004">
        <ele>2243.2979</ele>
        <time>2014-09-02T10:58:38Z</time>
      </trkpt>
      <trkpt lat="45.94362" lon="6.84004">
        <ele>2247.0698</ele>
        <time>2014-09-02T10:58:43Z</time>
      </trkpt>
      <trkpt lat="45.94361" lon="6.84004">
        <ele>2247.0698</ele>
        <time>2014-09-02T10:58:48Z</time>
      </trkpt>
      <trkpt lat="45.94361" lon="6.84002">
        <ele>2247.0698</ele>
        <time>2014-09-02T10:58:53Z</time>
      </trkpt>
      <trkpt lat="45.94359" lon="6.84003">
        <ele>2247.0698</ele>
        <time>2014-09-02T10:58:58Z</time>
      </trkpt>
      <trkpt lat="45.94359" lon="6.84004">
        <ele>2247.0698</ele>
        <time>2014-09-02T10:59:03Z</time>
      </trkpt>
      <trkpt lat="45.94358" lon="6.84006">
        <ele>2247.0698</ele>
        <time>2014-09-02T10:59:08Z</time>
      </trkpt>
      <trkpt lat="45.94359" lon="6.84004">
        <ele>2247.0698</ele>
        <time>2014-09-02T10:59:13Z</time>
      </trkpt>
      <trkpt lat="45.94359" lon="6.84004">
        <ele>2247.0698</ele>
        <time>2014-09-02T10:59:18Z</time>
      </trkpt>
      <trkpt lat="45.94357" lon="6.84003">
        <ele>2250.665</ele>
        <time>2014-09-02T10:59:23Z</time>
      </trkpt>
      <trkpt lat="45.94355" lon="6.84003">
        <ele>2250.665</ele>
        <time>2014-09-02T10:59:28Z</time>
      </trkpt>
      <trkpt lat="45.94354" lon="6.84006">
        <ele>2250.665</ele>
        <time>2014-09-02T10:59:33Z</time>
      </trkpt>
      <trkpt lat="45.94353" lon="6.84009">
        <ele>2250.665</ele>
        <time>2014-09-02T10:59:38Z</time>
      </trkpt>
      <trkpt lat="45.94354" lon="6.8401">
        <ele>2250.665</ele>
        <time>2014-09-02T10:59:43Z</time>
      </trkpt>
      <trkpt lat="45.94351" lon="6.84012">
        <ele>2253.4607</ele>
        <time>2014-09-02T10:59:48Z</time>
      </trkpt>
      <trkpt lat="45.94349" lon="6.84012">
        <ele>2253.4607</ele>
        <time>2014-09-02T10:59:53Z</time>
      </trkpt>
      <trkpt lat="45.94347" lon="6.84012">
        <ele>2253.4607</ele>
        <time>2014-09-02T10:59:58Z</time>
      </trkpt>
      <trkpt lat="45.94345" lon="6.84011">
        <ele>2253.4607</ele>
        <time>2014-09-02T11:00:03Z</time>
      </trkpt>
      <trkpt lat="45.94343" lon="6.8401">
        <ele>2253.4607</ele>
        <time>2014-09-02T11:00:08Z</time>
      </trkpt>
      <trkpt lat="45.94343" lon="6.8401">
        <ele>2253.4607</ele>
        <time>2014-09-02T11:00:13Z</time>
      </trkpt>
      <trkpt lat="45.94342" lon="6.84009">
        <ele>2256.2805</ele>
        <time>2014-09-02T11:00:18Z</time>
      </trkpt>
      <trkpt lat="45.9434" lon="6.8401">
        <ele>2256.2805</ele>
        <time>2014-09-02T11:00:23Z</time>
      </trkpt>
      <trkpt lat="45.9434" lon="6.8401">
        <ele>2256.2805</ele>
        <time>2014-09-02T11:00:28Z</time>
      </trkpt>
      <trkpt lat="45.94338" lon="6.8401">
        <ele>2256.2805</ele>
        <time>2014-09-02T11:00:33Z</time>
      </trkpt>
      <trkpt lat="45.94335" lon="6.84013">
        <ele>2256.2805</ele>
        <time>2014-09-02T11:00:38Z</time>
      </trkpt>
      <trkpt lat="45.94334" lon="6.84014">
        <ele>2256.2805</ele>
        <time>2014-09-02T11:00:43Z</time>
      </trkpt>
      <trkpt lat="45.94334" lon="6.84014">
        <ele>2259.7285</ele>
        <time>2014-09-02T11:00:48Z</time>
      </trkpt>
      <trkpt lat="45.94334" lon="6.84014">
        <ele>2259.7285</ele>
        <time>2014-09-02T11:00:53Z</time>
      </trkpt>
      <trkpt lat="45.94333" lon="6.84016">
        <ele>2259.7285</ele>
        <time>2014-09-02T11:00:58Z</time>
      </trkpt>
      <trkpt lat="45.94334" lon="6.84016">
        <ele>2259.7285</ele>
        <time>2014-09-02T11:01:03Z</time>
      </trkpt>
      <trkpt lat="45.94334" lon="6.84017">
        <ele>2259.7285</ele>
        <time>2014-09-02T11:01:08Z</time>
      </trkpt>
      <trkpt lat="45.94334" lon="6.84017">
        <ele>2259.7285</ele>
        <time>2014-09-02T11:01:13Z</time>
      </trkpt>
      <trkpt lat="45.94335" lon="6.84017">
        <ele>2259.7285</ele>
        <time>2014-09-02T11:01:18Z</time>
      </trkpt>
      <trkpt lat="45.94335" lon="6.84017">
        <ele>2259.7285</ele>
        <time>2014-09-02T11:01:23Z</time>
      </trkpt>
      <trkpt lat="45.94336" lon="6.84017">
        <ele>2259.7285</ele>
        <time>2014-09-02T11:01:28Z</time>
      </trkpt>
      <trkpt lat="45.94337" lon="6.8402">
        <ele>2259.7285</ele>
        <time>2014-09-02T11:01:33Z</time>
      </trkpt>
      <trkpt lat="45.9434" lon="6.84023">
        <ele>2263.21</ele>
        <time>2014-09-02T11:01:38Z</time>
      </trkpt>
      <trkpt lat="45.9434" lon="6.84025">
        <ele>2263.21</ele>
        <time>2014-09-02T11:01:43Z</time>
      </trkpt>
      <trkpt lat="45.9434" lon="6.84025">
        <ele>2263.21</ele>
        <time>2014-09-02T11:01:48Z</time>
      </trkpt>
      <trkpt lat="45.94336" lon="6.84028">
        <ele>2263.21</ele>
        <time>2014-09-02T11:01:53Z</time>
      </trkpt>
      <trkpt lat="45.94336" lon="6.84028">
        <ele>2263.21</ele>
        <time>2014-09-02T11:01:58Z</time>
      </trkpt>
      <trkpt lat="45.94336" lon="6.84028">
        <ele>2263.21</ele>
        <time>2014-09-02T11:02:03Z</time>
      </trkpt>
      <trkpt lat="45.94333" lon="6.84031">
        <ele>2266.261</ele>
        <time>2014-09-02T11:02:08Z</time>
      </trkpt>
      <trkpt lat="45.94331" lon="6.84031">
        <ele>2266.261</ele>
        <time>2014-09-02T11:02:13Z</time>
      </trkpt>
      <trkpt lat="45.94331" lon="6.84031">
        <ele>2266.261</ele>
        <time>2014-09-02T11:02:18Z</time>
      </trkpt>
      <trkpt lat="45.9433" lon="6.84032">
        <ele>2266.261</ele>
        <time>2014-09-02T11:02:23Z</time>
      </trkpt>
      <trkpt lat="45.94328" lon="6.84032">
        <ele>2266.261</ele>
        <time>2014-09-02T11:02:28Z</time>
      </trkpt>
      <trkpt lat="45.94327" lon="6.84032">
        <ele>2266.261</ele>
        <time>2014-09-02T11:02:33Z</time>
      </trkpt>
      <trkpt lat="45.94326" lon="6.84032">
        <ele>2266.261</ele>
        <time>2014-09-02T11:02:38Z</time>
      </trkpt>
      <trkpt lat="45.94326" lon="6.84032">
        <ele>2266.261</ele>
        <time>2014-09-02T11:02:43Z</time>
      </trkpt>
      <trkpt lat="45.94325" lon="6.84034">
        <ele>2269.1584</ele>
        <time>2014-09-02T11:02:48Z</time>
      </trkpt>
      <trkpt lat="45.94325" lon="6.84034">
        <ele>2269.1584</ele>
        <time>2014-09-02T11:02:53Z</time>
      </trkpt>
      <trkpt lat="45.94325" lon="6.84034">
        <ele>2269.1584</ele>
        <time>2014-09-02T11:02:58Z</time>
      </trkpt>
      <trkpt lat="45.94322" lon="6.84033">
        <ele>2269.1584</ele>
        <time>2014-09-02T11:03:03Z</time>
      </trkpt>
      <trkpt lat="45.9432" lon="6.84031">
        <ele>2269.1584</ele>
        <time>2014-09-02T11:03:08Z</time>
      </trkpt>
      <trkpt lat="45.9432" lon="6.84031">
        <ele>2269.1584</ele>
        <time>2014-09-02T11:03:13Z</time>
      </trkpt>
      <trkpt lat="45.9432" lon="6.8403">
        <ele>2269.1584</ele>
        <time>2014-09-02T11:03:18Z</time>
      </trkpt>
      <trkpt lat="45.94319" lon="6.84031">
        <ele>2269.1584</ele>
        <time>2014-09-02T11:03:23Z</time>
      </trkpt>
      <trkpt lat="45.94317" lon="6.84031">
        <ele>2269.1584</ele>
        <time>2014-09-02T11:03:28Z</time>
      </trkpt>
      <trkpt lat="45.94317" lon="6.84031">
        <ele>2269.1584</ele>
        <time>2014-09-02T11:03:33Z</time>
      </trkpt>
      <trkpt lat="45.94316" lon="6.84032">
        <ele>2272.3037</ele>
        <time>2014-09-02T11:03:38Z</time>
      </trkpt>
      <trkpt lat="45.94316" lon="6.84032">
        <ele>2272.3037</ele>
        <time>2014-09-02T11:03:43Z</time>
      </trkpt>
      <trkpt lat="45.94315" lon="6.8403">
        <ele>2272.3037</ele>
        <time>2014-09-02T11:03:48Z</time>
      </trkpt>
      <trkpt lat="45.94313" lon="6.84029">
        <ele>2272.3037</ele>
        <time>2014-09-02T11:03:53Z</time>
      </trkpt>
      <trkpt lat="45.94312" lon="6.8403">
        <ele>2272.3037</ele>
        <time>2014-09-02T11:03:58Z</time>
      </trkpt>
      <trkpt lat="45.94306" lon="6.84033">
        <ele>2275.78</ele>
        <time>2014-09-02T11:04:03Z</time>
      </trkpt>
      <trkpt lat="45.94306" lon="6.84033">
        <ele>2275.78</ele>
        <time>2014-09-02T11:04:08Z</time>
      </trkpt>
      <trkpt lat="45.94306" lon="6.84034">
        <ele>2275.78</ele>
        <time>2014-09-02T11:04:13Z</time>
      </trkpt>
      <trkpt lat="45.94307" lon="6.84036">
        <ele>2275.78</ele>
        <time>2014-09-02T11:04:18Z</time>
      </trkpt>
      <trkpt lat="45.94308" lon="6.84037">
        <ele>2275.78</ele>
        <time>2014-09-02T11:04:23Z</time>
      </trkpt>
      <trkpt lat="45.94308" lon="6.84038">
        <ele>2275.78</ele>
        <time>2014-09-02T11:04:38Z</time>
      </trkpt>
      <trkpt lat="45.9431" lon="6.8404">
        <ele>2275.78</ele>
        <time>2014-09-02T11:04:43Z</time>
      </trkpt>
      <trkpt lat="45.94312" lon="6.84042">
        <ele>2275.78</ele>
        <time>2014-09-02T11:04:48Z</time>
      </trkpt>
      <trkpt lat="45.94312" lon="6.84043">
        <ele>2275.78</ele>
        <time>2014-09-02T11:04:53Z</time>
      </trkpt>
      <trkpt lat="45.94312" lon="6.84042">
        <ele>2280.4995</ele>
        <time>2014-09-02T11:04:58Z</time>
      </trkpt>
      <trkpt lat="45.94313" lon="6.84044">
        <ele>2280.4995</ele>
        <time>2014-09-02T11:05:03Z</time>
      </trkpt>
      <trkpt lat="45.94315" lon="6.84046">
        <ele>2280.4995</ele>
        <time>2014-09-02T11:05:08Z</time>
      </trkpt>
      <trkpt lat="45.94315" lon="6.84046">
        <ele>2280.4995</ele>
        <time>2014-09-02T11:05:13Z</time>
      </trkpt>
      <trkpt lat="45.94316" lon="6.84046">
        <ele>2280.4995</ele>
        <time>2014-09-02T11:05:18Z</time>
      </trkpt>
      <trkpt lat="45.94317" lon="6.84046">
        <ele>2280.4995</ele>
        <time>2014-09-02T11:05:23Z</time>
      </trkpt>
      <trkpt lat="45.94321" lon="6.84052">
        <ele>2285.1133</ele>
        <time>2014-09-02T11:05:28Z</time>
      </trkpt>
      <trkpt lat="45.94323" lon="6.84053">
        <ele>2285.1133</ele>
        <time>2014-09-02T11:05:33Z</time>
      </trkpt>
      <trkpt lat="45.94326" lon="6.84056">
        <ele>2285.1133</ele>
        <time>2014-09-02T11:05:38Z</time>
      </trkpt>
      <trkpt lat="45.94328" lon="6.84058">
        <ele>2285.1133</ele>
        <time>2014-09-02T11:05:43Z</time>
      </trkpt>
      <trkpt lat="45.94329" lon="6.84058">
        <ele>2289.1643</ele>
        <time>2014-09-02T11:05:48Z</time>
      </trkpt>
      <trkpt lat="45.94331" lon="6.8406">
        <ele>2289.1643</ele>
        <time>2014-09-02T11:05:53Z</time>
      </trkpt>
      <trkpt lat="45.94333" lon="6.84059">
        <ele>2289.1643</ele>
        <time>2014-09-02T11:05:58Z</time>
      </trkpt>
      <trkpt lat="45.94335" lon="6.84058">
        <ele>2289.1643</ele>
        <time>2014-09-02T11:06:03Z</time>
      </trkpt>
      <trkpt lat="45.94338" lon="6.84059">
        <ele>2292.8508</ele>
        <time>2014-09-02T11:06:08Z</time>
      </trkpt>
      <trkpt lat="45.94341" lon="6.84059">
        <ele>2292.8508</ele>
        <time>2014-09-02T11:06:13Z</time>
      </trkpt>
      <trkpt lat="45.94342" lon="6.84061">
        <ele>2292.8508</ele>
        <time>2014-09-02T11:06:18Z</time>
      </trkpt>
      <trkpt lat="45.94344" lon="6.8406">
        <ele>2292.8508</ele>
        <time>2014-09-02T11:06:23Z</time>
      </trkpt>
      <trkpt lat="45.94347" lon="6.84062">
        <ele>2296.0693</ele>
        <time>2014-09-02T11:06:28Z</time>
      </trkpt>
      <trkpt lat="45.94349" lon="6.84061">
        <ele>2296.0693</ele>
        <time>2014-09-02T11:06:33Z</time>
      </trkpt>
      <trkpt lat="45.9435" lon="6.84059">
        <ele>2296.0693</ele>
        <time>2014-09-02T11:06:38Z</time>
      </trkpt>
      <trkpt lat="45.9435" lon="6.84058">
        <ele>2296.0693</ele>
        <time>2014-09-02T11:06:43Z</time>
      </trkpt>
      <trkpt lat="45.94351" lon="6.84058">
        <ele>2296.0693</ele>
        <time>2014-09-02T11:06:48Z</time>
      </trkpt>
      <trkpt lat="45.94352" lon="6.84057">
        <ele>2296.0693</ele>
        <time>2014-09-02T11:06:53Z</time>
      </trkpt>
      <trkpt lat="45.94353" lon="6.84057">
        <ele>2296.0693</ele>
        <time>2014-09-02T11:06:58Z</time>
      </trkpt>
      <trkpt lat="45.94354" lon="6.84061">
        <ele>2299.1143</ele>
        <time>2014-09-02T11:07:03Z</time>
      </trkpt>
      <trkpt lat="45.94353" lon="6.84064">
        <ele>2299.1143</ele>
        <time>2014-09-02T11:07:08Z</time>
      </trkpt>
      <trkpt lat="45.94352" lon="6.84066">
        <ele>2299.1143</ele>
        <time>2014-09-02T11:07:13Z</time>
      </trkpt>
      <trkpt lat="45.94351" lon="6.84068">
        <ele>2299.1143</ele>
        <time>2014-09-02T11:07:18Z</time>
      </trkpt>
      <trkpt lat="45.9435" lon="6.84071">
        <ele>2299.1143</ele>
        <time>2014-09-02T11:07:23Z</time>
      </trkpt>
      <trkpt lat="45.94349" lon="6.84074">
        <ele>2301.913</ele>
        <time>2014-09-02T11:07:28Z</time>
      </trkpt>
      <trkpt lat="45.94347" lon="6.84074">
        <ele>2301.913</ele>
        <time>2014-09-02T11:07:33Z</time>
      </trkpt>
      <trkpt lat="45.94344" lon="6.84076">
        <ele>2301.913</ele>
        <time>2014-09-02T11:07:38Z</time>
      </trkpt>
      <trkpt lat="45.94343" lon="6.84078">
        <ele>2301.913</ele>
        <time>2014-09-02T11:07:43Z</time>
      </trkpt>
      <trkpt lat="45.94342" lon="6.84078">
        <ele>2301.913</ele>
        <time>2014-09-02T11:07:48Z</time>
      </trkpt>
      <trkpt lat="45.94342" lon="6.84078">
        <ele>2301.913</ele>
        <time>2014-09-02T11:07:53Z</time>
      </trkpt>
      <trkpt lat="45.94342" lon="6.84078">
        <ele>2301.913</ele>
        <time>2014-09-02T11:07:58Z</time>
      </trkpt>
      <trkpt lat="45.94342" lon="6.84078">
        <ele>2301.913</ele>
        <time>2014-09-02T11:08:03Z</time>
      </trkpt>
      <trkpt lat="45.94341" lon="6.84078">
        <ele>2304.9329</ele>
        <time>2014-09-02T11:08:08Z</time>
      </trkpt>
      <trkpt lat="45.9434" lon="6.84079">
        <ele>2304.9329</ele>
        <time>2014-09-02T11:08:13Z</time>
      </trkpt>
      <trkpt lat="45.94339" lon="6.84081">
        <ele>2304.9329</ele>
        <time>2014-09-02T11:08:18Z</time>
      </trkpt>
      <trkpt lat="45.94338" lon="6.84082">
        <ele>2304.9329</ele>
        <time>2014-09-02T11:08:23Z</time>
      </trkpt>
      <trkpt lat="45.94338" lon="6.84083">
        <ele>2304.9329</ele>
        <time>2014-09-02T11:08:28Z</time>
      </trkpt>
      <trkpt lat="45.94337" lon="6.84085">
        <ele>2304.9329</ele>
        <time>2014-09-02T11:08:33Z</time>
      </trkpt>
      <trkpt lat="45.94337" lon="6.84085">
        <ele>2304.9329</ele>
        <time>2014-09-02T11:08:38Z</time>
      </trkpt>
      <trkpt lat="45.94336" lon="6.84085">
        <ele>2304.9329</ele>
        <time>2014-09-02T11:08:43Z</time>
      </trkpt>
      <trkpt lat="45.94336" lon="6.84085">
        <ele>2304.9329</ele>
        <time>2014-09-02T11:08:48Z</time>
      </trkpt>
      <trkpt lat="45.94333" lon="6.84087">
        <ele>2308.4036</ele>
        <time>2014-09-02T11:08:58Z</time>
      </trkpt>
      <trkpt lat="45.94332" lon="6.84087">
        <ele>2308.4036</ele>
        <time>2014-09-02T11:09:03Z</time>
      </trkpt>
      <trkpt lat="45.94332" lon="6.84087">
        <ele>2308.4036</ele>
        <time>2014-09-02T11:09:08Z</time>
      </trkpt>
      <trkpt lat="45.94332" lon="6.84089">
        <ele>2308.4036</ele>
        <time>2014-09-02T11:09:18Z</time>
      </trkpt>
      <trkpt lat="45.94332" lon="6.84089">
        <ele>2308.4036</ele>
        <time>2014-09-02T11:09:23Z</time>
      </trkpt>
      <trkpt lat="45.94331" lon="6.84089">
        <ele>2308.4036</ele>
        <time>2014-09-02T11:09:28Z</time>
      </trkpt>
      <trkpt lat="45.94326" lon="6.84091">
        <ele>2308.4036</ele>
        <time>2014-09-02T11:09:33Z</time>
      </trkpt>
      <trkpt lat="45.94325" lon="6.84091">
        <ele>2308.4036</ele>
        <time>2014-09-02T11:09:38Z</time>
      </trkpt>
      <trkpt lat="45.94324" lon="6.84092">
        <ele>2312.4653</ele>
        <time>2014-09-02T11:09:43Z</time>
      </trkpt>
      <trkpt lat="45.94324" lon="6.84092">
        <ele>2312.4653</ele>
        <time>2014-09-02T11:09:48Z</time>
      </trkpt>
      <trkpt lat="45.94321" lon="6.841">
        <ele>2312.4653</ele>
        <time>2014-09-02T11:09:58Z</time>
      </trkpt>
      <trkpt lat="45.94315" lon="6.84107">
        <ele>2316.4539</ele>
        <time>2014-09-02T11:10:03Z</time>
      </trkpt>
      <trkpt lat="45.94307" lon="6.84113">
        <ele>2316.4539</ele>
        <time>2014-09-02T11:10:08Z</time>
      </trkpt>
      <trkpt lat="45.94302" lon="6.84116">
        <ele>2320.0417</ele>
        <time>2014-09-02T11:10:13Z</time>
      </trkpt>
      <trkpt lat="45.94299" lon="6.84118">
        <ele>2320.0417</ele>
        <time>2014-09-02T11:10:18Z</time>
      </trkpt>
      <trkpt lat="45.94297" lon="6.84122">
        <ele>2320.0417</ele>
        <time>2014-09-02T11:10:23Z</time>
      </trkpt>
      <trkpt lat="45.94296" lon="6.84123">
        <ele>2320.0417</ele>
        <time>2014-09-02T11:10:28Z</time>
      </trkpt>
      <trkpt lat="45.94295" lon="6.84123">
        <ele>2320.0417</ele>
        <time>2014-09-02T11:10:33Z</time>
      </trkpt>
      <trkpt lat="45.94292" lon="6.84125">
        <ele>2323.662</ele>
        <time>2014-09-02T11:10:38Z</time>
      </trkpt>
      <trkpt lat="45.94288" lon="6.84128">
        <ele>2323.662</ele>
        <time>2014-09-02T11:10:43Z</time>
      </trkpt>
      <trkpt lat="45.94283" lon="6.84129">
        <ele>2326.9954</ele>
        <time>2014-09-02T11:10:48Z</time>
      </trkpt>
      <trkpt lat="45.9428" lon="6.84131">
        <ele>2326.9954</ele>
        <time>2014-09-02T11:10:53Z</time>
      </trkpt>
      <trkpt lat="45.94278" lon="6.84133">
        <ele>2326.9954</ele>
        <time>2014-09-02T11:10:58Z</time>
      </trkpt>
      <trkpt lat="45.94276" lon="6.84134">
        <ele>2326.9954</ele>
        <time>2014-09-02T11:11:03Z</time>
      </trkpt>
      <trkpt lat="45.94271" lon="6.84137">
        <ele>2329.8904</ele>
        <time>2014-09-02T11:11:08Z</time>
      </trkpt>
      <trkpt lat="45.94268" lon="6.84138">
        <ele>2329.8904</ele>
        <time>2014-09-02T11:11:13Z</time>
      </trkpt>
      <trkpt lat="45.94266" lon="6.84142">
        <ele>2329.8904</ele>
        <time>2014-09-02T11:11:18Z</time>
      </trkpt>
      <trkpt lat="45.94261" lon="6.84143">
        <ele>2332.281</ele>
        <time>2014-09-02T11:11:23Z</time>
      </trkpt>
      <trkpt lat="45.94257" lon="6.84145">
        <ele>2332.281</ele>
        <time>2014-09-02T11:11:28Z</time>
      </trkpt>
      <trkpt lat="45.94255" lon="6.84146">
        <ele>2332.281</ele>
        <time>2014-09-02T11:11:33Z</time>
      </trkpt>
      <trkpt lat="45.94253" lon="6.84147">
        <ele>2332.281</ele>
        <time>2014-09-02T11:11:38Z</time>
      </trkpt>
      <trkpt lat="45.9425" lon="6.84149">
        <ele>2334.5098</ele>
        <time>2014-09-02T11:11:43Z</time>
      </trkpt>
      <trkpt lat="45.9425" lon="6.84149">
        <ele>2334.5098</ele>
        <time>2014-09-02T11:11:48Z</time>
      </trkpt>
      <trkpt lat="45.94247" lon="6.8415">
        <ele>2334.5098</ele>
        <time>2014-09-02T11:12:33Z</time>
      </trkpt>
      <trkpt lat="45.94247" lon="6.8415">
        <ele>2334.5098</ele>
        <time>2014-09-02T11:12:38Z</time>
      </trkpt>
      <trkpt lat="45.94235" lon="6.84156">
        <ele>2337.2703</ele>
        <time>2014-09-02T11:12:53Z</time>
      </trkpt>
      <trkpt lat="45.94235" lon="6.84156">
        <ele>2337.2703</ele>
        <time>2014-09-02T11:12:58Z</time>
      </trkpt>
      <trkpt lat="45.9423" lon="6.84161">
        <ele>2337.2703</ele>
        <time>2014-09-02T11:13:18Z</time>
      </trkpt>
      <trkpt lat="45.94228" lon="6.84163">
        <ele>2337.2703</ele>
        <time>2014-09-02T11:13:23Z</time>
      </trkpt>
      <trkpt lat="45.94224" lon="6.84165">
        <ele>2339.9783</ele>
        <time>2014-09-02T11:13:28Z</time>
      </trkpt>
      <trkpt lat="45.94223" lon="6.84166">
        <ele>2339.9783</ele>
        <time>2014-09-02T11:13:33Z</time>
      </trkpt>
      <trkpt lat="45.94222" lon="6.84169">
        <ele>2339.9783</ele>
        <time>2014-09-02T11:13:38Z</time>
      </trkpt>
      <trkpt lat="45.9422" lon="6.84172">
        <ele>2339.9783</ele>
        <time>2014-09-02T11:13:43Z</time>
      </trkpt>
      <trkpt lat="45.94219" lon="6.84176">
        <ele>2339.9783</ele>
        <time>2014-09-02T11:13:48Z</time>
      </trkpt>
      <trkpt lat="45.94217" lon="6.84177">
        <ele>2342.179</ele>
        <time>2014-09-02T11:13:53Z</time>
      </trkpt>
      <trkpt lat="45.94217" lon="6.84177">
        <ele>2342.179</ele>
        <time>2014-09-02T11:13:58Z</time>
      </trkpt>
      <trkpt lat="45.94214" lon="6.84177">
        <ele>2342.179</ele>
        <time>2014-09-02T11:14:03Z</time>
      </trkpt>
      <trkpt lat="45.94214" lon="6.84176">
        <ele>2342.179</ele>
        <time>2014-09-02T11:14:08Z</time>
      </trkpt>
      <trkpt lat="45.94211" lon="6.84177">
        <ele>2342.179</ele>
        <time>2014-09-02T11:14:13Z</time>
      </trkpt>
      <trkpt lat="45.94207" lon="6.84177">
        <ele>2343.726</ele>
        <time>2014-09-02T11:14:18Z</time>
      </trkpt>
      <trkpt lat="45.94207" lon="6.84177">
        <ele>2343.726</ele>
        <time>2014-09-02T11:14:23Z</time>
      </trkpt>
      <trkpt lat="45.94202" lon="6.84178">
        <ele>2343.726</ele>
        <time>2014-09-02T11:14:28Z</time>
      </trkpt>
      <trkpt lat="45.94198" lon="6.84176">
        <ele>2345.0918</ele>
        <time>2014-09-02T11:14:33Z</time>
      </trkpt>
      <trkpt lat="45.94194" lon="6.84176">
        <ele>2345.0918</ele>
        <time>2014-09-02T11:14:38Z</time>
      </trkpt>
      <trkpt lat="45.94194" lon="6.84176">
        <ele>2345.0918</ele>
        <time>2014-09-02T11:14:43Z</time>
      </trkpt>
      <trkpt lat="45.94193" lon="6.84176">
        <ele>2345.0918</ele>
        <time>2014-09-02T11:14:48Z</time>
      </trkpt>
      <trkpt lat="45.94193" lon="6.84176">
        <ele>2345.0918</ele>
        <time>2014-09-02T11:14:53Z</time>
      </trkpt>
      <trkpt lat="45.9419" lon="6.84177">
        <ele>2345.0918</ele>
        <time>2014-09-02T11:14:58Z</time>
      </trkpt>
      <trkpt lat="45.94187" lon="6.84177">
        <ele>2346.353</ele>
        <time>2014-09-02T11:15:03Z</time>
      </trkpt>
      <trkpt lat="45.94185" lon="6.84179">
        <ele>2346.353</ele>
        <time>2014-09-02T11:15:08Z</time>
      </trkpt>
      <trkpt lat="45.94183" lon="6.8418">
        <ele>2346.353</ele>
        <time>2014-09-02T11:15:13Z</time>
      </trkpt>
      <trkpt lat="45.94181" lon="6.84184">
        <ele>2346.353</ele>
        <time>2014-09-02T11:15:18Z</time>
      </trkpt>
      <trkpt lat="45.94179" lon="6.84187">
        <ele>2347.5386</ele>
        <time>2014-09-02T11:15:23Z</time>
      </trkpt>
      <trkpt lat="45.94176" lon="6.84193">
        <ele>2347.5386</ele>
        <time>2014-09-02T11:15:28Z</time>
      </trkpt>
      <trkpt lat="45.94176" lon="6.84193">
        <ele>2347.5386</ele>
        <time>2014-09-02T11:15:33Z</time>
      </trkpt>
      <trkpt lat="45.94176" lon="6.84195">
        <ele>2347.5386</ele>
        <time>2014-09-02T11:15:38Z</time>
      </trkpt>
      <trkpt lat="45.94176" lon="6.84195">
        <ele>2347.5386</ele>
        <time>2014-09-02T11:15:43Z</time>
      </trkpt>
      <trkpt lat="45.94176" lon="6.84196">
        <ele>2347.5386</ele>
        <time>2014-09-02T11:15:53Z</time>
      </trkpt>
      <trkpt lat="45.94176" lon="6.84203">
        <ele>2348.9917</ele>
        <time>2014-09-02T11:15:58Z</time>
      </trkpt>
      <trkpt lat="45.94177" lon="6.84209">
        <ele>2348.9917</ele>
        <time>2014-09-02T11:16:03Z</time>
      </trkpt>
      <trkpt lat="45.94177" lon="6.84217">
        <ele>2350.3242</ele>
        <time>2014-09-02T11:16:08Z</time>
      </trkpt>
      <trkpt lat="45.94177" lon="6.84223">
        <ele>2350.3242</ele>
        <time>2014-09-02T11:16:13Z</time>
      </trkpt>
      <trkpt lat="45.94177" lon="6.84225">
        <ele>2350.3242</ele>
        <time>2014-09-02T11:16:18Z</time>
      </trkpt>
      <trkpt lat="45.94177" lon="6.84231">
        <ele>2351.6375</ele>
        <time>2014-09-02T11:16:23Z</time>
      </trkpt>
      <trkpt lat="45.94177" lon="6.84231">
        <ele>2351.6375</ele>
        <time>2014-09-02T11:16:28Z</time>
      </trkpt>
      <trkpt lat="45.94175" lon="6.84237">
        <ele>2351.6375</ele>
        <time>2014-09-02T11:16:33Z</time>
      </trkpt>
      <trkpt lat="45.94176" lon="6.84239">
        <ele>2351.6375</ele>
        <time>2014-09-02T11:16:38Z</time>
      </trkpt>
      <trkpt lat="45.94178" lon="6.84247">
        <ele>2353.1116</ele>
        <time>2014-09-02T11:16:43Z</time>
      </trkpt>
      <trkpt lat="45.94178" lon="6.84247">
        <ele>2353.1116</ele>
        <time>2014-09-02T11:16:48Z</time>
      </trkpt>
      <trkpt lat="45.94176" lon="6.84252">
        <ele>2353.1116</ele>
        <time>2014-09-02T11:16:53Z</time>
      </trkpt>
      <trkpt lat="45.94174" lon="6.84255">
        <ele>2353.1116</ele>
        <time>2014-09-02T11:16:58Z</time>
      </trkpt>
      <trkpt lat="45.94174" lon="6.84255">
        <ele>2353.1116</ele>
        <time>2014-09-02T11:17:03Z</time>
      </trkpt>
      <trkpt lat="45.94174" lon="6.84257">
        <ele>2353.1116</ele>
        <time>2014-09-02T11:17:13Z</time>
      </trkpt>
      <trkpt lat="45.94172" lon="6.8426">
        <ele>2354.697</ele>
        <time>2014-09-02T11:17:18Z</time>
      </trkpt>
      <trkpt lat="45.94172" lon="6.84266">
        <ele>2354.697</ele>
        <time>2014-09-02T11:17:23Z</time>
      </trkpt>
      <trkpt lat="45.94173" lon="6.84268">
        <ele>2354.697</ele>
        <time>2014-09-02T11:17:28Z</time>
      </trkpt>
      <trkpt lat="45.94173" lon="6.84271">
        <ele>2354.697</ele>
        <time>2014-09-02T11:17:33Z</time>
      </trkpt>
      <trkpt lat="45.94173" lon="6.84272">
        <ele>2356.3042</ele>
        <time>2014-09-02T11:17:38Z</time>
      </trkpt>
      <trkpt lat="45.94172" lon="6.84276">
        <ele>2356.3042</ele>
        <time>2014-09-02T11:17:43Z</time>
      </trkpt>
      <trkpt lat="45.94172" lon="6.84276">
        <ele>2356.3042</ele>
        <time>2014-09-02T11:17:48Z</time>
      </trkpt>
      <trkpt lat="45.94171" lon="6.84283">
        <ele>2356.3042</ele>
        <time>2014-09-02T11:17:53Z</time>
      </trkpt>
      <trkpt lat="45.9417" lon="6.84288">
        <ele>2357.9072</ele>
        <time>2014-09-02T11:17:58Z</time>
      </trkpt>
      <trkpt lat="45.94172" lon="6.84297">
        <ele>2357.9072</ele>
        <time>2014-09-02T11:18:03Z</time>
      </trkpt>
      <trkpt lat="45.94172" lon="6.84302">
        <ele>2359.324</ele>
        <time>2014-09-02T11:18:08Z</time>
      </trkpt>
      <trkpt lat="45.94174" lon="6.84303">
        <ele>2359.324</ele>
        <time>2014-09-02T11:18:13Z</time>
      </trkpt>
      <trkpt lat="45.94174" lon="6.84303">
        <ele>2359.324</ele>
        <time>2014-09-02T11:18:18Z</time>
      </trkpt>
      <trkpt lat="45.94174" lon="6.84305">
        <ele>2359.324</ele>
        <time>2014-09-02T11:18:23Z</time>
      </trkpt>
      <trkpt lat="45.94174" lon="6.84303">
        <ele>2359.324</ele>
        <time>2014-09-02T11:18:28Z</time>
      </trkpt>
      <trkpt lat="45.94174" lon="6.84301">
        <ele>2359.324</ele>
        <time>2014-09-02T11:18:33Z</time>
      </trkpt>
      <trkpt lat="45.94174" lon="6.84297">
        <ele>2359.324</ele>
        <time>2014-09-02T11:18:38Z</time>
      </trkpt>
      <trkpt lat="45.94175" lon="6.84298">
        <ele>2360.3713</ele>
        <time>2014-09-02T11:18:43Z</time>
      </trkpt>
      <trkpt lat="45.94176" lon="6.84301">
        <ele>2360.3713</ele>
        <time>2014-09-02T11:18:48Z</time>
      </trkpt>
      <trkpt lat="45.94179" lon="6.84301">
        <ele>2360.3713</ele>
        <time>2014-09-02T11:18:53Z</time>
      </trkpt>
      <trkpt lat="45.94179" lon="6.84301">
        <ele>2360.3713</ele>
        <time>2014-09-02T11:18:58Z</time>
      </trkpt>
      <trkpt lat="45.94178" lon="6.84304">
        <ele>2360.3713</ele>
        <time>2014-09-02T11:19:03Z</time>
      </trkpt>
      <trkpt lat="45.94177" lon="6.84306">
        <ele>2360.3713</ele>
        <time>2014-09-02T11:19:08Z</time>
      </trkpt>
      <trkpt lat="45.94175" lon="6.84309">
        <ele>2361.0535</ele>
        <time>2014-09-02T11:19:13Z</time>
      </trkpt>
      <trkpt lat="45.94174" lon="6.84314">
        <ele>2361.0535</ele>
        <time>2014-09-02T11:19:18Z</time>
      </trkpt>
      <trkpt lat="45.94174" lon="6.84314">
        <ele>2361.0535</ele>
        <time>2014-09-02T11:19:23Z</time>
      </trkpt>
      <trkpt lat="45.94173" lon="6.84315">
        <ele>2361.0535</ele>
        <time>2014-09-02T11:19:28Z</time>
      </trkpt>
      <trkpt lat="45.94173" lon="6.84316">
        <ele>2361.0535</ele>
        <time>2014-09-02T11:19:33Z</time>
      </trkpt>
      <trkpt lat="45.94172" lon="6.84319">
        <ele>2361.0535</ele>
        <time>2014-09-02T11:19:38Z</time>
      </trkpt>
      <trkpt lat="45.94171" lon="6.84322">
        <ele>2361.966</ele>
        <time>2014-09-02T11:19:43Z</time>
      </trkpt>
      <trkpt lat="45.94171" lon="6.84325">
        <ele>2361.966</ele>
        <time>2014-09-02T11:19:48Z</time>
      </trkpt>
      <trkpt lat="45.94169" lon="6.84328">
        <ele>2361.966</ele>
        <time>2014-09-02T11:19:53Z</time>
      </trkpt>
      <trkpt lat="45.94164" lon="6.84329">
        <ele>2362.9395</ele>
        <time>2014-09-02T11:19:58Z</time>
      </trkpt>
      <trkpt lat="45.94162" lon="6.84329">
        <ele>2362.9395</ele>
        <time>2014-09-02T11:20:03Z</time>
      </trkpt>
      <trkpt lat="45.94159" lon="6.8433">
        <ele>2362.9395</ele>
        <time>2014-09-02T11:20:08Z</time>
      </trkpt>
      <trkpt lat="45.94158" lon="6.84331">
        <ele>2362.9395</ele>
        <time>2014-09-02T11:20:13Z</time>
      </trkpt>
      <trkpt lat="45.94156" lon="6.84333">
        <ele>2362.9395</ele>
        <time>2014-09-02T11:20:18Z</time>
      </trkpt>
      <trkpt lat="45.94152" lon="6.84336">
        <ele>2364.2058</ele>
        <time>2014-09-02T11:20:23Z</time>
      </trkpt>
      <trkpt lat="45.94152" lon="6.84336">
        <ele>2364.2058</ele>
        <time>2014-09-02T11:20:28Z</time>
      </trkpt>
      <trkpt lat="45.94152" lon="6.84336">
        <ele>2364.2058</ele>
        <time>2014-09-02T11:20:33Z</time>
      </trkpt>
      <trkpt lat="45.94151" lon="6.84337">
        <ele>2364.2058</ele>
        <time>2014-09-02T11:20:48Z</time>
      </trkpt>
      <trkpt lat="45.94149" lon="6.8434">
        <ele>2364.2058</ele>
        <time>2014-09-02T11:20:53Z</time>
      </trkpt>
      <trkpt lat="45.94146" lon="6.84342">
        <ele>2364.2058</ele>
        <time>2014-09-02T11:20:58Z</time>
      </trkpt>
      <trkpt lat="45.94146" lon="6.84343">
        <ele>2364.2058</ele>
        <time>2014-09-02T11:21:03Z</time>
      </trkpt>
      <trkpt lat="45.94142" lon="6.84349">
        <ele>2365.4165</ele>
        <time>2014-09-02T11:21:08Z</time>
      </trkpt>
      <trkpt lat="45.9414" lon="6.84354">
        <ele>2365.4165</ele>
        <time>2014-09-02T11:21:13Z</time>
      </trkpt>
      <trkpt lat="45.94137" lon="6.84356">
        <ele>2365.4165</ele>
        <time>2014-09-02T11:21:18Z</time>
      </trkpt>
      <trkpt lat="45.94135" lon="6.84356">
        <ele>2366.5227</ele>
        <time>2014-09-02T11:21:23Z</time>
      </trkpt>
      <trkpt lat="45.94134" lon="6.84354">
        <ele>2366.5227</ele>
        <time>2014-09-02T11:21:28Z</time>
      </trkpt>
      <trkpt lat="45.94135" lon="6.84353">
        <ele>2366.5227</ele>
        <time>2014-09-02T11:21:33Z</time>
      </trkpt>
      <trkpt lat="45.94134" lon="6.84352">
        <ele>2366.5227</ele>
        <time>2014-09-02T11:21:38Z</time>
      </trkpt>
      <trkpt lat="45.94133" lon="6.84353">
        <ele>2366.5227</ele>
        <time>2014-09-02T11:21:43Z</time>
      </trkpt>
      <trkpt lat="45.94133" lon="6.84354">
        <ele>2366.5227</ele>
        <time>2014-09-02T11:21:48Z</time>
      </trkpt>
      <trkpt lat="45.94133" lon="6.84354">
        <ele>2366.5227</ele>
        <time>2014-09-02T11:21:53Z</time>
      </trkpt>
      <trkpt lat="45.94134" lon="6.84354">
        <ele>2366.5227</ele>
        <time>2014-09-02T11:21:58Z</time>
      </trkpt>
      <trkpt lat="45.94134" lon="6.84355">
        <ele>2366.5227</ele>
        <time>2014-09-02T11:22:03Z</time>
      </trkpt>
      <trkpt lat="45.94134" lon="6.84356">
        <ele>2366.5227</ele>
        <time>2014-09-02T11:22:08Z</time>
      </trkpt>
      <trkpt lat="45.94134" lon="6.84356">
        <ele>2366.5227</ele>
        <time>2014-09-02T11:22:13Z</time>
      </trkpt>
      <trkpt lat="45.94134" lon="6.84356">
        <ele>2366.5227</ele>
        <time>2014-09-02T11:22:18Z</time>
      </trkpt>
      <trkpt lat="45.94136" lon="6.84356">
        <ele>2366.5227</ele>
        <time>2014-09-02T11:22:23Z</time>
      </trkpt>
      <trkpt lat="45.94139" lon="6.84357">
        <ele>2367.508</ele>
        <time>2014-09-02T11:22:28Z</time>
      </trkpt>
      <trkpt lat="45.94139" lon="6.84356">
        <ele>2367.508</ele>
        <time>2014-09-02T11:22:33Z</time>
      </trkpt>
      <trkpt lat="45.94139" lon="6.84354">
        <ele>2367.508</ele>
        <time>2014-09-02T11:22:38Z</time>
      </trkpt>
      <trkpt lat="45.94139" lon="6.84353">
        <ele>2367.508</ele>
        <time>2014-09-02T11:22:43Z</time>
      </trkpt>
      <trkpt lat="45.94139" lon="6.84354">
        <ele>2367.508</ele>
        <time>2014-09-02T11:23:03Z</time>
      </trkpt>
      <trkpt lat="45.94138" lon="6.84354">
        <ele>2367.508</ele>
        <time>2014-09-02T11:23:08Z</time>
      </trkpt>
      <trkpt lat="45.94138" lon="6.84354">
        <ele>2367.508</ele>
        <time>2014-09-02T11:23:13Z</time>
      </trkpt>
      <trkpt lat="45.94138" lon="6.84354">
        <ele>2367.508</ele>
        <time>2014-09-02T11:23:18Z</time>
      </trkpt>
      <trkpt lat="45.94138" lon="6.84354">
        <ele>2367.508</ele>
        <time>2014-09-02T11:23:23Z</time>
      </trkpt>
      <trkpt lat="45.94138" lon="6.84352">
        <ele>2367.508</ele>
        <time>2014-09-02T11:23:28Z</time>
      </trkpt>
      <trkpt lat="45.94136" lon="6.84351">
        <ele>2367.508</ele>
        <time>2014-09-02T11:23:33Z</time>
      </trkpt>
      <trkpt lat="45.94136" lon="6.84351">
        <ele>2367.508</ele>
        <time>2014-09-02T11:23:38Z</time>
      </trkpt>
      <trkpt lat="45.94136" lon="6.84351">
        <ele>2367.508</ele>
        <time>2014-09-02T11:23:43Z</time>
      </trkpt>
      <trkpt lat="45.94135" lon="6.84351">
        <ele>2367.508</ele>
        <time>2014-09-02T11:23:48Z</time>
      </trkpt>
      <trkpt lat="45.94133" lon="6.84352">
        <ele>2368.4583</ele>
        <time>2014-09-02T11:23:53Z</time>
      </trkpt>
      <trkpt lat="45.94132" lon="6.84352">
        <ele>2368.4583</ele>
        <time>2014-09-02T11:23:58Z</time>
      </trkpt>
      <trkpt lat="45.94132" lon="6.84351">
        <ele>2368.4583</ele>
        <time>2014-09-02T11:24:03Z</time>
      </trkpt>
      <trkpt lat="45.94133" lon="6.84351">
        <ele>2368.4583</ele>
        <time>2014-09-02T11:24:08Z</time>
      </trkpt>
      <trkpt lat="45.94134" lon="6.84351">
        <ele>2368.4583</ele>
        <time>2014-09-02T11:24:13Z</time>
      </trkpt>
      <trkpt lat="45.94134" lon="6.84351">
        <ele>2368.4583</ele>
        <time>2014-09-02T11:24:18Z</time>
      </trkpt>
      <trkpt lat="45.94134" lon="6.84352">
        <ele>2368.4583</ele>
        <time>2014-09-02T11:24:23Z</time>
      </trkpt>
      <trkpt lat="45.94134" lon="6.84352">
        <ele>2368.4583</ele>
        <time>2014-09-02T11:24:28Z</time>
      </trkpt>
      <trkpt lat="45.94134" lon="6.84352">
        <ele>2368.4583</ele>
        <time>2014-09-02T11:24:33Z</time>
      </trkpt>
      <trkpt lat="45.94134" lon="6.84354">
        <ele>2368.4583</ele>
        <time>2014-09-02T11:24:38Z</time>
      </trkpt>
      <trkpt lat="45.94135" lon="6.84355">
        <ele>2368.4583</ele>
        <time>2014-09-02T11:24:43Z</time>
      </trkpt>
      <trkpt lat="45.94136" lon="6.84356">
        <ele>2368.4583</ele>
        <time>2014-09-02T11:24:48Z</time>
      </trkpt>
      <trkpt lat="45.94136" lon="6.84357">
        <ele>2369.3232</ele>
        <time>2014-09-02T11:24:53Z</time>
      </trkpt>
      <trkpt lat="45.94136" lon="6.8436">
        <ele>2369.3232</ele>
        <time>2014-09-02T11:24:58Z</time>
      </trkpt>
      <trkpt lat="45.94137" lon="6.8436">
        <ele>2369.3232</ele>
        <time>2014-09-02T11:25:03Z</time>
      </trkpt>
      <trkpt lat="45.94137" lon="6.8436">
        <ele>2369.3232</ele>
        <time>2014-09-02T11:25:08Z</time>
      </trkpt>
      <trkpt lat="45.94136" lon="6.8436">
        <ele>2369.3232</ele>
        <time>2014-09-02T11:25:13Z</time>
      </trkpt>
      <trkpt lat="45.94136" lon="6.8436">
        <ele>2369.3232</ele>
        <time>2014-09-02T11:25:18Z</time>
      </trkpt>
      <trkpt lat="45.94136" lon="6.8436">
        <ele>2369.3232</ele>
        <time>2014-09-02T11:25:23Z</time>
      </trkpt>
      <trkpt lat="45.94136" lon="6.84361">
        <ele>2369.3232</ele>
        <time>2014-09-02T11:25:28Z</time>
      </trkpt>
      <trkpt lat="45.94136" lon="6.8436">
        <ele>2369.3232</ele>
        <time>2014-09-02T11:25:33Z</time>
      </trkpt>
      <trkpt lat="45.94136" lon="6.8436">
        <ele>2369.3232</ele>
        <time>2014-09-02T11:25:38Z</time>
      </trkpt>
      <trkpt lat="45.94137" lon="6.84361">
        <ele>2369.3232</ele>
        <time>2014-09-02T11:25:43Z</time>
      </trkpt>
      <trkpt lat="45.94138" lon="6.84362">
        <ele>2369.3232</ele>
        <time>2014-09-02T11:25:48Z</time>
      </trkpt>
      <trkpt lat="45.94138" lon="6.84362">
        <ele>2369.3232</ele>
        <time>2014-09-02T11:25:53Z</time>
      </trkpt>
      <trkpt lat="45.94139" lon="6.84362">
        <ele>2369.3232</ele>
        <time>2014-09-02T11:25:58Z</time>
      </trkpt>
      <trkpt lat="45.94139" lon="6.84361">
        <ele>2369.9846</ele>
        <time>2014-09-02T11:26:03Z</time>
      </trkpt>
      <trkpt lat="45.94133" lon="6.84363">
        <ele>2369.9846</ele>
        <time>2014-09-02T12:12:47Z</time>
      </trkpt>
      <trkpt lat="45.94136" lon="6.8436">
        <ele>2372.0332</ele>
        <time>2014-09-02T12:12:57Z</time>
      </trkpt>
      <trkpt lat="45.94135" lon="6.84361">
        <ele>2372.0332</ele>
        <time>2014-09-02T12:13:17Z</time>
      </trkpt>
      <trkpt lat="45.94135" lon="6.84361">
        <ele>2372.0332</ele>
        <time>2014-09-02T12:13:22Z</time>
      </trkpt>
      <trkpt lat="45.94135" lon="6.8436">
        <ele>2372.0332</ele>
        <time>2014-09-02T12:13:27Z</time>
      </trkpt>
      <trkpt lat="45.94134" lon="6.8436">
        <ele>2372.0332</ele>
        <time>2014-09-02T12:13:32Z</time>
      </trkpt>
      <trkpt lat="45.94135" lon="6.84359">
        <ele>2372.0332</ele>
        <time>2014-09-02T12:13:37Z</time>
      </trkpt>
      <trkpt lat="45.94136" lon="6.84359">
        <ele>2372.0332</ele>
        <time>2014-09-02T12:13:42Z</time>
      </trkpt>
      <trkpt lat="45.94136" lon="6.84358">
        <ele>2372.0332</ele>
        <time>2014-09-02T12:13:47Z</time>
      </trkpt>
      <trkpt lat="45.94135" lon="6.84358">
        <ele>2372.0332</ele>
        <time>2014-09-02T12:13:52Z</time>
      </trkpt>
      <trkpt lat="45.94135" lon="6.84357">
        <ele>2372.0332</ele>
        <time>2014-09-02T12:13:57Z</time>
      </trkpt>
      <trkpt lat="45.94134" lon="6.84357">
        <ele>2372.0332</ele>
        <time>2014-09-02T12:14:02Z</time>
      </trkpt>
      <trkpt lat="45.94133" lon="6.84357">
        <ele>2372.0332</ele>
        <time>2014-09-02T12:14:07Z</time>
      </trkpt>
      <trkpt lat="45.94133" lon="6.84357">
        <ele>2372.0332</ele>
        <time>2014-09-02T12:14:12Z</time>
      </trkpt>
      <trkpt lat="45.94132" lon="6.84358">
        <ele>2372.0332</ele>
        <time>2014-09-02T12:14:17Z</time>
      </trkpt>
      <trkpt lat="45.94133" lon="6.84358">
        <ele>2373.1057</ele>
        <time>2014-09-02T12:14:22Z</time>
      </trkpt>
      <trkpt lat="45.94134" lon="6.84359">
        <ele>2373.1057</ele>
        <time>2014-09-02T12:14:27Z</time>
      </trkpt>
      <trkpt lat="45.94134" lon="6.8436">
        <ele>2373.1057</ele>
        <time>2014-09-02T12:14:32Z</time>
      </trkpt>
      <trkpt lat="45.94133" lon="6.84361">
        <ele>2373.1057</ele>
        <time>2014-09-02T12:14:37Z</time>
      </trkpt>
      <trkpt lat="45.94131" lon="6.84359">
        <ele>2373.1057</ele>
        <time>2014-09-02T12:14:42Z</time>
      </trkpt>
      <trkpt lat="45.94131" lon="6.84358">
        <ele>2373.1057</ele>
        <time>2014-09-02T12:14:47Z</time>
      </trkpt>
      <trkpt lat="45.9413" lon="6.84356">
        <ele>2373.1057</ele>
        <time>2014-09-02T12:14:52Z</time>
      </trkpt>
      <trkpt lat="45.94129" lon="6.84355">
        <ele>2373.912</ele>
        <time>2014-09-02T12:14:57Z</time>
      </trkpt>
      <trkpt lat="45.94129" lon="6.84355">
        <ele>2373.912</ele>
        <time>2014-09-02T12:15:02Z</time>
      </trkpt>
      <trkpt lat="45.94133" lon="6.84356">
        <ele>2373.912</ele>
        <time>2014-09-02T12:15:17Z</time>
      </trkpt>
      <trkpt lat="45.94132" lon="6.84359">
        <ele>2373.912</ele>
        <time>2014-09-02T12:15:22Z</time>
      </trkpt>
      <trkpt lat="45.94132" lon="6.8436">
        <ele>2373.912</ele>
        <time>2014-09-02T12:15:27Z</time>
      </trkpt>
      <trkpt lat="45.94124" lon="6.84376">
        <ele>2374.101</ele>
        <time>2014-09-02T12:15:32Z</time>
      </trkpt>
      <trkpt lat="45.94121" lon="6.84385">
        <ele>2374.101</ele>
        <time>2014-09-02T12:15:37Z</time>
      </trkpt>
      <trkpt lat="45.9412" lon="6.84389">
        <ele>2373.9263</ele>
        <time>2014-09-02T12:15:42Z</time>
      </trkpt>
      <trkpt lat="45.94121" lon="6.8439">
        <ele>2373.9263</ele>
        <time>2014-09-02T12:15:47Z</time>
      </trkpt>
      <trkpt lat="45.9412" lon="6.84393">
        <ele>2373.9263</ele>
        <time>2014-09-02T12:15:52Z</time>
      </trkpt>
      <trkpt lat="45.9412" lon="6.84394">
        <ele>2373.9263</ele>
        <time>2014-09-02T12:15:57Z</time>
      </trkpt>
      <trkpt lat="45.94119" lon="6.84395">
        <ele>2373.9263</ele>
        <time>2014-09-02T12:16:02Z</time>
      </trkpt>
      <trkpt lat="45.94119" lon="6.84395">
        <ele>2373.9263</ele>
        <time>2014-09-02T12:16:07Z</time>
      </trkpt>
      <trkpt lat="45.94119" lon="6.84396">
        <ele>2373.9263</ele>
        <time>2014-09-02T12:16:12Z</time>
      </trkpt>
      <trkpt lat="45.94118" lon="6.84398">
        <ele>2373.9263</ele>
        <time>2014-09-02T12:16:17Z</time>
      </trkpt>
      <trkpt lat="45.94116" lon="6.84403">
        <ele>2372.873</ele>
        <time>2014-09-02T12:16:22Z</time>
      </trkpt>
      <trkpt lat="45.94114" lon="6.84406">
        <ele>2372.873</ele>
        <time>2014-09-02T12:16:27Z</time>
      </trkpt>
      <trkpt lat="45.94111" lon="6.8441">
        <ele>2372.873</ele>
        <time>2014-09-02T12:16:32Z</time>
      </trkpt>
      <trkpt lat="45.94108" lon="6.84417">
        <ele>2371.2747</ele>
        <time>2014-09-02T12:16:37Z</time>
      </trkpt>
      <trkpt lat="45.94107" lon="6.84421">
        <ele>2371.2747</ele>
        <time>2014-09-02T12:16:42Z</time>
      </trkpt>
      <trkpt lat="45.94107" lon="6.84421">
        <ele>2371.2747</ele>
        <time>2014-09-02T12:16:47Z</time>
      </trkpt>
      <trkpt lat="45.94107" lon="6.84421">
        <ele>2371.2747</ele>
        <time>2014-09-02T12:16:57Z</time>
      </trkpt>
      <trkpt lat="45.94106" lon="6.84424">
        <ele>2371.2747</ele>
        <time>2014-09-02T12:17:02Z</time>
      </trkpt>
      <trkpt lat="45.94101" lon="6.84427">
        <ele>2369.124</ele>
        <time>2014-09-02T12:17:07Z</time>
      </trkpt>
      <trkpt lat="45.94097" lon="6.84433">
        <ele>2369.124</ele>
        <time>2014-09-02T12:17:12Z</time>
      </trkpt>
      <trkpt lat="45.94094" lon="6.84438">
        <ele>2366.8333</ele>
        <time>2014-09-02T12:17:17Z</time>
      </trkpt>
      <trkpt lat="45.94091" lon="6.84443">
        <ele>2366.8333</ele>
        <time>2014-09-02T12:17:22Z</time>
      </trkpt>
      <trkpt lat="45.94091" lon="6.84443">
        <ele>2366.8333</ele>
        <time>2014-09-02T12:17:27Z</time>
      </trkpt>
      <trkpt lat="45.94091" lon="6.84443">
        <ele>2366.8333</ele>
        <time>2014-09-02T12:17:32Z</time>
      </trkpt>
      <trkpt lat="45.94088" lon="6.84444">
        <ele>2366.8333</ele>
        <time>2014-09-02T12:17:37Z</time>
      </trkpt>
      <trkpt lat="45.94086" lon="6.84445">
        <ele>2364.641</ele>
        <time>2014-09-02T12:17:42Z</time>
      </trkpt>
      <trkpt lat="45.94086" lon="6.84445">
        <ele>2364.641</ele>
        <time>2014-09-02T12:17:47Z</time>
      </trkpt>
      <trkpt lat="45.94086" lon="6.84446">
        <ele>2364.641</ele>
        <time>2014-09-02T12:17:57Z</time>
      </trkpt>
      <trkpt lat="45.94086" lon="6.8445">
        <ele>2364.641</ele>
        <time>2014-09-02T12:18:02Z</time>
      </trkpt>
      <trkpt lat="45.94085" lon="6.84451">
        <ele>2364.641</ele>
        <time>2014-09-02T12:18:07Z</time>
      </trkpt>
      <trkpt lat="45.94084" lon="6.84452">
        <ele>2364.641</ele>
        <time>2014-09-02T12:18:12Z</time>
      </trkpt>
      <trkpt lat="45.94084" lon="6.84452">
        <ele>2364.641</ele>
        <time>2014-09-02T12:18:17Z</time>
      </trkpt>
      <trkpt lat="45.94085" lon="6.8445">
        <ele>2364.641</ele>
        <time>2014-09-02T12:18:22Z</time>
      </trkpt>
      <trkpt lat="45.94086" lon="6.84448">
        <ele>2362.5947</ele>
        <time>2014-09-02T12:18:27Z</time>
      </trkpt>
      <trkpt lat="45.94087" lon="6.84446">
        <ele>2362.5947</ele>
        <time>2014-09-02T12:18:32Z</time>
      </trkpt>
      <trkpt lat="45.94086" lon="6.84445">
        <ele>2362.5947</ele>
        <time>2014-09-02T12:18:37Z</time>
      </trkpt>
      <trkpt lat="45.94086" lon="6.84444">
        <ele>2362.5947</ele>
        <time>2014-09-02T12:18:42Z</time>
      </trkpt>
      <trkpt lat="45.94084" lon="6.84446">
        <ele>2362.5947</ele>
        <time>2014-09-02T12:18:47Z</time>
      </trkpt>
      <trkpt lat="45.94078" lon="6.84446">
        <ele>2360.4346</ele>
        <time>2014-09-02T12:18:52Z</time>
      </trkpt>
      <trkpt lat="45.94076" lon="6.84449">
        <ele>2360.4346</ele>
        <time>2014-09-02T12:18:57Z</time>
      </trkpt>
      <trkpt lat="45.94076" lon="6.84454">
        <ele>2360.4346</ele>
        <time>2014-09-02T12:19:02Z</time>
      </trkpt>
      <trkpt lat="45.94078" lon="6.8446">
        <ele>2358.0647</ele>
        <time>2014-09-02T12:19:07Z</time>
      </trkpt>
      <trkpt lat="45.94081" lon="6.84463">
        <ele>2358.0647</ele>
        <time>2014-09-02T12:19:12Z</time>
      </trkpt>
      <trkpt lat="45.94085" lon="6.84466">
        <ele>2358.0647</ele>
        <time>2014-09-02T12:19:17Z</time>
      </trkpt>
      <trkpt lat="45.94082" lon="6.84469">
        <ele>2355.814</ele>
        <time>2014-09-02T12:19:22Z</time>
      </trkpt>
      <trkpt lat="45.94079" lon="6.84469">
        <ele>2355.814</ele>
        <time>2014-09-02T12:19:27Z</time>
      </trkpt>
      <trkpt lat="45.94076" lon="6.84468">
        <ele>2355.814</ele>
        <time>2014-09-02T12:19:32Z</time>
      </trkpt>
      <trkpt lat="45.94075" lon="6.84469">
        <ele>2355.814</ele>
        <time>2014-09-02T12:19:37Z</time>
      </trkpt>
      <trkpt lat="45.94073" lon="6.84469">
        <ele>2353.2952</ele>
        <time>2014-09-02T12:19:42Z</time>
      </trkpt>
      <trkpt lat="45.94071" lon="6.84469">
        <ele>2353.2952</ele>
        <time>2014-09-02T12:19:47Z</time>
      </trkpt>
      <trkpt lat="45.94068" lon="6.84469">
        <ele>2353.2952</ele>
        <time>2014-09-02T12:19:52Z</time>
      </trkpt>
      <trkpt lat="45.94065" lon="6.84469">
        <ele>2353.2952</ele>
        <time>2014-09-02T12:19:57Z</time>
      </trkpt>
      <trkpt lat="45.94064" lon="6.84469">
        <ele>2350.3223</ele>
        <time>2014-09-02T12:20:02Z</time>
      </trkpt>
      <trkpt lat="45.94059" lon="6.8447">
        <ele>2350.3223</ele>
        <time>2014-09-02T12:20:07Z</time>
      </trkpt>
      <trkpt lat="45.94057" lon="6.84473">
        <ele>2350.3223</ele>
        <time>2014-09-02T12:20:12Z</time>
      </trkpt>
      <trkpt lat="45.94057" lon="6.84478">
        <ele>2347.2434</ele>
        <time>2014-09-02T12:20:17Z</time>
      </trkpt>
      <trkpt lat="45.94058" lon="6.84479">
        <ele>2347.2434</ele>
        <time>2014-09-02T12:20:22Z</time>
      </trkpt>
      <trkpt lat="45.94059" lon="6.84479">
        <ele>2347.2434</ele>
        <time>2014-09-02T12:20:27Z</time>
      </trkpt>
      <trkpt lat="45.94058" lon="6.84483">
        <ele>2347.2434</ele>
        <time>2014-09-02T12:20:32Z</time>
      </trkpt>
      <trkpt lat="45.9406" lon="6.84488">
        <ele>2347.2434</ele>
        <time>2014-09-02T12:20:37Z</time>
      </trkpt>
      <trkpt lat="45.94062" lon="6.84491">
        <ele>2344.193</ele>
        <time>2014-09-02T12:20:42Z</time>
      </trkpt>
      <trkpt lat="45.94063" lon="6.84495">
        <ele>2344.193</ele>
        <time>2014-09-02T12:20:47Z</time>
      </trkpt>
      <trkpt lat="45.9406" lon="6.84495">
        <ele>2344.193</ele>
        <time>2014-09-02T12:20:52Z</time>
      </trkpt>
      <trkpt lat="45.94059" lon="6.84494">
        <ele>2344.193</ele>
        <time>2014-09-02T12:20:57Z</time>
      </trkpt>
      <trkpt lat="45.94055" lon="6.84493">
        <ele>2340.835</ele>
        <time>2014-09-02T12:21:02Z</time>
      </trkpt>
      <trkpt lat="45.94054" lon="6.84493">
        <ele>2340.835</ele>
        <time>2014-09-02T12:21:07Z</time>
      </trkpt>
      <trkpt lat="45.9405" lon="6.84492">
        <ele>2340.835</ele>
        <time>2014-09-02T12:21:12Z</time>
      </trkpt>
      <trkpt lat="45.94047" lon="6.84493">
        <ele>2340.835</ele>
        <time>2014-09-02T12:21:17Z</time>
      </trkpt>
      <trkpt lat="45.94046" lon="6.84497">
        <ele>2337.0881</ele>
        <time>2014-09-02T12:21:22Z</time>
      </trkpt>
      <trkpt lat="45.94046" lon="6.845">
        <ele>2337.0881</ele>
        <time>2014-09-02T12:21:27Z</time>
      </trkpt>
      <trkpt lat="45.94048" lon="6.84502">
        <ele>2337.0881</ele>
        <time>2014-09-02T12:21:32Z</time>
      </trkpt>
      <trkpt lat="45.94049" lon="6.84503">
        <ele>2337.0881</ele>
        <time>2014-09-02T12:21:37Z</time>
      </trkpt>
      <trkpt lat="45.94049" lon="6.84503">
        <ele>2337.0881</ele>
        <time>2014-09-02T12:21:42Z</time>
      </trkpt>
      <trkpt lat="45.94049" lon="6.84503">
        <ele>2337.0881</ele>
        <time>2014-09-02T12:21:47Z</time>
      </trkpt>
      <trkpt lat="45.9405" lon="6.84502">
        <ele>2337.0881</ele>
        <time>2014-09-02T12:21:52Z</time>
      </trkpt>
      <trkpt lat="45.94053" lon="6.84504">
        <ele>2333.3396</ele>
        <time>2014-09-02T12:21:57Z</time>
      </trkpt>
      <trkpt lat="45.94055" lon="6.84506">
        <ele>2333.3396</ele>
        <time>2014-09-02T12:22:02Z</time>
      </trkpt>
      <trkpt lat="45.94058" lon="6.84508">
        <ele>2333.3396</ele>
        <time>2014-09-02T12:22:07Z</time>
      </trkpt>
      <trkpt lat="45.9406" lon="6.84508">
        <ele>2333.3396</ele>
        <time>2014-09-02T12:22:12Z</time>
      </trkpt>
      <trkpt lat="45.94063" lon="6.84508">
        <ele>2329.7603</ele>
        <time>2014-09-02T12:22:17Z</time>
      </trkpt>
      <trkpt lat="45.94065" lon="6.8451">
        <ele>2329.7603</ele>
        <time>2014-09-02T12:22:22Z</time>
      </trkpt>
      <trkpt lat="45.94066" lon="6.84511">
        <ele>2329.7603</ele>
        <time>2014-09-02T12:22:27Z</time>
      </trkpt>
      <trkpt lat="45.94067" lon="6.84511">
        <ele>2329.7603</ele>
        <time>2014-09-02T12:22:32Z</time>
      </trkpt>
      <trkpt lat="45.94068" lon="6.84512">
        <ele>2329.7603</ele>
        <time>2014-09-02T12:22:37Z</time>
      </trkpt>
      <trkpt lat="45.94069" lon="6.84514">
        <ele>2329.7603</ele>
        <time>2014-09-02T12:22:42Z</time>
      </trkpt>
      <trkpt lat="45.94069" lon="6.84514">
        <ele>2329.7603</ele>
        <time>2014-09-02T12:22:47Z</time>
      </trkpt>
      <trkpt lat="45.94069" lon="6.84513">
        <ele>2329.7603</ele>
        <time>2014-09-02T12:22:52Z</time>
      </trkpt>
      <trkpt lat="45.94071" lon="6.84513">
        <ele>2326.2625</ele>
        <time>2014-09-02T12:22:57Z</time>
      </trkpt>
      <trkpt lat="45.9407" lon="6.84512">
        <ele>2326.2625</ele>
        <time>2014-09-02T12:23:02Z</time>
      </trkpt>
      <trkpt lat="45.94074" lon="6.84514">
        <ele>2326.2625</ele>
        <time>2014-09-02T12:23:07Z</time>
      </trkpt>
      <trkpt lat="45.94077" lon="6.84518">
        <ele>2322.9807</ele>
        <time>2014-09-02T12:23:12Z</time>
      </trkpt>
      <trkpt lat="45.94083" lon="6.8452">
        <ele>2322.9807</ele>
        <time>2014-09-02T12:23:17Z</time>
      </trkpt>
      <trkpt lat="45.94085" lon="6.84519">
        <ele>2322.9807</ele>
        <time>2014-09-02T12:23:22Z</time>
      </trkpt>
      <trkpt lat="45.9409" lon="6.84516">
        <ele>2319.7505</ele>
        <time>2014-09-02T12:23:27Z</time>
      </trkpt>
      <trkpt lat="45.94094" lon="6.84516">
        <ele>2319.7505</ele>
        <time>2014-09-02T12:23:32Z</time>
      </trkpt>
      <trkpt lat="45.94098" lon="6.84515">
        <ele>2319.7505</ele>
        <time>2014-09-02T12:23:37Z</time>
      </trkpt>
      <trkpt lat="45.94099" lon="6.84515">
        <ele>2316.6636</ele>
        <time>2014-09-02T12:23:42Z</time>
      </trkpt>
      <trkpt lat="45.94099" lon="6.84515">
        <ele>2316.6636</ele>
        <time>2014-09-02T12:23:47Z</time>
      </trkpt>
      <trkpt lat="45.941" lon="6.84516">
        <ele>2316.6636</ele>
        <time>2014-09-02T12:23:52Z</time>
      </trkpt>
      <trkpt lat="45.941" lon="6.84515">
        <ele>2316.6636</ele>
        <time>2014-09-02T12:23:57Z</time>
      </trkpt>
      <trkpt lat="45.94103" lon="6.84515">
        <ele>2316.6636</ele>
        <time>2014-09-02T12:24:02Z</time>
      </trkpt>
      <trkpt lat="45.94105" lon="6.84514">
        <ele>2316.6636</ele>
        <time>2014-09-02T12:24:07Z</time>
      </trkpt>
      <trkpt lat="45.94107" lon="6.84515">
        <ele>2316.6636</ele>
        <time>2014-09-02T12:24:12Z</time>
      </trkpt>
      <trkpt lat="45.9411" lon="6.84518">
        <ele>2313.4585</ele>
        <time>2014-09-02T12:24:17Z</time>
      </trkpt>
      <trkpt lat="45.94113" lon="6.84519">
        <ele>2313.4585</ele>
        <time>2014-09-02T12:24:22Z</time>
      </trkpt>
      <trkpt lat="45.94118" lon="6.84522">
        <ele>2313.4585</ele>
        <time>2014-09-02T12:24:27Z</time>
      </trkpt>
      <trkpt lat="45.94121" lon="6.84525">
        <ele>2310.2246</ele>
        <time>2014-09-02T12:24:32Z</time>
      </trkpt>
      <trkpt lat="45.94126" lon="6.84526">
        <ele>2310.2246</ele>
        <time>2014-09-02T12:24:37Z</time>
      </trkpt>
      <trkpt lat="45.9413" lon="6.84525">
        <ele>2307.1162</ele>
        <time>2014-09-02T12:24:42Z</time>
      </trkpt>
      <trkpt lat="45.94133" lon="6.84524">
        <ele>2307.1162</ele>
        <time>2014-09-02T12:24:47Z</time>
      </trkpt>
      <trkpt lat="45.94133" lon="6.84527">
        <ele>2307.1162</ele>
        <time>2014-09-02T12:24:52Z</time>
      </trkpt>
      <trkpt lat="45.94131" lon="6.84529">
        <ele>2307.1162</ele>
        <time>2014-09-02T12:24:57Z</time>
      </trkpt>
      <trkpt lat="45.94127" lon="6.8453">
        <ele>2303.7278</ele>
        <time>2014-09-02T12:25:02Z</time>
      </trkpt>
      <trkpt lat="45.94126" lon="6.84532">
        <ele>2303.7278</ele>
        <time>2014-09-02T12:25:07Z</time>
      </trkpt>
      <trkpt lat="45.94125" lon="6.84534">
        <ele>2303.7278</ele>
        <time>2014-09-02T12:25:12Z</time>
      </trkpt>
      <trkpt lat="45.94124" lon="6.84534">
        <ele>2303.7278</ele>
        <time>2014-09-02T12:25:17Z</time>
      </trkpt>
      <trkpt lat="45.94123" lon="6.84535">
        <ele>2303.7278</ele>
        <time>2014-09-02T12:25:22Z</time>
      </trkpt>
      <trkpt lat="45.9412" lon="6.84535">
        <ele>2303.7278</ele>
        <time>2014-09-02T12:25:27Z</time>
      </trkpt>
      <trkpt lat="45.94117" lon="6.84536">
        <ele>2298.6755</ele>
        <time>2014-09-02T12:25:32Z</time>
      </trkpt>
      <trkpt lat="45.94115" lon="6.84537">
        <ele>2298.6755</ele>
        <time>2014-09-02T12:25:37Z</time>
      </trkpt>
      <trkpt lat="45.94113" lon="6.84539">
        <ele>2298.6755</ele>
        <time>2014-09-02T12:25:42Z</time>
      </trkpt>
      <trkpt lat="45.9411" lon="6.84541">
        <ele>2298.6755</ele>
        <time>2014-09-02T12:25:47Z</time>
      </trkpt>
      <trkpt lat="45.94109" lon="6.84542">
        <ele>2298.6755</ele>
        <time>2014-09-02T12:25:52Z</time>
      </trkpt>
      <trkpt lat="45.94109" lon="6.84542">
        <ele>2298.6755</ele>
        <time>2014-09-02T12:25:57Z</time>
      </trkpt>
      <trkpt lat="45.94106" lon="6.84546">
        <ele>2292.8286</ele>
        <time>2014-09-02T12:26:07Z</time>
      </trkpt>
      <trkpt lat="45.94103" lon="6.8455">
        <ele>2292.8286</ele>
        <time>2014-09-02T12:26:12Z</time>
      </trkpt>
      <trkpt lat="45.94102" lon="6.8455">
        <ele>2292.8286</ele>
        <time>2014-09-02T12:26:17Z</time>
      </trkpt>
      <trkpt lat="45.94098" lon="6.84552">
        <ele>2287.4412</ele>
        <time>2014-09-02T12:26:22Z</time>
      </trkpt>
      <trkpt lat="45.94093" lon="6.84554">
        <ele>2287.4412</ele>
        <time>2014-09-02T12:26:27Z</time>
      </trkpt>
      <trkpt lat="45.94088" lon="6.84554">
        <ele>2282.4053</ele>
        <time>2014-09-02T12:26:32Z</time>
      </trkpt>
      <trkpt lat="45.94089" lon="6.84554">
        <ele>2282.4053</ele>
        <time>2014-09-02T12:26:37Z</time>
      </trkpt>
      <trkpt lat="45.94091" lon="6.84555">
        <ele>2282.4053</ele>
        <time>2014-09-02T12:26:42Z</time>
      </trkpt>
      <trkpt lat="45.94094" lon="6.8456">
        <ele>2282.4053</ele>
        <time>2014-09-02T12:26:47Z</time>
      </trkpt>
      <trkpt lat="45.94096" lon="6.84562">
        <ele>2277.922</ele>
        <time>2014-09-02T12:26:52Z</time>
      </trkpt>
      <trkpt lat="45.94099" lon="6.84563">
        <ele>2277.922</ele>
        <time>2014-09-02T12:26:57Z</time>
      </trkpt>
      <trkpt lat="45.94105" lon="6.84563">
        <ele>2277.922</ele>
        <time>2014-09-02T12:27:02Z</time>
      </trkpt>
      <trkpt lat="45.9411" lon="6.84564">
        <ele>2273.845</ele>
        <time>2014-09-02T12:27:07Z</time>
      </trkpt>
      <trkpt lat="45.94115" lon="6.84562">
        <ele>2273.845</ele>
        <time>2014-09-02T12:27:12Z</time>
      </trkpt>
      <trkpt lat="45.94122" lon="6.84561">
        <ele>2270.18</ele>
        <time>2014-09-02T12:27:17Z</time>
      </trkpt>
      <trkpt lat="45.94127" lon="6.84563">
        <ele>2270.18</ele>
        <time>2014-09-02T12:27:22Z</time>
      </trkpt>
      <trkpt lat="45.94126" lon="6.84564">
        <ele>2270.18</ele>
        <time>2014-09-02T12:27:27Z</time>
      </trkpt>
      <trkpt lat="45.94121" lon="6.8457">
        <ele>2266.802</ele>
        <time>2014-09-02T12:27:32Z</time>
      </trkpt>
      <trkpt lat="45.94119" lon="6.84573">
        <ele>2266.802</ele>
        <time>2014-09-02T12:27:37Z</time>
      </trkpt>
      <trkpt lat="45.94117" lon="6.84574">
        <ele>2266.802</ele>
        <time>2014-09-02T12:27:42Z</time>
      </trkpt>
      <trkpt lat="45.94113" lon="6.84579">
        <ele>2263.4065</ele>
        <time>2014-09-02T12:27:47Z</time>
      </trkpt>
      <trkpt lat="45.94107" lon="6.84581">
        <ele>2263.4065</ele>
        <time>2014-09-02T12:27:52Z</time>
      </trkpt>
      <trkpt lat="45.94103" lon="6.84582">
        <ele>2260.143</ele>
        <time>2014-09-02T12:27:57Z</time>
      </trkpt>
      <trkpt lat="45.94099" lon="6.84582">
        <ele>2260.143</ele>
        <time>2014-09-02T12:28:02Z</time>
      </trkpt>
      <trkpt lat="45.94096" lon="6.84583">
        <ele>2260.143</ele>
        <time>2014-09-02T12:28:07Z</time>
      </trkpt>
      <trkpt lat="45.94094" lon="6.84585">
        <ele>2256.6458</ele>
        <time>2014-09-02T12:28:12Z</time>
      </trkpt>
      <trkpt lat="45.9409" lon="6.84588">
        <ele>2256.6458</ele>
        <time>2014-09-02T12:28:17Z</time>
      </trkpt>
      <trkpt lat="45.94084" lon="6.84588">
        <ele>2253.31</ele>
        <time>2014-09-02T12:28:22Z</time>
      </trkpt>
      <trkpt lat="45.94079" lon="6.84588">
        <ele>2253.31</ele>
        <time>2014-09-02T12:28:27Z</time>
      </trkpt>
      <trkpt lat="45.94074" lon="6.84589">
        <ele>2250.2144</ele>
        <time>2014-09-02T12:28:32Z</time>
      </trkpt>
      <trkpt lat="45.94068" lon="6.84589">
        <ele>2250.2144</ele>
        <time>2014-09-02T12:28:37Z</time>
      </trkpt>
      <trkpt lat="45.94064" lon="6.8459">
        <ele>2247.458</ele>
        <time>2014-09-02T12:28:42Z</time>
      </trkpt>
      <trkpt lat="45.9406" lon="6.84591">
        <ele>2247.458</ele>
        <time>2014-09-02T12:28:47Z</time>
      </trkpt>
      <trkpt lat="45.94059" lon="6.84593">
        <ele>2247.458</ele>
        <time>2014-09-02T12:28:52Z</time>
      </trkpt>
      <trkpt lat="45.94059" lon="6.84593">
        <ele>2247.458</ele>
        <time>2014-09-02T12:28:57Z</time>
      </trkpt>
      <trkpt lat="45.94058" lon="6.84594">
        <ele>2247.458</ele>
        <time>2014-09-02T12:29:02Z</time>
      </trkpt>
      <trkpt lat="45.9406" lon="6.846">
        <ele>2245.032</ele>
        <time>2014-09-02T12:29:07Z</time>
      </trkpt>
      <trkpt lat="45.94063" lon="6.84603">
        <ele>2245.032</ele>
        <time>2014-09-02T12:29:12Z</time>
      </trkpt>
      <trkpt lat="45.94065" lon="6.84605">
        <ele>2245.032</ele>
        <time>2014-09-02T12:29:17Z</time>
      </trkpt>
      <trkpt lat="45.94069" lon="6.84607">
        <ele>2242.9548</ele>
        <time>2014-09-02T12:29:22Z</time>
      </trkpt>
      <trkpt lat="45.9407" lon="6.84606">
        <ele>2242.9548</ele>
        <time>2014-09-02T12:29:27Z</time>
      </trkpt>
      <trkpt lat="45.94073" lon="6.84608">
        <ele>2242.9548</ele>
        <time>2014-09-02T12:29:32Z</time>
      </trkpt>
      <trkpt lat="45.94073" lon="6.84609">
        <ele>2242.9548</ele>
        <time>2014-09-02T12:29:37Z</time>
      </trkpt>
      <trkpt lat="45.94074" lon="6.84609">
        <ele>2242.9548</ele>
        <time>2014-09-02T12:29:42Z</time>
      </trkpt>
      <trkpt lat="45.94078" lon="6.84615">
        <ele>2240.969</ele>
        <time>2014-09-02T12:29:47Z</time>
      </trkpt>
      <trkpt lat="45.94081" lon="6.84618">
        <ele>2240.969</ele>
        <time>2014-09-02T12:29:52Z</time>
      </trkpt>
      <trkpt lat="45.94083" lon="6.8462">
        <ele>2240.969</ele>
        <time>2014-09-02T12:29:57Z</time>
      </trkpt>
      <trkpt lat="45.94086" lon="6.84622">
        <ele>2240.969</ele>
        <time>2014-09-02T12:30:02Z</time>
      </trkpt>
      <trkpt lat="45.94088" lon="6.84622">
        <ele>2238.7632</ele>
        <time>2014-09-02T12:30:07Z</time>
      </trkpt>
      <trkpt lat="45.94092" lon="6.84622">
        <ele>2238.7632</ele>
        <time>2014-09-02T12:30:12Z</time>
      </trkpt>
      <trkpt lat="45.94097" lon="6.84622">
        <ele>2238.7632</ele>
        <time>2014-09-02T12:30:17Z</time>
      </trkpt>
      <trkpt lat="45.94102" lon="6.84623">
        <ele>2236.439</ele>
        <time>2014-09-02T12:30:22Z</time>
      </trkpt>
      <trkpt lat="45.94104" lon="6.84623">
        <ele>2236.439</ele>
        <time>2014-09-02T12:30:27Z</time>
      </trkpt>
      <trkpt lat="45.94105" lon="6.84624">
        <ele>2236.439</ele>
        <time>2014-09-02T12:30:32Z</time>
      </trkpt>
      <trkpt lat="45.94106" lon="6.84626">
        <ele>2236.439</ele>
        <time>2014-09-02T12:30:37Z</time>
      </trkpt>
      <trkpt lat="45.9411" lon="6.84629">
        <ele>2234.2195</ele>
        <time>2014-09-02T12:30:42Z</time>
      </trkpt>
      <trkpt lat="45.94114" lon="6.84631">
        <ele>2234.2195</ele>
        <time>2014-09-02T12:30:47Z</time>
      </trkpt>
      <trkpt lat="45.94118" lon="6.84633">
        <ele>2234.2195</ele>
        <time>2014-09-02T12:30:52Z</time>
      </trkpt>
      <trkpt lat="45.94123" lon="6.84632">
        <ele>2232.0667</ele>
        <time>2014-09-02T12:30:57Z</time>
      </trkpt>
      <trkpt lat="45.94128" lon="6.84632">
        <ele>2232.0667</ele>
        <time>2014-09-02T12:31:02Z</time>
      </trkpt>
      <trkpt lat="45.94131" lon="6.84631">
        <ele>2232.0667</ele>
        <time>2014-09-02T12:31:07Z</time>
      </trkpt>
      <trkpt lat="45.94135" lon="6.84625">
        <ele>2229.9446</ele>
        <time>2014-09-02T12:31:12Z</time>
      </trkpt>
      <trkpt lat="45.94139" lon="6.84619">
        <ele>2229.9446</ele>
        <time>2014-09-02T12:31:17Z</time>
      </trkpt>
      <trkpt lat="45.94143" lon="6.84616">
        <ele>2227.8489</ele>
        <time>2014-09-02T12:31:22Z</time>
      </trkpt>
      <trkpt lat="45.94146" lon="6.84614">
        <ele>2227.8489</ele>
        <time>2014-09-02T12:31:27Z</time>
      </trkpt>
      <trkpt lat="45.94149" lon="6.84613">
        <ele>2227.8489</ele>
        <time>2014-09-02T12:31:32Z</time>
      </trkpt>
      <trkpt lat="45.94154" lon="6.84614">
        <ele>2225.7173</ele>
        <time>2014-09-02T12:31:37Z</time>
      </trkpt>
      <trkpt lat="45.94157" lon="6.84615">
        <ele>2225.7173</ele>
        <time>2014-09-02T12:31:42Z</time>
      </trkpt>
      <trkpt lat="45.9416" lon="6.84616">
        <ele>2225.7173</ele>
        <time>2014-09-02T12:31:47Z</time>
      </trkpt>
      <trkpt lat="45.94165" lon="6.84618">
        <ele>2223.867</ele>
        <time>2014-09-02T12:31:52Z</time>
      </trkpt>
      <trkpt lat="45.94168" lon="6.8462">
        <ele>2223.867</ele>
        <time>2014-09-02T12:31:57Z</time>
      </trkpt>
      <trkpt lat="45.94172" lon="6.84618">
        <ele>2223.867</ele>
        <time>2014-09-02T12:32:02Z</time>
      </trkpt>
      <trkpt lat="45.94174" lon="6.84619">
        <ele>2223.867</ele>
        <time>2014-09-02T12:32:07Z</time>
      </trkpt>
      <trkpt lat="45.94177" lon="6.84621">
        <ele>2221.8274</ele>
        <time>2014-09-02T12:32:12Z</time>
      </trkpt>
      <trkpt lat="45.94178" lon="6.84623">
        <ele>2221.8274</ele>
        <time>2014-09-02T12:32:17Z</time>
      </trkpt>
      <trkpt lat="45.9418" lon="6.84626">
        <ele>2221.8274</ele>
        <time>2014-09-02T12:32:22Z</time>
      </trkpt>
      <trkpt lat="45.94183" lon="6.84631">
        <ele>2219.7537</ele>
        <time>2014-09-02T12:32:27Z</time>
      </trkpt>
      <trkpt lat="45.94186" lon="6.84636">
        <ele>2219.7537</ele>
        <time>2014-09-02T12:32:32Z</time>
      </trkpt>
      <trkpt lat="45.94189" lon="6.84641">
        <ele>2219.7537</ele>
        <time>2014-09-02T12:32:37Z</time>
      </trkpt>
      <trkpt lat="45.94193" lon="6.84646">
        <ele>2217.703</ele>
        <time>2014-09-02T12:32:42Z</time>
      </trkpt>
      <trkpt lat="45.94196" lon="6.84651">
        <ele>2217.703</ele>
        <time>2014-09-02T12:32:47Z</time>
      </trkpt>
      <trkpt lat="45.942" lon="6.84656">
        <ele>2215.829</ele>
        <time>2014-09-02T12:32:52Z</time>
      </trkpt>
      <trkpt lat="45.94203" lon="6.8466">
        <ele>2215.829</ele>
        <time>2014-09-02T12:32:57Z</time>
      </trkpt>
      <trkpt lat="45.94203" lon="6.8466">
        <ele>2215.829</ele>
        <time>2014-09-02T12:33:02Z</time>
      </trkpt>
      <trkpt lat="45.94205" lon="6.84662">
        <ele>2215.829</ele>
        <time>2014-09-02T12:33:07Z</time>
      </trkpt>
      <trkpt lat="45.94208" lon="6.84665">
        <ele>2213.9858</ele>
        <time>2014-09-02T12:33:12Z</time>
      </trkpt>
      <trkpt lat="45.94213" lon="6.84667">
        <ele>2213.9858</ele>
        <time>2014-09-02T12:33:17Z</time>
      </trkpt>
      <trkpt lat="45.94218" lon="6.84669">
        <ele>2212.1824</ele>
        <time>2014-09-02T12:33:22Z</time>
      </trkpt>
      <trkpt lat="45.94222" lon="6.8467">
        <ele>2212.1824</ele>
        <time>2014-09-02T12:33:27Z</time>
      </trkpt>
      <trkpt lat="45.94228" lon="6.84668">
        <ele>2210.4546</ele>
        <time>2014-09-02T12:33:32Z</time>
      </trkpt>
      <trkpt lat="45.94231" lon="6.84671">
        <ele>2210.4546</ele>
        <time>2014-09-02T12:33:37Z</time>
      </trkpt>
      <trkpt lat="45.94235" lon="6.84676">
        <ele>2208.8223</ele>
        <time>2014-09-02T12:33:42Z</time>
      </trkpt>
      <trkpt lat="45.9424" lon="6.84677">
        <ele>2208.8223</ele>
        <time>2014-09-02T12:33:47Z</time>
      </trkpt>
      <trkpt lat="45.94239" lon="6.84678">
        <ele>2208.8223</ele>
        <time>2014-09-02T12:33:52Z</time>
      </trkpt>
      <trkpt lat="45.94236" lon="6.84677">
        <ele>2208.8223</ele>
        <time>2014-09-02T12:33:57Z</time>
      </trkpt>
      <trkpt lat="45.94231" lon="6.84677">
        <ele>2206.957</ele>
        <time>2014-09-02T12:34:02Z</time>
      </trkpt>
      <trkpt lat="45.94226" lon="6.84677">
        <ele>2206.957</ele>
        <time>2014-09-02T12:34:07Z</time>
      </trkpt>
      <trkpt lat="45.94222" lon="6.84677">
        <ele>2206.957</ele>
        <time>2014-09-02T12:34:12Z</time>
      </trkpt>
      <trkpt lat="45.94217" lon="6.84676">
        <ele>2204.772</ele>
        <time>2014-09-02T12:34:17Z</time>
      </trkpt>
      <trkpt lat="45.94213" lon="6.84675">
        <ele>2204.772</ele>
        <time>2014-09-02T12:34:22Z</time>
      </trkpt>
      <trkpt lat="45.9421" lon="6.84676">
        <ele>2204.772</ele>
        <time>2014-09-02T12:34:27Z</time>
      </trkpt>
      <trkpt lat="45.94207" lon="6.84674">
        <ele>2202.2588</ele>
        <time>2014-09-02T12:34:32Z</time>
      </trkpt>
      <trkpt lat="45.94206" lon="6.84674">
        <ele>2202.2588</ele>
        <time>2014-09-02T12:34:37Z</time>
      </trkpt>
      <trkpt lat="45.94202" lon="6.84674">
        <ele>2202.2588</ele>
        <time>2014-09-02T12:34:42Z</time>
      </trkpt>
      <trkpt lat="45.94198" lon="6.84673">
        <ele>2202.2588</ele>
        <time>2014-09-02T12:34:47Z</time>
      </trkpt>
      <trkpt lat="45.94195" lon="6.84675">
        <ele>2199.2676</ele>
        <time>2014-09-02T12:34:52Z</time>
      </trkpt>
      <trkpt lat="45.94191" lon="6.84676">
        <ele>2199.2676</ele>
        <time>2014-09-02T12:34:57Z</time>
      </trkpt>
      <trkpt lat="45.94187" lon="6.84677">
        <ele>2199.2676</ele>
        <time>2014-09-02T12:35:02Z</time>
      </trkpt>
      <trkpt lat="45.94186" lon="6.84679">
        <ele>2196.193</ele>
        <time>2014-09-02T12:35:07Z</time>
      </trkpt>
      <trkpt lat="45.94182" lon="6.8468">
        <ele>2196.193</ele>
        <time>2014-09-02T12:35:12Z</time>
      </trkpt>
      <trkpt lat="45.94179" lon="6.84681">
        <ele>2196.193</ele>
        <time>2014-09-02T12:35:17Z</time>
      </trkpt>
      <trkpt lat="45.94176" lon="6.84682">
        <ele>2192.7395</ele>
        <time>2014-09-02T12:35:22Z</time>
      </trkpt>
      <trkpt lat="45.94174" lon="6.84685">
        <ele>2192.7395</ele>
        <time>2014-09-02T12:35:27Z</time>
      </trkpt>
      <trkpt lat="45.94172" lon="6.84687">
        <ele>2192.7395</ele>
        <time>2014-09-02T12:35:32Z</time>
      </trkpt>
      <trkpt lat="45.9417" lon="6.8469">
        <ele>2192.7395</ele>
        <time>2014-09-02T12:35:37Z</time>
      </trkpt>
      <trkpt lat="45.94165" lon="6.84692">
        <ele>2188.8918</ele>
        <time>2014-09-02T12:35:42Z</time>
      </trkpt>
      <trkpt lat="45.94161" lon="6.84695">
        <ele>2188.8918</ele>
        <time>2014-09-02T12:35:47Z</time>
      </trkpt>
      <trkpt lat="45.94157" lon="6.84698">
        <ele>2185.2297</ele>
        <time>2014-09-02T12:35:52Z</time>
      </trkpt>
      <trkpt lat="45.94153" lon="6.84704">
        <ele>2185.2297</ele>
        <time>2014-09-02T12:35:57Z</time>
      </trkpt>
      <trkpt lat="45.9415" lon="6.84707">
        <ele>2181.7122</ele>
        <time>2014-09-02T12:36:02Z</time>
      </trkpt>
      <trkpt lat="45.94148" lon="6.84709">
        <ele>2181.7122</ele>
        <time>2014-09-02T12:36:07Z</time>
      </trkpt>
      <trkpt lat="45.94145" lon="6.84712">
        <ele>2181.7122</ele>
        <time>2014-09-02T12:36:12Z</time>
      </trkpt>
      <trkpt lat="45.94142" lon="6.84715">
        <ele>2178.1428</ele>
        <time>2014-09-02T12:36:17Z</time>
      </trkpt>
      <trkpt lat="45.94141" lon="6.84719">
        <ele>2178.1428</ele>
        <time>2014-09-02T12:36:22Z</time>
      </trkpt>
      <trkpt lat="45.94138" lon="6.84721">
        <ele>2178.1428</ele>
        <time>2014-09-02T12:36:27Z</time>
      </trkpt>
      <trkpt lat="45.94134" lon="6.84722">
        <ele>2174.3108</ele>
        <time>2014-09-02T12:36:32Z</time>
      </trkpt>
      <trkpt lat="45.94132" lon="6.84724">
        <ele>2174.3108</ele>
        <time>2014-09-02T12:36:37Z</time>
      </trkpt>
      <trkpt lat="45.94132" lon="6.84726">
        <ele>2174.3108</ele>
        <time>2014-09-02T12:36:42Z</time>
      </trkpt>
      <trkpt lat="45.9413" lon="6.84728">
        <ele>2174.3108</ele>
        <time>2014-09-02T12:36:47Z</time>
      </trkpt>
      <trkpt lat="45.94126" lon="6.84731">
        <ele>2169.964</ele>
        <time>2014-09-02T12:36:52Z</time>
      </trkpt>
      <trkpt lat="45.94123" lon="6.84732">
        <ele>2169.964</ele>
        <time>2014-09-02T12:36:57Z</time>
      </trkpt>
      <trkpt lat="45.94117" lon="6.84734">
        <ele>2165.5908</ele>
        <time>2014-09-02T12:37:02Z</time>
      </trkpt>
      <trkpt lat="45.94112" lon="6.84736">
        <ele>2165.5908</ele>
        <time>2014-09-02T12:37:07Z</time>
      </trkpt>
      <trkpt lat="45.94107" lon="6.84736">
        <ele>2161.269</ele>
        <time>2014-09-02T12:37:12Z</time>
      </trkpt>
      <trkpt lat="45.94103" lon="6.84736">
        <ele>2161.269</ele>
        <time>2014-09-02T12:37:17Z</time>
      </trkpt>
      <trkpt lat="45.941" lon="6.84738">
        <ele>2161.269</ele>
        <time>2014-09-02T12:37:22Z</time>
      </trkpt>
      <trkpt lat="45.94093" lon="6.8474">
        <ele>2156.6814</ele>
        <time>2014-09-02T12:37:27Z</time>
      </trkpt>
      <trkpt lat="45.94087" lon="6.84741">
        <ele>2156.6814</ele>
        <time>2014-09-02T12:37:32Z</time>
      </trkpt>
      <trkpt lat="45.94082" lon="6.84741">
        <ele>2152.6013</ele>
        <time>2014-09-02T12:37:37Z</time>
      </trkpt>
      <trkpt lat="45.94077" lon="6.84743">
        <ele>2152.6013</ele>
        <time>2014-09-02T12:37:42Z</time>
      </trkpt>
      <trkpt lat="45.94073" lon="6.84745">
        <ele>2152.6013</ele>
        <time>2014-09-02T12:37:47Z</time>
      </trkpt>
      <trkpt lat="45.94068" lon="6.84745">
        <ele>2148.9802</ele>
        <time>2014-09-02T12:37:52Z</time>
      </trkpt>
      <trkpt lat="45.94063" lon="6.84748">
        <ele>2148.9802</ele>
        <time>2014-09-02T12:37:57Z</time>
      </trkpt>
      <trkpt lat="45.94058" lon="6.84749">
        <ele>2145.7856</ele>
        <time>2014-09-02T12:38:02Z</time>
      </trkpt>
      <trkpt lat="45.94053" lon="6.84748">
        <ele>2145.7856</ele>
        <time>2014-09-02T12:38:07Z</time>
      </trkpt>
      <trkpt lat="45.94053" lon="6.84747">
        <ele>2145.7856</ele>
        <time>2014-09-02T12:38:12Z</time>
      </trkpt>
      <trkpt lat="45.94049" lon="6.84749">
        <ele>2142.713</ele>
        <time>2014-09-02T12:38:17Z</time>
      </trkpt>
      <trkpt lat="45.94045" lon="6.8475">
        <ele>2142.713</ele>
        <time>2014-09-02T12:38:22Z</time>
      </trkpt>
      <trkpt lat="45.94041" lon="6.84752">
        <ele>2142.713</ele>
        <time>2014-09-02T12:38:27Z</time>
      </trkpt>
      <trkpt lat="45.94039" lon="6.84755">
        <ele>2139.5513</ele>
        <time>2014-09-02T12:38:32Z</time>
      </trkpt>
      <trkpt lat="45.94033" lon="6.84756">
        <ele>2139.5513</ele>
        <time>2014-09-02T12:38:37Z</time>
      </trkpt>
      <trkpt lat="45.94029" lon="6.84757">
        <ele>2136.8118</ele>
        <time>2014-09-02T12:38:42Z</time>
      </trkpt>
      <trkpt lat="45.94022" lon="6.84757">
        <ele>2136.8118</ele>
        <time>2014-09-02T12:38:47Z</time>
      </trkpt>
      <trkpt lat="45.94019" lon="6.8476">
        <ele>2134.405</ele>
        <time>2014-09-02T12:38:52Z</time>
      </trkpt>
      <trkpt lat="45.94016" lon="6.84764">
        <ele>2134.405</ele>
        <time>2014-09-02T12:38:57Z</time>
      </trkpt>
      <trkpt lat="45.94011" lon="6.84767">
        <ele>2132.232</ele>
        <time>2014-09-02T12:39:02Z</time>
      </trkpt>
      <trkpt lat="45.9401" lon="6.84767">
        <ele>2132.232</ele>
        <time>2014-09-02T12:39:07Z</time>
      </trkpt>
      <trkpt lat="45.9401" lon="6.84767">
        <ele>2132.232</ele>
        <time>2014-09-02T12:39:12Z</time>
      </trkpt>
      <trkpt lat="45.94006" lon="6.8477">
        <ele>2132.232</ele>
        <time>2014-09-02T12:39:27Z</time>
      </trkpt>
      <trkpt lat="45.94004" lon="6.84771">
        <ele>2132.232</ele>
        <time>2014-09-02T12:39:32Z</time>
      </trkpt>
      <trkpt lat="45.94002" lon="6.84773">
        <ele>2130.345</ele>
        <time>2014-09-02T12:39:37Z</time>
      </trkpt>
      <trkpt lat="45.93998" lon="6.84776">
        <ele>2130.345</ele>
        <time>2014-09-02T12:39:42Z</time>
      </trkpt>
      <trkpt lat="45.93993" lon="6.84773">
        <ele>2128.7197</ele>
        <time>2014-09-02T12:39:47Z</time>
      </trkpt>
      <trkpt lat="45.93987" lon="6.84774">
        <ele>2128.7197</ele>
        <time>2014-09-02T12:39:52Z</time>
      </trkpt>
      <trkpt lat="45.93985" lon="6.84778">
        <ele>2128.7197</ele>
        <time>2014-09-02T12:39:57Z</time>
      </trkpt>
      <trkpt lat="45.93984" lon="6.8478">
        <ele>2127.2314</ele>
        <time>2014-09-02T12:40:02Z</time>
      </trkpt>
      <trkpt lat="45.93983" lon="6.84784">
        <ele>2127.2314</ele>
        <time>2014-09-02T12:40:07Z</time>
      </trkpt>
      <trkpt lat="45.93981" lon="6.84787">
        <ele>2127.2314</ele>
        <time>2014-09-02T12:40:12Z</time>
      </trkpt>
      <trkpt lat="45.93974" lon="6.84787">
        <ele>2125.8804</ele>
        <time>2014-09-02T12:40:17Z</time>
      </trkpt>
      <trkpt lat="45.93969" lon="6.84788">
        <ele>2125.8804</ele>
        <time>2014-09-02T12:40:22Z</time>
      </trkpt>
      <trkpt lat="45.93964" lon="6.84789">
        <ele>2124.8384</ele>
        <time>2014-09-02T12:40:27Z</time>
      </trkpt>
      <trkpt lat="45.93959" lon="6.8479">
        <ele>2124.8384</ele>
        <time>2014-09-02T12:40:32Z</time>
      </trkpt>
      <trkpt lat="45.93955" lon="6.84792">
        <ele>2124.0193</ele>
        <time>2014-09-02T12:40:37Z</time>
      </trkpt>
      <trkpt lat="45.9395" lon="6.84793">
        <ele>2124.0193</ele>
        <time>2014-09-02T12:40:42Z</time>
      </trkpt>
      <trkpt lat="45.93946" lon="6.84794">
        <ele>2124.0193</ele>
        <time>2014-09-02T12:40:47Z</time>
      </trkpt>
      <trkpt lat="45.93944" lon="6.84795">
        <ele>2123.0544</ele>
        <time>2014-09-02T12:40:52Z</time>
      </trkpt>
      <trkpt lat="45.93942" lon="6.84797">
        <ele>2123.0544</ele>
        <time>2014-09-02T12:40:57Z</time>
      </trkpt>
      <trkpt lat="45.93939" lon="6.84799">
        <ele>2123.0544</ele>
        <time>2014-09-02T12:41:02Z</time>
      </trkpt>
      <trkpt lat="45.93938" lon="6.84802">
        <ele>2123.0544</ele>
        <time>2014-09-02T12:41:07Z</time>
      </trkpt>
      <trkpt lat="45.93938" lon="6.84805">
        <ele>2121.8481</ele>
        <time>2014-09-02T12:41:12Z</time>
      </trkpt>
      <trkpt lat="45.93934" lon="6.84812">
        <ele>2121.8481</ele>
        <time>2014-09-02T12:41:17Z</time>
      </trkpt>
      <trkpt lat="45.93929" lon="6.84813">
        <ele>2120.47</ele>
        <time>2014-09-02T12:41:22Z</time>
      </trkpt>
      <trkpt lat="45.93926" lon="6.84818">
        <ele>2120.47</ele>
        <time>2014-09-02T12:41:27Z</time>
      </trkpt>
      <trkpt lat="45.93923" lon="6.8482">
        <ele>2120.47</ele>
        <time>2014-09-02T12:41:32Z</time>
      </trkpt>
      <trkpt lat="45.9392" lon="6.84821">
        <ele>2118.6548</ele>
        <time>2014-09-02T12:41:37Z</time>
      </trkpt>
      <trkpt lat="45.93917" lon="6.84821">
        <ele>2118.6548</ele>
        <time>2014-09-02T12:41:42Z</time>
      </trkpt>
      <trkpt lat="45.93914" lon="6.84822">
        <ele>2118.6548</ele>
        <time>2014-09-02T12:41:47Z</time>
      </trkpt>
      <trkpt lat="45.93912" lon="6.84822">
        <ele>2118.6548</ele>
        <time>2014-09-02T12:41:52Z</time>
      </trkpt>
      <trkpt lat="45.93911" lon="6.84824">
        <ele>2116.359</ele>
        <time>2014-09-02T12:41:57Z</time>
      </trkpt>
      <trkpt lat="45.93908" lon="6.84829">
        <ele>2116.359</ele>
        <time>2014-09-02T12:42:02Z</time>
      </trkpt>
      <trkpt lat="45.93903" lon="6.84833">
        <ele>2114.048</ele>
        <time>2014-09-02T12:42:07Z</time>
      </trkpt>
      <trkpt lat="45.93899" lon="6.84836">
        <ele>2114.048</ele>
        <time>2014-09-02T12:42:12Z</time>
      </trkpt>
      <trkpt lat="45.93895" lon="6.8484">
        <ele>2111.9236</ele>
        <time>2014-09-02T12:42:17Z</time>
      </trkpt>
      <trkpt lat="45.93894" lon="6.84841">
        <ele>2111.9236</ele>
        <time>2014-09-02T12:42:22Z</time>
      </trkpt>
      <trkpt lat="45.9389" lon="6.84845">
        <ele>2111.9236</ele>
        <time>2014-09-02T12:42:27Z</time>
      </trkpt>
      <trkpt lat="45.93886" lon="6.84846">
        <ele>2109.768</ele>
        <time>2014-09-02T12:42:32Z</time>
      </trkpt>
      <trkpt lat="45.93881" lon="6.84848">
        <ele>2109.768</ele>
        <time>2014-09-02T12:42:37Z</time>
      </trkpt>
      <trkpt lat="45.93877" lon="6.84849">
        <ele>2107.5527</ele>
        <time>2014-09-02T12:42:42Z</time>
      </trkpt>
      <trkpt lat="45.93875" lon="6.84851">
        <ele>2107.5527</ele>
        <time>2014-09-02T12:42:47Z</time>
      </trkpt>
      <trkpt lat="45.93874" lon="6.84854">
        <ele>2107.5527</ele>
        <time>2014-09-02T12:42:52Z</time>
      </trkpt>
      <trkpt lat="45.93872" lon="6.84857">
        <ele>2107.5527</ele>
        <time>2014-09-02T12:42:57Z</time>
      </trkpt>
      <trkpt lat="45.93868" lon="6.84857">
        <ele>2104.8914</ele>
        <time>2014-09-02T12:43:02Z</time>
      </trkpt>
      <trkpt lat="45.93868" lon="6.84856">
        <ele>2104.8914</ele>
        <time>2014-09-02T12:43:07Z</time>
      </trkpt>
      <trkpt lat="45.93864" lon="6.84858">
        <ele>2104.8914</ele>
        <time>2014-09-02T12:43:12Z</time>
      </trkpt>
      <trkpt lat="45.93864" lon="6.84861">
        <ele>2104.8914</ele>
        <time>2014-09-02T12:43:17Z</time>
      </trkpt>
      <trkpt lat="45.93866" lon="6.84862">
        <ele>2104.8914</ele>
        <time>2014-09-02T12:43:22Z</time>
      </trkpt>
      <trkpt lat="45.93868" lon="6.84862">
        <ele>2102.234</ele>
        <time>2014-09-02T12:43:27Z</time>
      </trkpt>
      <trkpt lat="45.93867" lon="6.84868">
        <ele>2102.234</ele>
        <time>2014-09-02T12:43:32Z</time>
      </trkpt>
      <trkpt lat="45.93864" lon="6.84869">
        <ele>2102.234</ele>
        <time>2014-09-02T12:43:37Z</time>
      </trkpt>
      <trkpt lat="45.93861" lon="6.84871">
        <ele>2099.782</ele>
        <time>2014-09-02T12:43:42Z</time>
      </trkpt>
      <trkpt lat="45.93858" lon="6.84871">
        <ele>2099.782</ele>
        <time>2014-09-02T12:43:47Z</time>
      </trkpt>
      <trkpt lat="45.93854" lon="6.84871">
        <ele>2099.782</ele>
        <time>2014-09-02T12:43:52Z</time>
      </trkpt>
      <trkpt lat="45.9385" lon="6.84871">
        <ele>2097.4043</ele>
        <time>2014-09-02T12:43:57Z</time>
      </trkpt>
      <trkpt lat="45.93849" lon="6.84871">
        <ele>2097.4043</ele>
        <time>2014-09-02T12:44:02Z</time>
      </trkpt>
      <trkpt lat="45.93851" lon="6.84875">
        <ele>2097.4043</ele>
        <time>2014-09-02T12:44:07Z</time>
      </trkpt>
      <trkpt lat="45.93852" lon="6.84875">
        <ele>2097.4043</ele>
        <time>2014-09-02T12:44:12Z</time>
      </trkpt>
      <trkpt lat="45.93853" lon="6.84876">
        <ele>2097.4043</ele>
        <time>2014-09-02T12:44:17Z</time>
      </trkpt>
      <trkpt lat="45.93854" lon="6.84878">
        <ele>2097.4043</ele>
        <time>2014-09-02T12:44:22Z</time>
      </trkpt>
      <trkpt lat="45.93851" lon="6.84882">
        <ele>2095.1665</ele>
        <time>2014-09-02T12:44:27Z</time>
      </trkpt>
      <trkpt lat="45.93847" lon="6.84881">
        <ele>2095.1665</ele>
        <time>2014-09-02T12:44:32Z</time>
      </trkpt>
      <trkpt lat="45.93842" lon="6.84877">
        <ele>2092.942</ele>
        <time>2014-09-02T12:44:37Z</time>
      </trkpt>
      <trkpt lat="45.9384" lon="6.84878">
        <ele>2092.942</ele>
        <time>2014-09-02T12:44:42Z</time>
      </trkpt>
      <trkpt lat="45.93836" lon="6.84879">
        <ele>2092.942</ele>
        <time>2014-09-02T12:44:47Z</time>
      </trkpt>
      <trkpt lat="45.93834" lon="6.84881">
        <ele>2092.942</ele>
        <time>2014-09-02T12:44:52Z</time>
      </trkpt>
      <trkpt lat="45.93831" lon="6.8488">
        <ele>2090.4111</ele>
        <time>2014-09-02T12:44:57Z</time>
      </trkpt>
      <trkpt lat="45.93825" lon="6.8488">
        <ele>2090.4111</ele>
        <time>2014-09-02T12:45:02Z</time>
      </trkpt>
      <trkpt lat="45.93822" lon="6.8488">
        <ele>2090.4111</ele>
        <time>2014-09-02T12:45:07Z</time>
      </trkpt>
      <trkpt lat="45.93822" lon="6.8488">
        <ele>2090.4111</ele>
        <time>2014-09-02T12:45:12Z</time>
      </trkpt>
      <trkpt lat="45.93822" lon="6.8488">
        <ele>2090.4111</ele>
        <time>2014-09-02T12:45:27Z</time>
      </trkpt>
      <trkpt lat="45.93822" lon="6.84879">
        <ele>2087.9424</ele>
        <time>2014-09-02T12:45:32Z</time>
      </trkpt>
      <trkpt lat="45.93823" lon="6.84878">
        <ele>2087.9424</ele>
        <time>2014-09-02T12:45:37Z</time>
      </trkpt>
      <trkpt lat="45.93823" lon="6.84879">
        <ele>2087.9424</ele>
        <time>2014-09-02T12:45:42Z</time>
      </trkpt>
      <trkpt lat="45.93824" lon="6.84878">
        <ele>2087.9424</ele>
        <time>2014-09-02T12:45:47Z</time>
      </trkpt>
      <trkpt lat="45.93824" lon="6.84877">
        <ele>2087.9424</ele>
        <time>2014-09-02T12:45:52Z</time>
      </trkpt>
      <trkpt lat="45.93824" lon="6.84876">
        <ele>2087.9424</ele>
        <time>2014-09-02T12:45:57Z</time>
      </trkpt>
      <trkpt lat="45.93824" lon="6.84876">
        <ele>2087.9424</ele>
        <time>2014-09-02T12:46:02Z</time>
      </trkpt>
      <trkpt lat="45.93824" lon="6.84876">
        <ele>2087.9424</ele>
        <time>2014-09-02T12:46:07Z</time>
      </trkpt>
      <trkpt lat="45.93824" lon="6.84878">
        <ele>2087.9424</ele>
        <time>2014-09-02T12:46:12Z</time>
      </trkpt>
      <trkpt lat="45.93824" lon="6.84878">
        <ele>2087.9424</ele>
        <time>2014-09-02T12:46:17Z</time>
      </trkpt>
      <trkpt lat="45.93823" lon="6.84878">
        <ele>2087.9424</ele>
        <time>2014-09-02T12:46:22Z</time>
      </trkpt>
      <trkpt lat="45.93823" lon="6.84878">
        <ele>2087.9424</ele>
        <time>2014-09-02T12:46:27Z</time>
      </trkpt>
      <trkpt lat="45.93823" lon="6.84878">
        <ele>2087.9424</ele>
        <time>2014-09-02T12:46:32Z</time>
      </trkpt>
      <trkpt lat="45.93823" lon="6.84877">
        <ele>2087.9424</ele>
        <time>2014-09-02T12:46:37Z</time>
      </trkpt>
      <trkpt lat="45.93823" lon="6.84878">
        <ele>2087.9424</ele>
        <time>2014-09-02T12:46:42Z</time>
      </trkpt>
      <trkpt lat="45.93823" lon="6.84879">
        <ele>2087.9424</ele>
        <time>2014-09-02T12:46:47Z</time>
      </trkpt>
      <trkpt lat="45.93824" lon="6.8488">
        <ele>2085.5596</ele>
        <time>2014-09-02T12:46:52Z</time>
      </trkpt>
      <trkpt lat="45.93824" lon="6.8488">
        <ele>2085.5596</ele>
        <time>2014-09-02T12:46:57Z</time>
      </trkpt>
      <trkpt lat="45.93825" lon="6.84879">
        <ele>2085.5596</ele>
        <time>2014-09-02T12:47:02Z</time>
      </trkpt>
      <trkpt lat="45.93824" lon="6.8488">
        <ele>2085.5596</ele>
        <time>2014-09-02T12:47:07Z</time>
      </trkpt>
      <trkpt lat="45.93824" lon="6.84879">
        <ele>2085.5596</ele>
        <time>2014-09-02T12:47:12Z</time>
      </trkpt>
      <trkpt lat="45.93824" lon="6.8488">
        <ele>2085.5596</ele>
        <time>2014-09-02T12:47:17Z</time>
      </trkpt>
      <trkpt lat="45.93824" lon="6.8488">
        <ele>2085.5596</ele>
        <time>2014-09-02T12:47:22Z</time>
      </trkpt>
      <trkpt lat="45.93825" lon="6.84879">
        <ele>2085.5596</ele>
        <time>2014-09-02T12:47:27Z</time>
      </trkpt>
      <trkpt lat="45.93825" lon="6.84877">
        <ele>2085.5596</ele>
        <time>2014-09-02T12:47:32Z</time>
      </trkpt>
      <trkpt lat="45.93826" lon="6.84876">
        <ele>2085.5596</ele>
        <time>2014-09-02T12:47:37Z</time>
      </trkpt>
      <trkpt lat="45.93826" lon="6.84875">
        <ele>2085.5596</ele>
        <time>2014-09-02T12:47:42Z</time>
      </trkpt>
      <trkpt lat="45.93826" lon="6.84875">
        <ele>2085.5596</ele>
        <time>2014-09-02T12:47:47Z</time>
      </trkpt>
      <trkpt lat="45.93826" lon="6.84876">
        <ele>2085.5596</ele>
        <time>2014-09-02T12:47:52Z</time>
      </trkpt>
      <trkpt lat="45.93825" lon="6.84876">
        <ele>2085.5596</ele>
        <time>2014-09-02T12:47:57Z</time>
      </trkpt>
      <trkpt lat="45.93825" lon="6.84876">
        <ele>2085.5596</ele>
        <time>2014-09-02T12:48:02Z</time>
      </trkpt>
      <trkpt lat="45.93824" lon="6.84875">
        <ele>2082.8088</ele>
        <time>2014-09-02T12:48:07Z</time>
      </trkpt>
      <trkpt lat="45.93824" lon="6.84875">
        <ele>2082.8088</ele>
        <time>2014-09-02T12:48:12Z</time>
      </trkpt>
      <trkpt lat="45.93824" lon="6.84875">
        <ele>2082.8088</ele>
        <time>2014-09-02T12:48:17Z</time>
      </trkpt>
      <trkpt lat="45.93825" lon="6.84874">
        <ele>2082.8088</ele>
        <time>2014-09-02T12:48:22Z</time>
      </trkpt>
      <trkpt lat="45.93825" lon="6.84875">
        <ele>2082.8088</ele>
        <time>2014-09-02T12:48:27Z</time>
      </trkpt>
      <trkpt lat="45.93823" lon="6.84879">
        <ele>2082.8088</ele>
        <time>2014-09-02T12:48:32Z</time>
      </trkpt>
      <trkpt lat="45.93822" lon="6.84883">
        <ele>2082.8088</ele>
        <time>2014-09-02T12:48:37Z</time>
      </trkpt>
      <trkpt lat="45.93822" lon="6.84886">
        <ele>2080.035</ele>
        <time>2014-09-02T12:48:42Z</time>
      </trkpt>
      <trkpt lat="45.93823" lon="6.84889">
        <ele>2080.035</ele>
        <time>2014-09-02T12:48:47Z</time>
      </trkpt>
      <trkpt lat="45.93818" lon="6.84893">
        <ele>2080.035</ele>
        <time>2014-09-02T12:48:52Z</time>
      </trkpt>
      <trkpt lat="45.93816" lon="6.84898">
        <ele>2077.4998</ele>
        <time>2014-09-02T12:48:57Z</time>
      </trkpt>
      <trkpt lat="45.93812" lon="6.84903">
        <ele>2077.4998</ele>
        <time>2014-09-02T12:49:02Z</time>
      </trkpt>
      <trkpt lat="45.9381" lon="6.84907">
        <ele>2077.4998</ele>
        <time>2014-09-02T12:49:07Z</time>
      </trkpt>
      <trkpt lat="45.93807" lon="6.8491">
        <ele>2074.8542</ele>
        <time>2014-09-02T12:49:12Z</time>
      </trkpt>
      <trkpt lat="45.93805" lon="6.84912">
        <ele>2074.8542</ele>
        <time>2014-09-02T12:49:17Z</time>
      </trkpt>
      <trkpt lat="45.93801" lon="6.84915">
        <ele>2074.8542</ele>
        <time>2014-09-02T12:49:22Z</time>
      </trkpt>
      <trkpt lat="45.93797" lon="6.84917">
        <ele>2071.977</ele>
        <time>2014-09-02T12:49:27Z</time>
      </trkpt>
      <trkpt lat="45.93795" lon="6.8492">
        <ele>2071.977</ele>
        <time>2014-09-02T12:49:32Z</time>
      </trkpt>
      <trkpt lat="45.9379" lon="6.84925">
        <ele>2071.977</ele>
        <time>2014-09-02T12:49:37Z</time>
      </trkpt>
      <trkpt lat="45.93787" lon="6.84929">
        <ele>2069.0737</ele>
        <time>2014-09-02T12:49:42Z</time>
      </trkpt>
      <trkpt lat="45.93783" lon="6.84936">
        <ele>2069.0737</ele>
        <time>2014-09-02T12:49:47Z</time>
      </trkpt>
      <trkpt lat="45.9378" lon="6.84939">
        <ele>2066.3347</ele>
        <time>2014-09-02T12:49:52Z</time>
      </trkpt>
      <trkpt lat="45.93777" lon="6.8494">
        <ele>2066.3347</ele>
        <time>2014-09-02T12:49:57Z</time>
      </trkpt>
      <trkpt lat="45.93773" lon="6.84941">
        <ele>2066.3347</ele>
        <time>2014-09-02T12:50:02Z</time>
      </trkpt>
      <trkpt lat="45.93767" lon="6.84943">
        <ele>2063.4746</ele>
        <time>2014-09-02T12:50:07Z</time>
      </trkpt>
      <trkpt lat="45.93766" lon="6.84944">
        <ele>2063.4746</ele>
        <time>2014-09-02T12:50:12Z</time>
      </trkpt>
      <trkpt lat="45.93765" lon="6.84945">
        <ele>2063.4746</ele>
        <time>2014-09-02T12:50:22Z</time>
      </trkpt>
      <trkpt lat="45.93764" lon="6.84944">
        <ele>2063.4746</ele>
        <time>2014-09-02T12:50:27Z</time>
      </trkpt>
      <trkpt lat="45.9376" lon="6.84936">
        <ele>2060.9648</ele>
        <time>2014-09-02T12:50:32Z</time>
      </trkpt>
      <trkpt lat="45.93756" lon="6.84931">
        <ele>2060.9648</ele>
        <time>2014-09-02T12:50:37Z</time>
      </trkpt>
      <trkpt lat="45.9375" lon="6.84925">
        <ele>2058.5781</ele>
        <time>2014-09-02T12:50:42Z</time>
      </trkpt>
      <trkpt lat="45.93745" lon="6.84921">
        <ele>2058.5781</ele>
        <time>2014-09-02T12:50:47Z</time>
      </trkpt>
      <trkpt lat="45.93746" lon="6.84936">
        <ele>2056.4202</ele>
        <time>2014-09-02T12:50:52Z</time>
      </trkpt>
      <trkpt lat="45.93747" lon="6.84949">
        <ele>2054.5889</ele>
        <time>2014-09-02T12:50:57Z</time>
      </trkpt>
      <trkpt lat="45.93748" lon="6.84954">
        <ele>2054.5889</ele>
        <time>2014-09-02T12:51:02Z</time>
      </trkpt>
      <trkpt lat="45.93746" lon="6.84956">
        <ele>2054.5889</ele>
        <time>2014-09-02T12:51:07Z</time>
      </trkpt>
      <trkpt lat="45.93742" lon="6.84952">
        <ele>2052.9</ele>
        <time>2014-09-02T12:51:12Z</time>
      </trkpt>
      <trkpt lat="45.93739" lon="6.84948">
        <ele>2052.9</ele>
        <time>2014-09-02T12:51:17Z</time>
      </trkpt>
      <trkpt lat="45.93736" lon="6.84943">
        <ele>2052.9</ele>
        <time>2014-09-02T12:51:22Z</time>
      </trkpt>
      <trkpt lat="45.93736" lon="6.84949">
        <ele>2051.038</ele>
        <time>2014-09-02T12:51:27Z</time>
      </trkpt>
      <trkpt lat="45.93736" lon="6.84959">
        <ele>2051.038</ele>
        <time>2014-09-02T12:51:32Z</time>
      </trkpt>
      <trkpt lat="45.93734" lon="6.84954">
        <ele>2049.3604</ele>
        <time>2014-09-02T12:51:37Z</time>
      </trkpt>
      <trkpt lat="45.93732" lon="6.84943">
        <ele>2049.3604</ele>
        <time>2014-09-02T12:51:42Z</time>
      </trkpt>
      <trkpt lat="45.9373" lon="6.84937">
        <ele>2047.6495</ele>
        <time>2014-09-02T12:51:47Z</time>
      </trkpt>
      <trkpt lat="45.93727" lon="6.84937">
        <ele>2047.6495</ele>
        <time>2014-09-02T12:51:52Z</time>
      </trkpt>
      <trkpt lat="45.93725" lon="6.84945">
        <ele>2047.6495</ele>
        <time>2014-09-02T12:51:57Z</time>
      </trkpt>
      <trkpt lat="45.93722" lon="6.84955">
        <ele>2045.9491</ele>
        <time>2014-09-02T12:52:02Z</time>
      </trkpt>
      <trkpt lat="45.93721" lon="6.84961">
        <ele>2045.9491</ele>
        <time>2014-09-02T12:52:07Z</time>
      </trkpt>
      <trkpt lat="45.93718" lon="6.84955">
        <ele>2044.3429</ele>
        <time>2014-09-02T12:52:12Z</time>
      </trkpt>
      <trkpt lat="45.93718" lon="6.84947">
        <ele>2044.3429</ele>
        <time>2014-09-02T12:52:17Z</time>
      </trkpt>
      <trkpt lat="45.93717" lon="6.84939">
        <ele>2042.2887</ele>
        <time>2014-09-02T12:52:22Z</time>
      </trkpt>
      <trkpt lat="45.93713" lon="6.84931">
        <ele>2042.2887</ele>
        <time>2014-09-02T12:52:27Z</time>
      </trkpt>
      <trkpt lat="45.9371" lon="6.84936">
        <ele>2040.0922</ele>
        <time>2014-09-02T12:52:32Z</time>
      </trkpt>
      <trkpt lat="45.93706" lon="6.84942">
        <ele>2040.0922</ele>
        <time>2014-09-02T12:52:37Z</time>
      </trkpt>
      <trkpt lat="45.93702" lon="6.84946">
        <ele>2037.8643</ele>
        <time>2014-09-02T12:52:42Z</time>
      </trkpt>
      <trkpt lat="45.93699" lon="6.84949">
        <ele>2037.8643</ele>
        <time>2014-09-02T12:52:47Z</time>
      </trkpt>
      <trkpt lat="45.93697" lon="6.84954">
        <ele>2037.8643</ele>
        <time>2014-09-02T12:52:52Z</time>
      </trkpt>
      <trkpt lat="45.93696" lon="6.84957">
        <ele>2035.6503</ele>
        <time>2014-09-02T12:52:57Z</time>
      </trkpt>
      <trkpt lat="45.93695" lon="6.84961">
        <ele>2035.6503</ele>
        <time>2014-09-02T12:53:02Z</time>
      </trkpt>
      <trkpt lat="45.93695" lon="6.84961">
        <ele>2035.6503</ele>
        <time>2014-09-02T12:53:07Z</time>
      </trkpt>
      <trkpt lat="45.93692" lon="6.84968">
        <ele>2035.6503</ele>
        <time>2014-09-02T12:53:17Z</time>
      </trkpt>
      <trkpt lat="45.93691" lon="6.84972">
        <ele>2033.8523</ele>
        <time>2014-09-02T12:53:22Z</time>
      </trkpt>
      <trkpt lat="45.93691" lon="6.84978">
        <ele>2033.8523</ele>
        <time>2014-09-02T12:53:27Z</time>
      </trkpt>
      <trkpt lat="45.93692" lon="6.84991">
        <ele>2032.1934</ele>
        <time>2014-09-02T12:53:32Z</time>
      </trkpt>
      <trkpt lat="45.93691" lon="6.85">
        <ele>2032.1934</ele>
        <time>2014-09-02T12:53:37Z</time>
      </trkpt>
      <trkpt lat="45.93688" lon="6.85006">
        <ele>2030.5895</ele>
        <time>2014-09-02T12:53:42Z</time>
      </trkpt>
      <trkpt lat="45.93685" lon="6.8501">
        <ele>2030.5895</ele>
        <time>2014-09-02T12:53:47Z</time>
      </trkpt>
      <trkpt lat="45.9368" lon="6.8501">
        <ele>2028.8328</ele>
        <time>2014-09-02T12:53:52Z</time>
      </trkpt>
      <trkpt lat="45.93674" lon="6.85012">
        <ele>2028.8328</ele>
        <time>2014-09-02T12:53:57Z</time>
      </trkpt>
      <trkpt lat="45.9367" lon="6.85014">
        <ele>2026.962</ele>
        <time>2014-09-02T12:54:02Z</time>
      </trkpt>
      <trkpt lat="45.93666" lon="6.85015">
        <ele>2026.962</ele>
        <time>2014-09-02T12:54:07Z</time>
      </trkpt>
      <trkpt lat="45.93661" lon="6.85017">
        <ele>2026.962</ele>
        <time>2014-09-02T12:54:12Z</time>
      </trkpt>
      <trkpt lat="45.93655" lon="6.85018">
        <ele>2024.9701</ele>
        <time>2014-09-02T12:54:17Z</time>
      </trkpt>
      <trkpt lat="45.9365" lon="6.85018">
        <ele>2024.9701</ele>
        <time>2014-09-02T12:54:22Z</time>
      </trkpt>
      <trkpt lat="45.93646" lon="6.85018">
        <ele>2024.9701</ele>
        <time>2014-09-02T12:54:27Z</time>
      </trkpt>
      <trkpt lat="45.93642" lon="6.8502">
        <ele>2022.7354</ele>
        <time>2014-09-02T12:54:32Z</time>
      </trkpt>
      <trkpt lat="45.9364" lon="6.85015">
        <ele>2022.7354</ele>
        <time>2014-09-02T12:54:37Z</time>
      </trkpt>
      <trkpt lat="45.93642" lon="6.8501">
        <ele>2022.7354</ele>
        <time>2014-09-02T12:54:42Z</time>
      </trkpt>
      <trkpt lat="45.93646" lon="6.85004">
        <ele>2019.9731</ele>
        <time>2014-09-02T12:54:47Z</time>
      </trkpt>
      <trkpt lat="45.93651" lon="6.84996">
        <ele>2019.9731</ele>
        <time>2014-09-02T12:54:52Z</time>
      </trkpt>
      <trkpt lat="45.93656" lon="6.84989">
        <ele>2017.1993</ele>
        <time>2014-09-02T12:54:57Z</time>
      </trkpt>
      <trkpt lat="45.9366" lon="6.84983">
        <ele>2017.1993</ele>
        <time>2014-09-02T12:55:02Z</time>
      </trkpt>
      <trkpt lat="45.93664" lon="6.84976">
        <ele>2014.6036</ele>
        <time>2014-09-02T12:55:07Z</time>
      </trkpt>
      <trkpt lat="45.93667" lon="6.84973">
        <ele>2014.6036</ele>
        <time>2014-09-02T12:55:12Z</time>
      </trkpt>
      <trkpt lat="45.93668" lon="6.84968">
        <ele>2014.6036</ele>
        <time>2014-09-02T12:55:17Z</time>
      </trkpt>
      <trkpt lat="45.93666" lon="6.84965">
        <ele>2012.131</ele>
        <time>2014-09-02T12:55:22Z</time>
      </trkpt>
      <trkpt lat="45.93661" lon="6.84969">
        <ele>2012.131</ele>
        <time>2014-09-02T12:55:27Z</time>
      </trkpt>
      <trkpt lat="45.93655" lon="6.84972">
        <ele>2009.6578</ele>
        <time>2014-09-02T12:55:32Z</time>
      </trkpt>
      <trkpt lat="45.9365" lon="6.84976">
        <ele>2009.6578</ele>
        <time>2014-09-02T12:55:37Z</time>
      </trkpt>
      <trkpt lat="45.93645" lon="6.84977">
        <ele>2007.1993</ele>
        <time>2014-09-02T12:55:42Z</time>
      </trkpt>
      <trkpt lat="45.93643" lon="6.84978">
        <ele>2007.1993</ele>
        <time>2014-09-02T12:55:47Z</time>
      </trkpt>
      <trkpt lat="45.93641" lon="6.84979">
        <ele>2007.1993</ele>
        <time>2014-09-02T12:55:52Z</time>
      </trkpt>
      <trkpt lat="45.93635" lon="6.84982">
        <ele>2004.5104</ele>
        <time>2014-09-02T12:55:57Z</time>
      </trkpt>
      <trkpt lat="45.93631" lon="6.84984">
        <ele>2004.5104</ele>
        <time>2014-09-02T12:56:02Z</time>
      </trkpt>
      <trkpt lat="45.9363" lon="6.84986">
        <ele>2004.5104</ele>
        <time>2014-09-02T12:56:07Z</time>
      </trkpt>
      <trkpt lat="45.93629" lon="6.84983">
        <ele>2004.5104</ele>
        <time>2014-09-02T12:56:12Z</time>
      </trkpt>
      <trkpt lat="45.93631" lon="6.8498">
        <ele>2001.6669</ele>
        <time>2014-09-02T12:56:17Z</time>
      </trkpt>
      <trkpt lat="45.93631" lon="6.8498">
        <ele>2001.6669</ele>
        <time>2014-09-02T12:56:22Z</time>
      </trkpt>
      <trkpt lat="45.93633" lon="6.84979">
        <ele>2001.6669</ele>
        <time>2014-09-02T12:56:47Z</time>
      </trkpt>
      <trkpt lat="45.93635" lon="6.84975">
        <ele>2001.6669</ele>
        <time>2014-09-02T12:56:52Z</time>
      </trkpt>
      <trkpt lat="45.93638" lon="6.84972">
        <ele>1997.6301</ele>
        <time>2014-09-02T12:56:57Z</time>
      </trkpt>
      <trkpt lat="45.93641" lon="6.84968">
        <ele>1997.6301</ele>
        <time>2014-09-02T12:57:02Z</time>
      </trkpt>
      <trkpt lat="45.93644" lon="6.84963">
        <ele>1997.6301</ele>
        <time>2014-09-02T12:57:07Z</time>
      </trkpt>
      <trkpt lat="45.93644" lon="6.84962">
        <ele>1993.4441</ele>
        <time>2014-09-02T12:57:12Z</time>
      </trkpt>
      <trkpt lat="45.93649" lon="6.84955">
        <ele>1993.4441</ele>
        <time>2014-09-02T12:57:17Z</time>
      </trkpt>
      <trkpt lat="45.9365" lon="6.84953">
        <ele>1993.4441</ele>
        <time>2014-09-02T12:57:22Z</time>
      </trkpt>
      <trkpt lat="45.93651" lon="6.84947">
        <ele>1989.4136</ele>
        <time>2014-09-02T12:57:27Z</time>
      </trkpt>
      <trkpt lat="45.93651" lon="6.84944">
        <ele>1989.4136</ele>
        <time>2014-09-02T12:57:32Z</time>
      </trkpt>
      <trkpt lat="45.93651" lon="6.84942">
        <ele>1989.4136</ele>
        <time>2014-09-02T12:57:37Z</time>
      </trkpt>
      <trkpt lat="45.9365" lon="6.8494">
        <ele>1989.4136</ele>
        <time>2014-09-02T12:57:42Z</time>
      </trkpt>
      <trkpt lat="45.93652" lon="6.84935">
        <ele>1989.4136</ele>
        <time>2014-09-02T12:57:47Z</time>
      </trkpt>
      <trkpt lat="45.93653" lon="6.84929">
        <ele>1985.1865</ele>
        <time>2014-09-02T12:57:52Z</time>
      </trkpt>
      <trkpt lat="45.93652" lon="6.84927">
        <ele>1985.1865</ele>
        <time>2014-09-02T12:57:57Z</time>
      </trkpt>
      <trkpt lat="45.93651" lon="6.84917">
        <ele>1985.1865</ele>
        <time>2014-09-02T12:58:02Z</time>
      </trkpt>
      <trkpt lat="45.9365" lon="6.84914">
        <ele>1981.9646</ele>
        <time>2014-09-02T12:58:07Z</time>
      </trkpt>
      <trkpt lat="45.93649" lon="6.84911">
        <ele>1981.9646</ele>
        <time>2014-09-02T12:58:12Z</time>
      </trkpt>
      <trkpt lat="45.93647" lon="6.8491">
        <ele>1981.9646</ele>
        <time>2014-09-02T12:58:17Z</time>
      </trkpt>
      <trkpt lat="45.93647" lon="6.84906">
        <ele>1981.9646</ele>
        <time>2014-09-02T12:58:22Z</time>
      </trkpt>
      <trkpt lat="45.93645" lon="6.84905">
        <ele>1980.0083</ele>
        <time>2014-09-02T12:58:27Z</time>
      </trkpt>
      <trkpt lat="45.93645" lon="6.84905">
        <ele>1980.0083</ele>
        <time>2014-09-02T12:58:32Z</time>
      </trkpt>
      <trkpt lat="45.93645" lon="6.84906">
        <ele>1980.0083</ele>
        <time>2014-09-02T12:58:42Z</time>
      </trkpt>
      <trkpt lat="45.93642" lon="6.8491">
        <ele>1980.0083</ele>
        <time>2014-09-02T12:58:47Z</time>
      </trkpt>
      <trkpt lat="45.9364" lon="6.84916">
        <ele>1977.8693</ele>
        <time>2014-09-02T12:58:52Z</time>
      </trkpt>
      <trkpt lat="45.9364" lon="6.84917">
        <ele>1977.8693</ele>
        <time>2014-09-02T12:58:57Z</time>
      </trkpt>
      <trkpt lat="45.93639" lon="6.84926">
        <ele>1977.8693</ele>
        <time>2014-09-02T12:59:07Z</time>
      </trkpt>
      <trkpt lat="45.93637" lon="6.84932">
        <ele>1975.7909</ele>
        <time>2014-09-02T12:59:12Z</time>
      </trkpt>
      <trkpt lat="45.93634" lon="6.84938">
        <ele>1975.7909</ele>
        <time>2014-09-02T12:59:17Z</time>
      </trkpt>
      <trkpt lat="45.93629" lon="6.84939">
        <ele>1973.4513</ele>
        <time>2014-09-02T12:59:22Z</time>
      </trkpt>
      <trkpt lat="45.93625" lon="6.84941">
        <ele>1973.4513</ele>
        <time>2014-09-02T12:59:27Z</time>
      </trkpt>
      <trkpt lat="45.93625" lon="6.84941">
        <ele>1973.4513</ele>
        <time>2014-09-02T12:59:32Z</time>
      </trkpt>
      <trkpt lat="45.93624" lon="6.84941">
        <ele>1973.4513</ele>
        <time>2014-09-02T12:59:37Z</time>
      </trkpt>
      <trkpt lat="45.93622" lon="6.84939">
        <ele>1973.4513</ele>
        <time>2014-09-02T12:59:42Z</time>
      </trkpt>
      <trkpt lat="45.93618" lon="6.8494">
        <ele>1969.933</ele>
        <time>2014-09-02T12:59:47Z</time>
      </trkpt>
      <trkpt lat="45.93613" lon="6.84945">
        <ele>1969.933</ele>
        <time>2014-09-02T12:59:52Z</time>
      </trkpt>
      <trkpt lat="45.93611" lon="6.84947">
        <ele>1966.1906</ele>
        <time>2014-09-02T12:59:57Z</time>
      </trkpt>
      <trkpt lat="45.93607" lon="6.8495">
        <ele>1966.1906</ele>
        <time>2014-09-02T13:00:02Z</time>
      </trkpt>
      <trkpt lat="45.93607" lon="6.8495">
        <ele>1966.1906</ele>
        <time>2014-09-02T13:00:07Z</time>
      </trkpt>
      <trkpt lat="45.93608" lon="6.84949">
        <ele>1966.1906</ele>
        <time>2014-09-02T13:00:12Z</time>
      </trkpt>
      <trkpt lat="45.9361" lon="6.84944">
        <ele>1962.057</ele>
        <time>2014-09-02T13:00:17Z</time>
      </trkpt>
      <trkpt lat="45.93612" lon="6.84942">
        <ele>1962.057</ele>
        <time>2014-09-02T13:00:22Z</time>
      </trkpt>
      <trkpt lat="45.93614" lon="6.84934">
        <ele>1962.057</ele>
        <time>2014-09-02T13:00:27Z</time>
      </trkpt>
      <trkpt lat="45.93616" lon="6.8493">
        <ele>1958.3156</ele>
        <time>2014-09-02T13:00:32Z</time>
      </trkpt>
      <trkpt lat="45.93617" lon="6.84922">
        <ele>1958.3156</ele>
        <time>2014-09-02T13:00:37Z</time>
      </trkpt>
      <trkpt lat="45.93617" lon="6.84915">
        <ele>1955.0563</ele>
        <time>2014-09-02T13:00:42Z</time>
      </trkpt>
      <trkpt lat="45.93619" lon="6.8491">
        <ele>1955.0563</ele>
        <time>2014-09-02T13:00:47Z</time>
      </trkpt>
      <trkpt lat="45.93616" lon="6.84904">
        <ele>1955.0563</ele>
        <time>2014-09-02T13:00:52Z</time>
      </trkpt>
      <trkpt lat="45.93615" lon="6.84902">
        <ele>1952.4049</ele>
        <time>2014-09-02T13:00:57Z</time>
      </trkpt>
      <trkpt lat="45.93613" lon="6.84901">
        <ele>1952.4049</ele>
        <time>2014-09-02T13:01:02Z</time>
      </trkpt>
      <trkpt lat="45.93611" lon="6.84904">
        <ele>1952.4049</ele>
        <time>2014-09-02T13:01:07Z</time>
      </trkpt>
      <trkpt lat="45.93609" lon="6.84907">
        <ele>1952.4049</ele>
        <time>2014-09-02T13:01:12Z</time>
      </trkpt>
      <trkpt lat="45.93609" lon="6.84907">
        <ele>1950.3315</ele>
        <time>2014-09-02T13:01:17Z</time>
      </trkpt>
      <trkpt lat="45.93608" lon="6.84911">
        <ele>1950.3315</ele>
        <time>2014-09-02T13:01:22Z</time>
      </trkpt>
      <trkpt lat="45.93605" lon="6.84919">
        <ele>1948.4902</ele>
        <time>2014-09-02T13:01:27Z</time>
      </trkpt>
      <trkpt lat="45.93604" lon="6.84915">
        <ele>1948.4902</ele>
        <time>2014-09-02T13:01:32Z</time>
      </trkpt>
      <trkpt lat="45.93605" lon="6.84912">
        <ele>1948.4902</ele>
        <time>2014-09-02T13:01:37Z</time>
      </trkpt>
      <trkpt lat="45.93609" lon="6.84896">
        <ele>1946.2855</ele>
        <time>2014-09-02T13:01:42Z</time>
      </trkpt>
      <trkpt lat="45.93607" lon="6.84893">
        <ele>1946.2855</ele>
        <time>2014-09-02T13:01:47Z</time>
      </trkpt>
      <trkpt lat="45.93607" lon="6.84891">
        <ele>1946.2855</ele>
        <time>2014-09-02T13:01:52Z</time>
      </trkpt>
      <trkpt lat="45.93606" lon="6.84894">
        <ele>1946.2855</ele>
        <time>2014-09-02T13:01:57Z</time>
      </trkpt>
      <trkpt lat="45.93603" lon="6.84897">
        <ele>1943.6858</ele>
        <time>2014-09-02T13:02:02Z</time>
      </trkpt>
      <trkpt lat="45.93599" lon="6.84902">
        <ele>1943.6858</ele>
        <time>2014-09-02T13:02:07Z</time>
      </trkpt>
      <trkpt lat="45.93595" lon="6.84908">
        <ele>1941.138</ele>
        <time>2014-09-02T13:02:12Z</time>
      </trkpt>
      <trkpt lat="45.93592" lon="6.84909">
        <ele>1941.138</ele>
        <time>2014-09-02T13:02:17Z</time>
      </trkpt>
      <trkpt lat="45.9359" lon="6.84911">
        <ele>1941.138</ele>
        <time>2014-09-02T13:02:22Z</time>
      </trkpt>
      <trkpt lat="45.93589" lon="6.84911">
        <ele>1941.138</ele>
        <time>2014-09-02T13:02:27Z</time>
      </trkpt>
      <trkpt lat="45.93591" lon="6.84903">
        <ele>1938.3646</ele>
        <time>2014-09-02T13:02:32Z</time>
      </trkpt>
      <trkpt lat="45.93591" lon="6.84899">
        <ele>1938.3646</ele>
        <time>2014-09-02T13:02:37Z</time>
      </trkpt>
      <trkpt lat="45.93591" lon="6.84894">
        <ele>1938.3646</ele>
        <time>2014-09-02T13:02:42Z</time>
      </trkpt>
      <trkpt lat="45.9359" lon="6.84892">
        <ele>1938.3646</ele>
        <time>2014-09-02T13:02:47Z</time>
      </trkpt>
      <trkpt lat="45.93588" lon="6.84894">
        <ele>1935.4694</ele>
        <time>2014-09-02T13:02:52Z</time>
      </trkpt>
      <trkpt lat="45.93586" lon="6.84897">
        <ele>1935.4694</ele>
        <time>2014-09-02T13:02:57Z</time>
      </trkpt>
      <trkpt lat="45.93584" lon="6.84894">
        <ele>1935.4694</ele>
        <time>2014-09-02T13:03:02Z</time>
      </trkpt>
      <trkpt lat="45.93581" lon="6.84889">
        <ele>1933.053</ele>
        <time>2014-09-02T13:03:07Z</time>
      </trkpt>
      <trkpt lat="45.93579" lon="6.84894">
        <ele>1933.053</ele>
        <time>2014-09-02T13:03:12Z</time>
      </trkpt>
      <trkpt lat="45.93578" lon="6.84901">
        <ele>1931.368</ele>
        <time>2014-09-02T13:03:17Z</time>
      </trkpt>
      <trkpt lat="45.93575" lon="6.84907">
        <ele>1931.368</ele>
        <time>2014-09-02T13:03:22Z</time>
      </trkpt>
      <trkpt lat="45.93574" lon="6.84911">
        <ele>1931.368</ele>
        <time>2014-09-02T13:03:27Z</time>
      </trkpt>
      <trkpt lat="45.93574" lon="6.84914">
        <ele>1930.0411</ele>
        <time>2014-09-02T13:03:32Z</time>
      </trkpt>
      <trkpt lat="45.93573" lon="6.84914">
        <ele>1930.0411</ele>
        <time>2014-09-02T13:03:37Z</time>
      </trkpt>
      <trkpt lat="45.93571" lon="6.84912">
        <ele>1930.0411</ele>
        <time>2014-09-02T13:03:42Z</time>
      </trkpt>
      <trkpt lat="45.93573" lon="6.84908">
        <ele>1930.0411</ele>
        <time>2014-09-02T13:03:47Z</time>
      </trkpt>
      <trkpt lat="45.93574" lon="6.84904">
        <ele>1928.149</ele>
        <time>2014-09-02T13:03:52Z</time>
      </trkpt>
      <trkpt lat="45.93574" lon="6.84899">
        <ele>1928.149</ele>
        <time>2014-09-02T13:03:57Z</time>
      </trkpt>
      <trkpt lat="45.93573" lon="6.84895">
        <ele>1928.149</ele>
        <time>2014-09-02T13:04:02Z</time>
      </trkpt>
      <trkpt lat="45.93572" lon="6.84891">
        <ele>1925.7168</ele>
        <time>2014-09-02T13:04:07Z</time>
      </trkpt>
      <trkpt lat="45.93573" lon="6.84882">
        <ele>1925.7168</ele>
        <time>2014-09-02T13:04:12Z</time>
      </trkpt>
      <trkpt lat="45.93572" lon="6.84879">
        <ele>1925.7168</ele>
        <time>2014-09-02T13:04:17Z</time>
      </trkpt>
      <trkpt lat="45.9357" lon="6.84873">
        <ele>1922.7981</ele>
        <time>2014-09-02T13:04:22Z</time>
      </trkpt>
      <trkpt lat="45.93569" lon="6.84869">
        <ele>1922.7981</ele>
        <time>2014-09-02T13:04:27Z</time>
      </trkpt>
      <trkpt lat="45.93567" lon="6.84871">
        <ele>1922.7981</ele>
        <time>2014-09-02T13:04:32Z</time>
      </trkpt>
      <trkpt lat="45.93567" lon="6.84877">
        <ele>1919.761</ele>
        <time>2014-09-02T13:04:37Z</time>
      </trkpt>
      <trkpt lat="45.93567" lon="6.84884">
        <ele>1919.761</ele>
        <time>2014-09-02T13:04:42Z</time>
      </trkpt>
      <trkpt lat="45.93565" lon="6.84887">
        <ele>1919.761</ele>
        <time>2014-09-02T13:04:47Z</time>
      </trkpt>
      <trkpt lat="45.93564" lon="6.84892">
        <ele>1916.889</ele>
        <time>2014-09-02T13:04:52Z</time>
      </trkpt>
      <trkpt lat="45.93564" lon="6.84895">
        <ele>1916.889</ele>
        <time>2014-09-02T13:04:57Z</time>
      </trkpt>
      <trkpt lat="45.93562" lon="6.84897">
        <ele>1916.889</ele>
        <time>2014-09-02T13:05:02Z</time>
      </trkpt>
      <trkpt lat="45.93558" lon="6.84899">
        <ele>1916.889</ele>
        <time>2014-09-02T13:05:07Z</time>
      </trkpt>
      <trkpt lat="45.93557" lon="6.84895">
        <ele>1913.6521</ele>
        <time>2014-09-02T13:05:12Z</time>
      </trkpt>
      <trkpt lat="45.93557" lon="6.84889">
        <ele>1913.6521</ele>
        <time>2014-09-02T13:05:17Z</time>
      </trkpt>
      <trkpt lat="45.93556" lon="6.84881">
        <ele>1910.3094</ele>
        <time>2014-09-02T13:05:22Z</time>
      </trkpt>
      <trkpt lat="45.93554" lon="6.84876">
        <ele>1910.3094</ele>
        <time>2014-09-02T13:05:27Z</time>
      </trkpt>
      <trkpt lat="45.93553" lon="6.8487">
        <ele>1910.3094</ele>
        <time>2014-09-02T13:05:32Z</time>
      </trkpt>
      <trkpt lat="45.93548" lon="6.84867">
        <ele>1906.9716</ele>
        <time>2014-09-02T13:05:37Z</time>
      </trkpt>
      <trkpt lat="45.93545" lon="6.84862">
        <ele>1906.9716</ele>
        <time>2014-09-02T13:05:42Z</time>
      </trkpt>
      <trkpt lat="45.93543" lon="6.8487">
        <ele>1903.8563</ele>
        <time>2014-09-02T13:05:47Z</time>
      </trkpt>
      <trkpt lat="45.93546" lon="6.84871">
        <ele>1903.8563</ele>
        <time>2014-09-02T13:05:52Z</time>
      </trkpt>
      <trkpt lat="45.93549" lon="6.8488">
        <ele>1900.8191</ele>
        <time>2014-09-02T13:05:57Z</time>
      </trkpt>
      <trkpt lat="45.9355" lon="6.84889">
        <ele>1900.8191</ele>
        <time>2014-09-02T13:06:02Z</time>
      </trkpt>
      <trkpt lat="45.93547" lon="6.84896">
        <ele>1898.0135</ele>
        <time>2014-09-02T13:06:07Z</time>
      </trkpt>
      <trkpt lat="45.93544" lon="6.84898">
        <ele>1898.0135</ele>
        <time>2014-09-02T13:06:12Z</time>
      </trkpt>
      <trkpt lat="45.93541" lon="6.84903">
        <ele>1898.0135</ele>
        <time>2014-09-02T13:06:17Z</time>
      </trkpt>
      <trkpt lat="45.93539" lon="6.8491">
        <ele>1895.3081</ele>
        <time>2014-09-02T13:06:22Z</time>
      </trkpt>
      <trkpt lat="45.93534" lon="6.84911">
        <ele>1895.3081</ele>
        <time>2014-09-02T13:06:27Z</time>
      </trkpt>
      <trkpt lat="45.93532" lon="6.84916">
        <ele>1892.8538</ele>
        <time>2014-09-02T13:06:32Z</time>
      </trkpt>
      <trkpt lat="45.93532" lon="6.84918">
        <ele>1892.8538</ele>
        <time>2014-09-02T13:06:37Z</time>
      </trkpt>
      <trkpt lat="45.93533" lon="6.84922">
        <ele>1892.8538</ele>
        <time>2014-09-02T13:06:42Z</time>
      </trkpt>
      <trkpt lat="45.93533" lon="6.84924">
        <ele>1892.8538</ele>
        <time>2014-09-02T13:06:47Z</time>
      </trkpt>
      <trkpt lat="45.93533" lon="6.84931">
        <ele>1890.5884</ele>
        <time>2014-09-02T13:06:52Z</time>
      </trkpt>
      <trkpt lat="45.93533" lon="6.84932">
        <ele>1890.5884</ele>
        <time>2014-09-02T13:06:57Z</time>
      </trkpt>
      <trkpt lat="45.93533" lon="6.84932">
        <ele>1890.5884</ele>
        <time>2014-09-02T13:07:02Z</time>
      </trkpt>
      <trkpt lat="45.93533" lon="6.84933">
        <ele>1890.5884</ele>
        <time>2014-09-02T13:07:07Z</time>
      </trkpt>
      <trkpt lat="45.93532" lon="6.84931">
        <ele>1890.5884</ele>
        <time>2014-09-02T13:07:12Z</time>
      </trkpt>
      <trkpt lat="45.93531" lon="6.84929">
        <ele>1890.5884</ele>
        <time>2014-09-02T13:07:17Z</time>
      </trkpt>
      <trkpt lat="45.93531" lon="6.84925">
        <ele>1890.5884</ele>
        <time>2014-09-02T13:07:22Z</time>
      </trkpt>
      <trkpt lat="45.93531" lon="6.84925">
        <ele>1890.5884</ele>
        <time>2014-09-02T13:07:27Z</time>
      </trkpt>
      <trkpt lat="45.93527" lon="6.84919">
        <ele>1888.1366</ele>
        <time>2014-09-02T13:07:32Z</time>
      </trkpt>
      <trkpt lat="45.93525" lon="6.84914">
        <ele>1888.1366</ele>
        <time>2014-09-02T13:07:37Z</time>
      </trkpt>
      <trkpt lat="45.93526" lon="6.84911">
        <ele>1888.1366</ele>
        <time>2014-09-02T13:07:42Z</time>
      </trkpt>
      <trkpt lat="45.93526" lon="6.84909">
        <ele>1888.1366</ele>
        <time>2014-09-02T13:07:47Z</time>
      </trkpt>
      <trkpt lat="45.93527" lon="6.84907">
        <ele>1888.1366</ele>
        <time>2014-09-02T13:07:52Z</time>
      </trkpt>
      <trkpt lat="45.93526" lon="6.84906">
        <ele>1885.5258</ele>
        <time>2014-09-02T13:07:57Z</time>
      </trkpt>
      <trkpt lat="45.93522" lon="6.84901">
        <ele>1885.5258</ele>
        <time>2014-09-02T13:08:02Z</time>
      </trkpt>
      <trkpt lat="45.9352" lon="6.84899">
        <ele>1885.5258</ele>
        <time>2014-09-02T13:08:07Z</time>
      </trkpt>
      <trkpt lat="45.93517" lon="6.8489">
        <ele>1884.05</ele>
        <time>2014-09-02T13:08:12Z</time>
      </trkpt>
      <trkpt lat="45.93513" lon="6.84883">
        <ele>1884.05</ele>
        <time>2014-09-02T13:08:17Z</time>
      </trkpt>
      <trkpt lat="45.93512" lon="6.84882">
        <ele>1884.05</ele>
        <time>2014-09-02T13:08:22Z</time>
      </trkpt>
      <trkpt lat="45.93511" lon="6.84881">
        <ele>1884.05</ele>
        <time>2014-09-02T13:08:27Z</time>
      </trkpt>
      <trkpt lat="45.93511" lon="6.84881">
        <ele>1884.05</ele>
        <time>2014-09-02T13:08:32Z</time>
      </trkpt>
      <trkpt lat="45.93512" lon="6.84881">
        <ele>1882.9886</ele>
        <time>2014-09-02T13:08:37Z</time>
      </trkpt>
      <trkpt lat="45.93512" lon="6.84878">
        <ele>1882.9886</ele>
        <time>2014-09-02T13:08:42Z</time>
      </trkpt>
      <trkpt lat="45.93511" lon="6.84874">
        <ele>1882.9886</ele>
        <time>2014-09-02T13:08:47Z</time>
      </trkpt>
      <trkpt lat="45.9351" lon="6.84873">
        <ele>1882.9886</ele>
        <time>2014-09-02T13:08:52Z</time>
      </trkpt>
      <trkpt lat="45.9351" lon="6.84875">
        <ele>1882.9886</ele>
        <time>2014-09-02T13:08:57Z</time>
      </trkpt>
      <trkpt lat="45.93508" lon="6.84889">
        <ele>1881.4417</ele>
        <time>2014-09-02T13:09:02Z</time>
      </trkpt>
      <trkpt lat="45.93508" lon="6.84908">
        <ele>1879.874</ele>
        <time>2014-09-02T13:09:07Z</time>
      </trkpt>
      <trkpt lat="45.93509" lon="6.84917">
        <ele>1879.874</ele>
        <time>2014-09-02T13:09:12Z</time>
      </trkpt>
      <trkpt lat="45.93509" lon="6.8492">
        <ele>1879.874</ele>
        <time>2014-09-02T13:09:17Z</time>
      </trkpt>
      <trkpt lat="45.93507" lon="6.84929">
        <ele>1878.0248</ele>
        <time>2014-09-02T13:09:22Z</time>
      </trkpt>
      <trkpt lat="45.93505" lon="6.8493">
        <ele>1878.0248</ele>
        <time>2014-09-02T13:09:27Z</time>
      </trkpt>
      <trkpt lat="45.93505" lon="6.8493">
        <ele>1878.0248</ele>
        <time>2014-09-02T13:09:32Z</time>
      </trkpt>
      <trkpt lat="45.93503" lon="6.8493">
        <ele>1878.0248</ele>
        <time>2014-09-02T13:09:37Z</time>
      </trkpt>
      <trkpt lat="45.93503" lon="6.84931">
        <ele>1878.0248</ele>
        <time>2014-09-02T13:09:42Z</time>
      </trkpt>
      <trkpt lat="45.93504" lon="6.84932">
        <ele>1878.0248</ele>
        <time>2014-09-02T13:09:47Z</time>
      </trkpt>
      <trkpt lat="45.93502" lon="6.84937">
        <ele>1875.1772</ele>
        <time>2014-09-02T13:09:52Z</time>
      </trkpt>
      <trkpt lat="45.935" lon="6.84945">
        <ele>1875.1772</ele>
        <time>2014-09-02T13:09:57Z</time>
      </trkpt>
      <trkpt lat="45.93498" lon="6.8495">
        <ele>1872.4861</ele>
        <time>2014-09-02T13:10:02Z</time>
      </trkpt>
      <trkpt lat="45.93495" lon="6.84955">
        <ele>1872.4861</ele>
        <time>2014-09-02T13:10:07Z</time>
      </trkpt>
      <trkpt lat="45.93493" lon="6.84958">
        <ele>1872.4861</ele>
        <time>2014-09-02T13:10:12Z</time>
      </trkpt>
      <trkpt lat="45.9349" lon="6.84961">
        <ele>1869.9401</ele>
        <time>2014-09-02T13:10:17Z</time>
      </trkpt>
      <trkpt lat="45.93487" lon="6.84965">
        <ele>1869.9401</ele>
        <time>2014-09-02T13:10:22Z</time>
      </trkpt>
      <trkpt lat="45.93482" lon="6.84969">
        <ele>1867.6002</ele>
        <time>2014-09-02T13:10:27Z</time>
      </trkpt>
      <trkpt lat="45.93479" lon="6.84972">
        <ele>1867.6002</ele>
        <time>2014-09-02T13:10:32Z</time>
      </trkpt>
      <trkpt lat="45.93478" lon="6.84974">
        <ele>1867.6002</ele>
        <time>2014-09-02T13:10:37Z</time>
      </trkpt>
      <trkpt lat="45.93476" lon="6.84975">
        <ele>1867.6002</ele>
        <time>2014-09-02T13:10:42Z</time>
      </trkpt>
      <trkpt lat="45.93474" lon="6.84975">
        <ele>1867.6002</ele>
        <time>2014-09-02T13:10:47Z</time>
      </trkpt>
      <trkpt lat="45.93473" lon="6.84977">
        <ele>1865.2056</ele>
        <time>2014-09-02T13:10:52Z</time>
      </trkpt>
      <trkpt lat="45.9347" lon="6.84979">
        <ele>1865.2056</ele>
        <time>2014-09-02T13:10:57Z</time>
      </trkpt>
      <trkpt lat="45.93467" lon="6.84981">
        <ele>1865.2056</ele>
        <time>2014-09-02T13:11:02Z</time>
      </trkpt>
      <trkpt lat="45.93464" lon="6.84982">
        <ele>1862.5001</ele>
        <time>2014-09-02T13:11:07Z</time>
      </trkpt>
      <trkpt lat="45.93464" lon="6.84978">
        <ele>1862.5001</ele>
        <time>2014-09-02T13:11:12Z</time>
      </trkpt>
      <trkpt lat="45.93465" lon="6.84976">
        <ele>1862.5001</ele>
        <time>2014-09-02T13:11:17Z</time>
      </trkpt>
      <trkpt lat="45.93465" lon="6.84971">
        <ele>1862.5001</ele>
        <time>2014-09-02T13:11:22Z</time>
      </trkpt>
      <trkpt lat="45.93467" lon="6.84967">
        <ele>1859.5359</ele>
        <time>2014-09-02T13:11:27Z</time>
      </trkpt>
      <trkpt lat="45.93467" lon="6.84963">
        <ele>1859.5359</ele>
        <time>2014-09-02T13:11:32Z</time>
      </trkpt>
      <trkpt lat="45.93467" lon="6.8496">
        <ele>1859.5359</ele>
        <time>2014-09-02T13:11:37Z</time>
      </trkpt>
      <trkpt lat="45.93467" lon="6.84957">
        <ele>1859.5359</ele>
        <time>2014-09-02T13:11:42Z</time>
      </trkpt>
      <trkpt lat="45.93467" lon="6.84955">
        <ele>1859.5359</ele>
        <time>2014-09-02T13:11:47Z</time>
      </trkpt>
      <trkpt lat="45.93469" lon="6.8495">
        <ele>1855.9293</ele>
        <time>2014-09-02T13:11:52Z</time>
      </trkpt>
      <trkpt lat="45.93469" lon="6.84944">
        <ele>1855.9293</ele>
        <time>2014-09-02T13:11:57Z</time>
      </trkpt>
      <trkpt lat="45.93467" lon="6.84937">
        <ele>1852.4941</ele>
        <time>2014-09-02T13:12:02Z</time>
      </trkpt>
      <trkpt lat="45.93463" lon="6.84935">
        <ele>1852.4941</ele>
        <time>2014-09-02T13:12:07Z</time>
      </trkpt>
      <trkpt lat="45.93463" lon="6.84937">
        <ele>1852.4941</ele>
        <time>2014-09-02T13:12:12Z</time>
      </trkpt>
      <trkpt lat="45.93463" lon="6.84937">
        <ele>1852.4941</ele>
        <time>2014-09-02T13:12:17Z</time>
      </trkpt>
      <trkpt lat="45.93462" lon="6.8494">
        <ele>1852.4941</ele>
        <time>2014-09-02T13:12:22Z</time>
      </trkpt>
      <trkpt lat="45.93461" lon="6.84941">
        <ele>1852.4941</ele>
        <time>2014-09-02T13:12:27Z</time>
      </trkpt>
      <trkpt lat="45.93461" lon="6.84941">
        <ele>1849.1771</ele>
        <time>2014-09-02T13:12:32Z</time>
      </trkpt>
      <trkpt lat="45.93458" lon="6.84948">
        <ele>1849.1771</ele>
        <time>2014-09-02T13:12:37Z</time>
      </trkpt>
      <trkpt lat="45.93456" lon="6.84951">
        <ele>1849.1771</ele>
        <time>2014-09-02T13:12:42Z</time>
      </trkpt>
      <trkpt lat="45.93449" lon="6.84954">
        <ele>1845.8561</ele>
        <time>2014-09-02T13:12:47Z</time>
      </trkpt>
      <trkpt lat="45.93449" lon="6.84952">
        <ele>1845.8561</ele>
        <time>2014-09-02T13:12:52Z</time>
      </trkpt>
      <trkpt lat="45.93449" lon="6.84949">
        <ele>1845.8561</ele>
        <time>2014-09-02T13:12:57Z</time>
      </trkpt>
      <trkpt lat="45.9345" lon="6.84945">
        <ele>1845.8561</ele>
        <time>2014-09-02T13:13:02Z</time>
      </trkpt>
      <trkpt lat="45.93451" lon="6.84942">
        <ele>1842.3605</ele>
        <time>2014-09-02T13:13:07Z</time>
      </trkpt>
      <trkpt lat="45.9345" lon="6.84938">
        <ele>1842.3605</ele>
        <time>2014-09-02T13:13:12Z</time>
      </trkpt>
      <trkpt lat="45.9345" lon="6.84931">
        <ele>1842.3605</ele>
        <time>2014-09-02T13:13:17Z</time>
      </trkpt>
      <trkpt lat="45.93449" lon="6.84921">
        <ele>1839.1813</ele>
        <time>2014-09-02T13:13:22Z</time>
      </trkpt>
      <trkpt lat="45.93445" lon="6.84919">
        <ele>1839.1813</ele>
        <time>2014-09-02T13:13:27Z</time>
      </trkpt>
      <trkpt lat="45.93441" lon="6.84928">
        <ele>1836.34</ele>
        <time>2014-09-02T13:13:32Z</time>
      </trkpt>
      <trkpt lat="45.93437" lon="6.84938">
        <ele>1836.34</ele>
        <time>2014-09-02T13:13:37Z</time>
      </trkpt>
      <trkpt lat="45.93434" lon="6.84944">
        <ele>1833.4955</ele>
        <time>2014-09-02T13:13:42Z</time>
      </trkpt>
      <trkpt lat="45.9343" lon="6.84949">
        <ele>1833.4955</ele>
        <time>2014-09-02T13:13:47Z</time>
      </trkpt>
      <trkpt lat="45.93428" lon="6.84954">
        <ele>1830.663</ele>
        <time>2014-09-02T13:13:52Z</time>
      </trkpt>
      <trkpt lat="45.93426" lon="6.84959">
        <ele>1830.663</ele>
        <time>2014-09-02T13:13:57Z</time>
      </trkpt>
      <trkpt lat="45.93425" lon="6.8496">
        <ele>1830.663</ele>
        <time>2014-09-02T13:14:02Z</time>
      </trkpt>
      <trkpt lat="45.93423" lon="6.8496">
        <ele>1830.663</ele>
        <time>2014-09-02T13:14:07Z</time>
      </trkpt>
      <trkpt lat="45.93417" lon="6.84958">
        <ele>1827.2947</ele>
        <time>2014-09-02T13:14:12Z</time>
      </trkpt>
      <trkpt lat="45.93417" lon="6.84957">
        <ele>1827.2947</ele>
        <time>2014-09-02T13:14:17Z</time>
      </trkpt>
      <trkpt lat="45.93419" lon="6.84952">
        <ele>1827.2947</ele>
        <time>2014-09-02T13:14:22Z</time>
      </trkpt>
      <trkpt lat="45.93422" lon="6.84948">
        <ele>1823.5615</ele>
        <time>2014-09-02T13:14:27Z</time>
      </trkpt>
      <trkpt lat="45.93422" lon="6.84947">
        <ele>1823.5615</ele>
        <time>2014-09-02T13:14:32Z</time>
      </trkpt>
      <trkpt lat="45.93422" lon="6.84943">
        <ele>1823.5615</ele>
        <time>2014-09-02T13:14:37Z</time>
      </trkpt>
      <trkpt lat="45.9342" lon="6.84936">
        <ele>1823.5615</ele>
        <time>2014-09-02T13:14:42Z</time>
      </trkpt>
      <trkpt lat="45.93421" lon="6.84933">
        <ele>1819.897</ele>
        <time>2014-09-02T13:14:47Z</time>
      </trkpt>
      <trkpt lat="45.9342" lon="6.84928">
        <ele>1819.897</ele>
        <time>2014-09-02T13:14:52Z</time>
      </trkpt>
      <trkpt lat="45.93418" lon="6.84924">
        <ele>1819.897</ele>
        <time>2014-09-02T13:14:57Z</time>
      </trkpt>
      <trkpt lat="45.93415" lon="6.84914">
        <ele>1816.7743</ele>
        <time>2014-09-02T13:15:02Z</time>
      </trkpt>
      <trkpt lat="45.93414" lon="6.84911">
        <ele>1816.7743</ele>
        <time>2014-09-02T13:15:07Z</time>
      </trkpt>
      <trkpt lat="45.93412" lon="6.84908">
        <ele>1816.7743</ele>
        <time>2014-09-02T13:15:12Z</time>
      </trkpt>
      <trkpt lat="45.93412" lon="6.84906">
        <ele>1816.7743</ele>
        <time>2014-09-02T13:15:17Z</time>
      </trkpt>
      <trkpt lat="45.93409" lon="6.84902">
        <ele>1813.9102</ele>
        <time>2014-09-02T13:15:22Z</time>
      </trkpt>
      <trkpt lat="45.93408" lon="6.84897">
        <ele>1813.9102</ele>
        <time>2014-09-02T13:15:27Z</time>
      </trkpt>
      <trkpt lat="45.93403" lon="6.84892">
        <ele>1811.3146</ele>
        <time>2014-09-02T13:15:32Z</time>
      </trkpt>
      <trkpt lat="45.93402" lon="6.84893">
        <ele>1811.3146</ele>
        <time>2014-09-02T13:15:37Z</time>
      </trkpt>
      <trkpt lat="45.93403" lon="6.84896">
        <ele>1811.3146</ele>
        <time>2014-09-02T13:15:42Z</time>
      </trkpt>
      <trkpt lat="45.93403" lon="6.84903">
        <ele>1811.3146</ele>
        <time>2014-09-02T13:15:47Z</time>
      </trkpt>
      <trkpt lat="45.93405" lon="6.84907">
        <ele>1808.5211</ele>
        <time>2014-09-02T13:15:52Z</time>
      </trkpt>
      <trkpt lat="45.93406" lon="6.84912">
        <ele>1808.5211</ele>
        <time>2014-09-02T13:15:57Z</time>
      </trkpt>
      <trkpt lat="45.93405" lon="6.84921">
        <ele>1806.1353</ele>
        <time>2014-09-02T13:16:02Z</time>
      </trkpt>
      <trkpt lat="45.93405" lon="6.84921">
        <ele>1806.1353</ele>
        <time>2014-09-02T13:16:07Z</time>
      </trkpt>
      <trkpt lat="45.93404" lon="6.84924">
        <ele>1806.1353</ele>
        <time>2014-09-02T13:16:12Z</time>
      </trkpt>
      <trkpt lat="45.93402" lon="6.84928">
        <ele>1806.1353</ele>
        <time>2014-09-02T13:16:17Z</time>
      </trkpt>
      <trkpt lat="45.93399" lon="6.84932">
        <ele>1803.9965</ele>
        <time>2014-09-02T13:16:22Z</time>
      </trkpt>
      <trkpt lat="45.93394" lon="6.84935">
        <ele>1803.9965</ele>
        <time>2014-09-02T13:16:27Z</time>
      </trkpt>
      <trkpt lat="45.93392" lon="6.84936">
        <ele>1803.9965</ele>
        <time>2014-09-02T13:16:32Z</time>
      </trkpt>
      <trkpt lat="45.9339" lon="6.84937">
        <ele>1801.5804</ele>
        <time>2014-09-02T13:16:37Z</time>
      </trkpt>
      <trkpt lat="45.93386" lon="6.84942">
        <ele>1801.5804</ele>
        <time>2014-09-02T13:16:42Z</time>
      </trkpt>
      <trkpt lat="45.93383" lon="6.84939">
        <ele>1801.5804</ele>
        <time>2014-09-02T13:16:47Z</time>
      </trkpt>
      <trkpt lat="45.93381" lon="6.84934">
        <ele>1798.5465</ele>
        <time>2014-09-02T13:16:52Z</time>
      </trkpt>
      <trkpt lat="45.93381" lon="6.84931">
        <ele>1798.5465</ele>
        <time>2014-09-02T13:16:57Z</time>
      </trkpt>
      <trkpt lat="45.93381" lon="6.84931">
        <ele>1798.5465</ele>
        <time>2014-09-02T13:17:02Z</time>
      </trkpt>
      <trkpt lat="45.93382" lon="6.84931">
        <ele>1798.5465</ele>
        <time>2014-09-02T13:17:22Z</time>
      </trkpt>
      <trkpt lat="45.93383" lon="6.84933">
        <ele>1798.5465</ele>
        <time>2014-09-02T13:17:27Z</time>
      </trkpt>
      <trkpt lat="45.93385" lon="6.84929">
        <ele>1798.5465</ele>
        <time>2014-09-02T13:17:32Z</time>
      </trkpt>
      <trkpt lat="45.93385" lon="6.84929">
        <ele>1798.5465</ele>
        <time>2014-09-02T13:17:37Z</time>
      </trkpt>
      <trkpt lat="45.93384" lon="6.84924">
        <ele>1794.6237</ele>
        <time>2014-09-02T13:17:42Z</time>
      </trkpt>
      <trkpt lat="45.93381" lon="6.84917">
        <ele>1794.6237</ele>
        <time>2014-09-02T13:17:47Z</time>
      </trkpt>
      <trkpt lat="45.93376" lon="6.84905">
        <ele>1790.8606</ele>
        <time>2014-09-02T13:17:52Z</time>
      </trkpt>
      <trkpt lat="45.93374" lon="6.84901">
        <ele>1790.8606</ele>
        <time>2014-09-02T13:17:57Z</time>
      </trkpt>
      <trkpt lat="45.93371" lon="6.84897">
        <ele>1790.8606</ele>
        <time>2014-09-02T13:18:02Z</time>
      </trkpt>
      <trkpt lat="45.9337" lon="6.84893">
        <ele>1787.3203</ele>
        <time>2014-09-02T13:18:07Z</time>
      </trkpt>
      <trkpt lat="45.93369" lon="6.8489">
        <ele>1787.3203</ele>
        <time>2014-09-02T13:18:12Z</time>
      </trkpt>
      <trkpt lat="45.93366" lon="6.84883">
        <ele>1787.3203</ele>
        <time>2014-09-02T13:18:17Z</time>
      </trkpt>
      <trkpt lat="45.93363" lon="6.84878">
        <ele>1783.9166</ele>
        <time>2014-09-02T13:18:22Z</time>
      </trkpt>
      <trkpt lat="45.93359" lon="6.84874">
        <ele>1783.9166</ele>
        <time>2014-09-02T13:18:27Z</time>
      </trkpt>
      <trkpt lat="45.93356" lon="6.84866">
        <ele>1780.7133</ele>
        <time>2014-09-02T13:18:32Z</time>
      </trkpt>
      <trkpt lat="45.93351" lon="6.84858">
        <ele>1780.7133</ele>
        <time>2014-09-02T13:18:37Z</time>
      </trkpt>
      <trkpt lat="45.93346" lon="6.84856">
        <ele>1777.7831</ele>
        <time>2014-09-02T13:18:42Z</time>
      </trkpt>
      <trkpt lat="45.93342" lon="6.84853">
        <ele>1777.7831</ele>
        <time>2014-09-02T13:18:47Z</time>
      </trkpt>
      <trkpt lat="45.93337" lon="6.84851">
        <ele>1775.1641</ele>
        <time>2014-09-02T13:18:52Z</time>
      </trkpt>
      <trkpt lat="45.9333" lon="6.84846">
        <ele>1775.1641</ele>
        <time>2014-09-02T13:18:57Z</time>
      </trkpt>
      <trkpt lat="45.93327" lon="6.84841">
        <ele>1772.8759</ele>
        <time>2014-09-02T13:19:02Z</time>
      </trkpt>
      <trkpt lat="45.93324" lon="6.84836">
        <ele>1772.8759</ele>
        <time>2014-09-02T13:19:07Z</time>
      </trkpt>
      <trkpt lat="45.93323" lon="6.8483">
        <ele>1770.7487</ele>
        <time>2014-09-02T13:19:12Z</time>
      </trkpt>
      <trkpt lat="45.93321" lon="6.84824">
        <ele>1770.7487</ele>
        <time>2014-09-02T13:19:17Z</time>
      </trkpt>
      <trkpt lat="45.93317" lon="6.84821">
        <ele>1770.7487</ele>
        <time>2014-09-02T13:19:22Z</time>
      </trkpt>
      <trkpt lat="45.93315" lon="6.8482">
        <ele>1768.5524</ele>
        <time>2014-09-02T13:19:27Z</time>
      </trkpt>
      <trkpt lat="45.93314" lon="6.8482">
        <ele>1768.5524</ele>
        <time>2014-09-02T13:19:32Z</time>
      </trkpt>
      <trkpt lat="45.9331" lon="6.84816">
        <ele>1768.5524</ele>
        <time>2014-09-02T13:19:37Z</time>
      </trkpt>
      <trkpt lat="45.93307" lon="6.84815">
        <ele>1766.1462</ele>
        <time>2014-09-02T13:19:42Z</time>
      </trkpt>
      <trkpt lat="45.93301" lon="6.84812">
        <ele>1766.1462</ele>
        <time>2014-09-02T13:19:47Z</time>
      </trkpt>
      <trkpt lat="45.93294" lon="6.84807">
        <ele>1763.6162</ele>
        <time>2014-09-02T13:19:52Z</time>
      </trkpt>
      <trkpt lat="45.93291" lon="6.84805">
        <ele>1763.6162</ele>
        <time>2014-09-02T13:19:57Z</time>
      </trkpt>
      <trkpt lat="45.93292" lon="6.84804">
        <ele>1763.6162</ele>
        <time>2014-09-02T13:20:02Z</time>
      </trkpt>
      <trkpt lat="45.9329" lon="6.84801">
        <ele>1763.6162</ele>
        <time>2014-09-02T13:20:07Z</time>
      </trkpt>
      <trkpt lat="45.93284" lon="6.84795">
        <ele>1760.6681</ele>
        <time>2014-09-02T13:20:12Z</time>
      </trkpt>
      <trkpt lat="45.9328" lon="6.8479">
        <ele>1760.6681</ele>
        <time>2014-09-02T13:20:17Z</time>
      </trkpt>
      <trkpt lat="45.93276" lon="6.84786">
        <ele>1757.794</ele>
        <time>2014-09-02T13:20:22Z</time>
      </trkpt>
      <trkpt lat="45.93272" lon="6.84782">
        <ele>1757.794</ele>
        <time>2014-09-02T13:20:27Z</time>
      </trkpt>
      <trkpt lat="45.93269" lon="6.84781">
        <ele>1757.794</ele>
        <time>2014-09-02T13:20:32Z</time>
      </trkpt>
      <trkpt lat="45.93266" lon="6.84782">
        <ele>1754.8875</ele>
        <time>2014-09-02T13:20:37Z</time>
      </trkpt>
      <trkpt lat="45.93261" lon="6.84778">
        <ele>1754.8875</ele>
        <time>2014-09-02T13:20:42Z</time>
      </trkpt>
      <trkpt lat="45.93257" lon="6.84778">
        <ele>1752.1528</ele>
        <time>2014-09-02T13:20:47Z</time>
      </trkpt>
      <trkpt lat="45.93251" lon="6.84777">
        <ele>1752.1528</ele>
        <time>2014-09-02T13:20:52Z</time>
      </trkpt>
      <trkpt lat="45.93246" lon="6.84777">
        <ele>1749.6492</ele>
        <time>2014-09-02T13:20:57Z</time>
      </trkpt>
      <trkpt lat="45.93242" lon="6.84776">
        <ele>1749.6492</ele>
        <time>2014-09-02T13:21:02Z</time>
      </trkpt>
      <trkpt lat="45.93237" lon="6.84775">
        <ele>1747.2432</ele>
        <time>2014-09-02T13:21:07Z</time>
      </trkpt>
      <trkpt lat="45.93233" lon="6.84774">
        <ele>1747.2432</ele>
        <time>2014-09-02T13:21:12Z</time>
      </trkpt>
      <trkpt lat="45.93228" lon="6.84773">
        <ele>1744.8401</ele>
        <time>2014-09-02T13:21:17Z</time>
      </trkpt>
      <trkpt lat="45.93224" lon="6.84772">
        <ele>1744.8401</ele>
        <time>2014-09-02T13:21:22Z</time>
      </trkpt>
      <trkpt lat="45.93219" lon="6.84774">
        <ele>1744.8401</ele>
        <time>2014-09-02T13:21:27Z</time>
      </trkpt>
      <trkpt lat="45.93213" lon="6.84773">
        <ele>1742.4381</ele>
        <time>2014-09-02T13:21:32Z</time>
      </trkpt>
      <trkpt lat="45.93208" lon="6.8477">
        <ele>1742.4381</ele>
        <time>2014-09-02T13:21:37Z</time>
      </trkpt>
      <trkpt lat="45.93202" lon="6.84768">
        <ele>1740.1515</ele>
        <time>2014-09-02T13:21:42Z</time>
      </trkpt>
      <trkpt lat="45.93196" lon="6.84769">
        <ele>1740.1515</ele>
        <time>2014-09-02T13:21:47Z</time>
      </trkpt>
      <trkpt lat="45.93193" lon="6.84769">
        <ele>1740.1515</ele>
        <time>2014-09-02T13:21:52Z</time>
      </trkpt>
      <trkpt lat="45.9319" lon="6.84771">
        <ele>1737.8258</ele>
        <time>2014-09-02T13:21:57Z</time>
      </trkpt>
      <trkpt lat="45.93183" lon="6.84771">
        <ele>1737.8258</ele>
        <time>2014-09-02T13:22:02Z</time>
      </trkpt>
      <trkpt lat="45.93182" lon="6.84773">
        <ele>1735.6788</ele>
        <time>2014-09-02T13:22:07Z</time>
      </trkpt>
      <trkpt lat="45.93183" lon="6.84775">
        <ele>1735.6788</ele>
        <time>2014-09-02T13:22:12Z</time>
      </trkpt>
      <trkpt lat="45.93186" lon="6.84778">
        <ele>1735.6788</ele>
        <time>2014-09-02T13:22:17Z</time>
      </trkpt>
      <trkpt lat="45.93189" lon="6.84792">
        <ele>1733.3494</ele>
        <time>2014-09-02T13:22:22Z</time>
      </trkpt>
      <trkpt lat="45.93191" lon="6.84794">
        <ele>1733.3494</ele>
        <time>2014-09-02T13:22:27Z</time>
      </trkpt>
      <trkpt lat="45.93194" lon="6.84795">
        <ele>1733.3494</ele>
        <time>2014-09-02T13:22:32Z</time>
      </trkpt>
      <trkpt lat="45.93195" lon="6.84804">
        <ele>1731.0802</ele>
        <time>2014-09-02T13:22:37Z</time>
      </trkpt>
      <trkpt lat="45.93196" lon="6.84808">
        <ele>1731.0802</ele>
        <time>2014-09-02T13:22:42Z</time>
      </trkpt>
      <trkpt lat="45.932" lon="6.84811">
        <ele>1731.0802</ele>
        <time>2014-09-02T13:22:47Z</time>
      </trkpt>
      <trkpt lat="45.93203" lon="6.84816">
        <ele>1728.7788</ele>
        <time>2014-09-02T13:22:52Z</time>
      </trkpt>
      <trkpt lat="45.93207" lon="6.84824">
        <ele>1728.7788</ele>
        <time>2014-09-02T13:22:57Z</time>
      </trkpt>
      <trkpt lat="45.93209" lon="6.84828">
        <ele>1726.3885</ele>
        <time>2014-09-02T13:23:02Z</time>
      </trkpt>
      <trkpt lat="45.9321" lon="6.8483">
        <ele>1726.3885</ele>
        <time>2014-09-02T13:23:07Z</time>
      </trkpt>
      <trkpt lat="45.93211" lon="6.84834">
        <ele>1726.3885</ele>
        <time>2014-09-02T13:23:12Z</time>
      </trkpt>
      <trkpt lat="45.93214" lon="6.84839">
        <ele>1723.7128</ele>
        <time>2014-09-02T13:23:17Z</time>
      </trkpt>
      <trkpt lat="45.93217" lon="6.84844">
        <ele>1723.7128</ele>
        <time>2014-09-02T13:23:22Z</time>
      </trkpt>
      <trkpt lat="45.93219" lon="6.8485">
        <ele>1721.1183</ele>
        <time>2014-09-02T13:23:27Z</time>
      </trkpt>
      <trkpt lat="45.93221" lon="6.84857">
        <ele>1721.1183</ele>
        <time>2014-09-02T13:23:32Z</time>
      </trkpt>
      <trkpt lat="45.93224" lon="6.84864">
        <ele>1718.7426</ele>
        <time>2014-09-02T13:23:37Z</time>
      </trkpt>
      <trkpt lat="45.9323" lon="6.84868">
        <ele>1718.7426</ele>
        <time>2014-09-02T13:23:42Z</time>
      </trkpt>
      <trkpt lat="45.93232" lon="6.8487">
        <ele>1716.4675</ele>
        <time>2014-09-02T13:23:47Z</time>
      </trkpt>
      <trkpt lat="45.93235" lon="6.84876">
        <ele>1716.4675</ele>
        <time>2014-09-02T13:23:52Z</time>
      </trkpt>
      <trkpt lat="45.93238" lon="6.84883">
        <ele>1714.3566</ele>
        <time>2014-09-02T13:23:57Z</time>
      </trkpt>
      <trkpt lat="45.93242" lon="6.84889">
        <ele>1714.3566</ele>
        <time>2014-09-02T13:24:02Z</time>
      </trkpt>
      <trkpt lat="45.93247" lon="6.84892">
        <ele>1712.4391</ele>
        <time>2014-09-02T13:24:07Z</time>
      </trkpt>
      <trkpt lat="45.93248" lon="6.84892">
        <ele>1712.4391</ele>
        <time>2014-09-02T13:24:12Z</time>
      </trkpt>
      <trkpt lat="45.9325" lon="6.84896">
        <ele>1712.4391</ele>
        <time>2014-09-02T13:24:17Z</time>
      </trkpt>
      <trkpt lat="45.93256" lon="6.84901">
        <ele>1710.7561</ele>
        <time>2014-09-02T13:24:22Z</time>
      </trkpt>
      <trkpt lat="45.93256" lon="6.84901">
        <ele>1710.7561</ele>
        <time>2014-09-02T13:24:27Z</time>
      </trkpt>
      <trkpt lat="45.93258" lon="6.84903">
        <ele>1710.7561</ele>
        <time>2014-09-02T13:24:32Z</time>
      </trkpt>
      <trkpt lat="45.93259" lon="6.84904">
        <ele>1710.7561</ele>
        <time>2014-09-02T13:24:37Z</time>
      </trkpt>
      <trkpt lat="45.93258" lon="6.84902">
        <ele>1710.7561</ele>
        <time>2014-09-02T13:24:42Z</time>
      </trkpt>
      <trkpt lat="45.93255" lon="6.84902">
        <ele>1710.7561</ele>
        <time>2014-09-02T13:24:47Z</time>
      </trkpt>
      <trkpt lat="45.93252" lon="6.84902">
        <ele>1708.5958</ele>
        <time>2014-09-02T13:24:52Z</time>
      </trkpt>
      <trkpt lat="45.93246" lon="6.84897">
        <ele>1708.5958</ele>
        <time>2014-09-02T13:24:57Z</time>
      </trkpt>
      <trkpt lat="45.93244" lon="6.84896">
        <ele>1706.5826</ele>
        <time>2014-09-02T13:25:02Z</time>
      </trkpt>
      <trkpt lat="45.93244" lon="6.84896">
        <ele>1706.5826</ele>
        <time>2014-09-02T13:25:07Z</time>
      </trkpt>
      <trkpt lat="45.93242" lon="6.84896">
        <ele>1706.5826</ele>
        <time>2014-09-02T13:25:27Z</time>
      </trkpt>
      <trkpt lat="45.93238" lon="6.84896">
        <ele>1706.5826</ele>
        <time>2014-09-02T13:25:32Z</time>
      </trkpt>
      <trkpt lat="45.93234" lon="6.84896">
        <ele>1704.4589</ele>
        <time>2014-09-02T13:25:37Z</time>
      </trkpt>
      <trkpt lat="45.93229" lon="6.84895">
        <ele>1704.4589</ele>
        <time>2014-09-02T13:25:42Z</time>
      </trkpt>
      <trkpt lat="45.93228" lon="6.84895">
        <ele>1704.4589</ele>
        <time>2014-09-02T13:25:47Z</time>
      </trkpt>
      <trkpt lat="45.93228" lon="6.84895">
        <ele>1704.4589</ele>
        <time>2014-09-02T13:25:52Z</time>
      </trkpt>
      <trkpt lat="45.93226" lon="6.84893">
        <ele>1702.2311</ele>
        <time>2014-09-02T13:25:57Z</time>
      </trkpt>
      <trkpt lat="45.93221" lon="6.84891">
        <ele>1702.2311</ele>
        <time>2014-09-02T13:26:02Z</time>
      </trkpt>
      <trkpt lat="45.93219" lon="6.84889">
        <ele>1702.2311</ele>
        <time>2014-09-02T13:26:07Z</time>
      </trkpt>
      <trkpt lat="45.93217" lon="6.84889">
        <ele>1700.1362</ele>
        <time>2014-09-02T13:26:12Z</time>
      </trkpt>
      <trkpt lat="45.93208" lon="6.8489">
        <ele>1700.1362</ele>
        <time>2014-09-02T13:26:17Z</time>
      </trkpt>
      <trkpt lat="45.93205" lon="6.8489">
        <ele>1698.1344</ele>
        <time>2014-09-02T13:26:22Z</time>
      </trkpt>
      <trkpt lat="45.93202" lon="6.84888">
        <ele>1698.1344</ele>
        <time>2014-09-02T13:26:27Z</time>
      </trkpt>
      <trkpt lat="45.93196" lon="6.84888">
        <ele>1696.1304</ele>
        <time>2014-09-02T13:26:32Z</time>
      </trkpt>
      <trkpt lat="45.93191" lon="6.84885">
        <ele>1696.1304</ele>
        <time>2014-09-02T13:26:37Z</time>
      </trkpt>
      <trkpt lat="45.93188" lon="6.84883">
        <ele>1694.0363</ele>
        <time>2014-09-02T13:26:42Z</time>
      </trkpt>
      <trkpt lat="45.93185" lon="6.8488">
        <ele>1694.0363</ele>
        <time>2014-09-02T13:26:47Z</time>
      </trkpt>
      <trkpt lat="45.93181" lon="6.8488">
        <ele>1694.0363</ele>
        <time>2014-09-02T13:26:52Z</time>
      </trkpt>
      <trkpt lat="45.93174" lon="6.84879">
        <ele>1691.6124</ele>
        <time>2014-09-02T13:26:57Z</time>
      </trkpt>
      <trkpt lat="45.93168" lon="6.84877">
        <ele>1691.6124</ele>
        <time>2014-09-02T13:27:02Z</time>
      </trkpt>
      <trkpt lat="45.93163" lon="6.84877">
        <ele>1689.0986</ele>
        <time>2014-09-02T13:27:07Z</time>
      </trkpt>
      <trkpt lat="45.93159" lon="6.84874">
        <ele>1689.0986</ele>
        <time>2014-09-02T13:27:12Z</time>
      </trkpt>
      <trkpt lat="45.93154" lon="6.84873">
        <ele>1686.6602</ele>
        <time>2014-09-02T13:27:17Z</time>
      </trkpt>
      <trkpt lat="45.93149" lon="6.84873">
        <ele>1686.6602</ele>
        <time>2014-09-02T13:27:22Z</time>
      </trkpt>
      <trkpt lat="45.93147" lon="6.84871">
        <ele>1686.6602</ele>
        <time>2014-09-02T13:27:27Z</time>
      </trkpt>
      <trkpt lat="45.93142" lon="6.8487">
        <ele>1684.0028</ele>
        <time>2014-09-02T13:27:32Z</time>
      </trkpt>
      <trkpt lat="45.93137" lon="6.84867">
        <ele>1684.0028</ele>
        <time>2014-09-02T13:27:37Z</time>
      </trkpt>
      <trkpt lat="45.93134" lon="6.84866">
        <ele>1684.0028</ele>
        <time>2014-09-02T13:27:42Z</time>
      </trkpt>
      <trkpt lat="45.93131" lon="6.84865">
        <ele>1681.2728</ele>
        <time>2014-09-02T13:27:47Z</time>
      </trkpt>
      <trkpt lat="45.93129" lon="6.84859">
        <ele>1681.2728</ele>
        <time>2014-09-02T13:27:52Z</time>
      </trkpt>
      <trkpt lat="45.93126" lon="6.8486">
        <ele>1681.2728</ele>
        <time>2014-09-02T13:27:57Z</time>
      </trkpt>
      <trkpt lat="45.93122" lon="6.84858">
        <ele>1678.6925</ele>
        <time>2014-09-02T13:28:02Z</time>
      </trkpt>
      <trkpt lat="45.93118" lon="6.84856">
        <ele>1678.6925</ele>
        <time>2014-09-02T13:28:07Z</time>
      </trkpt>
      <trkpt lat="45.93118" lon="6.84855">
        <ele>1678.6925</ele>
        <time>2014-09-02T13:28:12Z</time>
      </trkpt>
      <trkpt lat="45.93119" lon="6.84857">
        <ele>1678.6925</ele>
        <time>2014-09-02T13:28:17Z</time>
      </trkpt>
      <trkpt lat="45.9312" lon="6.84861">
        <ele>1676.2365</ele>
        <time>2014-09-02T13:28:22Z</time>
      </trkpt>
      <trkpt lat="45.93121" lon="6.84864">
        <ele>1676.2365</ele>
        <time>2014-09-02T13:28:27Z</time>
      </trkpt>
      <trkpt lat="45.93121" lon="6.84873">
        <ele>1676.2365</ele>
        <time>2014-09-02T13:28:32Z</time>
      </trkpt>
      <trkpt lat="45.93124" lon="6.84879">
        <ele>1673.8236</ele>
        <time>2014-09-02T13:28:37Z</time>
      </trkpt>
      <trkpt lat="45.93131" lon="6.8489">
        <ele>1671.638</ele>
        <time>2014-09-02T13:28:42Z</time>
      </trkpt>
      <trkpt lat="45.93132" lon="6.84896">
        <ele>1671.638</ele>
        <time>2014-09-02T13:28:47Z</time>
      </trkpt>
      <trkpt lat="45.93135" lon="6.84899">
        <ele>1671.638</ele>
        <time>2014-09-02T13:28:52Z</time>
      </trkpt>
      <trkpt lat="45.93138" lon="6.84902">
        <ele>1669.2585</ele>
        <time>2014-09-02T13:28:57Z</time>
      </trkpt>
      <trkpt lat="45.93138" lon="6.84905">
        <ele>1669.2585</ele>
        <time>2014-09-02T13:29:02Z</time>
      </trkpt>
      <trkpt lat="45.93138" lon="6.84907">
        <ele>1669.2585</ele>
        <time>2014-09-02T13:29:07Z</time>
      </trkpt>
      <trkpt lat="45.93138" lon="6.84909">
        <ele>1669.2585</ele>
        <time>2014-09-02T13:29:12Z</time>
      </trkpt>
      <trkpt lat="45.93139" lon="6.84912">
        <ele>1669.2585</ele>
        <time>2014-09-02T13:29:17Z</time>
      </trkpt>
      <trkpt lat="45.9314" lon="6.8492">
        <ele>1666.4257</ele>
        <time>2014-09-02T13:29:22Z</time>
      </trkpt>
      <trkpt lat="45.9314" lon="6.84927">
        <ele>1666.4257</ele>
        <time>2014-09-02T13:29:27Z</time>
      </trkpt>
      <trkpt lat="45.93142" lon="6.84937">
        <ele>1663.8077</ele>
        <time>2014-09-02T13:29:32Z</time>
      </trkpt>
      <trkpt lat="45.93143" lon="6.84944">
        <ele>1663.8077</ele>
        <time>2014-09-02T13:29:37Z</time>
      </trkpt>
      <trkpt lat="45.93145" lon="6.84951">
        <ele>1661.3607</ele>
        <time>2014-09-02T13:29:42Z</time>
      </trkpt>
      <trkpt lat="45.93147" lon="6.84958">
        <ele>1661.3607</ele>
        <time>2014-09-02T13:29:47Z</time>
      </trkpt>
      <trkpt lat="45.93151" lon="6.84966">
        <ele>1659.2018</ele>
        <time>2014-09-02T13:29:52Z</time>
      </trkpt>
      <trkpt lat="45.93155" lon="6.84974">
        <ele>1659.2018</ele>
        <time>2014-09-02T13:29:57Z</time>
      </trkpt>
      <trkpt lat="45.93157" lon="6.84982">
        <ele>1657.3955</ele>
        <time>2014-09-02T13:30:02Z</time>
      </trkpt>
      <trkpt lat="45.9316" lon="6.84986">
        <ele>1657.3955</ele>
        <time>2014-09-02T13:30:07Z</time>
      </trkpt>
      <trkpt lat="45.93163" lon="6.84992">
        <ele>1657.3955</ele>
        <time>2014-09-02T13:30:12Z</time>
      </trkpt>
      <trkpt lat="45.93165" lon="6.84996">
        <ele>1655.8423</ele>
        <time>2014-09-02T13:30:17Z</time>
      </trkpt>
      <trkpt lat="45.93165" lon="6.84998">
        <ele>1655.8423</ele>
        <time>2014-09-02T13:30:22Z</time>
      </trkpt>
      <trkpt lat="45.93165" lon="6.85005">
        <ele>1655.8423</ele>
        <time>2014-09-02T13:30:27Z</time>
      </trkpt>
      <trkpt lat="45.93159" lon="6.85005">
        <ele>1654.3483</ele>
        <time>2014-09-02T13:30:32Z</time>
      </trkpt>
      <trkpt lat="45.93153" lon="6.84999">
        <ele>1654.3483</ele>
        <time>2014-09-02T13:30:37Z</time>
      </trkpt>
      <trkpt lat="45.93149" lon="6.84998">
        <ele>1652.5461</ele>
        <time>2014-09-02T13:30:42Z</time>
      </trkpt>
      <trkpt lat="45.93146" lon="6.84995">
        <ele>1652.5461</ele>
        <time>2014-09-02T13:30:47Z</time>
      </trkpt>
      <trkpt lat="45.93142" lon="6.84993">
        <ele>1652.5461</ele>
        <time>2014-09-02T13:30:52Z</time>
      </trkpt>
      <trkpt lat="45.93138" lon="6.84988">
        <ele>1650.3994</ele>
        <time>2014-09-02T13:30:57Z</time>
      </trkpt>
      <trkpt lat="45.93135" lon="6.84985">
        <ele>1650.3994</ele>
        <time>2014-09-02T13:31:02Z</time>
      </trkpt>
      <trkpt lat="45.93131" lon="6.84983">
        <ele>1650.3994</ele>
        <time>2014-09-02T13:31:07Z</time>
      </trkpt>
      <trkpt lat="45.93126" lon="6.8498">
        <ele>1648.0192</ele>
        <time>2014-09-02T13:31:12Z</time>
      </trkpt>
      <trkpt lat="45.93121" lon="6.84975">
        <ele>1648.0192</ele>
        <time>2014-09-02T13:31:17Z</time>
      </trkpt>
      <trkpt lat="45.93116" lon="6.84967">
        <ele>1645.855</ele>
        <time>2014-09-02T13:31:22Z</time>
      </trkpt>
      <trkpt lat="45.93111" lon="6.84964">
        <ele>1645.855</ele>
        <time>2014-09-02T13:31:27Z</time>
      </trkpt>
      <trkpt lat="45.93107" lon="6.84962">
        <ele>1643.8473</ele>
        <time>2014-09-02T13:31:32Z</time>
      </trkpt>
      <trkpt lat="45.93102" lon="6.8496">
        <ele>1643.8473</ele>
        <time>2014-09-02T13:31:37Z</time>
      </trkpt>
      <trkpt lat="45.931" lon="6.84958">
        <ele>1643.8473</ele>
        <time>2014-09-02T13:31:42Z</time>
      </trkpt>
      <trkpt lat="45.93096" lon="6.84956">
        <ele>1641.5657</ele>
        <time>2014-09-02T13:31:47Z</time>
      </trkpt>
      <trkpt lat="45.93092" lon="6.84955">
        <ele>1641.5657</ele>
        <time>2014-09-02T13:31:52Z</time>
      </trkpt>
      <trkpt lat="45.93088" lon="6.84953">
        <ele>1641.5657</ele>
        <time>2014-09-02T13:31:57Z</time>
      </trkpt>
      <trkpt lat="45.93084" lon="6.84952">
        <ele>1639.0588</ele>
        <time>2014-09-02T13:32:02Z</time>
      </trkpt>
      <trkpt lat="45.9308" lon="6.8495">
        <ele>1639.0588</ele>
        <time>2014-09-02T13:32:07Z</time>
      </trkpt>
      <trkpt lat="45.93077" lon="6.8495">
        <ele>1639.0588</ele>
        <time>2014-09-02T13:32:12Z</time>
      </trkpt>
      <trkpt lat="45.93077" lon="6.84952">
        <ele>1636.4017</ele>
        <time>2014-09-02T13:32:17Z</time>
      </trkpt>
      <trkpt lat="45.93084" lon="6.84955">
        <ele>1636.4017</ele>
        <time>2014-09-02T13:32:22Z</time>
      </trkpt>
      <trkpt lat="45.93089" lon="6.84959">
        <ele>1633.563</ele>
        <time>2014-09-02T13:32:27Z</time>
      </trkpt>
      <trkpt lat="45.93091" lon="6.84967">
        <ele>1633.563</ele>
        <time>2014-09-02T13:32:32Z</time>
      </trkpt>
      <trkpt lat="45.93094" lon="6.84976">
        <ele>1630.9034</ele>
        <time>2014-09-02T13:32:37Z</time>
      </trkpt>
      <trkpt lat="45.93095" lon="6.84982">
        <ele>1630.9034</ele>
        <time>2014-09-02T13:32:42Z</time>
      </trkpt>
      <trkpt lat="45.93094" lon="6.84986">
        <ele>1630.9034</ele>
        <time>2014-09-02T13:32:47Z</time>
      </trkpt>
      <trkpt lat="45.93093" lon="6.84987">
        <ele>1630.9034</ele>
        <time>2014-09-02T13:32:52Z</time>
      </trkpt>
      <trkpt lat="45.93093" lon="6.8499">
        <ele>1628.1226</ele>
        <time>2014-09-02T13:32:57Z</time>
      </trkpt>
      <trkpt lat="45.93093" lon="6.84996">
        <ele>1628.1226</ele>
        <time>2014-09-02T13:33:02Z</time>
      </trkpt>
      <trkpt lat="45.93093" lon="6.85003">
        <ele>1625.4182</ele>
        <time>2014-09-02T13:33:07Z</time>
      </trkpt>
      <trkpt lat="45.93097" lon="6.85013">
        <ele>1625.4182</ele>
        <time>2014-09-02T13:33:12Z</time>
      </trkpt>
      <trkpt lat="45.93098" lon="6.85017">
        <ele>1622.9586</ele>
        <time>2014-09-02T13:33:17Z</time>
      </trkpt>
      <trkpt lat="45.93098" lon="6.85024">
        <ele>1622.9586</ele>
        <time>2014-09-02T13:33:22Z</time>
      </trkpt>
      <trkpt lat="45.93098" lon="6.85028">
        <ele>1622.9586</ele>
        <time>2014-09-02T13:33:27Z</time>
      </trkpt>
      <trkpt lat="45.93099" lon="6.85038">
        <ele>1620.6255</ele>
        <time>2014-09-02T13:33:32Z</time>
      </trkpt>
      <trkpt lat="45.931" lon="6.85046">
        <ele>1620.6255</ele>
        <time>2014-09-02T13:33:37Z</time>
      </trkpt>
      <trkpt lat="45.93104" lon="6.85051">
        <ele>1618.3088</ele>
        <time>2014-09-02T13:33:42Z</time>
      </trkpt>
      <trkpt lat="45.93105" lon="6.85055">
        <ele>1618.3088</ele>
        <time>2014-09-02T13:33:47Z</time>
      </trkpt>
      <trkpt lat="45.93105" lon="6.85061">
        <ele>1618.3088</ele>
        <time>2014-09-02T13:33:52Z</time>
      </trkpt>
      <trkpt lat="45.93106" lon="6.8507">
        <ele>1615.9641</ele>
        <time>2014-09-02T13:33:57Z</time>
      </trkpt>
      <trkpt lat="45.93108" lon="6.85073">
        <ele>1615.9641</ele>
        <time>2014-09-02T13:34:02Z</time>
      </trkpt>
      <trkpt lat="45.93113" lon="6.85081">
        <ele>1613.9829</ele>
        <time>2014-09-02T13:34:07Z</time>
      </trkpt>
      <trkpt lat="45.93115" lon="6.85084">
        <ele>1613.9829</ele>
        <time>2014-09-02T13:34:12Z</time>
      </trkpt>
      <trkpt lat="45.93115" lon="6.85084">
        <ele>1613.9829</ele>
        <time>2014-09-02T13:34:17Z</time>
      </trkpt>
      <trkpt lat="45.93115" lon="6.85086">
        <ele>1613.9829</ele>
        <time>2014-09-02T13:34:22Z</time>
      </trkpt>
      <trkpt lat="45.93116" lon="6.85092">
        <ele>1613.9829</ele>
        <time>2014-09-02T13:34:27Z</time>
      </trkpt>
      <trkpt lat="45.93117" lon="6.85096">
        <ele>1612.3662</ele>
        <time>2014-09-02T13:34:32Z</time>
      </trkpt>
      <trkpt lat="45.93117" lon="6.85098">
        <ele>1612.3662</ele>
        <time>2014-09-02T13:34:37Z</time>
      </trkpt>
      <trkpt lat="45.93118" lon="6.85099">
        <ele>1612.3662</ele>
        <time>2014-09-02T13:34:42Z</time>
      </trkpt>
      <trkpt lat="45.93118" lon="6.85102">
        <ele>1612.3662</ele>
        <time>2014-09-02T13:34:47Z</time>
      </trkpt>
      <trkpt lat="45.93118" lon="6.85104">
        <ele>1612.3662</ele>
        <time>2014-09-02T13:34:52Z</time>
      </trkpt>
      <trkpt lat="45.93116" lon="6.85103">
        <ele>1612.3662</ele>
        <time>2014-09-02T13:34:57Z</time>
      </trkpt>
      <trkpt lat="45.93117" lon="6.85104">
        <ele>1612.3662</ele>
        <time>2014-09-02T13:35:02Z</time>
      </trkpt>
      <trkpt lat="45.93117" lon="6.85106">
        <ele>1610.365</ele>
        <time>2014-09-02T13:35:07Z</time>
      </trkpt>
      <trkpt lat="45.93118" lon="6.85108">
        <ele>1610.365</ele>
        <time>2014-09-02T13:35:12Z</time>
      </trkpt>
      <trkpt lat="45.93118" lon="6.85108">
        <ele>1610.365</ele>
        <time>2014-09-02T13:35:17Z</time>
      </trkpt>
      <trkpt lat="45.93118" lon="6.85113">
        <ele>1610.365</ele>
        <time>2014-09-02T13:35:27Z</time>
      </trkpt>
      <trkpt lat="45.93118" lon="6.85113">
        <ele>1610.365</ele>
        <time>2014-09-02T13:35:32Z</time>
      </trkpt>
      <trkpt lat="45.9312" lon="6.85122">
        <ele>1608.1364</ele>
        <time>2014-09-02T13:35:42Z</time>
      </trkpt>
      <trkpt lat="45.93118" lon="6.85128">
        <ele>1608.1364</ele>
        <time>2014-09-02T13:35:47Z</time>
      </trkpt>
      <trkpt lat="45.93119" lon="6.8513">
        <ele>1608.1364</ele>
        <time>2014-09-02T13:35:52Z</time>
      </trkpt>
      <trkpt lat="45.93124" lon="6.85136">
        <ele>1605.74</ele>
        <time>2014-09-02T13:35:57Z</time>
      </trkpt>
      <trkpt lat="45.93127" lon="6.85144">
        <ele>1605.74</ele>
        <time>2014-09-02T13:36:02Z</time>
      </trkpt>
      <trkpt lat="45.93128" lon="6.85152">
        <ele>1603.52</ele>
        <time>2014-09-02T13:36:07Z</time>
      </trkpt>
      <trkpt lat="45.93127" lon="6.85163">
        <ele>1603.52</ele>
        <time>2014-09-02T13:36:12Z</time>
      </trkpt>
      <trkpt lat="45.93128" lon="6.85166">
        <ele>1601.4058</ele>
        <time>2014-09-02T13:36:17Z</time>
      </trkpt>
      <trkpt lat="45.93128" lon="6.85168">
        <ele>1601.4058</ele>
        <time>2014-09-02T13:36:22Z</time>
      </trkpt>
      <trkpt lat="45.93128" lon="6.85177">
        <ele>1601.4058</ele>
        <time>2014-09-02T13:36:27Z</time>
      </trkpt>
      <trkpt lat="45.93128" lon="6.85182">
        <ele>1599.1873</ele>
        <time>2014-09-02T13:36:32Z</time>
      </trkpt>
      <trkpt lat="45.93129" lon="6.8519">
        <ele>1599.1873</ele>
        <time>2014-09-02T13:36:37Z</time>
      </trkpt>
      <trkpt lat="45.93129" lon="6.85192">
        <ele>1599.1873</ele>
        <time>2014-09-02T13:36:42Z</time>
      </trkpt>
      <trkpt lat="45.93127" lon="6.85194">
        <ele>1597.2032</ele>
        <time>2014-09-02T13:36:47Z</time>
      </trkpt>
      <trkpt lat="45.93127" lon="6.85195">
        <ele>1597.2032</ele>
        <time>2014-09-02T13:36:52Z</time>
      </trkpt>
      <trkpt lat="45.93125" lon="6.85198">
        <ele>1597.2032</ele>
        <time>2014-09-02T13:36:57Z</time>
      </trkpt>
      <trkpt lat="45.93123" lon="6.85203">
        <ele>1597.2032</ele>
        <time>2014-09-02T13:37:02Z</time>
      </trkpt>
      <trkpt lat="45.93123" lon="6.85205">
        <ele>1595.4647</ele>
        <time>2014-09-02T13:37:07Z</time>
      </trkpt>
      <trkpt lat="45.9312" lon="6.85208">
        <ele>1595.4647</ele>
        <time>2014-09-02T13:37:12Z</time>
      </trkpt>
      <trkpt lat="45.93117" lon="6.8521">
        <ele>1595.4647</ele>
        <time>2014-09-02T13:37:17Z</time>
      </trkpt>
      <trkpt lat="45.93114" lon="6.85216">
        <ele>1594.1683</ele>
        <time>2014-09-02T13:37:22Z</time>
      </trkpt>
      <trkpt lat="45.93105" lon="6.85229">
        <ele>1593.1635</ele>
        <time>2014-09-02T13:37:27Z</time>
      </trkpt>
      <trkpt lat="45.93105" lon="6.85236">
        <ele>1593.1635</ele>
        <time>2014-09-02T13:37:32Z</time>
      </trkpt>
      <trkpt lat="45.93104" lon="6.85241">
        <ele>1593.1635</ele>
        <time>2014-09-02T13:37:37Z</time>
      </trkpt>
      <trkpt lat="45.93103" lon="6.85246">
        <ele>1592.5695</ele>
        <time>2014-09-02T13:37:42Z</time>
      </trkpt>
      <trkpt lat="45.93102" lon="6.85249">
        <ele>1592.5695</ele>
        <time>2014-09-02T13:37:47Z</time>
      </trkpt>
      <trkpt lat="45.93102" lon="6.85251">
        <ele>1592.5695</ele>
        <time>2014-09-02T13:37:52Z</time>
      </trkpt>
      <trkpt lat="45.931" lon="6.8526">
        <ele>1592.3226</ele>
        <time>2014-09-02T13:37:57Z</time>
      </trkpt>
      <trkpt lat="45.93098" lon="6.85266">
        <ele>1592.3226</ele>
        <time>2014-09-02T13:38:02Z</time>
      </trkpt>
      <trkpt lat="45.93095" lon="6.85274">
        <ele>1592.147</ele>
        <time>2014-09-02T13:38:07Z</time>
      </trkpt>
      <trkpt lat="45.9309" lon="6.85277">
        <ele>1592.147</ele>
        <time>2014-09-02T13:38:12Z</time>
      </trkpt>
      <trkpt lat="45.93086" lon="6.85279">
        <ele>1592.0747</ele>
        <time>2014-09-02T13:38:17Z</time>
      </trkpt>
      <trkpt lat="45.93082" lon="6.85283">
        <ele>1592.0747</ele>
        <time>2014-09-02T13:38:22Z</time>
      </trkpt>
      <trkpt lat="45.93082" lon="6.85283">
        <ele>1592.0747</ele>
        <time>2014-09-02T13:38:27Z</time>
      </trkpt>
      <trkpt lat="45.9308" lon="6.85287">
        <ele>1592.0747</ele>
        <time>2014-09-02T13:38:37Z</time>
      </trkpt>
      <trkpt lat="45.9308" lon="6.85287">
        <ele>1592.0747</ele>
        <time>2014-09-02T13:38:42Z</time>
      </trkpt>
      <trkpt lat="45.9308" lon="6.85289">
        <ele>1591.588</ele>
        <time>2014-09-02T13:38:47Z</time>
      </trkpt>
      <trkpt lat="45.9308" lon="6.85298">
        <ele>1591.588</ele>
        <time>2014-09-02T13:38:52Z</time>
      </trkpt>
      <trkpt lat="45.93079" lon="6.85312">
        <ele>1590.8567</ele>
        <time>2014-09-02T13:38:57Z</time>
      </trkpt>
      <trkpt lat="45.93078" lon="6.85316">
        <ele>1590.8567</ele>
        <time>2014-09-02T13:39:02Z</time>
      </trkpt>
      <trkpt lat="45.93078" lon="6.85326">
        <ele>1590.1255</ele>
        <time>2014-09-02T13:39:07Z</time>
      </trkpt>
      <trkpt lat="45.93078" lon="6.85328">
        <ele>1590.1255</ele>
        <time>2014-09-02T13:39:12Z</time>
      </trkpt>
      <trkpt lat="45.93077" lon="6.85333">
        <ele>1590.1255</ele>
        <time>2014-09-02T13:39:17Z</time>
      </trkpt>
      <trkpt lat="45.93073" lon="6.85346">
        <ele>1589.304</ele>
        <time>2014-09-02T13:39:22Z</time>
      </trkpt>
      <trkpt lat="45.93073" lon="6.85349">
        <ele>1589.304</ele>
        <time>2014-09-02T13:39:27Z</time>
      </trkpt>
      <trkpt lat="45.93068" lon="6.85361">
        <ele>1588.4963</ele>
        <time>2014-09-02T13:39:32Z</time>
      </trkpt>
      <trkpt lat="45.93068" lon="6.85361">
        <ele>1588.4963</ele>
        <time>2014-09-02T13:39:37Z</time>
      </trkpt>
      <trkpt lat="45.93066" lon="6.85369">
        <ele>1588.4963</ele>
        <time>2014-09-02T13:39:42Z</time>
      </trkpt>
      <trkpt lat="45.93061" lon="6.85381">
        <ele>1587.6404</ele>
        <time>2014-09-02T13:39:47Z</time>
      </trkpt>
      <trkpt lat="45.93057" lon="6.85392">
        <ele>1587.6404</ele>
        <time>2014-09-02T13:39:52Z</time>
      </trkpt>
      <trkpt lat="45.93052" lon="6.85406">
        <ele>1586.6069</ele>
        <time>2014-09-02T13:39:57Z</time>
      </trkpt>
      <trkpt lat="45.93052" lon="6.85412">
        <ele>1586.6069</ele>
        <time>2014-09-02T13:40:02Z</time>
      </trkpt>
      <trkpt lat="45.93052" lon="6.85416">
        <ele>1586.6069</ele>
        <time>2014-09-02T13:40:07Z</time>
      </trkpt>
      <trkpt lat="45.93052" lon="6.85418">
        <ele>1586.6069</ele>
        <time>2014-09-02T13:40:12Z</time>
      </trkpt>
      <trkpt lat="45.93051" lon="6.85419">
        <ele>1585.2766</ele>
        <time>2014-09-02T13:40:17Z</time>
      </trkpt>
      <trkpt lat="45.93051" lon="6.85419">
        <ele>1585.2766</ele>
        <time>2014-09-02T13:40:22Z</time>
      </trkpt>
      <trkpt lat="45.93051" lon="6.85423">
        <ele>1585.2766</ele>
        <time>2014-09-02T13:40:27Z</time>
      </trkpt>
      <trkpt lat="45.93049" lon="6.85426">
        <ele>1585.2766</ele>
        <time>2014-09-02T13:40:32Z</time>
      </trkpt>
      <trkpt lat="45.93048" lon="6.8543">
        <ele>1585.2766</ele>
        <time>2014-09-02T13:40:37Z</time>
      </trkpt>
      <trkpt lat="45.93047" lon="6.85433">
        <ele>1583.9004</ele>
        <time>2014-09-02T13:40:42Z</time>
      </trkpt>
      <trkpt lat="45.93043" lon="6.85453">
        <ele>1582.6962</ele>
        <time>2014-09-02T13:40:47Z</time>
      </trkpt>
      <trkpt lat="45.93035" lon="6.85465">
        <ele>1581.6353</ele>
        <time>2014-09-02T13:40:52Z</time>
      </trkpt>
      <trkpt lat="45.93033" lon="6.85474">
        <ele>1581.6353</ele>
        <time>2014-09-02T13:40:57Z</time>
      </trkpt>
      <trkpt lat="45.93031" lon="6.85482">
        <ele>1580.7195</ele>
        <time>2014-09-02T13:41:02Z</time>
      </trkpt>
      <trkpt lat="45.93027" lon="6.85493">
        <ele>1580.7195</ele>
        <time>2014-09-02T13:41:07Z</time>
      </trkpt>
      <trkpt lat="45.93019" lon="6.85513">
        <ele>1579.5034</ele>
        <time>2014-09-02T13:41:12Z</time>
      </trkpt>
      <trkpt lat="45.9301" lon="6.8552">
        <ele>1578.1661</ele>
        <time>2014-09-02T13:41:17Z</time>
      </trkpt>
      <trkpt lat="45.93006" lon="6.85518">
        <ele>1578.1661</ele>
        <time>2014-09-02T13:41:22Z</time>
      </trkpt>
      <trkpt lat="45.93006" lon="6.85518">
        <ele>1578.1661</ele>
        <time>2014-09-02T13:41:27Z</time>
      </trkpt>
      <trkpt lat="45.93002" lon="6.85523">
        <ele>1576.6003</ele>
        <time>2014-09-02T13:41:32Z</time>
      </trkpt>
      <trkpt lat="45.93001" lon="6.85524">
        <ele>1576.6003</ele>
        <time>2014-09-02T13:41:37Z</time>
      </trkpt>
      <trkpt lat="45.92995" lon="6.8553">
        <ele>1576.6003</ele>
        <time>2014-09-02T13:41:42Z</time>
      </trkpt>
      <trkpt lat="45.92993" lon="6.85534">
        <ele>1575.1682</ele>
        <time>2014-09-02T13:41:47Z</time>
      </trkpt>
      <trkpt lat="45.92989" lon="6.85538">
        <ele>1575.1682</ele>
        <time>2014-09-02T13:41:52Z</time>
      </trkpt>
      <trkpt lat="45.92984" lon="6.85545">
        <ele>1573.8307</ele>
        <time>2014-09-02T13:41:57Z</time>
      </trkpt>
      <trkpt lat="45.92983" lon="6.85553">
        <ele>1573.8307</ele>
        <time>2014-09-02T13:42:02Z</time>
      </trkpt>
      <trkpt lat="45.92978" lon="6.85556">
        <ele>1572.5511</ele>
        <time>2014-09-02T13:42:07Z</time>
      </trkpt>
      <trkpt lat="45.92977" lon="6.8556">
        <ele>1572.5511</ele>
        <time>2014-09-02T13:42:12Z</time>
      </trkpt>
      <trkpt lat="45.92978" lon="6.85562">
        <ele>1572.5511</ele>
        <time>2014-09-02T13:42:17Z</time>
      </trkpt>
      <trkpt lat="45.92981" lon="6.85566">
        <ele>1572.5511</ele>
        <time>2014-09-02T13:42:22Z</time>
      </trkpt>
      <trkpt lat="45.92985" lon="6.85569">
        <ele>1570.6615</ele>
        <time>2014-09-02T13:42:27Z</time>
      </trkpt>
      <trkpt lat="45.92989" lon="6.85571">
        <ele>1570.6615</ele>
        <time>2014-09-02T13:42:32Z</time>
      </trkpt>
      <trkpt lat="45.9299" lon="6.85575">
        <ele>1570.6615</ele>
        <time>2014-09-02T13:42:37Z</time>
      </trkpt>
      <trkpt lat="45.92995" lon="6.85585">
        <ele>1568.4526</ele>
        <time>2014-09-02T13:42:42Z</time>
      </trkpt>
      <trkpt lat="45.92996" lon="6.85589">
        <ele>1568.4526</ele>
        <time>2014-09-02T13:42:47Z</time>
      </trkpt>
      <trkpt lat="45.92998" lon="6.85596">
        <ele>1568.4526</ele>
        <time>2014-09-02T13:42:52Z</time>
      </trkpt>
      <trkpt lat="45.92999" lon="6.85602">
        <ele>1565.7047</ele>
        <time>2014-09-02T13:42:57Z</time>
      </trkpt>
      <trkpt lat="45.93002" lon="6.85606">
        <ele>1565.7047</ele>
        <time>2014-09-02T13:43:02Z</time>
      </trkpt>
      <trkpt lat="45.93005" lon="6.85611">
        <ele>1565.7047</ele>
        <time>2014-09-02T13:43:07Z</time>
      </trkpt>
      <trkpt lat="45.93004" lon="6.85614">
        <ele>1562.6481</ele>
        <time>2014-09-02T13:43:12Z</time>
      </trkpt>
      <trkpt lat="45.93005" lon="6.85623">
        <ele>1562.6481</ele>
        <time>2014-09-02T13:43:17Z</time>
      </trkpt>
      <trkpt lat="45.93006" lon="6.85627">
        <ele>1562.6481</ele>
        <time>2014-09-02T13:43:22Z</time>
      </trkpt>
      <trkpt lat="45.93008" lon="6.85626">
        <ele>1559.4253</ele>
        <time>2014-09-02T13:43:27Z</time>
      </trkpt>
      <trkpt lat="45.93009" lon="6.85628">
        <ele>1559.4253</ele>
        <time>2014-09-02T13:43:32Z</time>
      </trkpt>
      <trkpt lat="45.9301" lon="6.8563">
        <ele>1559.4253</ele>
        <time>2014-09-02T13:43:37Z</time>
      </trkpt>
      <trkpt lat="45.9301" lon="6.85635">
        <ele>1559.4253</ele>
        <time>2014-09-02T13:43:42Z</time>
      </trkpt>
      <trkpt lat="45.93009" lon="6.8564">
        <ele>1556.0099</ele>
        <time>2014-09-02T13:43:47Z</time>
      </trkpt>
      <trkpt lat="45.93009" lon="6.85643">
        <ele>1556.0099</ele>
        <time>2014-09-02T13:43:52Z</time>
      </trkpt>
      <trkpt lat="45.93009" lon="6.85648">
        <ele>1556.0099</ele>
        <time>2014-09-02T13:43:57Z</time>
      </trkpt>
      <trkpt lat="45.93007" lon="6.85652">
        <ele>1556.0099</ele>
        <time>2014-09-02T13:44:02Z</time>
      </trkpt>
      <trkpt lat="45.93008" lon="6.85658">
        <ele>1552.5511</ele>
        <time>2014-09-02T13:44:07Z</time>
      </trkpt>
      <trkpt lat="45.9301" lon="6.85661">
        <ele>1552.5511</ele>
        <time>2014-09-02T13:44:12Z</time>
      </trkpt>
      <trkpt lat="45.9301" lon="6.85664">
        <ele>1552.5511</ele>
        <time>2014-09-02T13:44:17Z</time>
      </trkpt>
      <trkpt lat="45.93011" lon="6.85669">
        <ele>1552.5511</ele>
        <time>2014-09-02T13:44:22Z</time>
      </trkpt>
      <trkpt lat="45.93013" lon="6.85675">
        <ele>1548.9569</ele>
        <time>2014-09-02T13:44:27Z</time>
      </trkpt>
      <trkpt lat="45.93015" lon="6.85678">
        <ele>1548.9569</ele>
        <time>2014-09-02T13:44:32Z</time>
      </trkpt>
      <trkpt lat="45.93017" lon="6.85681">
        <ele>1548.9569</ele>
        <time>2014-09-02T13:44:37Z</time>
      </trkpt>
      <trkpt lat="45.93017" lon="6.85682">
        <ele>1548.9569</ele>
        <time>2014-09-02T13:44:42Z</time>
      </trkpt>
      <trkpt lat="45.93013" lon="6.85686">
        <ele>1545.1421</ele>
        <time>2014-09-02T13:44:47Z</time>
      </trkpt>
      <trkpt lat="45.93012" lon="6.85687">
        <ele>1545.1421</ele>
        <time>2014-09-02T13:44:52Z</time>
      </trkpt>
      <trkpt lat="45.93013" lon="6.85697">
        <ele>1545.1421</ele>
        <time>2014-09-02T13:44:57Z</time>
      </trkpt>
      <trkpt lat="45.93015" lon="6.85707">
        <ele>1541.3165</ele>
        <time>2014-09-02T13:45:02Z</time>
      </trkpt>
      <trkpt lat="45.93015" lon="6.85707">
        <ele>1541.3165</ele>
        <time>2014-09-02T13:45:07Z</time>
      </trkpt>
      <trkpt lat="45.93015" lon="6.85708">
        <ele>1541.3165</ele>
        <time>2014-09-02T13:45:12Z</time>
      </trkpt>
      <trkpt lat="45.93015" lon="6.85708">
        <ele>1541.3165</ele>
        <time>2014-09-02T13:45:17Z</time>
      </trkpt>
      <trkpt lat="45.93014" lon="6.8571">
        <ele>1541.3165</ele>
        <time>2014-09-02T13:45:22Z</time>
      </trkpt>
      <trkpt lat="45.93014" lon="6.8571">
        <ele>1541.3165</ele>
        <time>2014-09-02T13:45:27Z</time>
      </trkpt>
      <trkpt lat="45.93014" lon="6.85712">
        <ele>1541.3165</ele>
        <time>2014-09-02T13:45:37Z</time>
      </trkpt>
      <trkpt lat="45.93018" lon="6.85714">
        <ele>1541.3165</ele>
        <time>2014-09-02T13:45:42Z</time>
      </trkpt>
      <trkpt lat="45.93018" lon="6.85714">
        <ele>1541.3165</ele>
        <time>2014-09-02T13:45:47Z</time>
      </trkpt>
      <trkpt lat="45.93018" lon="6.85715">
        <ele>1537.4443</ele>
        <time>2014-09-02T13:45:52Z</time>
      </trkpt>
      <trkpt lat="45.93018" lon="6.85715">
        <ele>1537.4443</ele>
        <time>2014-09-02T13:45:57Z</time>
      </trkpt>
      <trkpt lat="45.93017" lon="6.85715">
        <ele>1537.4443</ele>
        <time>2014-09-02T13:46:02Z</time>
      </trkpt>
      <trkpt lat="45.93015" lon="6.85714">
        <ele>1537.4443</ele>
        <time>2014-09-02T13:46:07Z</time>
      </trkpt>
      <trkpt lat="45.9301" lon="6.85711">
        <ele>1537.4443</ele>
        <time>2014-09-02T13:46:12Z</time>
      </trkpt>
      <trkpt lat="45.93009" lon="6.8571">
        <ele>1533.4921</ele>
        <time>2014-09-02T13:46:17Z</time>
      </trkpt>
      <trkpt lat="45.93007" lon="6.85709">
        <ele>1533.4921</ele>
        <time>2014-09-02T13:46:22Z</time>
      </trkpt>
      <trkpt lat="45.93007" lon="6.85708">
        <ele>1533.4921</ele>
        <time>2014-09-02T13:46:27Z</time>
      </trkpt>
      <trkpt lat="45.93006" lon="6.85708">
        <ele>1533.4921</ele>
        <time>2014-09-02T13:46:32Z</time>
      </trkpt>
      <trkpt lat="45.93006" lon="6.85709">
        <ele>1533.4921</ele>
        <time>2014-09-02T13:46:37Z</time>
      </trkpt>
      <trkpt lat="45.93006" lon="6.85709">
        <ele>1533.4921</ele>
        <time>2014-09-02T13:46:42Z</time>
      </trkpt>
      <trkpt lat="45.93006" lon="6.85711">
        <ele>1533.4921</ele>
        <time>2014-09-02T13:46:47Z</time>
      </trkpt>
      <trkpt lat="45.93006" lon="6.85711">
        <ele>1533.4921</ele>
        <time>2014-09-02T13:46:52Z</time>
      </trkpt>
      <trkpt lat="45.93004" lon="6.85712">
        <ele>1533.4921</ele>
        <time>2014-09-02T13:46:57Z</time>
      </trkpt>
      <trkpt lat="45.93003" lon="6.8571">
        <ele>1533.4921</ele>
        <time>2014-09-02T13:47:17Z</time>
      </trkpt>
      <trkpt lat="45.93" lon="6.85707">
        <ele>1529.4865</ele>
        <time>2014-09-02T13:47:22Z</time>
      </trkpt>
      <trkpt lat="45.93" lon="6.85707">
        <ele>1529.4865</ele>
        <time>2014-09-02T13:47:27Z</time>
      </trkpt>
      <trkpt lat="45.92998" lon="6.85707">
        <ele>1529.4865</ele>
        <time>2014-09-02T13:47:42Z</time>
      </trkpt>
      <trkpt lat="45.92992" lon="6.85708">
        <ele>1529.4865</ele>
        <time>2014-09-02T13:47:47Z</time>
      </trkpt>
      <trkpt lat="45.92986" lon="6.85701">
        <ele>1525.8274</ele>
        <time>2014-09-02T13:47:52Z</time>
      </trkpt>
      <trkpt lat="45.92984" lon="6.85701">
        <ele>1525.8274</ele>
        <time>2014-09-02T13:47:57Z</time>
      </trkpt>
      <trkpt lat="45.92983" lon="6.85701">
        <ele>1525.8274</ele>
        <time>2014-09-02T13:48:02Z</time>
      </trkpt>
      <trkpt lat="45.92983" lon="6.85705">
        <ele>1525.8274</ele>
        <time>2014-09-02T13:48:07Z</time>
      </trkpt>
      <trkpt lat="45.92983" lon="6.85704">
        <ele>1525.8274</ele>
        <time>2014-09-02T13:48:12Z</time>
      </trkpt>
      <trkpt lat="45.92983" lon="6.85703">
        <ele>1525.8274</ele>
        <time>2014-09-02T13:48:17Z</time>
      </trkpt>
      <trkpt lat="45.92985" lon="6.85699">
        <ele>1521.976</ele>
        <time>2014-09-02T13:48:22Z</time>
      </trkpt>
      <trkpt lat="45.92982" lon="6.85694">
        <ele>1521.976</ele>
        <time>2014-09-02T13:48:27Z</time>
      </trkpt>
      <trkpt lat="45.92984" lon="6.85686">
        <ele>1518.428</ele>
        <time>2014-09-02T13:48:32Z</time>
      </trkpt>
      <trkpt lat="45.92982" lon="6.85685">
        <ele>1518.428</ele>
        <time>2014-09-02T13:48:37Z</time>
      </trkpt>
      <trkpt lat="45.9298" lon="6.85688">
        <ele>1518.428</ele>
        <time>2014-09-02T13:48:42Z</time>
      </trkpt>
      <trkpt lat="45.92979" lon="6.85692">
        <ele>1518.428</ele>
        <time>2014-09-02T13:48:47Z</time>
      </trkpt>
      <trkpt lat="45.92979" lon="6.85696">
        <ele>1514.6904</ele>
        <time>2014-09-02T13:48:52Z</time>
      </trkpt>
      <trkpt lat="45.92979" lon="6.85696">
        <ele>1514.6904</ele>
        <time>2014-09-02T13:48:57Z</time>
      </trkpt>
      <trkpt lat="45.92978" lon="6.85695">
        <ele>1514.6904</ele>
        <time>2014-09-02T13:49:02Z</time>
      </trkpt>
      <trkpt lat="45.92976" lon="6.85693">
        <ele>1514.6904</ele>
        <time>2014-09-02T13:49:07Z</time>
      </trkpt>
      <trkpt lat="45.92976" lon="6.85693">
        <ele>1514.6904</ele>
        <time>2014-09-02T13:49:12Z</time>
      </trkpt>
      <trkpt lat="45.92974" lon="6.85691">
        <ele>1514.6904</ele>
        <time>2014-09-02T13:49:17Z</time>
      </trkpt>
      <trkpt lat="45.9297" lon="6.85688">
        <ele>1510.5809</ele>
        <time>2014-09-02T13:49:22Z</time>
      </trkpt>
      <trkpt lat="45.92969" lon="6.85687">
        <ele>1510.5809</ele>
        <time>2014-09-02T13:49:27Z</time>
      </trkpt>
      <trkpt lat="45.92966" lon="6.85683">
        <ele>1510.5809</ele>
        <time>2014-09-02T13:49:32Z</time>
      </trkpt>
      <trkpt lat="45.92966" lon="6.8568">
        <ele>1510.5809</ele>
        <time>2014-09-02T13:49:37Z</time>
      </trkpt>
      <trkpt lat="45.92963" lon="6.85676">
        <ele>1506.2484</ele>
        <time>2014-09-02T13:49:42Z</time>
      </trkpt>
      <trkpt lat="45.9296" lon="6.85672">
        <ele>1506.2484</ele>
        <time>2014-09-02T13:49:47Z</time>
      </trkpt>
      <trkpt lat="45.92959" lon="6.85672">
        <ele>1506.2484</ele>
        <time>2014-09-02T13:49:52Z</time>
      </trkpt>
      <trkpt lat="45.92959" lon="6.85672">
        <ele>1506.2484</ele>
        <time>2014-09-02T13:49:57Z</time>
      </trkpt>
      <trkpt lat="45.92958" lon="6.8567">
        <ele>1506.2484</ele>
        <time>2014-09-02T13:50:02Z</time>
      </trkpt>
      <trkpt lat="45.92955" lon="6.85669">
        <ele>1501.7592</ele>
        <time>2014-09-02T13:50:07Z</time>
      </trkpt>
      <trkpt lat="45.92954" lon="6.85664">
        <ele>1501.7592</ele>
        <time>2014-09-02T13:50:12Z</time>
      </trkpt>
      <trkpt lat="45.92954" lon="6.85664">
        <ele>1501.7592</ele>
        <time>2014-09-02T13:50:17Z</time>
      </trkpt>
      <trkpt lat="45.92953" lon="6.85661">
        <ele>1501.7592</ele>
        <time>2014-09-02T13:50:27Z</time>
      </trkpt>
      <trkpt lat="45.92946" lon="6.85652">
        <ele>1496.9877</ele>
        <time>2014-09-02T13:50:32Z</time>
      </trkpt>
      <trkpt lat="45.92944" lon="6.85648">
        <ele>1496.9877</ele>
        <time>2014-09-02T13:50:37Z</time>
      </trkpt>
      <trkpt lat="45.92936" lon="6.85638">
        <ele>1492.6829</ele>
        <time>2014-09-02T13:50:42Z</time>
      </trkpt>
      <trkpt lat="45.92928" lon="6.85639">
        <ele>1492.6829</ele>
        <time>2014-09-02T13:50:47Z</time>
      </trkpt>
      <trkpt lat="45.92923" lon="6.85638">
        <ele>1488.7734</ele>
        <time>2014-09-02T13:50:52Z</time>
      </trkpt>
      <trkpt lat="45.92919" lon="6.85633">
        <ele>1488.7734</ele>
        <time>2014-09-02T13:50:57Z</time>
      </trkpt>
      <trkpt lat="45.92911" lon="6.8563">
        <ele>1485.1199</ele>
        <time>2014-09-02T13:51:02Z</time>
      </trkpt>
      <trkpt lat="45.92901" lon="6.85626">
        <ele>1481.7651</ele>
        <time>2014-09-02T13:51:07Z</time>
      </trkpt>
      <trkpt lat="45.92897" lon="6.85626">
        <ele>1481.7651</ele>
        <time>2014-09-02T13:51:12Z</time>
      </trkpt>
      <trkpt lat="45.92895" lon="6.85624">
        <ele>1481.7651</ele>
        <time>2014-09-02T13:51:17Z</time>
      </trkpt>
      <trkpt lat="45.92893" lon="6.8562">
        <ele>1478.4596</ele>
        <time>2014-09-02T13:51:22Z</time>
      </trkpt>
      <trkpt lat="45.9289" lon="6.85619">
        <ele>1478.4596</ele>
        <time>2014-09-02T13:51:27Z</time>
      </trkpt>
      <trkpt lat="45.92887" lon="6.85616">
        <ele>1478.4596</ele>
        <time>2014-09-02T13:51:32Z</time>
      </trkpt>
      <trkpt lat="45.92885" lon="6.85616">
        <ele>1478.4596</ele>
        <time>2014-09-02T13:51:37Z</time>
      </trkpt>
      <trkpt lat="45.92886" lon="6.85618">
        <ele>1474.6113</ele>
        <time>2014-09-02T13:51:42Z</time>
      </trkpt>
      <trkpt lat="45.92889" lon="6.85619">
        <ele>1474.6113</ele>
        <time>2014-09-02T13:51:47Z</time>
      </trkpt>
      <trkpt lat="45.92892" lon="6.85623">
        <ele>1474.6113</ele>
        <time>2014-09-02T13:51:52Z</time>
      </trkpt>
      <trkpt lat="45.92892" lon="6.85629">
        <ele>1470.7976</ele>
        <time>2014-09-02T13:51:57Z</time>
      </trkpt>
      <trkpt lat="45.92893" lon="6.85632">
        <ele>1470.7976</ele>
        <time>2014-09-02T13:52:02Z</time>
      </trkpt>
      <trkpt lat="45.92895" lon="6.85638">
        <ele>1470.7976</ele>
        <time>2014-09-02T13:52:07Z</time>
      </trkpt>
      <trkpt lat="45.92897" lon="6.85643">
        <ele>1467.2501</ele>
        <time>2014-09-02T13:52:12Z</time>
      </trkpt>
      <trkpt lat="45.92897" lon="6.85643">
        <ele>1467.2501</ele>
        <time>2014-09-02T13:52:17Z</time>
      </trkpt>
      <trkpt lat="45.92898" lon="6.85651">
        <ele>1467.2501</ele>
        <time>2014-09-02T13:52:22Z</time>
      </trkpt>
      <trkpt lat="45.92899" lon="6.85661">
        <ele>1463.88</ele>
        <time>2014-09-02T13:52:27Z</time>
      </trkpt>
      <trkpt lat="45.929" lon="6.85663">
        <ele>1463.88</ele>
        <time>2014-09-02T13:52:32Z</time>
      </trkpt>
      <trkpt lat="45.929" lon="6.85663">
        <ele>1463.88</ele>
        <time>2014-09-02T13:52:37Z</time>
      </trkpt>
      <trkpt lat="45.92898" lon="6.85664">
        <ele>1463.88</ele>
        <time>2014-09-02T13:52:42Z</time>
      </trkpt>
      <trkpt lat="45.92896" lon="6.85663">
        <ele>1463.88</ele>
        <time>2014-09-02T13:52:47Z</time>
      </trkpt>
      <trkpt lat="45.92894" lon="6.8566">
        <ele>1459.7975</ele>
        <time>2014-09-02T13:52:52Z</time>
      </trkpt>
      <trkpt lat="45.92893" lon="6.8566">
        <ele>1459.7975</ele>
        <time>2014-09-02T13:52:57Z</time>
      </trkpt>
      <trkpt lat="45.92892" lon="6.85659">
        <ele>1459.7975</ele>
        <time>2014-09-02T13:53:02Z</time>
      </trkpt>
      <trkpt lat="45.92882" lon="6.85657">
        <ele>1455.7073</ele>
        <time>2014-09-02T13:53:07Z</time>
      </trkpt>
      <trkpt lat="45.92867" lon="6.85652">
        <ele>1451.9308</ele>
        <time>2014-09-02T13:53:12Z</time>
      </trkpt>
      <trkpt lat="45.92865" lon="6.85644">
        <ele>1451.9308</ele>
        <time>2014-09-02T13:53:17Z</time>
      </trkpt>
      <trkpt lat="45.9286" lon="6.85638">
        <ele>1448.2318</ele>
        <time>2014-09-02T13:53:22Z</time>
      </trkpt>
      <trkpt lat="45.92857" lon="6.85628">
        <ele>1448.2318</ele>
        <time>2014-09-02T13:53:27Z</time>
      </trkpt>
      <trkpt lat="45.92852" lon="6.85623">
        <ele>1444.8087</ele>
        <time>2014-09-02T13:53:32Z</time>
      </trkpt>
      <trkpt lat="45.92849" lon="6.85621">
        <ele>1444.8087</ele>
        <time>2014-09-02T13:53:37Z</time>
      </trkpt>
      <trkpt lat="45.92845" lon="6.85618">
        <ele>1444.8087</ele>
        <time>2014-09-02T13:53:42Z</time>
      </trkpt>
      <trkpt lat="45.92843" lon="6.85613">
        <ele>1441.4843</ele>
        <time>2014-09-02T13:53:47Z</time>
      </trkpt>
      <trkpt lat="45.9284" lon="6.85611">
        <ele>1441.4843</ele>
        <time>2014-09-02T13:53:52Z</time>
      </trkpt>
      <trkpt lat="45.92837" lon="6.85608">
        <ele>1441.4843</ele>
        <time>2014-09-02T13:53:57Z</time>
      </trkpt>
      <trkpt lat="45.92836" lon="6.85604">
        <ele>1438.3531</ele>
        <time>2014-09-02T13:54:02Z</time>
      </trkpt>
      <trkpt lat="45.92834" lon="6.85599">
        <ele>1438.3531</ele>
        <time>2014-09-02T13:54:07Z</time>
      </trkpt>
      <trkpt lat="45.92832" lon="6.85598">
        <ele>1438.3531</ele>
        <time>2014-09-02T13:54:12Z</time>
      </trkpt>
      <trkpt lat="45.92831" lon="6.85597">
        <ele>1438.3531</ele>
        <time>2014-09-02T13:54:17Z</time>
      </trkpt>
      <trkpt lat="45.92832" lon="6.85593">
        <ele>1435.1567</ele>
        <time>2014-09-02T13:54:22Z</time>
      </trkpt>
      <trkpt lat="45.92832" lon="6.85594">
        <ele>1435.1567</ele>
        <time>2014-09-02T13:54:27Z</time>
      </trkpt>
      <trkpt lat="45.92833" lon="6.85597">
        <ele>1435.1567</ele>
        <time>2014-09-02T13:54:32Z</time>
      </trkpt>
      <trkpt lat="45.92833" lon="6.85602">
        <ele>1435.1567</ele>
        <time>2014-09-02T13:54:37Z</time>
      </trkpt>
      <trkpt lat="45.92834" lon="6.85606">
        <ele>1432.0876</ele>
        <time>2014-09-02T13:54:42Z</time>
      </trkpt>
      <trkpt lat="45.92834" lon="6.85611">
        <ele>1432.0876</ele>
        <time>2014-09-02T13:54:47Z</time>
      </trkpt>
      <trkpt lat="45.92834" lon="6.85615">
        <ele>1432.0876</ele>
        <time>2014-09-02T13:54:52Z</time>
      </trkpt>
      <trkpt lat="45.92835" lon="6.85621">
        <ele>1429.0645</ele>
        <time>2014-09-02T13:54:57Z</time>
      </trkpt>
      <trkpt lat="45.92837" lon="6.85628">
        <ele>1429.0645</ele>
        <time>2014-09-02T13:55:02Z</time>
      </trkpt>
      <trkpt lat="45.92837" lon="6.85633">
        <ele>1429.0645</ele>
        <time>2014-09-02T13:55:07Z</time>
      </trkpt>
      <trkpt lat="45.92838" lon="6.85635">
        <ele>1426.1123</ele>
        <time>2014-09-02T13:55:12Z</time>
      </trkpt>
      <trkpt lat="45.9284" lon="6.85637">
        <ele>1426.1123</ele>
        <time>2014-09-02T13:55:17Z</time>
      </trkpt>
      <trkpt lat="45.92841" lon="6.85642">
        <ele>1426.1123</ele>
        <time>2014-09-02T13:55:22Z</time>
      </trkpt>
      <trkpt lat="45.92846" lon="6.85662">
        <ele>1423.384</ele>
        <time>2014-09-02T13:55:27Z</time>
      </trkpt>
      <trkpt lat="45.92853" lon="6.85681">
        <ele>1421.1213</ele>
        <time>2014-09-02T13:55:32Z</time>
      </trkpt>
      <trkpt lat="45.92858" lon="6.85687">
        <ele>1421.1213</ele>
        <time>2014-09-02T13:55:37Z</time>
      </trkpt>
      <trkpt lat="45.9286" lon="6.85691">
        <ele>1419.2731</ele>
        <time>2014-09-02T13:55:42Z</time>
      </trkpt>
      <trkpt lat="45.92863" lon="6.85693">
        <ele>1419.2731</ele>
        <time>2014-09-02T13:55:47Z</time>
      </trkpt>
      <trkpt lat="45.92866" lon="6.85698">
        <ele>1419.2731</ele>
        <time>2014-09-02T13:55:52Z</time>
      </trkpt>
      <trkpt lat="45.92867" lon="6.85704">
        <ele>1417.6031</ele>
        <time>2014-09-02T13:55:57Z</time>
      </trkpt>
      <trkpt lat="45.92865" lon="6.85705">
        <ele>1417.6031</ele>
        <time>2014-09-02T13:56:02Z</time>
      </trkpt>
      <trkpt lat="45.92864" lon="6.85705">
        <ele>1417.6031</ele>
        <time>2014-09-02T13:56:07Z</time>
      </trkpt>
      <trkpt lat="45.92862" lon="6.85698">
        <ele>1415.9067</ele>
        <time>2014-09-02T13:56:12Z</time>
      </trkpt>
      <trkpt lat="45.92861" lon="6.85691">
        <ele>1415.9067</ele>
        <time>2014-09-02T13:56:17Z</time>
      </trkpt>
      <trkpt lat="45.92857" lon="6.85687">
        <ele>1414.2821</ele>
        <time>2014-09-02T13:56:22Z</time>
      </trkpt>
      <trkpt lat="45.92856" lon="6.85689">
        <ele>1414.2821</ele>
        <time>2014-09-02T13:56:27Z</time>
      </trkpt>
      <trkpt lat="45.92855" lon="6.85689">
        <ele>1414.2821</ele>
        <time>2014-09-02T13:56:32Z</time>
      </trkpt>
      <trkpt lat="45.92856" lon="6.85691">
        <ele>1414.2821</ele>
        <time>2014-09-02T13:56:37Z</time>
      </trkpt>
      <trkpt lat="45.92857" lon="6.8569">
        <ele>1414.2821</ele>
        <time>2014-09-02T13:56:42Z</time>
      </trkpt>
      <trkpt lat="45.92858" lon="6.85692">
        <ele>1414.2821</ele>
        <time>2014-09-02T13:56:47Z</time>
      </trkpt>
      <trkpt lat="45.92857" lon="6.85693">
        <ele>1414.2821</ele>
        <time>2014-09-02T13:56:52Z</time>
      </trkpt>
      <trkpt lat="45.92855" lon="6.85693">
        <ele>1411.7109</ele>
        <time>2014-09-02T13:56:57Z</time>
      </trkpt>
      <trkpt lat="45.9285" lon="6.85694">
        <ele>1411.7109</ele>
        <time>2014-09-02T13:57:02Z</time>
      </trkpt>
      <trkpt lat="45.92845" lon="6.85692">
        <ele>1409.1829</ele>
        <time>2014-09-02T13:57:07Z</time>
      </trkpt>
      <trkpt lat="45.92843" lon="6.85689">
        <ele>1409.1829</ele>
        <time>2014-09-02T13:57:12Z</time>
      </trkpt>
      <trkpt lat="45.92839" lon="6.85686">
        <ele>1409.1829</ele>
        <time>2014-09-02T13:57:17Z</time>
      </trkpt>
      <trkpt lat="45.92837" lon="6.85684">
        <ele>1406.5199</ele>
        <time>2014-09-02T13:57:22Z</time>
      </trkpt>
      <trkpt lat="45.92836" lon="6.85684">
        <ele>1406.5199</ele>
        <time>2014-09-02T13:57:27Z</time>
      </trkpt>
      <trkpt lat="45.92832" lon="6.85683">
        <ele>1406.5199</ele>
        <time>2014-09-02T13:57:32Z</time>
      </trkpt>
      <trkpt lat="45.92832" lon="6.85683">
        <ele>1406.5199</ele>
        <time>2014-09-02T13:57:37Z</time>
      </trkpt>
      <trkpt lat="45.92824" lon="6.85682">
        <ele>1403.9608</ele>
        <time>2014-09-02T13:57:42Z</time>
      </trkpt>
      <trkpt lat="45.92821" lon="6.85681">
        <ele>1403.9608</ele>
        <time>2014-09-02T13:57:47Z</time>
      </trkpt>
      <trkpt lat="45.92821" lon="6.85681">
        <ele>1403.9608</ele>
        <time>2014-09-02T13:57:52Z</time>
      </trkpt>
      <trkpt lat="45.92812" lon="6.85673">
        <ele>1401.597</ele>
        <time>2014-09-02T13:57:57Z</time>
      </trkpt>
      <trkpt lat="45.92801" lon="6.85668">
        <ele>1399.5413</ele>
        <time>2014-09-02T13:58:02Z</time>
      </trkpt>
      <trkpt lat="45.92796" lon="6.85669">
        <ele>1399.5413</ele>
        <time>2014-09-02T13:58:07Z</time>
      </trkpt>
      <trkpt lat="45.92791" lon="6.85662">
        <ele>1397.7821</ele>
        <time>2014-09-02T13:58:12Z</time>
      </trkpt>
      <trkpt lat="45.92791" lon="6.85656">
        <ele>1397.7821</ele>
        <time>2014-09-02T13:58:17Z</time>
      </trkpt>
      <trkpt lat="45.92789" lon="6.8565">
        <ele>1397.7821</ele>
        <time>2014-09-02T13:58:22Z</time>
      </trkpt>
      <trkpt lat="45.92787" lon="6.85653">
        <ele>1395.9332</ele>
        <time>2014-09-02T13:58:27Z</time>
      </trkpt>
      <trkpt lat="45.92785" lon="6.85655">
        <ele>1395.9332</ele>
        <time>2014-09-02T13:58:32Z</time>
      </trkpt>
      <trkpt lat="45.9278" lon="6.85661">
        <ele>1394.1707</ele>
        <time>2014-09-02T13:58:37Z</time>
      </trkpt>
      <trkpt lat="45.92778" lon="6.85665">
        <ele>1394.1707</ele>
        <time>2014-09-02T13:58:42Z</time>
      </trkpt>
      <trkpt lat="45.92777" lon="6.85669">
        <ele>1394.1707</ele>
        <time>2014-09-02T13:58:47Z</time>
      </trkpt>
      <trkpt lat="45.92776" lon="6.85674">
        <ele>1392.0082</ele>
        <time>2014-09-02T13:58:52Z</time>
      </trkpt>
      <trkpt lat="45.92776" lon="6.85678">
        <ele>1392.0082</ele>
        <time>2014-09-02T13:58:57Z</time>
      </trkpt>
      <trkpt lat="45.92778" lon="6.8568">
        <ele>1392.0082</ele>
        <time>2014-09-02T13:59:02Z</time>
      </trkpt>
      <trkpt lat="45.9278" lon="6.85681">
        <ele>1392.0082</ele>
        <time>2014-09-02T13:59:07Z</time>
      </trkpt>
      <trkpt lat="45.92784" lon="6.85686">
        <ele>1389.6166</ele>
        <time>2014-09-02T13:59:12Z</time>
      </trkpt>
      <trkpt lat="45.92788" lon="6.85695">
        <ele>1389.6166</ele>
        <time>2014-09-02T13:59:17Z</time>
      </trkpt>
      <trkpt lat="45.92788" lon="6.85696">
        <ele>1389.6166</ele>
        <time>2014-09-02T13:59:22Z</time>
      </trkpt>
      <trkpt lat="45.92788" lon="6.85696">
        <ele>1389.6166</ele>
        <time>2014-09-02T13:59:27Z</time>
      </trkpt>
      <trkpt lat="45.92789" lon="6.857">
        <ele>1387.443</ele>
        <time>2014-09-02T13:59:32Z</time>
      </trkpt>
      <trkpt lat="45.9279" lon="6.85702">
        <ele>1387.443</ele>
        <time>2014-09-02T13:59:37Z</time>
      </trkpt>
      <trkpt lat="45.92792" lon="6.85721">
        <ele>1385.4832</ele>
        <time>2014-09-02T13:59:42Z</time>
      </trkpt>
      <trkpt lat="45.92792" lon="6.85733">
        <ele>1385.4832</ele>
        <time>2014-09-02T13:59:47Z</time>
      </trkpt>
      <trkpt lat="45.92793" lon="6.85738">
        <ele>1383.718</ele>
        <time>2014-09-02T13:59:52Z</time>
      </trkpt>
      <trkpt lat="45.92792" lon="6.85751">
        <ele>1383.718</ele>
        <time>2014-09-02T13:59:57Z</time>
      </trkpt>
      <trkpt lat="45.92791" lon="6.85755">
        <ele>1381.8846</ele>
        <time>2014-09-02T14:00:02Z</time>
      </trkpt>
      <trkpt lat="45.92791" lon="6.85752">
        <ele>1381.8846</ele>
        <time>2014-09-02T14:00:07Z</time>
      </trkpt>
      <trkpt lat="45.9279" lon="6.85747">
        <ele>1381.8846</ele>
        <time>2014-09-02T14:00:12Z</time>
      </trkpt>
      <trkpt lat="45.92789" lon="6.85745">
        <ele>1381.8846</ele>
        <time>2014-09-02T14:00:17Z</time>
      </trkpt>
      <trkpt lat="45.92788" lon="6.85743">
        <ele>1379.3507</ele>
        <time>2014-09-02T14:00:22Z</time>
      </trkpt>
      <trkpt lat="45.92786" lon="6.85742">
        <ele>1379.3507</ele>
        <time>2014-09-02T14:00:27Z</time>
      </trkpt>
      <trkpt lat="45.92784" lon="6.85739">
        <ele>1379.3507</ele>
        <time>2014-09-02T14:00:32Z</time>
      </trkpt>
      <trkpt lat="45.92781" lon="6.85738">
        <ele>1379.3507</ele>
        <time>2014-09-02T14:00:37Z</time>
      </trkpt>
      <trkpt lat="45.92777" lon="6.85728">
        <ele>1376.5697</ele>
        <time>2014-09-02T14:00:42Z</time>
      </trkpt>
      <trkpt lat="45.92775" lon="6.85722">
        <ele>1376.5697</ele>
        <time>2014-09-02T14:00:47Z</time>
      </trkpt>
      <trkpt lat="45.92772" lon="6.85721">
        <ele>1376.5697</ele>
        <time>2014-09-02T14:00:52Z</time>
      </trkpt>
      <trkpt lat="45.92769" lon="6.8572">
        <ele>1373.7755</ele>
        <time>2014-09-02T14:00:57Z</time>
      </trkpt>
      <trkpt lat="45.92767" lon="6.85716">
        <ele>1373.7755</ele>
        <time>2014-09-02T14:01:02Z</time>
      </trkpt>
      <trkpt lat="45.92765" lon="6.8571">
        <ele>1373.7755</ele>
        <time>2014-09-02T14:01:07Z</time>
      </trkpt>
      <trkpt lat="45.92758" lon="6.8571">
        <ele>1370.5651</ele>
        <time>2014-09-02T14:01:12Z</time>
      </trkpt>
      <trkpt lat="45.9275" lon="6.85703">
        <ele>1367.4596</ele>
        <time>2014-09-02T14:01:17Z</time>
      </trkpt>
      <trkpt lat="45.92746" lon="6.85697">
        <ele>1367.4596</ele>
        <time>2014-09-02T14:01:22Z</time>
      </trkpt>
      <trkpt lat="45.92742" lon="6.85692">
        <ele>1364.1637</ele>
        <time>2014-09-02T14:01:27Z</time>
      </trkpt>
      <trkpt lat="45.9274" lon="6.85686">
        <ele>1364.1637</ele>
        <time>2014-09-02T14:01:32Z</time>
      </trkpt>
      <trkpt lat="45.92739" lon="6.85688">
        <ele>1364.1637</ele>
        <time>2014-09-02T14:01:37Z</time>
      </trkpt>
      <trkpt lat="45.92739" lon="6.85692">
        <ele>1360.7792</ele>
        <time>2014-09-02T14:01:42Z</time>
      </trkpt>
      <trkpt lat="45.92738" lon="6.85702">
        <ele>1360.7792</ele>
        <time>2014-09-02T14:01:47Z</time>
      </trkpt>
      <trkpt lat="45.92739" lon="6.85708">
        <ele>1357.3857</ele>
        <time>2014-09-02T14:01:52Z</time>
      </trkpt>
      <trkpt lat="45.9274" lon="6.85712">
        <ele>1357.3857</ele>
        <time>2014-09-02T14:01:57Z</time>
      </trkpt>
      <trkpt lat="45.9274" lon="6.85714">
        <ele>1357.3857</ele>
        <time>2014-09-02T14:02:02Z</time>
      </trkpt>
      <trkpt lat="45.92739" lon="6.85712">
        <ele>1357.3857</ele>
        <time>2014-09-02T14:02:07Z</time>
      </trkpt>
      <trkpt lat="45.92736" lon="6.8571">
        <ele>1357.3857</ele>
        <time>2014-09-02T14:02:12Z</time>
      </trkpt>
      <trkpt lat="45.92735" lon="6.85707">
        <ele>1353.6831</ele>
        <time>2014-09-02T14:02:17Z</time>
      </trkpt>
      <trkpt lat="45.9273" lon="6.85699">
        <ele>1353.6831</ele>
        <time>2014-09-02T14:02:22Z</time>
      </trkpt>
      <trkpt lat="45.92726" lon="6.85689">
        <ele>1350.1143</ele>
        <time>2014-09-02T14:02:27Z</time>
      </trkpt>
      <trkpt lat="45.92721" lon="6.85681">
        <ele>1350.1143</ele>
        <time>2014-09-02T14:02:32Z</time>
      </trkpt>
      <trkpt lat="45.92717" lon="6.85674">
        <ele>1346.7434</ele>
        <time>2014-09-02T14:02:37Z</time>
      </trkpt>
      <trkpt lat="45.92716" lon="6.85669">
        <ele>1346.7434</ele>
        <time>2014-09-02T14:02:42Z</time>
      </trkpt>
      <trkpt lat="45.92716" lon="6.85669">
        <ele>1346.7434</ele>
        <time>2014-09-02T14:02:47Z</time>
      </trkpt>
      <trkpt lat="45.92715" lon="6.85667">
        <ele>1346.7434</ele>
        <time>2014-09-02T14:02:52Z</time>
      </trkpt>
      <trkpt lat="45.92713" lon="6.85666">
        <ele>1346.7434</ele>
        <time>2014-09-02T14:02:57Z</time>
      </trkpt>
      <trkpt lat="45.92712" lon="6.85665">
        <ele>1346.7434</ele>
        <time>2014-09-02T14:03:02Z</time>
      </trkpt>
      <trkpt lat="45.92711" lon="6.85668">
        <ele>1343.3704</ele>
        <time>2014-09-02T14:03:07Z</time>
      </trkpt>
      <trkpt lat="45.92708" lon="6.85676">
        <ele>1343.3704</ele>
        <time>2014-09-02T14:03:12Z</time>
      </trkpt>
      <trkpt lat="45.92707" lon="6.8568">
        <ele>1340.4288</ele>
        <time>2014-09-02T14:03:17Z</time>
      </trkpt>
      <trkpt lat="45.92707" lon="6.85684">
        <ele>1340.4288</ele>
        <time>2014-09-02T14:03:22Z</time>
      </trkpt>
      <trkpt lat="45.92709" lon="6.85691">
        <ele>1340.4288</ele>
        <time>2014-09-02T14:03:27Z</time>
      </trkpt>
      <trkpt lat="45.92707" lon="6.85696">
        <ele>1337.2823</ele>
        <time>2014-09-02T14:03:32Z</time>
      </trkpt>
      <trkpt lat="45.92706" lon="6.85701">
        <ele>1337.2823</ele>
        <time>2014-09-02T14:03:37Z</time>
      </trkpt>
      <trkpt lat="45.92705" lon="6.85704">
        <ele>1337.2823</ele>
        <time>2014-09-02T14:03:42Z</time>
      </trkpt>
      <trkpt lat="45.92704" lon="6.85715">
        <ele>1334.2063</ele>
        <time>2014-09-02T14:03:47Z</time>
      </trkpt>
      <trkpt lat="45.92703" lon="6.85723">
        <ele>1334.2063</ele>
        <time>2014-09-02T14:03:52Z</time>
      </trkpt>
      <trkpt lat="45.92703" lon="6.85733">
        <ele>1331.3115</ele>
        <time>2014-09-02T14:03:57Z</time>
      </trkpt>
      <trkpt lat="45.92708" lon="6.85737">
        <ele>1331.3115</ele>
        <time>2014-09-02T14:04:02Z</time>
      </trkpt>
      <trkpt lat="45.92712" lon="6.85742">
        <ele>1328.5991</ele>
        <time>2014-09-02T14:04:07Z</time>
      </trkpt>
      <trkpt lat="45.92714" lon="6.85746">
        <ele>1328.5991</ele>
        <time>2014-09-02T14:04:12Z</time>
      </trkpt>
      <trkpt lat="45.92715" lon="6.85752">
        <ele>1328.5991</ele>
        <time>2014-09-02T14:04:17Z</time>
      </trkpt>
      <trkpt lat="45.92715" lon="6.85752">
        <ele>1328.5991</ele>
        <time>2014-09-02T14:04:22Z</time>
      </trkpt>
      <trkpt lat="45.92723" lon="6.85758">
        <ele>1326.1852</ele>
        <time>2014-09-02T14:04:27Z</time>
      </trkpt>
      <trkpt lat="45.92723" lon="6.8576">
        <ele>1326.1852</ele>
        <time>2014-09-02T14:04:32Z</time>
      </trkpt>
      <trkpt lat="45.92726" lon="6.85762">
        <ele>1326.1852</ele>
        <time>2014-09-02T14:04:37Z</time>
      </trkpt>
      <trkpt lat="45.92726" lon="6.85764">
        <ele>1326.1852</ele>
        <time>2014-09-02T14:04:42Z</time>
      </trkpt>
      <trkpt lat="45.92734" lon="6.85799">
        <ele>1323.9314</ele>
        <time>2014-09-02T14:04:47Z</time>
      </trkpt>
      <trkpt lat="45.92737" lon="6.85807">
        <ele>1323.9314</ele>
        <time>2014-09-02T14:04:52Z</time>
      </trkpt>
      <trkpt lat="45.92738" lon="6.85809">
        <ele>1323.9314</ele>
        <time>2014-09-02T14:04:57Z</time>
      </trkpt>
      <trkpt lat="45.92739" lon="6.85811">
        <ele>1321.8676</ele>
        <time>2014-09-02T14:05:02Z</time>
      </trkpt>
      <trkpt lat="45.9274" lon="6.85817">
        <ele>1321.8676</ele>
        <time>2014-09-02T14:05:07Z</time>
      </trkpt>
      <trkpt lat="45.92741" lon="6.85826">
        <ele>1319.8768</ele>
        <time>2014-09-02T14:05:12Z</time>
      </trkpt>
      <trkpt lat="45.92741" lon="6.85834">
        <ele>1319.8768</ele>
        <time>2014-09-02T14:05:17Z</time>
      </trkpt>
      <trkpt lat="45.92743" lon="6.85842">
        <ele>1317.8505</ele>
        <time>2014-09-02T14:05:22Z</time>
      </trkpt>
      <trkpt lat="45.92744" lon="6.85846">
        <ele>1317.8505</ele>
        <time>2014-09-02T14:05:27Z</time>
      </trkpt>
      <trkpt lat="45.9275" lon="6.8585">
        <ele>1315.933</ele>
        <time>2014-09-02T14:05:32Z</time>
      </trkpt>
      <trkpt lat="45.92752" lon="6.85849">
        <ele>1315.933</ele>
        <time>2014-09-02T14:05:37Z</time>
      </trkpt>
      <trkpt lat="45.92759" lon="6.8585">
        <ele>1314.143</ele>
        <time>2014-09-02T14:05:42Z</time>
      </trkpt>
      <trkpt lat="45.9276" lon="6.85852">
        <ele>1314.143</ele>
        <time>2014-09-02T14:05:47Z</time>
      </trkpt>
      <trkpt lat="45.92761" lon="6.85854">
        <ele>1314.143</ele>
        <time>2014-09-02T14:05:52Z</time>
      </trkpt>
      <trkpt lat="45.92762" lon="6.85855">
        <ele>1314.143</ele>
        <time>2014-09-02T14:05:57Z</time>
      </trkpt>
      <trkpt lat="45.92762" lon="6.85855">
        <ele>1314.143</ele>
        <time>2014-09-02T14:06:02Z</time>
      </trkpt>
      <trkpt lat="45.92761" lon="6.85857">
        <ele>1314.143</ele>
        <time>2014-09-02T14:06:32Z</time>
      </trkpt>
      <trkpt lat="45.92761" lon="6.85857">
        <ele>1314.143</ele>
        <time>2014-09-02T14:06:37Z</time>
      </trkpt>
      <trkpt lat="45.92761" lon="6.85857">
        <ele>1314.143</ele>
        <time>2014-09-02T14:06:47Z</time>
      </trkpt>
      <trkpt lat="45.92761" lon="6.85857">
        <ele>1314.143</ele>
        <time>2014-09-02T14:06:52Z</time>
      </trkpt>
      <trkpt lat="45.92759" lon="6.85856">
        <ele>1314.143</ele>
        <time>2014-09-02T14:07:32Z</time>
      </trkpt>
      <trkpt lat="45.92756" lon="6.85856">
        <ele>1312.9003</ele>
        <time>2014-09-02T14:07:37Z</time>
      </trkpt>
      <trkpt lat="45.92756" lon="6.85857">
        <ele>1312.9003</ele>
        <time>2014-09-02T14:07:42Z</time>
      </trkpt>
      <trkpt lat="45.92756" lon="6.85857">
        <ele>1312.9003</ele>
        <time>2014-09-02T14:07:47Z</time>
      </trkpt>
      <trkpt lat="45.92755" lon="6.85858">
        <ele>1312.9003</ele>
        <time>2014-09-02T14:08:52Z</time>
      </trkpt>
      <trkpt lat="45.92755" lon="6.85859">
        <ele>1312.9003</ele>
        <time>2014-09-02T14:08:57Z</time>
      </trkpt>
      <trkpt lat="45.92753" lon="6.8586">
        <ele>1312.9003</ele>
        <time>2014-09-02T14:09:02Z</time>
      </trkpt>
      <trkpt lat="45.92751" lon="6.85861">
        <ele>1312.9003</ele>
        <time>2014-09-02T14:09:07Z</time>
      </trkpt>
      <trkpt lat="45.92749" lon="6.85862">
        <ele>1312.9003</ele>
        <time>2014-09-02T14:09:12Z</time>
      </trkpt>
      <trkpt lat="45.92751" lon="6.85862">
        <ele>1311.9445</ele>
        <time>2014-09-02T14:09:17Z</time>
      </trkpt>
      <trkpt lat="45.92753" lon="6.85864">
        <ele>1311.9445</ele>
        <time>2014-09-02T14:09:22Z</time>
      </trkpt>
      <trkpt lat="45.92756" lon="6.85866">
        <ele>1311.9445</ele>
        <time>2014-09-02T14:09:27Z</time>
      </trkpt>
      <trkpt lat="45.92756" lon="6.85866">
        <ele>1311.9445</ele>
        <time>2014-09-02T14:09:32Z</time>
      </trkpt>
      <trkpt lat="45.92755" lon="6.85865">
        <ele>1311.9445</ele>
        <time>2014-09-02T14:09:42Z</time>
      </trkpt>
      <trkpt lat="45.9275" lon="6.8586">
        <ele>1310.5432</ele>
        <time>2014-09-02T14:09:47Z</time>
      </trkpt>
      <trkpt lat="45.92742" lon="6.85855">
        <ele>1310.5432</ele>
        <time>2014-09-02T14:09:52Z</time>
      </trkpt>
      <trkpt lat="45.92737" lon="6.85851">
        <ele>1308.7975</ele>
        <time>2014-09-02T14:09:57Z</time>
      </trkpt>
      <trkpt lat="45.92734" lon="6.85851">
        <ele>1308.7975</ele>
        <time>2014-09-02T14:10:02Z</time>
      </trkpt>
      <trkpt lat="45.9273" lon="6.85847">
        <ele>1308.7975</ele>
        <time>2014-09-02T14:10:07Z</time>
      </trkpt>
      <trkpt lat="45.92728" lon="6.85838">
        <ele>1306.7875</ele>
        <time>2014-09-02T14:10:12Z</time>
      </trkpt>
      <trkpt lat="45.92725" lon="6.85834">
        <ele>1306.7875</ele>
        <time>2014-09-02T14:10:17Z</time>
      </trkpt>
      <trkpt lat="45.92724" lon="6.85833">
        <ele>1306.7875</ele>
        <time>2014-09-02T14:10:22Z</time>
      </trkpt>
      <trkpt lat="45.92723" lon="6.85831">
        <ele>1306.7875</ele>
        <time>2014-09-02T14:10:27Z</time>
      </trkpt>
      <trkpt lat="45.92722" lon="6.85823">
        <ele>1304.6316</ele>
        <time>2014-09-02T14:10:32Z</time>
      </trkpt>
      <trkpt lat="45.92721" lon="6.85816">
        <ele>1304.6316</ele>
        <time>2014-09-02T14:10:37Z</time>
      </trkpt>
      <trkpt lat="45.92717" lon="6.85815">
        <ele>1302.6129</ele>
        <time>2014-09-02T14:10:42Z</time>
      </trkpt>
      <trkpt lat="45.92712" lon="6.85815">
        <ele>1302.6129</ele>
        <time>2014-09-02T14:10:47Z</time>
      </trkpt>
      <trkpt lat="45.92706" lon="6.85815">
        <ele>1300.6765</ele>
        <time>2014-09-02T14:10:52Z</time>
      </trkpt>
      <trkpt lat="45.92696" lon="6.85816">
        <ele>1298.987</ele>
        <time>2014-09-02T14:10:57Z</time>
      </trkpt>
      <trkpt lat="45.92683" lon="6.85809">
        <ele>1297.452</ele>
        <time>2014-09-02T14:11:02Z</time>
      </trkpt>
      <trkpt lat="45.92678" lon="6.85809">
        <ele>1297.452</ele>
        <time>2014-09-02T14:11:07Z</time>
      </trkpt>
      <trkpt lat="45.92671" lon="6.85799">
        <ele>1295.6681</ele>
        <time>2014-09-02T14:11:12Z</time>
      </trkpt>
      <trkpt lat="45.92669" lon="6.85798">
        <ele>1295.6681</ele>
        <time>2014-09-02T14:11:17Z</time>
      </trkpt>
      <trkpt lat="45.92665" lon="6.85797">
        <ele>1295.6681</ele>
        <time>2014-09-02T14:11:22Z</time>
      </trkpt>
      <trkpt lat="45.92661" lon="6.85787">
        <ele>1293.3918</ele>
        <time>2014-09-02T14:11:27Z</time>
      </trkpt>
      <trkpt lat="45.92656" lon="6.85779">
        <ele>1293.3918</ele>
        <time>2014-09-02T14:11:32Z</time>
      </trkpt>
      <trkpt lat="45.92652" lon="6.85775">
        <ele>1291.0769</ele>
        <time>2014-09-02T14:11:37Z</time>
      </trkpt>
      <trkpt lat="45.92649" lon="6.85774">
        <ele>1291.0769</ele>
        <time>2014-09-02T14:11:42Z</time>
      </trkpt>
      <trkpt lat="45.92643" lon="6.85769">
        <ele>1288.8839</ele>
        <time>2014-09-02T14:11:47Z</time>
      </trkpt>
      <trkpt lat="45.92639" lon="6.85763">
        <ele>1288.8839</ele>
        <time>2014-09-02T14:11:52Z</time>
      </trkpt>
      <trkpt lat="45.92635" lon="6.85755">
        <ele>1286.9474</ele>
        <time>2014-09-02T14:11:57Z</time>
      </trkpt>
      <trkpt lat="45.92633" lon="6.85756">
        <ele>1286.9474</ele>
        <time>2014-09-02T14:12:02Z</time>
      </trkpt>
      <trkpt lat="45.92633" lon="6.85757">
        <ele>1286.9474</ele>
        <time>2014-09-02T14:12:07Z</time>
      </trkpt>
      <trkpt lat="45.92633" lon="6.85761">
        <ele>1286.9474</ele>
        <time>2014-09-02T14:12:12Z</time>
      </trkpt>
      <trkpt lat="45.92633" lon="6.85766">
        <ele>1286.9474</ele>
        <time>2014-09-02T14:12:17Z</time>
      </trkpt>
      <trkpt lat="45.92633" lon="6.85771">
        <ele>1284.6993</ele>
        <time>2014-09-02T14:12:22Z</time>
      </trkpt>
      <trkpt lat="45.92635" lon="6.85775">
        <ele>1284.6993</ele>
        <time>2014-09-02T14:12:27Z</time>
      </trkpt>
      <trkpt lat="45.92642" lon="6.85782">
        <ele>1282.4504</ele>
        <time>2014-09-02T14:12:32Z</time>
      </trkpt>
      <trkpt lat="45.92643" lon="6.85788">
        <ele>1282.4504</ele>
        <time>2014-09-02T14:12:37Z</time>
      </trkpt>
      <trkpt lat="45.92645" lon="6.85794">
        <ele>1282.4504</ele>
        <time>2014-09-02T14:12:42Z</time>
      </trkpt>
      <trkpt lat="45.92647" lon="6.85799">
        <ele>1279.8401</ele>
        <time>2014-09-02T14:12:47Z</time>
      </trkpt>
      <trkpt lat="45.92649" lon="6.85805">
        <ele>1279.8401</ele>
        <time>2014-09-02T14:12:52Z</time>
      </trkpt>
      <trkpt lat="45.92651" lon="6.85808">
        <ele>1279.8401</ele>
        <time>2014-09-02T14:12:57Z</time>
      </trkpt>
      <trkpt lat="45.92653" lon="6.85812">
        <ele>1277.3566</ele>
        <time>2014-09-02T14:13:02Z</time>
      </trkpt>
      <trkpt lat="45.92656" lon="6.85813">
        <ele>1277.3566</ele>
        <time>2014-09-02T14:13:07Z</time>
      </trkpt>
      <trkpt lat="45.92663" lon="6.85815">
        <ele>1275.2504</ele>
        <time>2014-09-02T14:13:12Z</time>
      </trkpt>
      <trkpt lat="45.92672" lon="6.85822">
        <ele>1273.5363</ele>
        <time>2014-09-02T14:13:17Z</time>
      </trkpt>
      <trkpt lat="45.92678" lon="6.85826">
        <ele>1273.5363</ele>
        <time>2014-09-02T14:13:22Z</time>
      </trkpt>
      <trkpt lat="45.92678" lon="6.85829">
        <ele>1273.5363</ele>
        <time>2014-09-02T14:13:27Z</time>
      </trkpt>
      <trkpt lat="45.92679" lon="6.85835">
        <ele>1272.227</ele>
        <time>2014-09-02T14:13:32Z</time>
      </trkpt>
      <trkpt lat="45.92679" lon="6.85837">
        <ele>1272.227</ele>
        <time>2014-09-02T14:13:37Z</time>
      </trkpt>
      <trkpt lat="45.9268" lon="6.85844">
        <ele>1272.227</ele>
        <time>2014-09-02T14:13:42Z</time>
      </trkpt>
      <trkpt lat="45.92683" lon="6.85853">
        <ele>1270.9297</ele>
        <time>2014-09-02T14:13:47Z</time>
      </trkpt>
      <trkpt lat="45.92683" lon="6.8586">
        <ele>1270.9297</ele>
        <time>2014-09-02T14:13:52Z</time>
      </trkpt>
      <trkpt lat="45.92687" lon="6.8587">
        <ele>1269.6263</ele>
        <time>2014-09-02T14:13:57Z</time>
      </trkpt>
      <trkpt lat="45.92688" lon="6.8587">
        <ele>1269.6263</ele>
        <time>2014-09-02T14:14:02Z</time>
      </trkpt>
      <trkpt lat="45.9269" lon="6.85874">
        <ele>1269.6263</ele>
        <time>2014-09-02T14:14:07Z</time>
      </trkpt>
      <trkpt lat="45.92692" lon="6.85885">
        <ele>1268.3723</ele>
        <time>2014-09-02T14:14:12Z</time>
      </trkpt>
      <trkpt lat="45.92694" lon="6.8589">
        <ele>1268.3723</ele>
        <time>2014-09-02T14:14:17Z</time>
      </trkpt>
      <trkpt lat="45.92697" lon="6.85895">
        <ele>1268.3723</ele>
        <time>2014-09-02T14:14:22Z</time>
      </trkpt>
      <trkpt lat="45.92701" lon="6.85903">
        <ele>1266.8441</ele>
        <time>2014-09-02T14:14:27Z</time>
      </trkpt>
      <trkpt lat="45.92704" lon="6.85911">
        <ele>1266.8441</ele>
        <time>2014-09-02T14:14:32Z</time>
      </trkpt>
      <trkpt lat="45.92707" lon="6.85915">
        <ele>1265.2472</ele>
        <time>2014-09-02T14:14:37Z</time>
      </trkpt>
      <trkpt lat="45.92709" lon="6.85916">
        <ele>1265.2472</ele>
        <time>2014-09-02T14:14:42Z</time>
      </trkpt>
      <trkpt lat="45.92709" lon="6.85916">
        <ele>1265.2472</ele>
        <time>2014-09-02T14:14:47Z</time>
      </trkpt>
      <trkpt lat="45.92709" lon="6.85914">
        <ele>1265.2472</ele>
        <time>2014-09-02T14:14:52Z</time>
      </trkpt>
      <trkpt lat="45.92708" lon="6.85911">
        <ele>1265.2472</ele>
        <time>2014-09-02T14:14:57Z</time>
      </trkpt>
      <trkpt lat="45.92706" lon="6.85907">
        <ele>1262.7924</ele>
        <time>2014-09-02T14:15:02Z</time>
      </trkpt>
      <trkpt lat="45.927" lon="6.85901">
        <ele>1262.7924</ele>
        <time>2014-09-02T14:15:07Z</time>
      </trkpt>
      <trkpt lat="45.92698" lon="6.85901">
        <ele>1260.6241</ele>
        <time>2014-09-02T14:15:12Z</time>
      </trkpt>
      <trkpt lat="45.92692" lon="6.85897">
        <ele>1260.6241</ele>
        <time>2014-09-02T14:15:17Z</time>
      </trkpt>
      <trkpt lat="45.92686" lon="6.85887">
        <ele>1258.6208</ele>
        <time>2014-09-02T14:15:22Z</time>
      </trkpt>
      <trkpt lat="45.9268" lon="6.85883">
        <ele>1258.6208</ele>
        <time>2014-09-02T14:15:27Z</time>
      </trkpt>
      <trkpt lat="45.92678" lon="6.85879">
        <ele>1256.8273</ele>
        <time>2014-09-02T14:15:32Z</time>
      </trkpt>
      <trkpt lat="45.92677" lon="6.85878">
        <ele>1256.8273</ele>
        <time>2014-09-02T14:15:37Z</time>
      </trkpt>
      <trkpt lat="45.92673" lon="6.85874">
        <ele>1256.8273</ele>
        <time>2014-09-02T14:15:42Z</time>
      </trkpt>
      <trkpt lat="45.92671" lon="6.85872">
        <ele>1256.8273</ele>
        <time>2014-09-02T14:15:47Z</time>
      </trkpt>
      <trkpt lat="45.92669" lon="6.85874">
        <ele>1255.0544</ele>
        <time>2014-09-02T14:15:52Z</time>
      </trkpt>
      <trkpt lat="45.92665" lon="6.85875">
        <ele>1255.0544</ele>
        <time>2014-09-02T14:15:57Z</time>
      </trkpt>
      <trkpt lat="45.92664" lon="6.85873">
        <ele>1255.0544</ele>
        <time>2014-09-02T14:16:02Z</time>
      </trkpt>
      <trkpt lat="45.92664" lon="6.85873">
        <ele>1255.0544</ele>
        <time>2014-09-02T14:16:07Z</time>
      </trkpt>
      <trkpt lat="45.92664" lon="6.85874">
        <ele>1255.0544</ele>
        <time>2014-09-02T14:16:17Z</time>
      </trkpt>
      <trkpt lat="45.92664" lon="6.85874">
        <ele>1255.0544</ele>
        <time>2014-09-02T14:16:22Z</time>
      </trkpt>
      <trkpt lat="45.92664" lon="6.85873">
        <ele>1255.0544</ele>
        <time>2014-09-02T14:16:47Z</time>
      </trkpt>
      <trkpt lat="45.92664" lon="6.85873">
        <ele>1255.0544</ele>
        <time>2014-09-02T14:16:57Z</time>
      </trkpt>
      <trkpt lat="45.92664" lon="6.85873">
        <ele>1255.0544</ele>
        <time>2014-09-02T14:17:02Z</time>
      </trkpt>
      <trkpt lat="45.92663" lon="6.85873">
        <ele>1255.0544</ele>
        <time>2014-09-02T14:17:17Z</time>
      </trkpt>
      <trkpt lat="45.92662" lon="6.85873">
        <ele>1255.0544</ele>
        <time>2014-09-02T14:17:22Z</time>
      </trkpt>
      <trkpt lat="45.92658" lon="6.85873">
        <ele>1253.3429</ele>
        <time>2014-09-02T14:17:27Z</time>
      </trkpt>
      <trkpt lat="45.92656" lon="6.85871">
        <ele>1253.3429</ele>
        <time>2014-09-02T14:17:32Z</time>
      </trkpt>
      <trkpt lat="45.92655" lon="6.8587">
        <ele>1253.3429</ele>
        <time>2014-09-02T14:17:37Z</time>
      </trkpt>
      <trkpt lat="45.92652" lon="6.8587">
        <ele>1253.3429</ele>
        <time>2014-09-02T14:17:42Z</time>
      </trkpt>
      <trkpt lat="45.92648" lon="6.8587">
        <ele>1251.8313</ele>
        <time>2014-09-02T14:17:47Z</time>
      </trkpt>
      <trkpt lat="45.92646" lon="6.8587">
        <ele>1251.8313</ele>
        <time>2014-09-02T14:17:52Z</time>
      </trkpt>
      <trkpt lat="45.92637" lon="6.85865">
        <ele>1250.1288</ele>
        <time>2014-09-02T14:17:57Z</time>
      </trkpt>
      <trkpt lat="45.92633" lon="6.85863">
        <ele>1250.1288</ele>
        <time>2014-09-02T14:18:02Z</time>
      </trkpt>
      <trkpt lat="45.9262" lon="6.85849">
        <ele>1248.4788</ele>
        <time>2014-09-02T14:18:07Z</time>
      </trkpt>
      <trkpt lat="45.92615" lon="6.85851">
        <ele>1248.4788</ele>
        <time>2014-09-02T14:18:12Z</time>
      </trkpt>
      <trkpt lat="45.92611" lon="6.8585">
        <ele>1246.8619</ele>
        <time>2014-09-02T14:18:17Z</time>
      </trkpt>
      <trkpt lat="45.92607" lon="6.85849">
        <ele>1246.8619</ele>
        <time>2014-09-02T14:18:22Z</time>
      </trkpt>
      <trkpt lat="45.92605" lon="6.85843">
        <ele>1246.8619</ele>
        <time>2014-09-02T14:18:27Z</time>
      </trkpt>
      <trkpt lat="45.92598" lon="6.85839">
        <ele>1245.174</ele>
        <time>2014-09-02T14:18:32Z</time>
      </trkpt>
      <trkpt lat="45.92595" lon="6.85838">
        <ele>1245.174</ele>
        <time>2014-09-02T14:18:37Z</time>
      </trkpt>
      <trkpt lat="45.92592" lon="6.85835">
        <ele>1245.174</ele>
        <time>2014-09-02T14:18:42Z</time>
      </trkpt>
      <trkpt lat="45.92589" lon="6.8583">
        <ele>1243.4912</ele>
        <time>2014-09-02T14:18:47Z</time>
      </trkpt>
      <trkpt lat="45.92583" lon="6.85821">
        <ele>1243.4912</ele>
        <time>2014-09-02T14:18:52Z</time>
      </trkpt>
      <trkpt lat="45.92584" lon="6.85817">
        <ele>1241.8556</ele>
        <time>2014-09-02T14:18:57Z</time>
      </trkpt>
      <trkpt lat="45.9258" lon="6.85813">
        <ele>1241.8556</ele>
        <time>2014-09-02T14:19:02Z</time>
      </trkpt>
      <trkpt lat="45.92578" lon="6.85811">
        <ele>1241.8556</ele>
        <time>2014-09-02T14:19:07Z</time>
      </trkpt>
      <trkpt lat="45.92573" lon="6.85804">
        <ele>1240.1907</ele>
        <time>2014-09-02T14:19:12Z</time>
      </trkpt>
      <trkpt lat="45.92566" lon="6.85793">
        <ele>1238.7139</ele>
        <time>2014-09-02T14:19:17Z</time>
      </trkpt>
      <trkpt lat="45.92566" lon="6.85792">
        <ele>1238.7139</ele>
        <time>2014-09-02T14:19:22Z</time>
      </trkpt>
      <trkpt lat="45.92565" lon="6.85792">
        <ele>1238.7139</ele>
        <time>2014-09-02T14:19:27Z</time>
      </trkpt>
      <trkpt lat="45.92565" lon="6.85788">
        <ele>1238.7139</ele>
        <time>2014-09-02T14:19:32Z</time>
      </trkpt>
      <trkpt lat="45.92565" lon="6.85789">
        <ele>1238.7139</ele>
        <time>2014-09-02T14:19:37Z</time>
      </trkpt>
      <trkpt lat="45.92565" lon="6.85789">
        <ele>1238.7139</ele>
        <time>2014-09-02T14:19:42Z</time>
      </trkpt>
      <trkpt lat="45.92565" lon="6.8579">
        <ele>1238.7139</ele>
        <time>2014-09-02T14:19:47Z</time>
      </trkpt>
      <trkpt lat="45.92565" lon="6.8579">
        <ele>1238.7139</ele>
        <time>2014-09-02T14:19:52Z</time>
      </trkpt>
      <trkpt lat="45.92566" lon="6.85793">
        <ele>1238.7139</ele>
        <time>2014-09-02T14:19:57Z</time>
      </trkpt>
      <trkpt lat="45.92566" lon="6.85797">
        <ele>1236.6033</ele>
        <time>2014-09-02T14:20:02Z</time>
      </trkpt>
      <trkpt lat="45.92567" lon="6.858">
        <ele>1236.6033</ele>
        <time>2014-09-02T14:20:07Z</time>
      </trkpt>
      <trkpt lat="45.9257" lon="6.85803">
        <ele>1236.6033</ele>
        <time>2014-09-02T14:20:12Z</time>
      </trkpt>
      <trkpt lat="45.9257" lon="6.85812">
        <ele>1234.4246</ele>
        <time>2014-09-02T14:20:17Z</time>
      </trkpt>
      <trkpt lat="45.92569" lon="6.85817">
        <ele>1234.4246</ele>
        <time>2014-09-02T14:20:22Z</time>
      </trkpt>
      <trkpt lat="45.92569" lon="6.85817">
        <ele>1234.4246</ele>
        <time>2014-09-02T14:20:27Z</time>
      </trkpt>
      <trkpt lat="45.92568" lon="6.85819">
        <ele>1234.4246</ele>
        <time>2014-09-02T14:20:37Z</time>
      </trkpt>
      <trkpt lat="45.92566" lon="6.85821">
        <ele>1234.4246</ele>
        <time>2014-09-02T14:20:42Z</time>
      </trkpt>
      <trkpt lat="45.92565" lon="6.85823">
        <ele>1231.9242</ele>
        <time>2014-09-02T14:20:47Z</time>
      </trkpt>
      <trkpt lat="45.92555" lon="6.85841">
        <ele>1229.6174</ele>
        <time>2014-09-02T14:20:52Z</time>
      </trkpt>
      <trkpt lat="45.92555" lon="6.85843">
        <ele>1229.6174</ele>
        <time>2014-09-02T14:20:57Z</time>
      </trkpt>
      <trkpt lat="45.92554" lon="6.85845">
        <ele>1229.6174</ele>
        <time>2014-09-02T14:21:02Z</time>
      </trkpt>
      <trkpt lat="45.92552" lon="6.85846">
        <ele>1229.6174</ele>
        <time>2014-09-02T14:21:07Z</time>
      </trkpt>
      <trkpt lat="45.92553" lon="6.85844">
        <ele>1229.6174</ele>
        <time>2014-09-02T14:21:12Z</time>
      </trkpt>
      <trkpt lat="45.92555" lon="6.85841">
        <ele>1227.0876</ele>
        <time>2014-09-02T14:21:17Z</time>
      </trkpt>
      <trkpt lat="45.92557" lon="6.85838">
        <ele>1227.0876</ele>
        <time>2014-09-02T14:21:22Z</time>
      </trkpt>
      <trkpt lat="45.92556" lon="6.85836">
        <ele>1227.0876</ele>
        <time>2014-09-02T14:21:27Z</time>
      </trkpt>
      <trkpt lat="45.92555" lon="6.85838">
        <ele>1227.0876</ele>
        <time>2014-09-02T14:21:32Z</time>
      </trkpt>
      <trkpt lat="45.92555" lon="6.85838">
        <ele>1227.0876</ele>
        <time>2014-09-02T14:21:37Z</time>
      </trkpt>
      <trkpt lat="45.92551" lon="6.85842">
        <ele>1224.5117</ele>
        <time>2014-09-02T14:21:42Z</time>
      </trkpt>
      <trkpt lat="45.9255" lon="6.85842">
        <ele>1224.5117</ele>
        <time>2014-09-02T14:21:47Z</time>
      </trkpt>
      <trkpt lat="45.9255" lon="6.85842">
        <ele>1224.5117</ele>
        <time>2014-09-02T14:21:52Z</time>
      </trkpt>
      <trkpt lat="45.92549" lon="6.85843">
        <ele>1224.5117</ele>
        <time>2014-09-02T14:21:57Z</time>
      </trkpt>
      <trkpt lat="45.92548" lon="6.85845">
        <ele>1224.5117</ele>
        <time>2014-09-02T14:22:02Z</time>
      </trkpt>
      <trkpt lat="45.92547" lon="6.85847">
        <ele>1224.5117</ele>
        <time>2014-09-02T14:22:07Z</time>
      </trkpt>
      <trkpt lat="45.92547" lon="6.85848">
        <ele>1224.5117</ele>
        <time>2014-09-02T14:22:12Z</time>
      </trkpt>
      <trkpt lat="45.92547" lon="6.85852">
        <ele>1221.7363</ele>
        <time>2014-09-02T14:22:17Z</time>
      </trkpt>
      <trkpt lat="45.92545" lon="6.85855">
        <ele>1221.7363</ele>
        <time>2014-09-02T14:22:22Z</time>
      </trkpt>
      <trkpt lat="45.92542" lon="6.85861">
        <ele>1221.7363</ele>
        <time>2014-09-02T14:22:27Z</time>
      </trkpt>
      <trkpt lat="45.92536" lon="6.85871">
        <ele>1218.721</ele>
        <time>2014-09-02T14:22:32Z</time>
      </trkpt>
      <trkpt lat="45.9253" lon="6.85883">
        <ele>1215.7317</ele>
        <time>2014-09-02T14:22:37Z</time>
      </trkpt>
      <trkpt lat="45.92531" lon="6.85885">
        <ele>1215.7317</ele>
        <time>2014-09-02T14:22:42Z</time>
      </trkpt>
      <trkpt lat="45.92533" lon="6.85891">
        <ele>1215.7317</ele>
        <time>2014-09-02T14:22:47Z</time>
      </trkpt>
      <trkpt lat="45.92532" lon="6.85895">
        <ele>1212.3948</ele>
        <time>2014-09-02T14:22:52Z</time>
      </trkpt>
      <trkpt lat="45.92536" lon="6.85898">
        <ele>1212.3948</ele>
        <time>2014-09-02T14:22:57Z</time>
      </trkpt>
      <trkpt lat="45.92539" lon="6.85905">
        <ele>1208.956</ele>
        <time>2014-09-02T14:23:02Z</time>
      </trkpt>
      <trkpt lat="45.92541" lon="6.85911">
        <ele>1208.956</ele>
        <time>2014-09-02T14:23:07Z</time>
      </trkpt>
      <trkpt lat="45.92545" lon="6.85915">
        <ele>1205.5138</ele>
        <time>2014-09-02T14:23:12Z</time>
      </trkpt>
      <trkpt lat="45.92548" lon="6.85921">
        <ele>1205.5138</ele>
        <time>2014-09-02T14:23:17Z</time>
      </trkpt>
      <trkpt lat="45.9255" lon="6.85923">
        <ele>1205.5138</ele>
        <time>2014-09-02T14:23:22Z</time>
      </trkpt>
      <trkpt lat="45.92551" lon="6.85925">
        <ele>1205.5138</ele>
        <time>2014-09-02T14:23:27Z</time>
      </trkpt>
      <trkpt lat="45.92555" lon="6.85928">
        <ele>1202.0294</ele>
        <time>2014-09-02T14:23:32Z</time>
      </trkpt>
      <trkpt lat="45.92558" lon="6.85932">
        <ele>1202.0294</ele>
        <time>2014-09-02T14:23:37Z</time>
      </trkpt>
      <trkpt lat="45.9256" lon="6.85934">
        <ele>1202.0294</ele>
        <time>2014-09-02T14:23:42Z</time>
      </trkpt>
      <trkpt lat="45.92561" lon="6.85936">
        <ele>1202.0294</ele>
        <time>2014-09-02T14:23:47Z</time>
      </trkpt>
      <trkpt lat="45.92563" lon="6.85938">
        <ele>1198.395</ele>
        <time>2014-09-02T14:23:52Z</time>
      </trkpt>
      <trkpt lat="45.92567" lon="6.8594">
        <ele>1198.395</ele>
        <time>2014-09-02T14:23:57Z</time>
      </trkpt>
      <trkpt lat="45.92572" lon="6.85946">
        <ele>1194.7703</ele>
        <time>2014-09-02T14:24:02Z</time>
      </trkpt>
      <trkpt lat="45.92576" lon="6.85952">
        <ele>1194.7703</ele>
        <time>2014-09-02T14:24:07Z</time>
      </trkpt>
      <trkpt lat="45.92579" lon="6.85956">
        <ele>1191.3179</ele>
        <time>2014-09-02T14:24:12Z</time>
      </trkpt>
      <trkpt lat="45.92581" lon="6.85963">
        <ele>1191.3179</ele>
        <time>2014-09-02T14:24:17Z</time>
      </trkpt>
      <trkpt lat="45.92583" lon="6.85967">
        <ele>1188.0868</ele>
        <time>2014-09-02T14:24:22Z</time>
      </trkpt>
      <trkpt lat="45.92588" lon="6.85973">
        <ele>1188.0868</ele>
        <time>2014-09-02T14:24:27Z</time>
      </trkpt>
      <trkpt lat="45.92591" lon="6.85977">
        <ele>1184.9633</ele>
        <time>2014-09-02T14:24:32Z</time>
      </trkpt>
      <trkpt lat="45.92592" lon="6.85982">
        <ele>1184.9633</ele>
        <time>2014-09-02T14:24:37Z</time>
      </trkpt>
      <trkpt lat="45.92598" lon="6.85992">
        <ele>1181.8557</ele>
        <time>2014-09-02T14:24:42Z</time>
      </trkpt>
      <trkpt lat="45.926" lon="6.85995">
        <ele>1181.8557</ele>
        <time>2014-09-02T14:24:47Z</time>
      </trkpt>
      <trkpt lat="45.92602" lon="6.85999">
        <ele>1181.8557</ele>
        <time>2014-09-02T14:24:52Z</time>
      </trkpt>
      <trkpt lat="45.92607" lon="6.86005">
        <ele>1178.449</ele>
        <time>2014-09-02T14:24:57Z</time>
      </trkpt>
      <trkpt lat="45.92608" lon="6.8601">
        <ele>1178.449</ele>
        <time>2014-09-02T14:25:02Z</time>
      </trkpt>
      <trkpt lat="45.92608" lon="6.8601">
        <ele>1178.449</ele>
        <time>2014-09-02T14:25:07Z</time>
      </trkpt>
      <trkpt lat="45.92604" lon="6.86012">
        <ele>1178.449</ele>
        <time>2014-09-02T14:25:12Z</time>
      </trkpt>
      <trkpt lat="45.92601" lon="6.86012">
        <ele>1175.4747</ele>
        <time>2014-09-02T14:25:17Z</time>
      </trkpt>
      <trkpt lat="45.92601" lon="6.86012">
        <ele>1175.4747</ele>
        <time>2014-09-02T14:25:22Z</time>
      </trkpt>
      <trkpt lat="45.92601" lon="6.86012">
        <ele>1175.4747</ele>
        <time>2014-09-02T14:25:27Z</time>
      </trkpt>
      <trkpt lat="45.926" lon="6.86012">
        <ele>1175.4747</ele>
        <time>2014-09-02T14:25:32Z</time>
      </trkpt>
      <trkpt lat="45.92599" lon="6.86012">
        <ele>1175.4747</ele>
        <time>2014-09-02T14:25:37Z</time>
      </trkpt>
      <trkpt lat="45.92598" lon="6.86012">
        <ele>1175.4747</ele>
        <time>2014-09-02T14:25:42Z</time>
      </trkpt>
      <trkpt lat="45.92598" lon="6.86011">
        <ele>1175.4747</ele>
        <time>2014-09-02T14:25:47Z</time>
      </trkpt>
      <trkpt lat="45.92598" lon="6.86011">
        <ele>1175.4747</ele>
        <time>2014-09-02T14:25:52Z</time>
      </trkpt>
      <trkpt lat="45.92597" lon="6.86007">
        <ele>1175.4747</ele>
        <time>2014-09-02T14:25:57Z</time>
      </trkpt>
      <trkpt lat="45.92594" lon="6.86007">
        <ele>1173.1771</ele>
        <time>2014-09-02T14:26:02Z</time>
      </trkpt>
      <trkpt lat="45.92585" lon="6.86007">
        <ele>1173.1771</ele>
        <time>2014-09-02T14:26:07Z</time>
      </trkpt>
      <trkpt lat="45.92582" lon="6.86003">
        <ele>1170.8152</ele>
        <time>2014-09-02T14:26:12Z</time>
      </trkpt>
      <trkpt lat="45.92579" lon="6.86005">
        <ele>1170.8152</ele>
        <time>2014-09-02T14:26:17Z</time>
      </trkpt>
      <trkpt lat="45.92578" lon="6.86007">
        <ele>1170.8152</ele>
        <time>2014-09-02T14:26:22Z</time>
      </trkpt>
      <trkpt lat="45.92578" lon="6.8601">
        <ele>1170.8152</ele>
        <time>2014-09-02T14:26:27Z</time>
      </trkpt>
      <trkpt lat="45.92578" lon="6.86011">
        <ele>1170.8152</ele>
        <time>2014-09-02T14:26:32Z</time>
      </trkpt>
      <trkpt lat="45.92578" lon="6.86016">
        <ele>1167.7167</ele>
        <time>2014-09-02T14:26:37Z</time>
      </trkpt>
      <trkpt lat="45.9258" lon="6.86025">
        <ele>1167.7167</ele>
        <time>2014-09-02T14:26:42Z</time>
      </trkpt>
      <trkpt lat="45.9258" lon="6.86031">
        <ele>1164.6296</ele>
        <time>2014-09-02T14:26:47Z</time>
      </trkpt>
      <trkpt lat="45.92582" lon="6.86038">
        <ele>1164.6296</ele>
        <time>2014-09-02T14:26:52Z</time>
      </trkpt>
      <trkpt lat="45.92583" lon="6.86043">
        <ele>1161.6133</ele>
        <time>2014-09-02T14:26:57Z</time>
      </trkpt>
      <trkpt lat="45.92582" lon="6.86047">
        <ele>1161.6133</ele>
        <time>2014-09-02T14:27:02Z</time>
      </trkpt>
      <trkpt lat="45.92583" lon="6.86058">
        <ele>1158.8228</ele>
        <time>2014-09-02T14:27:07Z</time>
      </trkpt>
      <trkpt lat="45.92583" lon="6.86069">
        <ele>1158.8228</ele>
        <time>2014-09-02T14:27:12Z</time>
      </trkpt>
      <trkpt lat="45.92585" lon="6.86078">
        <ele>1156.2716</ele>
        <time>2014-09-02T14:27:17Z</time>
      </trkpt>
      <trkpt lat="45.92584" lon="6.86082">
        <ele>1156.2716</ele>
        <time>2014-09-02T14:27:22Z</time>
      </trkpt>
      <trkpt lat="45.92583" lon="6.86096">
        <ele>1153.914</ele>
        <time>2014-09-02T14:27:27Z</time>
      </trkpt>
      <trkpt lat="45.92585" lon="6.86108">
        <ele>1153.914</ele>
        <time>2014-09-02T14:27:32Z</time>
      </trkpt>
      <trkpt lat="45.92585" lon="6.86114">
        <ele>1151.8074</ele>
        <time>2014-09-02T14:27:37Z</time>
      </trkpt>
      <trkpt lat="45.92584" lon="6.86124">
        <ele>1151.8074</ele>
        <time>2014-09-02T14:27:42Z</time>
      </trkpt>
      <trkpt lat="45.92582" lon="6.86132">
        <ele>1149.875</ele>
        <time>2014-09-02T14:27:47Z</time>
      </trkpt>
      <trkpt lat="45.92579" lon="6.86133">
        <ele>1149.875</ele>
        <time>2014-09-02T14:27:52Z</time>
      </trkpt>
      <trkpt lat="45.92576" lon="6.8613">
        <ele>1149.875</ele>
        <time>2014-09-02T14:27:57Z</time>
      </trkpt>
      <trkpt lat="45.92576" lon="6.8613">
        <ele>1149.875</ele>
        <time>2014-09-02T14:28:02Z</time>
      </trkpt>
      <trkpt lat="45.92576" lon="6.86131">
        <ele>1149.875</ele>
        <time>2014-09-02T14:28:12Z</time>
      </trkpt>
      <trkpt lat="45.92579" lon="6.86131">
        <ele>1147.382</ele>
        <time>2014-09-02T14:28:17Z</time>
      </trkpt>
      <trkpt lat="45.92579" lon="6.86131">
        <ele>1147.382</ele>
        <time>2014-09-02T14:28:22Z</time>
      </trkpt>
      <trkpt lat="45.92583" lon="6.8613">
        <ele>1147.382</ele>
        <time>2014-09-02T14:28:37Z</time>
      </trkpt>
      <trkpt lat="45.92585" lon="6.86128">
        <ele>1147.382</ele>
        <time>2014-09-02T14:28:42Z</time>
      </trkpt>
      <trkpt lat="45.92585" lon="6.86128">
        <ele>1147.382</ele>
        <time>2014-09-02T14:28:47Z</time>
      </trkpt>
      <trkpt lat="45.92585" lon="6.86128">
        <ele>1147.382</ele>
        <time>2014-09-02T14:28:57Z</time>
      </trkpt>
      <trkpt lat="45.92585" lon="6.86128">
        <ele>1147.382</ele>
        <time>2014-09-02T14:29:02Z</time>
      </trkpt>
      <trkpt lat="45.92581" lon="6.86128">
        <ele>1145.1333</ele>
        <time>2014-09-02T14:29:07Z</time>
      </trkpt>
      <trkpt lat="45.92579" lon="6.86129">
        <ele>1145.1333</ele>
        <time>2014-09-02T14:29:12Z</time>
      </trkpt>
      <trkpt lat="45.92579" lon="6.86129">
        <ele>1145.1333</ele>
        <time>2014-09-02T14:29:17Z</time>
      </trkpt>
      <trkpt lat="45.92575" lon="6.86127">
        <ele>1145.1333</ele>
        <time>2014-09-02T14:29:22Z</time>
      </trkpt>
      <trkpt lat="45.92576" lon="6.86126">
        <ele>1145.1333</ele>
        <time>2014-09-02T14:29:27Z</time>
      </trkpt>
      <trkpt lat="45.92576" lon="6.86126">
        <ele>1145.1333</ele>
        <time>2014-09-02T14:29:32Z</time>
      </trkpt>
      <trkpt lat="45.92576" lon="6.86125">
        <ele>1145.1333</ele>
        <time>2014-09-02T14:29:47Z</time>
      </trkpt>
      <trkpt lat="45.92576" lon="6.86122">
        <ele>1142.3611</ele>
        <time>2014-09-02T14:29:52Z</time>
      </trkpt>
      <trkpt lat="45.92574" lon="6.86121">
        <ele>1142.3611</ele>
        <time>2014-09-02T14:29:57Z</time>
      </trkpt>
      <trkpt lat="45.92573" lon="6.86121">
        <ele>1142.3611</ele>
        <time>2014-09-02T14:30:02Z</time>
      </trkpt>
      <trkpt lat="45.92572" lon="6.86119">
        <ele>1142.3611</ele>
        <time>2014-09-02T14:30:07Z</time>
      </trkpt>
      <trkpt lat="45.92569" lon="6.86118">
        <ele>1142.3611</ele>
        <time>2014-09-02T14:30:12Z</time>
      </trkpt>
      <trkpt lat="45.92568" lon="6.86118">
        <ele>1139.9259</ele>
        <time>2014-09-02T14:30:17Z</time>
      </trkpt>
      <trkpt lat="45.92563" lon="6.8612">
        <ele>1139.9259</ele>
        <time>2014-09-02T14:30:22Z</time>
      </trkpt>
      <trkpt lat="45.92557" lon="6.86122">
        <ele>1137.6586</ele>
        <time>2014-09-02T14:30:27Z</time>
      </trkpt>
      <trkpt lat="45.92545" lon="6.86126">
        <ele>1135.5317</ele>
        <time>2014-09-02T14:30:32Z</time>
      </trkpt>
      <trkpt lat="45.92536" lon="6.8613">
        <ele>1133.5049</ele>
        <time>2014-09-02T14:30:37Z</time>
      </trkpt>
      <trkpt lat="45.9253" lon="6.86134">
        <ele>1133.5049</ele>
        <time>2014-09-02T14:30:42Z</time>
      </trkpt>
      <trkpt lat="45.92523" lon="6.86139">
        <ele>1131.555</ele>
        <time>2014-09-02T14:30:47Z</time>
      </trkpt>
      <trkpt lat="45.92518" lon="6.86141">
        <ele>1131.555</ele>
        <time>2014-09-02T14:30:52Z</time>
      </trkpt>
      <trkpt lat="45.92511" lon="6.86147">
        <ele>1129.7324</ele>
        <time>2014-09-02T14:30:57Z</time>
      </trkpt>
      <trkpt lat="45.92505" lon="6.86151">
        <ele>1129.7324</ele>
        <time>2014-09-02T14:31:02Z</time>
      </trkpt>
      <trkpt lat="45.92499" lon="6.86153">
        <ele>1128.1406</ele>
        <time>2014-09-02T14:31:07Z</time>
      </trkpt>
      <trkpt lat="45.92493" lon="6.86156">
        <ele>1128.1406</ele>
        <time>2014-09-02T14:31:12Z</time>
      </trkpt>
      <trkpt lat="45.92489" lon="6.8616">
        <ele>1126.6738</ele>
        <time>2014-09-02T14:31:17Z</time>
      </trkpt>
      <trkpt lat="45.92486" lon="6.86161">
        <ele>1126.6738</ele>
        <time>2014-09-02T14:31:22Z</time>
      </trkpt>
      <trkpt lat="45.9248" lon="6.86165">
        <ele>1125.3628</ele>
        <time>2014-09-02T14:31:27Z</time>
      </trkpt>
      <trkpt lat="45.92474" lon="6.86167">
        <ele>1125.3628</ele>
        <time>2014-09-02T14:31:32Z</time>
      </trkpt>
      <trkpt lat="45.9247" lon="6.8617">
        <ele>1123.9188</ele>
        <time>2014-09-02T14:31:37Z</time>
      </trkpt>
      <trkpt lat="45.92467" lon="6.86171">
        <ele>1123.9188</ele>
        <time>2014-09-02T14:31:42Z</time>
      </trkpt>
      <trkpt lat="45.92463" lon="6.86172">
        <ele>1123.9188</ele>
        <time>2014-09-02T14:31:47Z</time>
      </trkpt>
      <trkpt lat="45.92458" lon="6.86173">
        <ele>1122.3054</ele>
        <time>2014-09-02T14:31:52Z</time>
      </trkpt>
      <trkpt lat="45.92451" lon="6.86176">
        <ele>1122.3054</ele>
        <time>2014-09-02T14:31:57Z</time>
      </trkpt>
      <trkpt lat="45.92444" lon="6.86182">
        <ele>1120.5754</ele>
        <time>2014-09-02T14:32:02Z</time>
      </trkpt>
      <trkpt lat="45.92442" lon="6.86186">
        <ele>1120.5754</ele>
        <time>2014-09-02T14:32:07Z</time>
      </trkpt>
      <trkpt lat="45.92438" lon="6.86194">
        <ele>1118.7352</ele>
        <time>2014-09-02T14:32:12Z</time>
      </trkpt>
      <trkpt lat="45.92436" lon="6.86204">
        <ele>1118.7352</ele>
        <time>2014-09-02T14:32:17Z</time>
      </trkpt>
      <trkpt lat="45.92435" lon="6.86212">
        <ele>1117.0361</ele>
        <time>2014-09-02T14:32:22Z</time>
      </trkpt>
      <trkpt lat="45.92435" lon="6.86218">
        <ele>1117.0361</ele>
        <time>2014-09-02T14:32:27Z</time>
      </trkpt>
      <trkpt lat="45.92433" lon="6.86224">
        <ele>1117.0361</ele>
        <time>2014-09-02T14:32:32Z</time>
      </trkpt>
      <trkpt lat="45.92432" lon="6.86233">
        <ele>1115.2925</ele>
        <time>2014-09-02T14:32:37Z</time>
      </trkpt>
      <trkpt lat="45.92429" lon="6.86239">
        <ele>1115.2925</ele>
        <time>2014-09-02T14:32:42Z</time>
      </trkpt>
      <trkpt lat="45.92427" lon="6.86245">
        <ele>1113.6497</ele>
        <time>2014-09-02T14:32:47Z</time>
      </trkpt>
      <trkpt lat="45.92425" lon="6.86252">
        <ele>1113.6497</ele>
        <time>2014-09-02T14:32:52Z</time>
      </trkpt>
      <trkpt lat="45.92422" lon="6.86257">
        <ele>1112.069</ele>
        <time>2014-09-02T14:32:57Z</time>
      </trkpt>
      <trkpt lat="45.92419" lon="6.86261">
        <ele>1112.069</ele>
        <time>2014-09-02T14:33:02Z</time>
      </trkpt>
      <trkpt lat="45.92416" lon="6.86266">
        <ele>1112.069</ele>
        <time>2014-09-02T14:33:07Z</time>
      </trkpt>
      <trkpt lat="45.92413" lon="6.86271">
        <ele>1110.457</ele>
        <time>2014-09-02T14:33:12Z</time>
      </trkpt>
      <trkpt lat="45.92411" lon="6.86275">
        <ele>1110.457</ele>
        <time>2014-09-02T14:33:17Z</time>
      </trkpt>
      <trkpt lat="45.92406" lon="6.8628">
        <ele>1108.9146</ele>
        <time>2014-09-02T14:33:22Z</time>
      </trkpt>
      <trkpt lat="45.92402" lon="6.86286">
        <ele>1108.9146</ele>
        <time>2014-09-02T14:33:27Z</time>
      </trkpt>
      <trkpt lat="45.92398" lon="6.86292">
        <ele>1107.4054</ele>
        <time>2014-09-02T14:33:32Z</time>
      </trkpt>
      <trkpt lat="45.92393" lon="6.86296">
        <ele>1107.4054</ele>
        <time>2014-09-02T14:33:37Z</time>
      </trkpt>
      <trkpt lat="45.92389" lon="6.86302">
        <ele>1105.8381</ele>
        <time>2014-09-02T14:33:42Z</time>
      </trkpt>
      <trkpt lat="45.92387" lon="6.86302">
        <ele>1105.8381</ele>
        <time>2014-09-02T14:33:47Z</time>
      </trkpt>
      <trkpt lat="45.92383" lon="6.86306">
        <ele>1105.8381</ele>
        <time>2014-09-02T14:33:52Z</time>
      </trkpt>
      <trkpt lat="45.92382" lon="6.86308">
        <ele>1105.8381</ele>
        <time>2014-09-02T14:33:57Z</time>
      </trkpt>
      <trkpt lat="45.92381" lon="6.86315">
        <ele>1103.595</ele>
        <time>2014-09-02T14:34:02Z</time>
      </trkpt>
      <trkpt lat="45.9238" lon="6.86319">
        <ele>1103.595</ele>
        <time>2014-09-02T14:34:07Z</time>
      </trkpt>
      <trkpt lat="45.92379" lon="6.86323">
        <ele>1103.595</ele>
        <time>2014-09-02T14:34:12Z</time>
      </trkpt>
      <trkpt lat="45.92379" lon="6.86324">
        <ele>1103.595</ele>
        <time>2014-09-02T14:34:17Z</time>
      </trkpt>
      <trkpt lat="45.92379" lon="6.86324">
        <ele>1103.595</ele>
        <time>2014-09-02T14:34:22Z</time>
      </trkpt>
      <trkpt lat="45.92375" lon="6.86327">
        <ele>1101.0424</ele>
        <time>2014-09-02T14:34:27Z</time>
      </trkpt>
      <trkpt lat="45.92375" lon="6.86328">
        <ele>1101.0424</ele>
        <time>2014-09-02T14:34:32Z</time>
      </trkpt>
      <trkpt lat="45.92373" lon="6.86327">
        <ele>1101.0424</ele>
        <time>2014-09-02T14:34:37Z</time>
      </trkpt>
      <trkpt lat="45.92373" lon="6.86324">
        <ele>1101.0424</ele>
        <time>2014-09-02T14:34:42Z</time>
      </trkpt>
      <trkpt lat="45.92373" lon="6.86324">
        <ele>1101.0424</ele>
        <time>2014-09-02T14:34:47Z</time>
      </trkpt>
      <trkpt lat="45.92373" lon="6.86324">
        <ele>1101.0424</ele>
        <time>2014-09-02T14:35:07Z</time>
      </trkpt>
      <trkpt lat="45.92372" lon="6.86325">
        <ele>1101.0424</ele>
        <time>2014-09-02T14:35:12Z</time>
      </trkpt>
      <trkpt lat="45.92372" lon="6.86325">
        <ele>1101.0424</ele>
        <time>2014-09-02T14:35:17Z</time>
      </trkpt>
      <trkpt lat="45.92372" lon="6.86325">
        <ele>1101.0424</ele>
        <time>2014-09-02T14:35:27Z</time>
      </trkpt>
      <trkpt lat="45.9237" lon="6.8633">
        <ele>1100.1562</ele>
        <time>2014-09-02T14:35:32Z</time>
      </trkpt>
      <trkpt lat="45.9237" lon="6.86331">
        <ele>1099.2701</ele>
        <time>2014-09-02T14:35:37Z</time>
      </trkpt>
      <trkpt lat="45.92369" lon="6.86331">
        <ele>1099.2701</ele>
        <time>2014-09-02T14:35:42Z</time>
      </trkpt>
      <trkpt lat="45.92369" lon="6.86331">
        <ele>1099.2701</ele>
        <time>2014-09-02T14:35:42Z</time>
      </trkpt>
    </trkseg>
  </trk>
</gpx>